<?xml version="1.0" encoding="UTF-8" standalone="no" ?>
<gpx xmlns="http://www.topografix.com/GPX/1/1" xmlns:xsi="http://www.w3.org/2001/XMLSchema-instance" xsi:schemaLocation="http://www.topografix.com/GPX/1/1 http://www.topografix.com/GPX/1/1/gpx.xsd" version="1.1" creator="VisuGPX - https://www.visugpx.com">
  <metadata>
    <name>Canal de Bourgogne</name>
    <desc><![CDATA[Très belle randonnée le long du canal de bourgogne près de Chateauneuf en Côte d\'Or]]></desc>
  </metadata>
  <trk>
    <name><![CDATA[Canalde Bourgogne]]></name>
    <desc><![CDATA[]]></desc>
    <trkseg>
      <trkpt lat="47.2198" lon="4.61555">
        <ele>418</ele>
        <time>2012-03-25T10:15:37.000Z</time>
      </trkpt>
      <trkpt lat="47.2198" lon="4.61555">
        <ele>418</ele>
        <time>2012-03-25T10:15:37.000Z</time>
      </trkpt>
      <trkpt lat="47.2198" lon="4.61555">
        <ele>418</ele>
        <time>2012-03-25T10:15:52.000Z</time>
      </trkpt>
      <trkpt lat="47.21972" lon="4.61558">
        <ele>413</ele>
        <time>2012-03-25T10:15:53.000Z</time>
      </trkpt>
      <trkpt lat="47.21976" lon="4.61562">
        <ele>413</ele>
        <time>2012-03-25T10:16:04.000Z</time>
      </trkpt>
      <trkpt lat="47.2198" lon="4.61566">
        <ele>413</ele>
        <time>2012-03-25T10:16:10.000Z</time>
      </trkpt>
      <trkpt lat="47.21984" lon="4.61569">
        <ele>413</ele>
        <time>2012-03-25T10:16:18.000Z</time>
      </trkpt>
      <trkpt lat="47.21988" lon="4.61573">
        <ele>413</ele>
        <time>2012-03-25T10:16:28.000Z</time>
      </trkpt>
      <trkpt lat="47.21993" lon="4.61574">
        <ele>413</ele>
        <time>2012-03-25T10:16:35.000Z</time>
      </trkpt>
      <trkpt lat="47.21998" lon="4.61573">
        <ele>413</ele>
        <time>2012-03-25T10:16:41.000Z</time>
      </trkpt>
      <trkpt lat="47.22002" lon="4.61569">
        <ele>413</ele>
        <time>2012-03-25T10:16:46.000Z</time>
      </trkpt>
      <trkpt lat="47.22006" lon="4.61565">
        <ele>413</ele>
        <time>2012-03-25T10:16:51.000Z</time>
      </trkpt>
      <trkpt lat="47.22006" lon="4.61557">
        <ele>412</ele>
        <time>2012-03-25T10:17:01.000Z</time>
      </trkpt>
      <trkpt lat="47.22006" lon="4.61549">
        <ele>412</ele>
        <time>2012-03-25T10:17:07.000Z</time>
      </trkpt>
      <trkpt lat="47.22007" lon="4.61542">
        <ele>412</ele>
        <time>2012-03-25T10:17:12.000Z</time>
      </trkpt>
      <trkpt lat="47.22008" lon="4.61535">
        <ele>412</ele>
        <time>2012-03-25T10:17:17.000Z</time>
      </trkpt>
      <trkpt lat="47.22008" lon="4.61527">
        <ele>411</ele>
        <time>2012-03-25T10:17:22.000Z</time>
      </trkpt>
      <trkpt lat="47.22009" lon="4.6152">
        <ele>411</ele>
        <time>2012-03-25T10:17:27.000Z</time>
      </trkpt>
      <trkpt lat="47.2201" lon="4.61512">
        <ele>411</ele>
        <time>2012-03-25T10:17:32.000Z</time>
      </trkpt>
      <trkpt lat="47.22011" lon="4.61505">
        <ele>411</ele>
        <time>2012-03-25T10:17:37.000Z</time>
      </trkpt>
      <trkpt lat="47.22012" lon="4.61498">
        <ele>411</ele>
        <time>2012-03-25T10:17:42.000Z</time>
      </trkpt>
      <trkpt lat="47.22012" lon="4.61491">
        <ele>411</ele>
        <time>2012-03-25T10:17:47.000Z</time>
      </trkpt>
      <trkpt lat="47.22014" lon="4.61484">
        <ele>411</ele>
        <time>2012-03-25T10:17:52.000Z</time>
      </trkpt>
      <trkpt lat="47.22015" lon="4.61477">
        <ele>411</ele>
        <time>2012-03-25T10:17:58.000Z</time>
      </trkpt>
      <trkpt lat="47.22016" lon="4.6147">
        <ele>411</ele>
        <time>2012-03-25T10:18:03.000Z</time>
      </trkpt>
      <trkpt lat="47.22017" lon="4.61463">
        <ele>411</ele>
        <time>2012-03-25T10:18:09.000Z</time>
      </trkpt>
      <trkpt lat="47.22016" lon="4.61456">
        <ele>410</ele>
        <time>2012-03-25T10:18:15.000Z</time>
      </trkpt>
      <trkpt lat="47.22017" lon="4.61448">
        <ele>410</ele>
        <time>2012-03-25T10:18:29.000Z</time>
      </trkpt>
      <trkpt lat="47.22017" lon="4.61441">
        <ele>410</ele>
        <time>2012-03-25T10:18:35.000Z</time>
      </trkpt>
      <trkpt lat="47.22017" lon="4.61434">
        <ele>410</ele>
        <time>2012-03-25T10:18:40.000Z</time>
      </trkpt>
      <trkpt lat="47.22017" lon="4.61427">
        <ele>410</ele>
        <time>2012-03-25T10:18:45.000Z</time>
      </trkpt>
      <trkpt lat="47.22017" lon="4.6142">
        <ele>410</ele>
        <time>2012-03-25T10:18:50.000Z</time>
      </trkpt>
      <trkpt lat="47.22018" lon="4.61414">
        <ele>410</ele>
        <time>2012-03-25T10:18:55.000Z</time>
      </trkpt>
      <trkpt lat="47.22019" lon="4.61407">
        <ele>410</ele>
        <time>2012-03-25T10:19:00.000Z</time>
      </trkpt>
      <trkpt lat="47.2202" lon="4.614">
        <ele>410</ele>
        <time>2012-03-25T10:19:05.000Z</time>
      </trkpt>
      <trkpt lat="47.22021" lon="4.61393">
        <ele>410</ele>
        <time>2012-03-25T10:19:10.000Z</time>
      </trkpt>
      <trkpt lat="47.22021" lon="4.61386">
        <ele>410</ele>
        <time>2012-03-25T10:19:15.000Z</time>
      </trkpt>
      <trkpt lat="47.22021" lon="4.61379">
        <ele>410</ele>
        <time>2012-03-25T10:19:20.000Z</time>
      </trkpt>
      <trkpt lat="47.22022" lon="4.61372">
        <ele>410</ele>
        <time>2012-03-25T10:19:25.000Z</time>
      </trkpt>
      <trkpt lat="47.22022" lon="4.61365">
        <ele>410</ele>
        <time>2012-03-25T10:19:30.000Z</time>
      </trkpt>
      <trkpt lat="47.22022" lon="4.61358">
        <ele>410</ele>
        <time>2012-03-25T10:19:35.000Z</time>
      </trkpt>
      <trkpt lat="47.22023" lon="4.61351">
        <ele>410</ele>
        <time>2012-03-25T10:19:40.000Z</time>
      </trkpt>
      <trkpt lat="47.22024" lon="4.61343">
        <ele>410</ele>
        <time>2012-03-25T10:19:45.000Z</time>
      </trkpt>
      <trkpt lat="47.22024" lon="4.61336">
        <ele>410</ele>
        <time>2012-03-25T10:19:49.000Z</time>
      </trkpt>
      <trkpt lat="47.22025" lon="4.61329">
        <ele>410</ele>
        <time>2012-03-25T10:19:53.000Z</time>
      </trkpt>
      <trkpt lat="47.22026" lon="4.61323">
        <ele>410</ele>
        <time>2012-03-25T10:19:57.000Z</time>
      </trkpt>
      <trkpt lat="47.22027" lon="4.61316">
        <ele>410</ele>
        <time>2012-03-25T10:20:01.000Z</time>
      </trkpt>
      <trkpt lat="47.22028" lon="4.6131">
        <ele>410</ele>
        <time>2012-03-25T10:20:05.000Z</time>
      </trkpt>
      <trkpt lat="47.22029" lon="4.61303">
        <ele>410</ele>
        <time>2012-03-25T10:20:10.000Z</time>
      </trkpt>
      <trkpt lat="47.2203" lon="4.61296">
        <ele>410</ele>
        <time>2012-03-25T10:20:15.000Z</time>
      </trkpt>
      <trkpt lat="47.2203" lon="4.61288">
        <ele>410</ele>
        <time>2012-03-25T10:20:21.000Z</time>
      </trkpt>
      <trkpt lat="47.22027" lon="4.61294">
        <ele>410</ele>
        <time>2012-03-25T10:20:39.000Z</time>
      </trkpt>
      <trkpt lat="47.22025" lon="4.613">
        <ele>410</ele>
        <time>2012-03-25T10:20:43.000Z</time>
      </trkpt>
      <trkpt lat="47.22023" lon="4.61307">
        <ele>410</ele>
        <time>2012-03-25T10:20:48.000Z</time>
      </trkpt>
      <trkpt lat="47.2202" lon="4.61312">
        <ele>410</ele>
        <time>2012-03-25T10:20:57.000Z</time>
      </trkpt>
      <trkpt lat="47.22015" lon="4.61309">
        <ele>410</ele>
        <time>2012-03-25T10:21:08.000Z</time>
      </trkpt>
      <trkpt lat="47.22018" lon="4.61305">
        <ele>411</ele>
        <time>2012-03-25T10:21:39.000Z</time>
      </trkpt>
      <trkpt lat="47.22023" lon="4.61305">
        <ele>411</ele>
        <time>2012-03-25T10:21:57.000Z</time>
      </trkpt>
      <trkpt lat="47.22024" lon="4.61298">
        <ele>411</ele>
        <time>2012-03-25T10:23:10.000Z</time>
      </trkpt>
      <trkpt lat="47.22025" lon="4.6129">
        <ele>411</ele>
        <time>2012-03-25T10:23:18.000Z</time>
      </trkpt>
      <trkpt lat="47.2203" lon="4.6129">
        <ele>410</ele>
        <time>2012-03-25T10:23:35.000Z</time>
      </trkpt>
      <trkpt lat="47.22033" lon="4.61285">
        <ele>410</ele>
        <time>2012-03-25T10:24:29.000Z</time>
      </trkpt>
      <trkpt lat="47.22036" lon="4.61279">
        <ele>410</ele>
        <time>2012-03-25T10:24:37.000Z</time>
      </trkpt>
      <trkpt lat="47.22038" lon="4.61272">
        <ele>410</ele>
        <time>2012-03-25T10:24:42.000Z</time>
      </trkpt>
      <trkpt lat="47.2204" lon="4.61264">
        <ele>410</ele>
        <time>2012-03-25T10:24:47.000Z</time>
      </trkpt>
      <trkpt lat="47.22041" lon="4.61257">
        <ele>410</ele>
        <time>2012-03-25T10:24:51.000Z</time>
      </trkpt>
      <trkpt lat="47.22042" lon="4.6125">
        <ele>410</ele>
        <time>2012-03-25T10:24:55.000Z</time>
      </trkpt>
      <trkpt lat="47.22043" lon="4.61242">
        <ele>410</ele>
        <time>2012-03-25T10:24:59.000Z</time>
      </trkpt>
      <trkpt lat="47.22044" lon="4.61235">
        <ele>410</ele>
        <time>2012-03-25T10:25:03.000Z</time>
      </trkpt>
      <trkpt lat="47.22045" lon="4.61229">
        <ele>410</ele>
        <time>2012-03-25T10:25:06.000Z</time>
      </trkpt>
      <trkpt lat="47.22045" lon="4.61222">
        <ele>410</ele>
        <time>2012-03-25T10:25:09.000Z</time>
      </trkpt>
      <trkpt lat="47.22046" lon="4.61215">
        <ele>410</ele>
        <time>2012-03-25T10:25:12.000Z</time>
      </trkpt>
      <trkpt lat="47.22047" lon="4.61207">
        <ele>410</ele>
        <time>2012-03-25T10:25:15.000Z</time>
      </trkpt>
      <trkpt lat="47.22047" lon="4.612">
        <ele>410</ele>
        <time>2012-03-25T10:25:18.000Z</time>
      </trkpt>
      <trkpt lat="47.22048" lon="4.61193">
        <ele>410</ele>
        <time>2012-03-25T10:25:21.000Z</time>
      </trkpt>
      <trkpt lat="47.22049" lon="4.61186">
        <ele>410</ele>
        <time>2012-03-25T10:25:24.000Z</time>
      </trkpt>
      <trkpt lat="47.22049" lon="4.61179">
        <ele>410</ele>
        <time>2012-03-25T10:25:27.000Z</time>
      </trkpt>
      <trkpt lat="47.2205" lon="4.61172">
        <ele>410</ele>
        <time>2012-03-25T10:25:30.000Z</time>
      </trkpt>
      <trkpt lat="47.2205" lon="4.61165">
        <ele>410</ele>
        <time>2012-03-25T10:25:33.000Z</time>
      </trkpt>
      <trkpt lat="47.22051" lon="4.61156">
        <ele>410</ele>
        <time>2012-03-25T10:25:36.000Z</time>
      </trkpt>
      <trkpt lat="47.22052" lon="4.61147">
        <ele>410</ele>
        <time>2012-03-25T10:25:39.000Z</time>
      </trkpt>
      <trkpt lat="47.22052" lon="4.61137">
        <ele>410</ele>
        <time>2012-03-25T10:25:42.000Z</time>
      </trkpt>
      <trkpt lat="47.22052" lon="4.6113">
        <ele>410</ele>
        <time>2012-03-25T10:25:44.000Z</time>
      </trkpt>
      <trkpt lat="47.22053" lon="4.61123">
        <ele>410</ele>
        <time>2012-03-25T10:25:46.000Z</time>
      </trkpt>
      <trkpt lat="47.22053" lon="4.61114">
        <ele>410</ele>
        <time>2012-03-25T10:25:49.000Z</time>
      </trkpt>
      <trkpt lat="47.22053" lon="4.61104">
        <ele>410</ele>
        <time>2012-03-25T10:25:52.000Z</time>
      </trkpt>
      <trkpt lat="47.22051" lon="4.61095">
        <ele>410</ele>
        <time>2012-03-25T10:25:55.000Z</time>
      </trkpt>
      <trkpt lat="47.2205" lon="4.61087">
        <ele>410</ele>
        <time>2012-03-25T10:25:58.000Z</time>
      </trkpt>
      <trkpt lat="47.22048" lon="4.61078">
        <ele>410</ele>
        <time>2012-03-25T10:26:01.000Z</time>
      </trkpt>
      <trkpt lat="47.22046" lon="4.6107">
        <ele>410</ele>
        <time>2012-03-25T10:26:04.000Z</time>
      </trkpt>
      <trkpt lat="47.22044" lon="4.61061">
        <ele>410</ele>
        <time>2012-03-25T10:26:07.000Z</time>
      </trkpt>
      <trkpt lat="47.22043" lon="4.61052">
        <ele>410</ele>
        <time>2012-03-25T10:26:10.000Z</time>
      </trkpt>
      <trkpt lat="47.22042" lon="4.61045">
        <ele>410</ele>
        <time>2012-03-25T10:26:13.000Z</time>
      </trkpt>
      <trkpt lat="47.2204" lon="4.61037">
        <ele>410</ele>
        <time>2012-03-25T10:26:17.000Z</time>
      </trkpt>
      <trkpt lat="47.2204" lon="4.61029">
        <ele>410</ele>
        <time>2012-03-25T10:26:21.000Z</time>
      </trkpt>
      <trkpt lat="47.2204" lon="4.61022">
        <ele>410</ele>
        <time>2012-03-25T10:26:25.000Z</time>
      </trkpt>
      <trkpt lat="47.2204" lon="4.61015">
        <ele>410</ele>
        <time>2012-03-25T10:26:29.000Z</time>
      </trkpt>
      <trkpt lat="47.2204" lon="4.61008">
        <ele>410</ele>
        <time>2012-03-25T10:26:33.000Z</time>
      </trkpt>
      <trkpt lat="47.22041" lon="4.61">
        <ele>410</ele>
        <time>2012-03-25T10:26:37.000Z</time>
      </trkpt>
      <trkpt lat="47.22042" lon="4.60993">
        <ele>410</ele>
        <time>2012-03-25T10:26:41.000Z</time>
      </trkpt>
      <trkpt lat="47.22043" lon="4.60986">
        <ele>410</ele>
        <time>2012-03-25T10:26:45.000Z</time>
      </trkpt>
      <trkpt lat="47.22044" lon="4.6098">
        <ele>410</ele>
        <time>2012-03-25T10:26:49.000Z</time>
      </trkpt>
      <trkpt lat="47.22048" lon="4.60975">
        <ele>410</ele>
        <time>2012-03-25T10:26:53.000Z</time>
      </trkpt>
      <trkpt lat="47.2205" lon="4.60969">
        <ele>410</ele>
        <time>2012-03-25T10:26:57.000Z</time>
      </trkpt>
      <trkpt lat="47.22053" lon="4.60963">
        <ele>410</ele>
        <time>2012-03-25T10:27:01.000Z</time>
      </trkpt>
      <trkpt lat="47.22056" lon="4.60956">
        <ele>410</ele>
        <time>2012-03-25T10:27:06.000Z</time>
      </trkpt>
      <trkpt lat="47.2206" lon="4.6095">
        <ele>410</ele>
        <time>2012-03-25T10:27:11.000Z</time>
      </trkpt>
      <trkpt lat="47.22064" lon="4.60945">
        <ele>410</ele>
        <time>2012-03-25T10:27:16.000Z</time>
      </trkpt>
      <trkpt lat="47.22067" lon="4.60939">
        <ele>410</ele>
        <time>2012-03-25T10:27:21.000Z</time>
      </trkpt>
      <trkpt lat="47.2207" lon="4.60932">
        <ele>410</ele>
        <time>2012-03-25T10:27:26.000Z</time>
      </trkpt>
      <trkpt lat="47.22074" lon="4.60926">
        <ele>410</ele>
        <time>2012-03-25T10:27:31.000Z</time>
      </trkpt>
      <trkpt lat="47.22078" lon="4.60921">
        <ele>410</ele>
        <time>2012-03-25T10:27:36.000Z</time>
      </trkpt>
      <trkpt lat="47.22082" lon="4.60916">
        <ele>410</ele>
        <time>2012-03-25T10:27:41.000Z</time>
      </trkpt>
      <trkpt lat="47.22086" lon="4.60912">
        <ele>410</ele>
        <time>2012-03-25T10:27:45.000Z</time>
      </trkpt>
      <trkpt lat="47.2209" lon="4.60908">
        <ele>410</ele>
        <time>2012-03-25T10:27:49.000Z</time>
      </trkpt>
      <trkpt lat="47.22094" lon="4.60904">
        <ele>410</ele>
        <time>2012-03-25T10:27:53.000Z</time>
      </trkpt>
      <trkpt lat="47.22098" lon="4.609">
        <ele>410</ele>
        <time>2012-03-25T10:27:57.000Z</time>
      </trkpt>
      <trkpt lat="47.22102" lon="4.60897">
        <ele>410</ele>
        <time>2012-03-25T10:28:01.000Z</time>
      </trkpt>
      <trkpt lat="47.22106" lon="4.60893">
        <ele>410</ele>
        <time>2012-03-25T10:28:05.000Z</time>
      </trkpt>
      <trkpt lat="47.2211" lon="4.60888">
        <ele>410</ele>
        <time>2012-03-25T10:28:10.000Z</time>
      </trkpt>
      <trkpt lat="47.22115" lon="4.60885">
        <ele>410</ele>
        <time>2012-03-25T10:28:15.000Z</time>
      </trkpt>
      <trkpt lat="47.2212" lon="4.60881">
        <ele>410</ele>
        <time>2012-03-25T10:28:20.000Z</time>
      </trkpt>
      <trkpt lat="47.22124" lon="4.60878">
        <ele>410</ele>
        <time>2012-03-25T10:28:25.000Z</time>
      </trkpt>
      <trkpt lat="47.2213" lon="4.60876">
        <ele>410</ele>
        <time>2012-03-25T10:28:30.000Z</time>
      </trkpt>
      <trkpt lat="47.22134" lon="4.60874">
        <ele>410</ele>
        <time>2012-03-25T10:28:34.000Z</time>
      </trkpt>
      <trkpt lat="47.22138" lon="4.60872">
        <ele>410</ele>
        <time>2012-03-25T10:28:38.000Z</time>
      </trkpt>
      <trkpt lat="47.22143" lon="4.6087">
        <ele>410</ele>
        <time>2012-03-25T10:28:42.000Z</time>
      </trkpt>
      <trkpt lat="47.22147" lon="4.60868">
        <ele>410</ele>
        <time>2012-03-25T10:28:46.000Z</time>
      </trkpt>
      <trkpt lat="47.22152" lon="4.60866">
        <ele>410</ele>
        <time>2012-03-25T10:28:51.000Z</time>
      </trkpt>
      <trkpt lat="47.22157" lon="4.60863">
        <ele>410</ele>
        <time>2012-03-25T10:28:56.000Z</time>
      </trkpt>
      <trkpt lat="47.22162" lon="4.6086">
        <ele>410</ele>
        <time>2012-03-25T10:29:01.000Z</time>
      </trkpt>
      <trkpt lat="47.22167" lon="4.60857">
        <ele>410</ele>
        <time>2012-03-25T10:29:06.000Z</time>
      </trkpt>
      <trkpt lat="47.22172" lon="4.60855">
        <ele>410</ele>
        <time>2012-03-25T10:29:11.000Z</time>
      </trkpt>
      <trkpt lat="47.22177" lon="4.60854">
        <ele>410</ele>
        <time>2012-03-25T10:29:16.000Z</time>
      </trkpt>
      <trkpt lat="47.22182" lon="4.60854">
        <ele>410</ele>
        <time>2012-03-25T10:29:21.000Z</time>
      </trkpt>
      <trkpt lat="47.22187" lon="4.60854">
        <ele>410</ele>
        <time>2012-03-25T10:29:25.000Z</time>
      </trkpt>
      <trkpt lat="47.22192" lon="4.60854">
        <ele>410</ele>
        <time>2012-03-25T10:29:29.000Z</time>
      </trkpt>
      <trkpt lat="47.22196" lon="4.60853">
        <ele>410</ele>
        <time>2012-03-25T10:29:33.000Z</time>
      </trkpt>
      <trkpt lat="47.22202" lon="4.60851">
        <ele>410</ele>
        <time>2012-03-25T10:29:38.000Z</time>
      </trkpt>
      <trkpt lat="47.22206" lon="4.60852">
        <ele>410</ele>
        <time>2012-03-25T10:29:42.000Z</time>
      </trkpt>
      <trkpt lat="47.22211" lon="4.60851">
        <ele>410</ele>
        <time>2012-03-25T10:29:47.000Z</time>
      </trkpt>
      <trkpt lat="47.22216" lon="4.60847">
        <ele>410</ele>
        <time>2012-03-25T10:29:53.000Z</time>
      </trkpt>
      <trkpt lat="47.2222" lon="4.60843">
        <ele>410</ele>
        <time>2012-03-25T10:30:00.000Z</time>
      </trkpt>
      <trkpt lat="47.22224" lon="4.60839">
        <ele>410</ele>
        <time>2012-03-25T10:30:07.000Z</time>
      </trkpt>
      <trkpt lat="47.22228" lon="4.60836">
        <ele>410</ele>
        <time>2012-03-25T10:30:14.000Z</time>
      </trkpt>
      <trkpt lat="47.22232" lon="4.60832">
        <ele>410</ele>
        <time>2012-03-25T10:30:21.000Z</time>
      </trkpt>
      <trkpt lat="47.22236" lon="4.60829">
        <ele>410</ele>
        <time>2012-03-25T10:30:27.000Z</time>
      </trkpt>
      <trkpt lat="47.22241" lon="4.60826">
        <ele>410</ele>
        <time>2012-03-25T10:30:33.000Z</time>
      </trkpt>
      <trkpt lat="47.22246" lon="4.60825">
        <ele>410</ele>
        <time>2012-03-25T10:30:43.000Z</time>
      </trkpt>
      <trkpt lat="47.22251" lon="4.60826">
        <ele>410</ele>
        <time>2012-03-25T10:30:53.000Z</time>
      </trkpt>
      <trkpt lat="47.22255" lon="4.60827">
        <ele>410</ele>
        <time>2012-03-25T10:30:59.000Z</time>
      </trkpt>
      <trkpt lat="47.2226" lon="4.60828">
        <ele>410</ele>
        <time>2012-03-25T10:31:05.000Z</time>
      </trkpt>
      <trkpt lat="47.22264" lon="4.60825">
        <ele>411</ele>
        <time>2012-03-25T10:31:11.000Z</time>
      </trkpt>
      <trkpt lat="47.22269" lon="4.60821">
        <ele>411</ele>
        <time>2012-03-25T10:31:18.000Z</time>
      </trkpt>
      <trkpt lat="47.22272" lon="4.60817">
        <ele>411</ele>
        <time>2012-03-25T10:31:26.000Z</time>
      </trkpt>
      <trkpt lat="47.22275" lon="4.60812">
        <ele>411</ele>
        <time>2012-03-25T10:31:34.000Z</time>
      </trkpt>
      <trkpt lat="47.2228" lon="4.60808">
        <ele>411</ele>
        <time>2012-03-25T10:31:40.000Z</time>
      </trkpt>
      <trkpt lat="47.22285" lon="4.60803">
        <ele>411</ele>
        <time>2012-03-25T10:31:43.000Z</time>
      </trkpt>
      <trkpt lat="47.2229" lon="4.60799">
        <ele>411</ele>
        <time>2012-03-25T10:31:46.000Z</time>
      </trkpt>
      <trkpt lat="47.22296" lon="4.60795">
        <ele>412</ele>
        <time>2012-03-25T10:31:49.000Z</time>
      </trkpt>
      <trkpt lat="47.22302" lon="4.60791">
        <ele>412</ele>
        <time>2012-03-25T10:31:52.000Z</time>
      </trkpt>
      <trkpt lat="47.22306" lon="4.60788">
        <ele>412</ele>
        <time>2012-03-25T10:31:55.000Z</time>
      </trkpt>
      <trkpt lat="47.22311" lon="4.60785">
        <ele>412</ele>
        <time>2012-03-25T10:31:58.000Z</time>
      </trkpt>
      <trkpt lat="47.22314" lon="4.60781">
        <ele>412</ele>
        <time>2012-03-25T10:32:03.000Z</time>
      </trkpt>
      <trkpt lat="47.22318" lon="4.60776">
        <ele>412</ele>
        <time>2012-03-25T10:32:12.000Z</time>
      </trkpt>
      <trkpt lat="47.22322" lon="4.6077">
        <ele>413</ele>
        <time>2012-03-25T10:32:17.000Z</time>
      </trkpt>
      <trkpt lat="47.22325" lon="4.60764">
        <ele>413</ele>
        <time>2012-03-25T10:32:21.000Z</time>
      </trkpt>
      <trkpt lat="47.22328" lon="4.60758">
        <ele>413</ele>
        <time>2012-03-25T10:32:24.000Z</time>
      </trkpt>
      <trkpt lat="47.22331" lon="4.60752">
        <ele>413</ele>
        <time>2012-03-25T10:32:27.000Z</time>
      </trkpt>
      <trkpt lat="47.22334" lon="4.60747">
        <ele>413</ele>
        <time>2012-03-25T10:32:30.000Z</time>
      </trkpt>
      <trkpt lat="47.22336" lon="4.60741">
        <ele>413</ele>
        <time>2012-03-25T10:32:33.000Z</time>
      </trkpt>
      <trkpt lat="47.22339" lon="4.60737">
        <ele>413</ele>
        <time>2012-03-25T10:32:36.000Z</time>
      </trkpt>
      <trkpt lat="47.22343" lon="4.60732">
        <ele>413</ele>
        <time>2012-03-25T10:32:39.000Z</time>
      </trkpt>
      <trkpt lat="47.22348" lon="4.60727">
        <ele>413</ele>
        <time>2012-03-25T10:32:43.000Z</time>
      </trkpt>
      <trkpt lat="47.22352" lon="4.60722">
        <ele>414</ele>
        <time>2012-03-25T10:32:47.000Z</time>
      </trkpt>
      <trkpt lat="47.22357" lon="4.6072">
        <ele>414</ele>
        <time>2012-03-25T10:32:51.000Z</time>
      </trkpt>
      <trkpt lat="47.22361" lon="4.60715">
        <ele>414</ele>
        <time>2012-03-25T10:32:55.000Z</time>
      </trkpt>
      <trkpt lat="47.22365" lon="4.60711">
        <ele>414</ele>
        <time>2012-03-25T10:32:59.000Z</time>
      </trkpt>
      <trkpt lat="47.22368" lon="4.60706">
        <ele>414</ele>
        <time>2012-03-25T10:33:03.000Z</time>
      </trkpt>
      <trkpt lat="47.22372" lon="4.60702">
        <ele>414</ele>
        <time>2012-03-25T10:33:08.000Z</time>
      </trkpt>
      <trkpt lat="47.22372" lon="4.60695">
        <ele>414</ele>
        <time>2012-03-25T10:33:22.000Z</time>
      </trkpt>
      <trkpt lat="47.22373" lon="4.60687">
        <ele>414</ele>
        <time>2012-03-25T10:33:28.000Z</time>
      </trkpt>
      <trkpt lat="47.22374" lon="4.6068">
        <ele>414</ele>
        <time>2012-03-25T10:33:34.000Z</time>
      </trkpt>
      <trkpt lat="47.22374" lon="4.60674">
        <ele>414</ele>
        <time>2012-03-25T10:33:46.000Z</time>
      </trkpt>
      <trkpt lat="47.22376" lon="4.60667">
        <ele>414</ele>
        <time>2012-03-25T10:33:50.000Z</time>
      </trkpt>
      <trkpt lat="47.22378" lon="4.60659">
        <ele>414</ele>
        <time>2012-03-25T10:33:54.000Z</time>
      </trkpt>
      <trkpt lat="47.2238" lon="4.60652">
        <ele>414</ele>
        <time>2012-03-25T10:33:59.000Z</time>
      </trkpt>
      <trkpt lat="47.22382" lon="4.60646">
        <ele>414</ele>
        <time>2012-03-25T10:34:03.000Z</time>
      </trkpt>
      <trkpt lat="47.22384" lon="4.6064">
        <ele>414</ele>
        <time>2012-03-25T10:34:07.000Z</time>
      </trkpt>
      <trkpt lat="47.22387" lon="4.60633">
        <ele>414</ele>
        <time>2012-03-25T10:34:12.000Z</time>
      </trkpt>
      <trkpt lat="47.22391" lon="4.60628">
        <ele>413</ele>
        <time>2012-03-25T10:34:17.000Z</time>
      </trkpt>
      <trkpt lat="47.22393" lon="4.60621">
        <ele>413</ele>
        <time>2012-03-25T10:34:25.000Z</time>
      </trkpt>
      <trkpt lat="47.22397" lon="4.60617">
        <ele>413</ele>
        <time>2012-03-25T10:34:41.000Z</time>
      </trkpt>
      <trkpt lat="47.22402" lon="4.60613">
        <ele>413</ele>
        <time>2012-03-25T10:34:47.000Z</time>
      </trkpt>
      <trkpt lat="47.22407" lon="4.60609">
        <ele>412</ele>
        <time>2012-03-25T10:34:52.000Z</time>
      </trkpt>
      <trkpt lat="47.22411" lon="4.60606">
        <ele>412</ele>
        <time>2012-03-25T10:34:56.000Z</time>
      </trkpt>
      <trkpt lat="47.22416" lon="4.60603">
        <ele>412</ele>
        <time>2012-03-25T10:35:00.000Z</time>
      </trkpt>
      <trkpt lat="47.22422" lon="4.60601">
        <ele>412</ele>
        <time>2012-03-25T10:35:04.000Z</time>
      </trkpt>
      <trkpt lat="47.22427" lon="4.60597">
        <ele>413</ele>
        <time>2012-03-25T10:35:08.000Z</time>
      </trkpt>
      <trkpt lat="47.22431" lon="4.60594">
        <ele>413</ele>
        <time>2012-03-25T10:35:11.000Z</time>
      </trkpt>
      <trkpt lat="47.22435" lon="4.60591">
        <ele>413</ele>
        <time>2012-03-25T10:35:14.000Z</time>
      </trkpt>
      <trkpt lat="47.2244" lon="4.60589">
        <ele>413</ele>
        <time>2012-03-25T10:35:17.000Z</time>
      </trkpt>
      <trkpt lat="47.22444" lon="4.60587">
        <ele>413</ele>
        <time>2012-03-25T10:35:20.000Z</time>
      </trkpt>
      <trkpt lat="47.22448" lon="4.60585">
        <ele>413</ele>
        <time>2012-03-25T10:35:23.000Z</time>
      </trkpt>
      <trkpt lat="47.22453" lon="4.60582">
        <ele>413</ele>
        <time>2012-03-25T10:35:26.000Z</time>
      </trkpt>
      <trkpt lat="47.22457" lon="4.60579">
        <ele>413</ele>
        <time>2012-03-25T10:35:29.000Z</time>
      </trkpt>
      <trkpt lat="47.22462" lon="4.60576">
        <ele>413</ele>
        <time>2012-03-25T10:35:33.000Z</time>
      </trkpt>
      <trkpt lat="47.22468" lon="4.60573">
        <ele>413</ele>
        <time>2012-03-25T10:35:37.000Z</time>
      </trkpt>
      <trkpt lat="47.22473" lon="4.6057">
        <ele>413</ele>
        <time>2012-03-25T10:35:41.000Z</time>
      </trkpt>
      <trkpt lat="47.22478" lon="4.60566">
        <ele>413</ele>
        <time>2012-03-25T10:35:45.000Z</time>
      </trkpt>
      <trkpt lat="47.22483" lon="4.60563">
        <ele>413</ele>
        <time>2012-03-25T10:35:49.000Z</time>
      </trkpt>
      <trkpt lat="47.22488" lon="4.6056">
        <ele>413</ele>
        <time>2012-03-25T10:35:54.000Z</time>
      </trkpt>
      <trkpt lat="47.22493" lon="4.60557">
        <ele>413</ele>
        <time>2012-03-25T10:35:59.000Z</time>
      </trkpt>
      <trkpt lat="47.22498" lon="4.60555">
        <ele>413</ele>
        <time>2012-03-25T10:36:04.000Z</time>
      </trkpt>
      <trkpt lat="47.22503" lon="4.60554">
        <ele>413</ele>
        <time>2012-03-25T10:36:09.000Z</time>
      </trkpt>
      <trkpt lat="47.22508" lon="4.60553">
        <ele>413</ele>
        <time>2012-03-25T10:36:14.000Z</time>
      </trkpt>
      <trkpt lat="47.22514" lon="4.60554">
        <ele>413</ele>
        <time>2012-03-25T10:36:19.000Z</time>
      </trkpt>
      <trkpt lat="47.22518" lon="4.60553">
        <ele>413</ele>
        <time>2012-03-25T10:36:24.000Z</time>
      </trkpt>
      <trkpt lat="47.22523" lon="4.60552">
        <ele>413</ele>
        <time>2012-03-25T10:36:29.000Z</time>
      </trkpt>
      <trkpt lat="47.22528" lon="4.60549">
        <ele>413</ele>
        <time>2012-03-25T10:36:34.000Z</time>
      </trkpt>
      <trkpt lat="47.22533" lon="4.60547">
        <ele>413</ele>
        <time>2012-03-25T10:36:39.000Z</time>
      </trkpt>
      <trkpt lat="47.22538" lon="4.60545">
        <ele>413</ele>
        <time>2012-03-25T10:36:44.000Z</time>
      </trkpt>
      <trkpt lat="47.22542" lon="4.60543">
        <ele>413</ele>
        <time>2012-03-25T10:36:50.000Z</time>
      </trkpt>
      <trkpt lat="47.22547" lon="4.60543">
        <ele>413</ele>
        <time>2012-03-25T10:36:57.000Z</time>
      </trkpt>
      <trkpt lat="47.22552" lon="4.60542">
        <ele>413</ele>
        <time>2012-03-25T10:37:04.000Z</time>
      </trkpt>
      <trkpt lat="47.22556" lon="4.6054">
        <ele>414</ele>
        <time>2012-03-25T10:37:10.000Z</time>
      </trkpt>
      <trkpt lat="47.2256" lon="4.60536">
        <ele>414</ele>
        <time>2012-03-25T10:37:16.000Z</time>
      </trkpt>
      <trkpt lat="47.22564" lon="4.60531">
        <ele>414</ele>
        <time>2012-03-25T10:37:21.000Z</time>
      </trkpt>
      <trkpt lat="47.22568" lon="4.60525">
        <ele>414</ele>
        <time>2012-03-25T10:37:26.000Z</time>
      </trkpt>
      <trkpt lat="47.22572" lon="4.60518">
        <ele>414</ele>
        <time>2012-03-25T10:37:30.000Z</time>
      </trkpt>
      <trkpt lat="47.22575" lon="4.60513">
        <ele>414</ele>
        <time>2012-03-25T10:37:33.000Z</time>
      </trkpt>
      <trkpt lat="47.22578" lon="4.60508">
        <ele>414</ele>
        <time>2012-03-25T10:37:36.000Z</time>
      </trkpt>
      <trkpt lat="47.22581" lon="4.60502">
        <ele>414</ele>
        <time>2012-03-25T10:37:40.000Z</time>
      </trkpt>
      <trkpt lat="47.22585" lon="4.60496">
        <ele>414</ele>
        <time>2012-03-25T10:37:44.000Z</time>
      </trkpt>
      <trkpt lat="47.22588" lon="4.60491">
        <ele>414</ele>
        <time>2012-03-25T10:37:47.000Z</time>
      </trkpt>
      <trkpt lat="47.22592" lon="4.60484">
        <ele>414</ele>
        <time>2012-03-25T10:37:51.000Z</time>
      </trkpt>
      <trkpt lat="47.22595" lon="4.60479">
        <ele>414</ele>
        <time>2012-03-25T10:37:54.000Z</time>
      </trkpt>
      <trkpt lat="47.22597" lon="4.60473">
        <ele>414</ele>
        <time>2012-03-25T10:37:57.000Z</time>
      </trkpt>
      <trkpt lat="47.226" lon="4.60465">
        <ele>414</ele>
        <time>2012-03-25T10:38:01.000Z</time>
      </trkpt>
      <trkpt lat="47.22603" lon="4.60458">
        <ele>414</ele>
        <time>2012-03-25T10:38:05.000Z</time>
      </trkpt>
      <trkpt lat="47.22606" lon="4.60452">
        <ele>414</ele>
        <time>2012-03-25T10:38:09.000Z</time>
      </trkpt>
      <trkpt lat="47.2261" lon="4.60446">
        <ele>414</ele>
        <time>2012-03-25T10:38:13.000Z</time>
      </trkpt>
      <trkpt lat="47.22612" lon="4.6044">
        <ele>414</ele>
        <time>2012-03-25T10:38:17.000Z</time>
      </trkpt>
      <trkpt lat="47.22615" lon="4.60434">
        <ele>414</ele>
        <time>2012-03-25T10:38:21.000Z</time>
      </trkpt>
      <trkpt lat="47.22618" lon="4.60427">
        <ele>414</ele>
        <time>2012-03-25T10:38:26.000Z</time>
      </trkpt>
      <trkpt lat="47.22621" lon="4.6042">
        <ele>414</ele>
        <time>2012-03-25T10:38:31.000Z</time>
      </trkpt>
      <trkpt lat="47.22624" lon="4.60413">
        <ele>414</ele>
        <time>2012-03-25T10:38:36.000Z</time>
      </trkpt>
      <trkpt lat="47.22627" lon="4.60408">
        <ele>414</ele>
        <time>2012-03-25T10:38:40.000Z</time>
      </trkpt>
      <trkpt lat="47.22631" lon="4.60402">
        <ele>414</ele>
        <time>2012-03-25T10:38:44.000Z</time>
      </trkpt>
      <trkpt lat="47.22634" lon="4.60398">
        <ele>414</ele>
        <time>2012-03-25T10:38:48.000Z</time>
      </trkpt>
      <trkpt lat="47.22638" lon="4.60395">
        <ele>414</ele>
        <time>2012-03-25T10:38:52.000Z</time>
      </trkpt>
      <trkpt lat="47.22642" lon="4.60391">
        <ele>414</ele>
        <time>2012-03-25T10:38:56.000Z</time>
      </trkpt>
      <trkpt lat="47.22647" lon="4.60386">
        <ele>414</ele>
        <time>2012-03-25T10:39:00.000Z</time>
      </trkpt>
      <trkpt lat="47.22651" lon="4.60382">
        <ele>414</ele>
        <time>2012-03-25T10:39:04.000Z</time>
      </trkpt>
      <trkpt lat="47.22654" lon="4.60376">
        <ele>414</ele>
        <time>2012-03-25T10:39:08.000Z</time>
      </trkpt>
      <trkpt lat="47.22658" lon="4.60371">
        <ele>414</ele>
        <time>2012-03-25T10:39:12.000Z</time>
      </trkpt>
      <trkpt lat="47.22661" lon="4.60366">
        <ele>415</ele>
        <time>2012-03-25T10:39:16.000Z</time>
      </trkpt>
      <trkpt lat="47.22664" lon="4.60361">
        <ele>415</ele>
        <time>2012-03-25T10:39:20.000Z</time>
      </trkpt>
      <trkpt lat="47.22669" lon="4.60355">
        <ele>414</ele>
        <time>2012-03-25T10:39:25.000Z</time>
      </trkpt>
      <trkpt lat="47.22673" lon="4.60354">
        <ele>414</ele>
        <time>2012-03-25T10:39:30.000Z</time>
      </trkpt>
      <trkpt lat="47.22678" lon="4.6035">
        <ele>414</ele>
        <time>2012-03-25T10:39:35.000Z</time>
      </trkpt>
      <trkpt lat="47.22682" lon="4.60345">
        <ele>414</ele>
        <time>2012-03-25T10:39:40.000Z</time>
      </trkpt>
      <trkpt lat="47.22686" lon="4.60341">
        <ele>414</ele>
        <time>2012-03-25T10:39:45.000Z</time>
      </trkpt>
      <trkpt lat="47.2269" lon="4.60337">
        <ele>414</ele>
        <time>2012-03-25T10:39:50.000Z</time>
      </trkpt>
      <trkpt lat="47.22694" lon="4.60333">
        <ele>414</ele>
        <time>2012-03-25T10:39:55.000Z</time>
      </trkpt>
      <trkpt lat="47.22698" lon="4.60329">
        <ele>414</ele>
        <time>2012-03-25T10:40:00.000Z</time>
      </trkpt>
      <trkpt lat="47.22702" lon="4.60325">
        <ele>414</ele>
        <time>2012-03-25T10:40:05.000Z</time>
      </trkpt>
      <trkpt lat="47.22705" lon="4.6032">
        <ele>414</ele>
        <time>2012-03-25T10:40:10.000Z</time>
      </trkpt>
      <trkpt lat="47.22709" lon="4.60315">
        <ele>414</ele>
        <time>2012-03-25T10:40:15.000Z</time>
      </trkpt>
      <trkpt lat="47.22713" lon="4.60311">
        <ele>414</ele>
        <time>2012-03-25T10:40:20.000Z</time>
      </trkpt>
      <trkpt lat="47.22717" lon="4.60308">
        <ele>414</ele>
        <time>2012-03-25T10:40:26.000Z</time>
      </trkpt>
      <trkpt lat="47.22722" lon="4.60306">
        <ele>414</ele>
        <time>2012-03-25T10:40:34.000Z</time>
      </trkpt>
      <trkpt lat="47.22724" lon="4.60312">
        <ele>414</ele>
        <time>2012-03-25T10:40:44.000Z</time>
      </trkpt>
      <trkpt lat="47.22729" lon="4.60311">
        <ele>414</ele>
        <time>2012-03-25T10:40:57.000Z</time>
      </trkpt>
      <trkpt lat="47.22733" lon="4.60308">
        <ele>414</ele>
        <time>2012-03-25T10:41:03.000Z</time>
      </trkpt>
      <trkpt lat="47.22738" lon="4.60306">
        <ele>414</ele>
        <time>2012-03-25T10:41:08.000Z</time>
      </trkpt>
      <trkpt lat="47.22741" lon="4.60302">
        <ele>414</ele>
        <time>2012-03-25T10:41:13.000Z</time>
      </trkpt>
      <trkpt lat="47.2274" lon="4.60295">
        <ele>414</ele>
        <time>2012-03-25T10:41:27.000Z</time>
      </trkpt>
      <trkpt lat="47.22742" lon="4.60289">
        <ele>414</ele>
        <time>2012-03-25T10:41:34.000Z</time>
      </trkpt>
      <trkpt lat="47.22744" lon="4.60283">
        <ele>414</ele>
        <time>2012-03-25T10:41:40.000Z</time>
      </trkpt>
      <trkpt lat="47.22748" lon="4.60278">
        <ele>414</ele>
        <time>2012-03-25T10:41:45.000Z</time>
      </trkpt>
      <trkpt lat="47.22752" lon="4.60273">
        <ele>414</ele>
        <time>2012-03-25T10:41:52.000Z</time>
      </trkpt>
      <trkpt lat="47.22755" lon="4.60267">
        <ele>414</ele>
        <time>2012-03-25T10:42:00.000Z</time>
      </trkpt>
      <trkpt lat="47.22759" lon="4.60262">
        <ele>414</ele>
        <time>2012-03-25T10:42:06.000Z</time>
      </trkpt>
      <trkpt lat="47.22763" lon="4.60256">
        <ele>414</ele>
        <time>2012-03-25T10:42:11.000Z</time>
      </trkpt>
      <trkpt lat="47.22766" lon="4.60252">
        <ele>414</ele>
        <time>2012-03-25T10:42:15.000Z</time>
      </trkpt>
      <trkpt lat="47.2277" lon="4.60246">
        <ele>414</ele>
        <time>2012-03-25T10:42:20.000Z</time>
      </trkpt>
      <trkpt lat="47.22773" lon="4.6024">
        <ele>414</ele>
        <time>2012-03-25T10:42:25.000Z</time>
      </trkpt>
      <trkpt lat="47.22777" lon="4.60234">
        <ele>414</ele>
        <time>2012-03-25T10:42:29.000Z</time>
      </trkpt>
      <trkpt lat="47.2278" lon="4.60228">
        <ele>414</ele>
        <time>2012-03-25T10:42:33.000Z</time>
      </trkpt>
      <trkpt lat="47.22784" lon="4.60222">
        <ele>414</ele>
        <time>2012-03-25T10:42:37.000Z</time>
      </trkpt>
      <trkpt lat="47.22787" lon="4.60215">
        <ele>414</ele>
        <time>2012-03-25T10:42:41.000Z</time>
      </trkpt>
      <trkpt lat="47.22791" lon="4.60209">
        <ele>414</ele>
        <time>2012-03-25T10:42:45.000Z</time>
      </trkpt>
      <trkpt lat="47.22795" lon="4.60202">
        <ele>414</ele>
        <time>2012-03-25T10:42:49.000Z</time>
      </trkpt>
      <trkpt lat="47.22798" lon="4.60198">
        <ele>414</ele>
        <time>2012-03-25T10:42:52.000Z</time>
      </trkpt>
      <trkpt lat="47.22803" lon="4.60192">
        <ele>414</ele>
        <time>2012-03-25T10:42:56.000Z</time>
      </trkpt>
      <trkpt lat="47.22806" lon="4.60186">
        <ele>414</ele>
        <time>2012-03-25T10:43:00.000Z</time>
      </trkpt>
      <trkpt lat="47.2281" lon="4.60179">
        <ele>414</ele>
        <time>2012-03-25T10:43:04.000Z</time>
      </trkpt>
      <trkpt lat="47.22813" lon="4.60172">
        <ele>414</ele>
        <time>2012-03-25T10:43:08.000Z</time>
      </trkpt>
      <trkpt lat="47.22816" lon="4.60165">
        <ele>414</ele>
        <time>2012-03-25T10:43:12.000Z</time>
      </trkpt>
      <trkpt lat="47.22819" lon="4.60158">
        <ele>414</ele>
        <time>2012-03-25T10:43:16.000Z</time>
      </trkpt>
      <trkpt lat="47.22821" lon="4.60152">
        <ele>414</ele>
        <time>2012-03-25T10:43:20.000Z</time>
      </trkpt>
      <trkpt lat="47.22824" lon="4.60145">
        <ele>414</ele>
        <time>2012-03-25T10:43:24.000Z</time>
      </trkpt>
      <trkpt lat="47.2282" lon="4.6014">
        <ele>414</ele>
        <time>2012-03-25T10:43:48.000Z</time>
      </trkpt>
      <trkpt lat="47.22822" lon="4.60134">
        <ele>414</ele>
        <time>2012-03-25T10:43:56.000Z</time>
      </trkpt>
      <trkpt lat="47.22823" lon="4.60127">
        <ele>414</ele>
        <time>2012-03-25T10:44:01.000Z</time>
      </trkpt>
      <trkpt lat="47.22825" lon="4.60121">
        <ele>414</ele>
        <time>2012-03-25T10:44:05.000Z</time>
      </trkpt>
      <trkpt lat="47.22826" lon="4.60114">
        <ele>414</ele>
        <time>2012-03-25T10:44:09.000Z</time>
      </trkpt>
      <trkpt lat="47.22828" lon="4.60107">
        <ele>414</ele>
        <time>2012-03-25T10:44:13.000Z</time>
      </trkpt>
      <trkpt lat="47.22828" lon="4.601">
        <ele>414</ele>
        <time>2012-03-25T10:44:17.000Z</time>
      </trkpt>
      <trkpt lat="47.22829" lon="4.60094">
        <ele>414</ele>
        <time>2012-03-25T10:44:20.000Z</time>
      </trkpt>
      <trkpt lat="47.2283" lon="4.60085">
        <ele>414</ele>
        <time>2012-03-25T10:44:24.000Z</time>
      </trkpt>
      <trkpt lat="47.22831" lon="4.60077">
        <ele>414</ele>
        <time>2012-03-25T10:44:28.000Z</time>
      </trkpt>
      <trkpt lat="47.22832" lon="4.60068">
        <ele>414</ele>
        <time>2012-03-25T10:44:32.000Z</time>
      </trkpt>
      <trkpt lat="47.22832" lon="4.6006">
        <ele>414</ele>
        <time>2012-03-25T10:44:36.000Z</time>
      </trkpt>
      <trkpt lat="47.22832" lon="4.60053">
        <ele>414</ele>
        <time>2012-03-25T10:44:41.000Z</time>
      </trkpt>
      <trkpt lat="47.22831" lon="4.60046">
        <ele>414</ele>
        <time>2012-03-25T10:44:51.000Z</time>
      </trkpt>
      <trkpt lat="47.22829" lon="4.60039">
        <ele>414</ele>
        <time>2012-03-25T10:44:58.000Z</time>
      </trkpt>
      <trkpt lat="47.22828" lon="4.60032">
        <ele>413</ele>
        <time>2012-03-25T10:45:03.000Z</time>
      </trkpt>
      <trkpt lat="47.22828" lon="4.60024">
        <ele>413</ele>
        <time>2012-03-25T10:45:08.000Z</time>
      </trkpt>
      <trkpt lat="47.22828" lon="4.60017">
        <ele>413</ele>
        <time>2012-03-25T10:45:12.000Z</time>
      </trkpt>
      <trkpt lat="47.22829" lon="4.6001">
        <ele>413</ele>
        <time>2012-03-25T10:45:16.000Z</time>
      </trkpt>
      <trkpt lat="47.22829" lon="4.60003">
        <ele>413</ele>
        <time>2012-03-25T10:45:20.000Z</time>
      </trkpt>
      <trkpt lat="47.22829" lon="4.59996">
        <ele>413</ele>
        <time>2012-03-25T10:45:25.000Z</time>
      </trkpt>
      <trkpt lat="47.2283" lon="4.59989">
        <ele>413</ele>
        <time>2012-03-25T10:45:32.000Z</time>
      </trkpt>
      <trkpt lat="47.22831" lon="4.59982">
        <ele>413</ele>
        <time>2012-03-25T10:45:37.000Z</time>
      </trkpt>
      <trkpt lat="47.22833" lon="4.59976">
        <ele>412</ele>
        <time>2012-03-25T10:45:41.000Z</time>
      </trkpt>
      <trkpt lat="47.22835" lon="4.5997">
        <ele>412</ele>
        <time>2012-03-25T10:45:45.000Z</time>
      </trkpt>
      <trkpt lat="47.22837" lon="4.59964">
        <ele>412</ele>
        <time>2012-03-25T10:45:49.000Z</time>
      </trkpt>
      <trkpt lat="47.22838" lon="4.59957">
        <ele>412</ele>
        <time>2012-03-25T10:45:53.000Z</time>
      </trkpt>
      <trkpt lat="47.22839" lon="4.5995">
        <ele>412</ele>
        <time>2012-03-25T10:45:57.000Z</time>
      </trkpt>
      <trkpt lat="47.22841" lon="4.59944">
        <ele>412</ele>
        <time>2012-03-25T10:46:01.000Z</time>
      </trkpt>
      <trkpt lat="47.22844" lon="4.59937">
        <ele>412</ele>
        <time>2012-03-25T10:46:05.000Z</time>
      </trkpt>
      <trkpt lat="47.22845" lon="4.5993">
        <ele>412</ele>
        <time>2012-03-25T10:46:09.000Z</time>
      </trkpt>
      <trkpt lat="47.22845" lon="4.59924">
        <ele>412</ele>
        <time>2012-03-25T10:46:13.000Z</time>
      </trkpt>
      <trkpt lat="47.22845" lon="4.59916">
        <ele>412</ele>
        <time>2012-03-25T10:46:18.000Z</time>
      </trkpt>
      <trkpt lat="47.22848" lon="4.59908">
        <ele>412</ele>
        <time>2012-03-25T10:46:23.000Z</time>
      </trkpt>
      <trkpt lat="47.22848" lon="4.59902">
        <ele>412</ele>
        <time>2012-03-25T10:46:27.000Z</time>
      </trkpt>
      <trkpt lat="47.22848" lon="4.59895">
        <ele>412</ele>
        <time>2012-03-25T10:46:31.000Z</time>
      </trkpt>
      <trkpt lat="47.2285" lon="4.59888">
        <ele>412</ele>
        <time>2012-03-25T10:46:35.000Z</time>
      </trkpt>
      <trkpt lat="47.2285" lon="4.59882">
        <ele>412</ele>
        <time>2012-03-25T10:46:39.000Z</time>
      </trkpt>
      <trkpt lat="47.2285" lon="4.59874">
        <ele>412</ele>
        <time>2012-03-25T10:46:43.000Z</time>
      </trkpt>
      <trkpt lat="47.22849" lon="4.59867">
        <ele>412</ele>
        <time>2012-03-25T10:46:47.000Z</time>
      </trkpt>
      <trkpt lat="47.22849" lon="4.59861">
        <ele>412</ele>
        <time>2012-03-25T10:46:51.000Z</time>
      </trkpt>
      <trkpt lat="47.22849" lon="4.59853">
        <ele>412</ele>
        <time>2012-03-25T10:46:56.000Z</time>
      </trkpt>
      <trkpt lat="47.2285" lon="4.59846">
        <ele>412</ele>
        <time>2012-03-25T10:47:02.000Z</time>
      </trkpt>
      <trkpt lat="47.22851" lon="4.59839">
        <ele>412</ele>
        <time>2012-03-25T10:47:07.000Z</time>
      </trkpt>
      <trkpt lat="47.22852" lon="4.59832">
        <ele>412</ele>
        <time>2012-03-25T10:47:12.000Z</time>
      </trkpt>
      <trkpt lat="47.22853" lon="4.59825">
        <ele>412</ele>
        <time>2012-03-25T10:47:17.000Z</time>
      </trkpt>
      <trkpt lat="47.22854" lon="4.59818">
        <ele>412</ele>
        <time>2012-03-25T10:47:22.000Z</time>
      </trkpt>
      <trkpt lat="47.22855" lon="4.5981">
        <ele>412</ele>
        <time>2012-03-25T10:47:27.000Z</time>
      </trkpt>
      <trkpt lat="47.22856" lon="4.59802">
        <ele>412</ele>
        <time>2012-03-25T10:47:32.000Z</time>
      </trkpt>
      <trkpt lat="47.22857" lon="4.59796">
        <ele>412</ele>
        <time>2012-03-25T10:47:36.000Z</time>
      </trkpt>
      <trkpt lat="47.22858" lon="4.59788">
        <ele>412</ele>
        <time>2012-03-25T10:47:41.000Z</time>
      </trkpt>
      <trkpt lat="47.22859" lon="4.5978">
        <ele>412</ele>
        <time>2012-03-25T10:47:46.000Z</time>
      </trkpt>
      <trkpt lat="47.2286" lon="4.59772">
        <ele>412</ele>
        <time>2012-03-25T10:47:51.000Z</time>
      </trkpt>
      <trkpt lat="47.22861" lon="4.59765">
        <ele>412</ele>
        <time>2012-03-25T10:47:55.000Z</time>
      </trkpt>
      <trkpt lat="47.22862" lon="4.59758">
        <ele>412</ele>
        <time>2012-03-25T10:47:59.000Z</time>
      </trkpt>
      <trkpt lat="47.22863" lon="4.5975">
        <ele>412</ele>
        <time>2012-03-25T10:48:04.000Z</time>
      </trkpt>
      <trkpt lat="47.22864" lon="4.59742">
        <ele>412</ele>
        <time>2012-03-25T10:48:09.000Z</time>
      </trkpt>
      <trkpt lat="47.22866" lon="4.59736">
        <ele>412</ele>
        <time>2012-03-25T10:48:13.000Z</time>
      </trkpt>
      <trkpt lat="47.22868" lon="4.59729">
        <ele>412</ele>
        <time>2012-03-25T10:48:18.000Z</time>
      </trkpt>
      <trkpt lat="47.22868" lon="4.59721">
        <ele>412</ele>
        <time>2012-03-25T10:48:23.000Z</time>
      </trkpt>
      <trkpt lat="47.22868" lon="4.59713">
        <ele>412</ele>
        <time>2012-03-25T10:48:28.000Z</time>
      </trkpt>
      <trkpt lat="47.22868" lon="4.59705">
        <ele>412</ele>
        <time>2012-03-25T10:48:33.000Z</time>
      </trkpt>
      <trkpt lat="47.22868" lon="4.59698">
        <ele>412</ele>
        <time>2012-03-25T10:48:37.000Z</time>
      </trkpt>
      <trkpt lat="47.22869" lon="4.5969">
        <ele>412</ele>
        <time>2012-03-25T10:48:42.000Z</time>
      </trkpt>
      <trkpt lat="47.22869" lon="4.59682">
        <ele>412</ele>
        <time>2012-03-25T10:48:47.000Z</time>
      </trkpt>
      <trkpt lat="47.22868" lon="4.59674">
        <ele>412</ele>
        <time>2012-03-25T10:48:52.000Z</time>
      </trkpt>
      <trkpt lat="47.22867" lon="4.59666">
        <ele>412</ele>
        <time>2012-03-25T10:48:57.000Z</time>
      </trkpt>
      <trkpt lat="47.22867" lon="4.59659">
        <ele>412</ele>
        <time>2012-03-25T10:49:02.000Z</time>
      </trkpt>
      <trkpt lat="47.22868" lon="4.59651">
        <ele>412</ele>
        <time>2012-03-25T10:49:07.000Z</time>
      </trkpt>
      <trkpt lat="47.22868" lon="4.59643">
        <ele>412</ele>
        <time>2012-03-25T10:49:12.000Z</time>
      </trkpt>
      <trkpt lat="47.22868" lon="4.59636">
        <ele>412</ele>
        <time>2012-03-25T10:49:16.000Z</time>
      </trkpt>
      <trkpt lat="47.22868" lon="4.59628">
        <ele>412</ele>
        <time>2012-03-25T10:49:21.000Z</time>
      </trkpt>
      <trkpt lat="47.2287" lon="4.59622">
        <ele>412</ele>
        <time>2012-03-25T10:49:25.000Z</time>
      </trkpt>
      <trkpt lat="47.22871" lon="4.59615">
        <ele>411</ele>
        <time>2012-03-25T10:49:29.000Z</time>
      </trkpt>
      <trkpt lat="47.22872" lon="4.59608">
        <ele>411</ele>
        <time>2012-03-25T10:49:33.000Z</time>
      </trkpt>
      <trkpt lat="47.22873" lon="4.59602">
        <ele>411</ele>
        <time>2012-03-25T10:49:37.000Z</time>
      </trkpt>
      <trkpt lat="47.22874" lon="4.59594">
        <ele>411</ele>
        <time>2012-03-25T10:49:42.000Z</time>
      </trkpt>
      <trkpt lat="47.22876" lon="4.59588">
        <ele>411</ele>
        <time>2012-03-25T10:49:46.000Z</time>
      </trkpt>
      <trkpt lat="47.22877" lon="4.59581">
        <ele>411</ele>
        <time>2012-03-25T10:49:50.000Z</time>
      </trkpt>
      <trkpt lat="47.22878" lon="4.59574">
        <ele>411</ele>
        <time>2012-03-25T10:49:54.000Z</time>
      </trkpt>
      <trkpt lat="47.2288" lon="4.59567">
        <ele>411</ele>
        <time>2012-03-25T10:49:59.000Z</time>
      </trkpt>
      <trkpt lat="47.22883" lon="4.5956">
        <ele>411</ele>
        <time>2012-03-25T10:50:04.000Z</time>
      </trkpt>
      <trkpt lat="47.22885" lon="4.59553">
        <ele>411</ele>
        <time>2012-03-25T10:50:09.000Z</time>
      </trkpt>
      <trkpt lat="47.22887" lon="4.59545">
        <ele>411</ele>
        <time>2012-03-25T10:50:14.000Z</time>
      </trkpt>
      <trkpt lat="47.22888" lon="4.59539">
        <ele>411</ele>
        <time>2012-03-25T10:50:18.000Z</time>
      </trkpt>
      <trkpt lat="47.22891" lon="4.59533">
        <ele>411</ele>
        <time>2012-03-25T10:50:22.000Z</time>
      </trkpt>
      <trkpt lat="47.22894" lon="4.59526">
        <ele>411</ele>
        <time>2012-03-25T10:50:26.000Z</time>
      </trkpt>
      <trkpt lat="47.22896" lon="4.5952">
        <ele>412</ele>
        <time>2012-03-25T10:50:30.000Z</time>
      </trkpt>
      <trkpt lat="47.22897" lon="4.59513">
        <ele>412</ele>
        <time>2012-03-25T10:50:35.000Z</time>
      </trkpt>
      <trkpt lat="47.22898" lon="4.59506">
        <ele>412</ele>
        <time>2012-03-25T10:50:40.000Z</time>
      </trkpt>
      <trkpt lat="47.22899" lon="4.59499">
        <ele>412</ele>
        <time>2012-03-25T10:50:45.000Z</time>
      </trkpt>
      <trkpt lat="47.229" lon="4.59492">
        <ele>412</ele>
        <time>2012-03-25T10:50:51.000Z</time>
      </trkpt>
      <trkpt lat="47.22901" lon="4.59484">
        <ele>412</ele>
        <time>2012-03-25T10:50:57.000Z</time>
      </trkpt>
      <trkpt lat="47.22902" lon="4.59477">
        <ele>412</ele>
        <time>2012-03-25T10:51:03.000Z</time>
      </trkpt>
      <trkpt lat="47.22905" lon="4.59471">
        <ele>412</ele>
        <time>2012-03-25T10:51:08.000Z</time>
      </trkpt>
      <trkpt lat="47.22906" lon="4.59463">
        <ele>412</ele>
        <time>2012-03-25T10:51:13.000Z</time>
      </trkpt>
      <trkpt lat="47.22907" lon="4.59456">
        <ele>412</ele>
        <time>2012-03-25T10:51:18.000Z</time>
      </trkpt>
      <trkpt lat="47.22906" lon="4.59448">
        <ele>412</ele>
        <time>2012-03-25T10:51:29.000Z</time>
      </trkpt>
      <trkpt lat="47.22906" lon="4.59441">
        <ele>412</ele>
        <time>2012-03-25T10:51:32.000Z</time>
      </trkpt>
      <trkpt lat="47.22907" lon="4.59434">
        <ele>412</ele>
        <time>2012-03-25T10:51:40.000Z</time>
      </trkpt>
      <trkpt lat="47.2291" lon="4.59426">
        <ele>412</ele>
        <time>2012-03-25T10:51:44.000Z</time>
      </trkpt>
      <trkpt lat="47.22912" lon="4.59419">
        <ele>412</ele>
        <time>2012-03-25T10:51:48.000Z</time>
      </trkpt>
      <trkpt lat="47.22914" lon="4.59412">
        <ele>412</ele>
        <time>2012-03-25T10:51:52.000Z</time>
      </trkpt>
      <trkpt lat="47.22913" lon="4.59405">
        <ele>412</ele>
        <time>2012-03-25T10:51:56.000Z</time>
      </trkpt>
      <trkpt lat="47.22913" lon="4.59398">
        <ele>412</ele>
        <time>2012-03-25T10:52:00.000Z</time>
      </trkpt>
      <trkpt lat="47.22913" lon="4.59391">
        <ele>412</ele>
        <time>2012-03-25T10:52:04.000Z</time>
      </trkpt>
      <trkpt lat="47.22915" lon="4.59384">
        <ele>412</ele>
        <time>2012-03-25T10:52:08.000Z</time>
      </trkpt>
      <trkpt lat="47.22917" lon="4.59377">
        <ele>412</ele>
        <time>2012-03-25T10:52:13.000Z</time>
      </trkpt>
      <trkpt lat="47.22919" lon="4.59371">
        <ele>412</ele>
        <time>2012-03-25T10:52:17.000Z</time>
      </trkpt>
      <trkpt lat="47.22922" lon="4.59366">
        <ele>412</ele>
        <time>2012-03-25T10:52:21.000Z</time>
      </trkpt>
      <trkpt lat="47.22924" lon="4.5936">
        <ele>413</ele>
        <time>2012-03-25T10:52:25.000Z</time>
      </trkpt>
      <trkpt lat="47.22927" lon="4.59355">
        <ele>413</ele>
        <time>2012-03-25T10:52:29.000Z</time>
      </trkpt>
      <trkpt lat="47.22929" lon="4.59348">
        <ele>413</ele>
        <time>2012-03-25T10:52:33.000Z</time>
      </trkpt>
      <trkpt lat="47.22931" lon="4.59342">
        <ele>413</ele>
        <time>2012-03-25T10:52:37.000Z</time>
      </trkpt>
      <trkpt lat="47.22932" lon="4.59336">
        <ele>413</ele>
        <time>2012-03-25T10:52:41.000Z</time>
      </trkpt>
      <trkpt lat="47.22935" lon="4.59329">
        <ele>413</ele>
        <time>2012-03-25T10:52:45.000Z</time>
      </trkpt>
      <trkpt lat="47.22938" lon="4.59323">
        <ele>413</ele>
        <time>2012-03-25T10:52:49.000Z</time>
      </trkpt>
      <trkpt lat="47.22941" lon="4.59317">
        <ele>413</ele>
        <time>2012-03-25T10:52:53.000Z</time>
      </trkpt>
      <trkpt lat="47.22943" lon="4.5931">
        <ele>413</ele>
        <time>2012-03-25T10:52:57.000Z</time>
      </trkpt>
      <trkpt lat="47.22946" lon="4.59303">
        <ele>413</ele>
        <time>2012-03-25T10:53:01.000Z</time>
      </trkpt>
      <trkpt lat="47.22948" lon="4.59296">
        <ele>413</ele>
        <time>2012-03-25T10:53:05.000Z</time>
      </trkpt>
      <trkpt lat="47.2295" lon="4.5929">
        <ele>413</ele>
        <time>2012-03-25T10:53:09.000Z</time>
      </trkpt>
      <trkpt lat="47.22951" lon="4.59282">
        <ele>414</ele>
        <time>2012-03-25T10:53:14.000Z</time>
      </trkpt>
      <trkpt lat="47.22952" lon="4.59275">
        <ele>414</ele>
        <time>2012-03-25T10:53:19.000Z</time>
      </trkpt>
      <trkpt lat="47.22951" lon="4.59268">
        <ele>414</ele>
        <time>2012-03-25T10:53:24.000Z</time>
      </trkpt>
      <trkpt lat="47.22952" lon="4.59261">
        <ele>414</ele>
        <time>2012-03-25T10:53:29.000Z</time>
      </trkpt>
      <trkpt lat="47.22952" lon="4.59254">
        <ele>414</ele>
        <time>2012-03-25T10:53:34.000Z</time>
      </trkpt>
      <trkpt lat="47.22951" lon="4.59247">
        <ele>414</ele>
        <time>2012-03-25T10:53:40.000Z</time>
      </trkpt>
      <trkpt lat="47.2295" lon="4.5924">
        <ele>414</ele>
        <time>2012-03-25T10:53:46.000Z</time>
      </trkpt>
      <trkpt lat="47.22949" lon="4.59233">
        <ele>414</ele>
        <time>2012-03-25T10:53:52.999Z</time>
      </trkpt>
      <trkpt lat="47.22947" lon="4.59226">
        <ele>414</ele>
        <time>2012-03-25T10:53:59.999Z</time>
      </trkpt>
      <trkpt lat="47.22947" lon="4.59219">
        <ele>414</ele>
        <time>2012-03-25T10:54:06.999Z</time>
      </trkpt>
      <trkpt lat="47.22949" lon="4.59213">
        <ele>414</ele>
        <time>2012-03-25T10:54:23.999Z</time>
      </trkpt>
      <trkpt lat="47.22952" lon="4.59207">
        <ele>414</ele>
        <time>2012-03-25T10:54:33.999Z</time>
      </trkpt>
      <trkpt lat="47.22955" lon="4.59201">
        <ele>413</ele>
        <time>2012-03-25T10:54:41.999Z</time>
      </trkpt>
      <trkpt lat="47.22957" lon="4.59195">
        <ele>413</ele>
        <time>2012-03-25T10:54:54.999Z</time>
      </trkpt>
      <trkpt lat="47.2296" lon="4.5919">
        <ele>413</ele>
        <time>2012-03-25T10:55:05.999Z</time>
      </trkpt>
      <trkpt lat="47.22962" lon="4.59184">
        <ele>413</ele>
        <time>2012-03-25T10:55:11.999Z</time>
      </trkpt>
      <trkpt lat="47.22964" lon="4.59178">
        <ele>413</ele>
        <time>2012-03-25T10:55:17.999Z</time>
      </trkpt>
      <trkpt lat="47.22966" lon="4.59171">
        <ele>413</ele>
        <time>2012-03-25T10:55:24.999Z</time>
      </trkpt>
      <trkpt lat="47.22968" lon="4.59164">
        <ele>413</ele>
        <time>2012-03-25T10:55:31.999Z</time>
      </trkpt>
      <trkpt lat="47.22971" lon="4.59158">
        <ele>413</ele>
        <time>2012-03-25T10:55:37.999Z</time>
      </trkpt>
      <trkpt lat="47.22974" lon="4.59152">
        <ele>413</ele>
        <time>2012-03-25T10:55:43.999Z</time>
      </trkpt>
      <trkpt lat="47.22978" lon="4.59147">
        <ele>413</ele>
        <time>2012-03-25T10:55:48.999Z</time>
      </trkpt>
      <trkpt lat="47.22982" lon="4.59142">
        <ele>413</ele>
        <time>2012-03-25T10:55:53.999Z</time>
      </trkpt>
      <trkpt lat="47.22985" lon="4.59136">
        <ele>413</ele>
        <time>2012-03-25T10:55:58.999Z</time>
      </trkpt>
      <trkpt lat="47.22989" lon="4.59131">
        <ele>413</ele>
        <time>2012-03-25T10:56:03.999Z</time>
      </trkpt>
      <trkpt lat="47.22992" lon="4.59126">
        <ele>413</ele>
        <time>2012-03-25T10:56:08.999Z</time>
      </trkpt>
      <trkpt lat="47.22996" lon="4.59122">
        <ele>413</ele>
        <time>2012-03-25T10:56:13.999Z</time>
      </trkpt>
      <trkpt lat="47.22999" lon="4.59117">
        <ele>413</ele>
        <time>2012-03-25T10:56:18.999Z</time>
      </trkpt>
      <trkpt lat="47.23003" lon="4.59112">
        <ele>413</ele>
        <time>2012-03-25T10:56:23.999Z</time>
      </trkpt>
      <trkpt lat="47.23006" lon="4.59107">
        <ele>413</ele>
        <time>2012-03-25T10:56:28.999Z</time>
      </trkpt>
      <trkpt lat="47.23009" lon="4.59101">
        <ele>413</ele>
        <time>2012-03-25T10:56:34.999Z</time>
      </trkpt>
      <trkpt lat="47.23012" lon="4.59096">
        <ele>413</ele>
        <time>2012-03-25T10:56:39.999Z</time>
      </trkpt>
      <trkpt lat="47.23016" lon="4.5909">
        <ele>413</ele>
        <time>2012-03-25T10:56:44.999Z</time>
      </trkpt>
      <trkpt lat="47.23019" lon="4.59086">
        <ele>413</ele>
        <time>2012-03-25T10:56:50.999Z</time>
      </trkpt>
      <trkpt lat="47.23024" lon="4.59085">
        <ele>413</ele>
        <time>2012-03-25T10:56:53.999Z</time>
      </trkpt>
      <trkpt lat="47.23028" lon="4.59082">
        <ele>413</ele>
        <time>2012-03-25T10:57:00.999Z</time>
      </trkpt>
      <trkpt lat="47.23032" lon="4.59077">
        <ele>413</ele>
        <time>2012-03-25T10:57:07.999Z</time>
      </trkpt>
      <trkpt lat="47.23036" lon="4.59072">
        <ele>413</ele>
        <time>2012-03-25T10:57:12.999Z</time>
      </trkpt>
      <trkpt lat="47.23038" lon="4.59066">
        <ele>413</ele>
        <time>2012-03-25T10:57:17.999Z</time>
      </trkpt>
      <trkpt lat="47.23041" lon="4.59061">
        <ele>413</ele>
        <time>2012-03-25T10:57:22.999Z</time>
      </trkpt>
      <trkpt lat="47.23044" lon="4.59056">
        <ele>413</ele>
        <time>2012-03-25T10:57:27.999Z</time>
      </trkpt>
      <trkpt lat="47.23047" lon="4.5905">
        <ele>413</ele>
        <time>2012-03-25T10:57:32.999Z</time>
      </trkpt>
      <trkpt lat="47.23051" lon="4.59045">
        <ele>413</ele>
        <time>2012-03-25T10:57:37.999Z</time>
      </trkpt>
      <trkpt lat="47.23054" lon="4.5904">
        <ele>413</ele>
        <time>2012-03-25T10:57:42.999Z</time>
      </trkpt>
      <trkpt lat="47.23058" lon="4.59034">
        <ele>413</ele>
        <time>2012-03-25T10:57:47.999Z</time>
      </trkpt>
      <trkpt lat="47.23061" lon="4.59029">
        <ele>413</ele>
        <time>2012-03-25T10:57:52.999Z</time>
      </trkpt>
      <trkpt lat="47.23064" lon="4.59024">
        <ele>413</ele>
        <time>2012-03-25T10:57:57.999Z</time>
      </trkpt>
      <trkpt lat="47.23068" lon="4.5902">
        <ele>413</ele>
        <time>2012-03-25T10:58:02.999Z</time>
      </trkpt>
      <trkpt lat="47.23072" lon="4.59015">
        <ele>414</ele>
        <time>2012-03-25T10:58:07.999Z</time>
      </trkpt>
      <trkpt lat="47.23076" lon="4.5901">
        <ele>414</ele>
        <time>2012-03-25T10:58:12.999Z</time>
      </trkpt>
      <trkpt lat="47.2308" lon="4.59006">
        <ele>414</ele>
        <time>2012-03-25T10:58:17.999Z</time>
      </trkpt>
      <trkpt lat="47.23084" lon="4.59004">
        <ele>414</ele>
        <time>2012-03-25T10:58:25.999Z</time>
      </trkpt>
      <trkpt lat="47.23089" lon="4.59001">
        <ele>414</ele>
        <time>2012-03-25T10:58:30.999Z</time>
      </trkpt>
      <trkpt lat="47.23094" lon="4.58998">
        <ele>414</ele>
        <time>2012-03-25T10:58:34.999Z</time>
      </trkpt>
      <trkpt lat="47.23099" lon="4.58995">
        <ele>414</ele>
        <time>2012-03-25T10:58:37.999Z</time>
      </trkpt>
      <trkpt lat="47.23104" lon="4.58992">
        <ele>414</ele>
        <time>2012-03-25T10:58:41.999Z</time>
      </trkpt>
      <trkpt lat="47.2311" lon="4.58989">
        <ele>414</ele>
        <time>2012-03-25T10:58:45.999Z</time>
      </trkpt>
      <trkpt lat="47.23115" lon="4.58986">
        <ele>414</ele>
        <time>2012-03-25T10:58:49.999Z</time>
      </trkpt>
      <trkpt lat="47.2312" lon="4.58983">
        <ele>414</ele>
        <time>2012-03-25T10:58:53.999Z</time>
      </trkpt>
      <trkpt lat="47.23126" lon="4.5898">
        <ele>414</ele>
        <time>2012-03-25T10:58:57.999Z</time>
      </trkpt>
      <trkpt lat="47.2313" lon="4.58977">
        <ele>414</ele>
        <time>2012-03-25T10:59:01.999Z</time>
      </trkpt>
      <trkpt lat="47.23135" lon="4.58974">
        <ele>414</ele>
        <time>2012-03-25T10:59:05.999Z</time>
      </trkpt>
      <trkpt lat="47.2314" lon="4.5897">
        <ele>414</ele>
        <time>2012-03-25T10:59:09.999Z</time>
      </trkpt>
      <trkpt lat="47.23146" lon="4.58968">
        <ele>414</ele>
        <time>2012-03-25T10:59:13.999Z</time>
      </trkpt>
      <trkpt lat="47.23151" lon="4.58965">
        <ele>414</ele>
        <time>2012-03-25T10:59:17.999Z</time>
      </trkpt>
      <trkpt lat="47.23156" lon="4.58963">
        <ele>414</ele>
        <time>2012-03-25T10:59:21.999Z</time>
      </trkpt>
      <trkpt lat="47.2316" lon="4.58961">
        <ele>414</ele>
        <time>2012-03-25T10:59:25.999Z</time>
      </trkpt>
      <trkpt lat="47.23166" lon="4.58959">
        <ele>414</ele>
        <time>2012-03-25T10:59:29.999Z</time>
      </trkpt>
      <trkpt lat="47.2317" lon="4.58959">
        <ele>414</ele>
        <time>2012-03-25T10:59:33.999Z</time>
      </trkpt>
      <trkpt lat="47.23176" lon="4.58959">
        <ele>414</ele>
        <time>2012-03-25T10:59:39.999Z</time>
      </trkpt>
      <trkpt lat="47.2318" lon="4.58957">
        <ele>414</ele>
        <time>2012-03-25T10:59:47.999Z</time>
      </trkpt>
      <trkpt lat="47.23185" lon="4.58957">
        <ele>414</ele>
        <time>2012-03-25T10:59:55.999Z</time>
      </trkpt>
      <trkpt lat="47.23189" lon="4.58956">
        <ele>414</ele>
        <time>2012-03-25T11:00:01.999Z</time>
      </trkpt>
      <trkpt lat="47.23194" lon="4.58957">
        <ele>414</ele>
        <time>2012-03-25T11:00:07.999Z</time>
      </trkpt>
      <trkpt lat="47.23199" lon="4.58956">
        <ele>414</ele>
        <time>2012-03-25T11:00:14.999Z</time>
      </trkpt>
      <trkpt lat="47.23204" lon="4.58956">
        <ele>414</ele>
        <time>2012-03-25T11:00:21.999Z</time>
      </trkpt>
      <trkpt lat="47.23209" lon="4.58956">
        <ele>414</ele>
        <time>2012-03-25T11:00:28.999Z</time>
      </trkpt>
      <trkpt lat="47.23214" lon="4.58956">
        <ele>415</ele>
        <time>2012-03-25T11:00:35.999Z</time>
      </trkpt>
      <trkpt lat="47.23219" lon="4.58955">
        <ele>415</ele>
        <time>2012-03-25T11:00:42.999Z</time>
      </trkpt>
      <trkpt lat="47.23224" lon="4.58955">
        <ele>415</ele>
        <time>2012-03-25T11:00:48.999Z</time>
      </trkpt>
      <trkpt lat="47.23228" lon="4.58956">
        <ele>415</ele>
        <time>2012-03-25T11:00:53.999Z</time>
      </trkpt>
      <trkpt lat="47.23233" lon="4.58956">
        <ele>415</ele>
        <time>2012-03-25T11:00:58.999Z</time>
      </trkpt>
      <trkpt lat="47.23238" lon="4.58955">
        <ele>415</ele>
        <time>2012-03-25T11:01:03.999Z</time>
      </trkpt>
      <trkpt lat="47.23243" lon="4.58953">
        <ele>415</ele>
        <time>2012-03-25T11:01:08.999Z</time>
      </trkpt>
      <trkpt lat="47.23248" lon="4.58951">
        <ele>415</ele>
        <time>2012-03-25T11:01:13.999Z</time>
      </trkpt>
      <trkpt lat="47.23254" lon="4.58949">
        <ele>415</ele>
        <time>2012-03-25T11:01:17.999Z</time>
      </trkpt>
      <trkpt lat="47.23258" lon="4.58948">
        <ele>415</ele>
        <time>2012-03-25T11:01:20.999Z</time>
      </trkpt>
      <trkpt lat="47.23263" lon="4.58946">
        <ele>415</ele>
        <time>2012-03-25T11:01:24.999Z</time>
      </trkpt>
      <trkpt lat="47.23268" lon="4.58943">
        <ele>415</ele>
        <time>2012-03-25T11:01:28.999Z</time>
      </trkpt>
      <trkpt lat="47.23272" lon="4.58939">
        <ele>415</ele>
        <time>2012-03-25T11:01:33.999Z</time>
      </trkpt>
      <trkpt lat="47.23276" lon="4.58934">
        <ele>415</ele>
        <time>2012-03-25T11:01:38.999Z</time>
      </trkpt>
      <trkpt lat="47.23279" lon="4.58928">
        <ele>415</ele>
        <time>2012-03-25T11:01:43.999Z</time>
      </trkpt>
      <trkpt lat="47.23282" lon="4.58924">
        <ele>415</ele>
        <time>2012-03-25T11:01:48.999Z</time>
      </trkpt>
      <trkpt lat="47.23286" lon="4.58919">
        <ele>415</ele>
        <time>2012-03-25T11:01:54.999Z</time>
      </trkpt>
      <trkpt lat="47.2329" lon="4.58914">
        <ele>415</ele>
        <time>2012-03-25T11:02:00.999Z</time>
      </trkpt>
      <trkpt lat="47.23295" lon="4.58915">
        <ele>415</ele>
        <time>2012-03-25T11:02:11.999Z</time>
      </trkpt>
      <trkpt lat="47.23299" lon="4.58914">
        <ele>415</ele>
        <time>2012-03-25T11:02:17.999Z</time>
      </trkpt>
      <trkpt lat="47.23304" lon="4.58914">
        <ele>415</ele>
        <time>2012-03-25T11:02:23.999Z</time>
      </trkpt>
      <trkpt lat="47.23309" lon="4.58914">
        <ele>415</ele>
        <time>2012-03-25T11:02:28.999Z</time>
      </trkpt>
      <trkpt lat="47.23314" lon="4.58913">
        <ele>415</ele>
        <time>2012-03-25T11:02:34.999Z</time>
      </trkpt>
      <trkpt lat="47.23372" lon="4.58944">
        <ele>436</ele>
        <time>2012-03-25T11:02:47.788Z</time>
      </trkpt>
      <trkpt lat="47.23372" lon="4.58944">
        <ele>436</ele>
        <time>2012-03-25T11:02:47.788Z</time>
      </trkpt>
      <trkpt lat="47.23372" lon="4.58944">
        <ele>436</ele>
        <time>2012-03-25T11:02:52.782Z</time>
      </trkpt>
      <trkpt lat="47.23367" lon="4.58931">
        <ele>437</ele>
        <time>2012-03-25T11:02:53.783Z</time>
      </trkpt>
      <trkpt lat="47.23367" lon="4.58931">
        <ele>437</ele>
        <time>2012-03-25T11:02:53.783Z</time>
      </trkpt>
      <trkpt lat="47.23367" lon="4.58931">
        <ele>437</ele>
        <time>2012-03-25T11:03:10.767Z</time>
      </trkpt>
      <trkpt lat="47.23368" lon="4.58925">
        <ele>437</ele>
        <time>2012-03-25T11:03:12.000Z</time>
      </trkpt>
      <trkpt lat="47.23372" lon="4.58931">
        <ele>437</ele>
        <time>2012-03-25T11:03:18.000Z</time>
      </trkpt>
      <trkpt lat="47.23376" lon="4.58932">
        <ele>437</ele>
        <time>2012-03-25T11:03:23.000Z</time>
      </trkpt>
      <trkpt lat="47.2338" lon="4.58928">
        <ele>437</ele>
        <time>2012-03-25T11:03:26.000Z</time>
      </trkpt>
      <trkpt lat="47.23384" lon="4.58921">
        <ele>437</ele>
        <time>2012-03-25T11:03:29.000Z</time>
      </trkpt>
      <trkpt lat="47.23388" lon="4.58915">
        <ele>437</ele>
        <time>2012-03-25T11:03:32.000Z</time>
      </trkpt>
      <trkpt lat="47.23392" lon="4.58908">
        <ele>437</ele>
        <time>2012-03-25T11:03:35.000Z</time>
      </trkpt>
      <trkpt lat="47.23397" lon="4.58903">
        <ele>437</ele>
        <time>2012-03-25T11:03:38.000Z</time>
      </trkpt>
      <trkpt lat="47.23401" lon="4.58899">
        <ele>437</ele>
        <time>2012-03-25T11:03:43.000Z</time>
      </trkpt>
      <trkpt lat="47.23405" lon="4.58894">
        <ele>437</ele>
        <time>2012-03-25T11:03:48.000Z</time>
      </trkpt>
      <trkpt lat="47.23409" lon="4.5889">
        <ele>437</ele>
        <time>2012-03-25T11:03:52.000Z</time>
      </trkpt>
      <trkpt lat="47.23414" lon="4.58885">
        <ele>437</ele>
        <time>2012-03-25T11:03:56.000Z</time>
      </trkpt>
      <trkpt lat="47.23418" lon="4.5888">
        <ele>437</ele>
        <time>2012-03-25T11:04:00.000Z</time>
      </trkpt>
      <trkpt lat="47.23422" lon="4.58876">
        <ele>437</ele>
        <time>2012-03-25T11:04:03.000Z</time>
      </trkpt>
      <trkpt lat="47.23427" lon="4.58873">
        <ele>437</ele>
        <time>2012-03-25T11:04:07.000Z</time>
      </trkpt>
      <trkpt lat="47.23432" lon="4.5887">
        <ele>437</ele>
        <time>2012-03-25T11:04:11.000Z</time>
      </trkpt>
      <trkpt lat="47.23437" lon="4.5887">
        <ele>437</ele>
        <time>2012-03-25T11:04:16.000Z</time>
      </trkpt>
      <trkpt lat="47.23442" lon="4.58872">
        <ele>437</ele>
        <time>2012-03-25T11:04:22.000Z</time>
      </trkpt>
      <trkpt lat="47.23447" lon="4.58875">
        <ele>437</ele>
        <time>2012-03-25T11:04:28.000Z</time>
      </trkpt>
      <trkpt lat="47.23452" lon="4.58872">
        <ele>437</ele>
        <time>2012-03-25T11:04:34.000Z</time>
      </trkpt>
      <trkpt lat="47.23456" lon="4.58869">
        <ele>437</ele>
        <time>2012-03-25T11:04:39.000Z</time>
      </trkpt>
      <trkpt lat="47.2346" lon="4.58867">
        <ele>437</ele>
        <time>2012-03-25T11:04:45.000Z</time>
      </trkpt>
      <trkpt lat="47.23465" lon="4.58863">
        <ele>437</ele>
        <time>2012-03-25T11:04:50.000Z</time>
      </trkpt>
      <trkpt lat="47.23468" lon="4.5886">
        <ele>437</ele>
        <time>2012-03-25T11:04:55.000Z</time>
      </trkpt>
      <trkpt lat="47.23473" lon="4.58856">
        <ele>437</ele>
        <time>2012-03-25T11:05:01.000Z</time>
      </trkpt>
      <trkpt lat="47.23477" lon="4.58852">
        <ele>437</ele>
        <time>2012-03-25T11:05:07.000Z</time>
      </trkpt>
      <trkpt lat="47.23482" lon="4.5885">
        <ele>437</ele>
        <time>2012-03-25T11:05:12.000Z</time>
      </trkpt>
      <trkpt lat="47.23487" lon="4.58849">
        <ele>437</ele>
        <time>2012-03-25T11:05:16.000Z</time>
      </trkpt>
      <trkpt lat="47.23491" lon="4.58848">
        <ele>437</ele>
        <time>2012-03-25T11:05:20.000Z</time>
      </trkpt>
      <trkpt lat="47.23496" lon="4.58846">
        <ele>437</ele>
        <time>2012-03-25T11:05:24.000Z</time>
      </trkpt>
      <trkpt lat="47.23501" lon="4.58846">
        <ele>437</ele>
        <time>2012-03-25T11:05:29.000Z</time>
      </trkpt>
      <trkpt lat="47.23505" lon="4.58841">
        <ele>437</ele>
        <time>2012-03-25T11:05:38.000Z</time>
      </trkpt>
      <trkpt lat="47.23508" lon="4.58837">
        <ele>437</ele>
        <time>2012-03-25T11:05:44.000Z</time>
      </trkpt>
      <trkpt lat="47.23513" lon="4.58835">
        <ele>437</ele>
        <time>2012-03-25T11:05:50.000Z</time>
      </trkpt>
      <trkpt lat="47.23516" lon="4.5884">
        <ele>437</ele>
        <time>2012-03-25T11:05:56.000Z</time>
      </trkpt>
      <trkpt lat="47.23522" lon="4.5884">
        <ele>437</ele>
        <time>2012-03-25T11:05:59.000Z</time>
      </trkpt>
      <trkpt lat="47.23527" lon="4.5884">
        <ele>437</ele>
        <time>2012-03-25T11:06:02.000Z</time>
      </trkpt>
      <trkpt lat="47.23533" lon="4.58839">
        <ele>437</ele>
        <time>2012-03-25T11:06:06.000Z</time>
      </trkpt>
      <trkpt lat="47.23538" lon="4.58838">
        <ele>437</ele>
        <time>2012-03-25T11:06:10.000Z</time>
      </trkpt>
      <trkpt lat="47.23542" lon="4.58836">
        <ele>437</ele>
        <time>2012-03-25T11:06:14.000Z</time>
      </trkpt>
      <trkpt lat="47.23547" lon="4.58835">
        <ele>437</ele>
        <time>2012-03-25T11:06:18.000Z</time>
      </trkpt>
      <trkpt lat="47.23552" lon="4.58833">
        <ele>437</ele>
        <time>2012-03-25T11:06:23.000Z</time>
      </trkpt>
      <trkpt lat="47.23557" lon="4.58831">
        <ele>437</ele>
        <time>2012-03-25T11:06:27.000Z</time>
      </trkpt>
      <trkpt lat="47.23563" lon="4.5883">
        <ele>437</ele>
        <time>2012-03-25T11:06:31.000Z</time>
      </trkpt>
      <trkpt lat="47.23568" lon="4.58829">
        <ele>437</ele>
        <time>2012-03-25T11:06:35.000Z</time>
      </trkpt>
      <trkpt lat="47.23573" lon="4.58829">
        <ele>437</ele>
        <time>2012-03-25T11:06:39.000Z</time>
      </trkpt>
      <trkpt lat="47.23577" lon="4.58829">
        <ele>437</ele>
        <time>2012-03-25T11:06:43.000Z</time>
      </trkpt>
      <trkpt lat="47.23583" lon="4.58829">
        <ele>437</ele>
        <time>2012-03-25T11:06:48.000Z</time>
      </trkpt>
      <trkpt lat="47.23588" lon="4.58828">
        <ele>437</ele>
        <time>2012-03-25T11:06:53.000Z</time>
      </trkpt>
      <trkpt lat="47.23594" lon="4.58827">
        <ele>437</ele>
        <time>2012-03-25T11:06:58.000Z</time>
      </trkpt>
      <trkpt lat="47.23599" lon="4.58827">
        <ele>437</ele>
        <time>2012-03-25T11:07:03.000Z</time>
      </trkpt>
      <trkpt lat="47.23604" lon="4.58826">
        <ele>437</ele>
        <time>2012-03-25T11:07:08.000Z</time>
      </trkpt>
      <trkpt lat="47.23609" lon="4.58825">
        <ele>437</ele>
        <time>2012-03-25T11:07:13.000Z</time>
      </trkpt>
      <trkpt lat="47.23614" lon="4.58823">
        <ele>437</ele>
        <time>2012-03-25T11:07:18.000Z</time>
      </trkpt>
      <trkpt lat="47.23619" lon="4.58822">
        <ele>437</ele>
        <time>2012-03-25T11:07:23.000Z</time>
      </trkpt>
      <trkpt lat="47.23624" lon="4.58822">
        <ele>437</ele>
        <time>2012-03-25T11:07:28.000Z</time>
      </trkpt>
      <trkpt lat="47.23629" lon="4.58822">
        <ele>437</ele>
        <time>2012-03-25T11:07:33.000Z</time>
      </trkpt>
      <trkpt lat="47.23634" lon="4.58822">
        <ele>437</ele>
        <time>2012-03-25T11:07:38.000Z</time>
      </trkpt>
      <trkpt lat="47.23639" lon="4.58821">
        <ele>437</ele>
        <time>2012-03-25T11:07:43.000Z</time>
      </trkpt>
      <trkpt lat="47.23644" lon="4.58821">
        <ele>437</ele>
        <time>2012-03-25T11:07:48.000Z</time>
      </trkpt>
      <trkpt lat="47.2365" lon="4.58819">
        <ele>437</ele>
        <time>2012-03-25T11:07:53.000Z</time>
      </trkpt>
      <trkpt lat="47.23655" lon="4.58818">
        <ele>437</ele>
        <time>2012-03-25T11:07:58.000Z</time>
      </trkpt>
      <trkpt lat="47.2366" lon="4.58816">
        <ele>437</ele>
        <time>2012-03-25T11:08:03.000Z</time>
      </trkpt>
      <trkpt lat="47.23665" lon="4.58814">
        <ele>437</ele>
        <time>2012-03-25T11:08:08.000Z</time>
      </trkpt>
      <trkpt lat="47.2367" lon="4.58812">
        <ele>437</ele>
        <time>2012-03-25T11:08:13.000Z</time>
      </trkpt>
      <trkpt lat="47.23675" lon="4.5881">
        <ele>437</ele>
        <time>2012-03-25T11:08:17.000Z</time>
      </trkpt>
      <trkpt lat="47.2368" lon="4.58809">
        <ele>437</ele>
        <time>2012-03-25T11:08:21.000Z</time>
      </trkpt>
      <trkpt lat="47.23684" lon="4.58806">
        <ele>437</ele>
        <time>2012-03-25T11:08:25.000Z</time>
      </trkpt>
      <trkpt lat="47.23689" lon="4.58804">
        <ele>437</ele>
        <time>2012-03-25T11:08:29.000Z</time>
      </trkpt>
      <trkpt lat="47.23694" lon="4.58802">
        <ele>437</ele>
        <time>2012-03-25T11:08:33.000Z</time>
      </trkpt>
      <trkpt lat="47.23699" lon="4.588">
        <ele>437</ele>
        <time>2012-03-25T11:08:37.000Z</time>
      </trkpt>
      <trkpt lat="47.23704" lon="4.58798">
        <ele>437</ele>
        <time>2012-03-25T11:08:41.000Z</time>
      </trkpt>
      <trkpt lat="47.23708" lon="4.58796">
        <ele>437</ele>
        <time>2012-03-25T11:08:45.000Z</time>
      </trkpt>
      <trkpt lat="47.23713" lon="4.58794">
        <ele>437</ele>
        <time>2012-03-25T11:08:49.000Z</time>
      </trkpt>
      <trkpt lat="47.23718" lon="4.58792">
        <ele>437</ele>
        <time>2012-03-25T11:08:53.000Z</time>
      </trkpt>
      <trkpt lat="47.23722" lon="4.58789">
        <ele>437</ele>
        <time>2012-03-25T11:08:57.000Z</time>
      </trkpt>
      <trkpt lat="47.23727" lon="4.58787">
        <ele>437</ele>
        <time>2012-03-25T11:09:01.000Z</time>
      </trkpt>
      <trkpt lat="47.23731" lon="4.58784">
        <ele>437</ele>
        <time>2012-03-25T11:09:05.000Z</time>
      </trkpt>
      <trkpt lat="47.23736" lon="4.58782">
        <ele>437</ele>
        <time>2012-03-25T11:09:09.000Z</time>
      </trkpt>
      <trkpt lat="47.2374" lon="4.5878">
        <ele>437</ele>
        <time>2012-03-25T11:09:13.000Z</time>
      </trkpt>
      <trkpt lat="47.23744" lon="4.58778">
        <ele>437</ele>
        <time>2012-03-25T11:09:17.000Z</time>
      </trkpt>
      <trkpt lat="47.23749" lon="4.58777">
        <ele>437</ele>
        <time>2012-03-25T11:09:21.000Z</time>
      </trkpt>
      <trkpt lat="47.23753" lon="4.58775">
        <ele>437</ele>
        <time>2012-03-25T11:09:25.000Z</time>
      </trkpt>
      <trkpt lat="47.23758" lon="4.58773">
        <ele>437</ele>
        <time>2012-03-25T11:09:29.000Z</time>
      </trkpt>
      <trkpt lat="47.23762" lon="4.58771">
        <ele>437</ele>
        <time>2012-03-25T11:09:33.000Z</time>
      </trkpt>
      <trkpt lat="47.23767" lon="4.5877">
        <ele>437</ele>
        <time>2012-03-25T11:09:37.000Z</time>
      </trkpt>
      <trkpt lat="47.23771" lon="4.58768">
        <ele>437</ele>
        <time>2012-03-25T11:09:45.000Z</time>
      </trkpt>
      <trkpt lat="47.23776" lon="4.58767">
        <ele>437</ele>
        <time>2012-03-25T11:09:54.000Z</time>
      </trkpt>
      <trkpt lat="47.23781" lon="4.58765">
        <ele>437</ele>
        <time>2012-03-25T11:09:59.000Z</time>
      </trkpt>
      <trkpt lat="47.23786" lon="4.58763">
        <ele>437</ele>
        <time>2012-03-25T11:10:04.000Z</time>
      </trkpt>
      <trkpt lat="47.2379" lon="4.58762">
        <ele>437</ele>
        <time>2012-03-25T11:10:08.000Z</time>
      </trkpt>
      <trkpt lat="47.23795" lon="4.5876">
        <ele>437</ele>
        <time>2012-03-25T11:10:12.000Z</time>
      </trkpt>
      <trkpt lat="47.238" lon="4.58758">
        <ele>437</ele>
        <time>2012-03-25T11:10:18.000Z</time>
      </trkpt>
      <trkpt lat="47.23805" lon="4.58756">
        <ele>437</ele>
        <time>2012-03-25T11:10:24.000Z</time>
      </trkpt>
      <trkpt lat="47.23863" lon="4.58722">
        <ele>437</ele>
        <time>2012-03-25T11:10:38.000Z</time>
      </trkpt>
      <trkpt lat="47.23863" lon="4.58722">
        <ele>437</ele>
        <time>2012-03-25T11:10:38.000Z</time>
      </trkpt>
      <trkpt lat="47.23863" lon="4.58722">
        <ele>437</ele>
        <time>2012-03-25T11:10:40.000Z</time>
      </trkpt>
      <trkpt lat="47.23848" lon="4.58712">
        <ele>437</ele>
        <time>2012-03-25T11:10:41.000Z</time>
      </trkpt>
      <trkpt lat="47.23837" lon="4.58699">
        <ele>437</ele>
        <time>2012-03-25T11:10:44.000Z</time>
      </trkpt>
      <trkpt lat="47.23834" lon="4.58688">
        <ele>437</ele>
        <time>2012-03-25T11:10:46.000Z</time>
      </trkpt>
      <trkpt lat="47.23837" lon="4.58677">
        <ele>436</ele>
        <time>2012-03-25T11:10:48.000Z</time>
      </trkpt>
      <trkpt lat="47.23831" lon="4.58686">
        <ele>435</ele>
        <time>2012-03-25T11:10:52.000Z</time>
      </trkpt>
      <trkpt lat="47.23827" lon="4.5869">
        <ele>435</ele>
        <time>2012-03-25T11:10:53.000Z</time>
      </trkpt>
      <trkpt lat="47.23821" lon="4.58695">
        <ele>434</ele>
        <time>2012-03-25T11:10:55.000Z</time>
      </trkpt>
      <trkpt lat="47.23816" lon="4.58693">
        <ele>434</ele>
        <time>2012-03-25T11:11:00.000Z</time>
      </trkpt>
      <trkpt lat="47.23812" lon="4.58688">
        <ele>434</ele>
        <time>2012-03-25T11:11:04.000Z</time>
      </trkpt>
      <trkpt lat="47.23807" lon="4.58686">
        <ele>434</ele>
        <time>2012-03-25T11:11:08.000Z</time>
      </trkpt>
      <trkpt lat="47.23815" lon="4.5869">
        <ele>434</ele>
        <time>2012-03-25T11:11:15.000Z</time>
      </trkpt>
      <trkpt lat="47.23815" lon="4.5869">
        <ele>434</ele>
        <time>2012-03-25T11:11:15.000Z</time>
      </trkpt>
      <trkpt lat="47.23815" lon="4.5869">
        <ele>434</ele>
        <time>2012-03-25T11:11:18.000Z</time>
      </trkpt>
      <trkpt lat="47.23826" lon="4.58697">
        <ele>434</ele>
        <time>2012-03-25T11:11:19.000Z</time>
      </trkpt>
      <trkpt lat="47.23826" lon="4.58697">
        <ele>434</ele>
        <time>2012-03-25T11:11:19.000Z</time>
      </trkpt>
      <trkpt lat="47.23826" lon="4.58697">
        <ele>434</ele>
        <time>2012-03-25T11:11:22.000Z</time>
      </trkpt>
      <trkpt lat="47.23836" lon="4.58699">
        <ele>434</ele>
        <time>2012-03-25T11:11:23.000Z</time>
      </trkpt>
      <trkpt lat="47.23836" lon="4.58699">
        <ele>434</ele>
        <time>2012-03-25T11:11:23.000Z</time>
      </trkpt>
      <trkpt lat="47.23836" lon="4.58699">
        <ele>434</ele>
        <time>2012-03-25T11:11:29.000Z</time>
      </trkpt>
      <trkpt lat="47.23845" lon="4.58697">
        <ele>434</ele>
        <time>2012-03-25T11:11:30.000Z</time>
      </trkpt>
      <trkpt lat="47.23845" lon="4.58697">
        <ele>434</ele>
        <time>2012-03-25T11:11:30.000Z</time>
      </trkpt>
      <trkpt lat="47.23845" lon="4.58697">
        <ele>434</ele>
        <time>2012-03-25T11:11:39.000Z</time>
      </trkpt>
      <trkpt lat="47.23854" lon="4.58693">
        <ele>435</ele>
        <time>2012-03-25T11:11:40.000Z</time>
      </trkpt>
      <trkpt lat="47.23854" lon="4.58693">
        <ele>435</ele>
        <time>2012-03-25T11:11:40.000Z</time>
      </trkpt>
      <trkpt lat="47.23854" lon="4.58693">
        <ele>435</ele>
        <time>2012-03-25T11:11:47.000Z</time>
      </trkpt>
      <trkpt lat="47.23862" lon="4.58688">
        <ele>435</ele>
        <time>2012-03-25T11:11:48.000Z</time>
      </trkpt>
      <trkpt lat="47.23862" lon="4.58688">
        <ele>435</ele>
        <time>2012-03-25T11:11:48.000Z</time>
      </trkpt>
      <trkpt lat="47.23862" lon="4.58688">
        <ele>435</ele>
        <time>2012-03-25T11:11:52.000Z</time>
      </trkpt>
      <trkpt lat="47.23871" lon="4.58686">
        <ele>435</ele>
        <time>2012-03-25T11:11:53.000Z</time>
      </trkpt>
      <trkpt lat="47.23871" lon="4.58686">
        <ele>435</ele>
        <time>2012-03-25T11:11:53.000Z</time>
      </trkpt>
      <trkpt lat="47.23871" lon="4.58686">
        <ele>435</ele>
        <time>2012-03-25T11:11:55.000Z</time>
      </trkpt>
      <trkpt lat="47.2388" lon="4.58685">
        <ele>435</ele>
        <time>2012-03-25T11:11:56.000Z</time>
      </trkpt>
      <trkpt lat="47.2388" lon="4.58685">
        <ele>435</ele>
        <time>2012-03-25T11:11:56.000Z</time>
      </trkpt>
      <trkpt lat="47.2388" lon="4.58685">
        <ele>435</ele>
        <time>2012-03-25T11:11:59.000Z</time>
      </trkpt>
      <trkpt lat="47.2389" lon="4.58684">
        <ele>435</ele>
        <time>2012-03-25T11:12:00.000Z</time>
      </trkpt>
      <trkpt lat="47.2389" lon="4.58684">
        <ele>435</ele>
        <time>2012-03-25T11:12:00.000Z</time>
      </trkpt>
      <trkpt lat="47.2389" lon="4.58684">
        <ele>435</ele>
        <time>2012-03-25T11:12:04.000Z</time>
      </trkpt>
      <trkpt lat="47.239" lon="4.5868">
        <ele>435</ele>
        <time>2012-03-25T11:12:05.000Z</time>
      </trkpt>
      <trkpt lat="47.239" lon="4.5868">
        <ele>435</ele>
        <time>2012-03-25T11:12:05.000Z</time>
      </trkpt>
      <trkpt lat="47.239" lon="4.5868">
        <ele>435</ele>
        <time>2012-03-25T11:12:11.000Z</time>
      </trkpt>
      <trkpt lat="47.23909" lon="4.58674">
        <ele>435</ele>
        <time>2012-03-25T11:12:12.000Z</time>
      </trkpt>
      <trkpt lat="47.23909" lon="4.58674">
        <ele>435</ele>
        <time>2012-03-25T11:12:12.000Z</time>
      </trkpt>
      <trkpt lat="47.23909" lon="4.58674">
        <ele>435</ele>
        <time>2012-03-25T11:12:19.000Z</time>
      </trkpt>
      <trkpt lat="47.23918" lon="4.5867">
        <ele>435</ele>
        <time>2012-03-25T11:12:20.000Z</time>
      </trkpt>
      <trkpt lat="47.23918" lon="4.5867">
        <ele>435</ele>
        <time>2012-03-25T11:12:20.000Z</time>
      </trkpt>
      <trkpt lat="47.23918" lon="4.5867">
        <ele>435</ele>
        <time>2012-03-25T11:12:29.000Z</time>
      </trkpt>
      <trkpt lat="47.23927" lon="4.58666">
        <ele>435</ele>
        <time>2012-03-25T11:12:30.000Z</time>
      </trkpt>
      <trkpt lat="47.23927" lon="4.58666">
        <ele>435</ele>
        <time>2012-03-25T11:12:30.000Z</time>
      </trkpt>
      <trkpt lat="47.23927" lon="4.58666">
        <ele>435</ele>
        <time>2012-03-25T11:12:39.000Z</time>
      </trkpt>
      <trkpt lat="47.23937" lon="4.58665">
        <ele>436</ele>
        <time>2012-03-25T11:12:40.000Z</time>
      </trkpt>
      <trkpt lat="47.23937" lon="4.58665">
        <ele>436</ele>
        <time>2012-03-25T11:12:40.000Z</time>
      </trkpt>
      <trkpt lat="47.23937" lon="4.58665">
        <ele>436</ele>
        <time>2012-03-25T11:12:47.000Z</time>
      </trkpt>
      <trkpt lat="47.23946" lon="4.58663">
        <ele>436</ele>
        <time>2012-03-25T11:12:48.000Z</time>
      </trkpt>
      <trkpt lat="47.23946" lon="4.58663">
        <ele>436</ele>
        <time>2012-03-25T11:12:48.000Z</time>
      </trkpt>
      <trkpt lat="47.23946" lon="4.58663">
        <ele>436</ele>
        <time>2012-03-25T11:12:53.000Z</time>
      </trkpt>
      <trkpt lat="47.23956" lon="4.58664">
        <ele>436</ele>
        <time>2012-03-25T11:12:54.000Z</time>
      </trkpt>
      <trkpt lat="47.23956" lon="4.58664">
        <ele>436</ele>
        <time>2012-03-25T11:12:54.000Z</time>
      </trkpt>
      <trkpt lat="47.23956" lon="4.58664">
        <ele>436</ele>
        <time>2012-03-25T11:12:59.000Z</time>
      </trkpt>
      <trkpt lat="47.23966" lon="4.58667">
        <ele>436</ele>
        <time>2012-03-25T11:13:00.000Z</time>
      </trkpt>
      <trkpt lat="47.23966" lon="4.58667">
        <ele>436</ele>
        <time>2012-03-25T11:13:00.000Z</time>
      </trkpt>
      <trkpt lat="47.23966" lon="4.58667">
        <ele>436</ele>
        <time>2012-03-25T11:13:04.000Z</time>
      </trkpt>
      <trkpt lat="47.23977" lon="4.58667">
        <ele>436</ele>
        <time>2012-03-25T11:13:05.000Z</time>
      </trkpt>
      <trkpt lat="47.23977" lon="4.58667">
        <ele>436</ele>
        <time>2012-03-25T11:13:05.000Z</time>
      </trkpt>
      <trkpt lat="47.23977" lon="4.58667">
        <ele>436</ele>
        <time>2012-03-25T11:13:09.000Z</time>
      </trkpt>
      <trkpt lat="47.23987" lon="4.58665">
        <ele>436</ele>
        <time>2012-03-25T11:13:10.000Z</time>
      </trkpt>
      <trkpt lat="47.23987" lon="4.58665">
        <ele>436</ele>
        <time>2012-03-25T11:13:10.000Z</time>
      </trkpt>
      <trkpt lat="47.23987" lon="4.58665">
        <ele>436</ele>
        <time>2012-03-25T11:13:14.000Z</time>
      </trkpt>
      <trkpt lat="47.23997" lon="4.58661">
        <ele>436</ele>
        <time>2012-03-25T11:13:15.000Z</time>
      </trkpt>
      <trkpt lat="47.23997" lon="4.58661">
        <ele>436</ele>
        <time>2012-03-25T11:13:15.000Z</time>
      </trkpt>
      <trkpt lat="47.23997" lon="4.58661">
        <ele>436</ele>
        <time>2012-03-25T11:13:19.000Z</time>
      </trkpt>
      <trkpt lat="47.24006" lon="4.58655">
        <ele>437</ele>
        <time>2012-03-25T11:13:20.000Z</time>
      </trkpt>
      <trkpt lat="47.24006" lon="4.58655">
        <ele>437</ele>
        <time>2012-03-25T11:13:20.000Z</time>
      </trkpt>
      <trkpt lat="47.24006" lon="4.58655">
        <ele>437</ele>
        <time>2012-03-25T11:13:23.000Z</time>
      </trkpt>
      <trkpt lat="47.24014" lon="4.58649">
        <ele>437</ele>
        <time>2012-03-25T11:13:24.000Z</time>
      </trkpt>
      <trkpt lat="47.24014" lon="4.58649">
        <ele>437</ele>
        <time>2012-03-25T11:13:24.000Z</time>
      </trkpt>
      <trkpt lat="47.24014" lon="4.58649">
        <ele>437</ele>
        <time>2012-03-25T11:13:27.000Z</time>
      </trkpt>
      <trkpt lat="47.24023" lon="4.58642">
        <ele>437</ele>
        <time>2012-03-25T11:13:28.000Z</time>
      </trkpt>
      <trkpt lat="47.24023" lon="4.58642">
        <ele>437</ele>
        <time>2012-03-25T11:13:28.000Z</time>
      </trkpt>
      <trkpt lat="47.24023" lon="4.58642">
        <ele>437</ele>
        <time>2012-03-25T11:13:31.000Z</time>
      </trkpt>
      <trkpt lat="47.24032" lon="4.58636">
        <ele>437</ele>
        <time>2012-03-25T11:13:32.000Z</time>
      </trkpt>
      <trkpt lat="47.24032" lon="4.58636">
        <ele>437</ele>
        <time>2012-03-25T11:13:32.000Z</time>
      </trkpt>
      <trkpt lat="47.24032" lon="4.58636">
        <ele>437</ele>
        <time>2012-03-25T11:13:34.000Z</time>
      </trkpt>
      <trkpt lat="47.2404" lon="4.58632">
        <ele>437</ele>
        <time>2012-03-25T11:13:35.000Z</time>
      </trkpt>
      <trkpt lat="47.24046" lon="4.58629">
        <ele>437</ele>
        <time>2012-03-25T11:13:37.000Z</time>
      </trkpt>
      <trkpt lat="47.24052" lon="4.58626">
        <ele>437</ele>
        <time>2012-03-25T11:13:39.000Z</time>
      </trkpt>
      <trkpt lat="47.24057" lon="4.58624">
        <ele>437</ele>
        <time>2012-03-25T11:13:41.000Z</time>
      </trkpt>
      <trkpt lat="47.24064" lon="4.58622">
        <ele>437</ele>
        <time>2012-03-25T11:13:43.000Z</time>
      </trkpt>
      <trkpt lat="47.2407" lon="4.58619">
        <ele>437</ele>
        <time>2012-03-25T11:13:45.000Z</time>
      </trkpt>
      <trkpt lat="47.24076" lon="4.58617">
        <ele>437</ele>
        <time>2012-03-25T11:13:47.000Z</time>
      </trkpt>
      <trkpt lat="47.24082" lon="4.58614">
        <ele>437</ele>
        <time>2012-03-25T11:13:49.000Z</time>
      </trkpt>
      <trkpt lat="47.24088" lon="4.58611">
        <ele>438</ele>
        <time>2012-03-25T11:13:51.000Z</time>
      </trkpt>
      <trkpt lat="47.24094" lon="4.58609">
        <ele>438</ele>
        <time>2012-03-25T11:13:53.000Z</time>
      </trkpt>
      <trkpt lat="47.24099" lon="4.58606">
        <ele>438</ele>
        <time>2012-03-25T11:13:55.000Z</time>
      </trkpt>
      <trkpt lat="47.24105" lon="4.58603">
        <ele>438</ele>
        <time>2012-03-25T11:13:57.000Z</time>
      </trkpt>
      <trkpt lat="47.2411" lon="4.586">
        <ele>438</ele>
        <time>2012-03-25T11:13:59.000Z</time>
      </trkpt>
      <trkpt lat="47.24116" lon="4.58597">
        <ele>438</ele>
        <time>2012-03-25T11:14:01.000Z</time>
      </trkpt>
      <trkpt lat="47.24121" lon="4.58594">
        <ele>438</ele>
        <time>2012-03-25T11:14:03.000Z</time>
      </trkpt>
      <trkpt lat="47.24126" lon="4.58591">
        <ele>438</ele>
        <time>2012-03-25T11:14:05.000Z</time>
      </trkpt>
      <trkpt lat="47.24131" lon="4.58588">
        <ele>438</ele>
        <time>2012-03-25T11:14:07.000Z</time>
      </trkpt>
      <trkpt lat="47.24136" lon="4.58584">
        <ele>438</ele>
        <time>2012-03-25T11:14:09.000Z</time>
      </trkpt>
      <trkpt lat="47.24141" lon="4.58581">
        <ele>438</ele>
        <time>2012-03-25T11:14:11.000Z</time>
      </trkpt>
      <trkpt lat="47.24146" lon="4.58578">
        <ele>438</ele>
        <time>2012-03-25T11:14:13.000Z</time>
      </trkpt>
      <trkpt lat="47.2415" lon="4.58574">
        <ele>439</ele>
        <time>2012-03-25T11:14:15.000Z</time>
      </trkpt>
      <trkpt lat="47.24153" lon="4.5857">
        <ele>439</ele>
        <time>2012-03-25T11:14:17.000Z</time>
      </trkpt>
      <trkpt lat="47.24158" lon="4.58564">
        <ele>439</ele>
        <time>2012-03-25T11:14:20.000Z</time>
      </trkpt>
      <trkpt lat="47.24163" lon="4.58559">
        <ele>439</ele>
        <time>2012-03-25T11:14:23.000Z</time>
      </trkpt>
      <trkpt lat="47.24167" lon="4.58555">
        <ele>439</ele>
        <time>2012-03-25T11:14:26.000Z</time>
      </trkpt>
      <trkpt lat="47.24172" lon="4.5855">
        <ele>439</ele>
        <time>2012-03-25T11:14:29.000Z</time>
      </trkpt>
      <trkpt lat="47.24175" lon="4.58546">
        <ele>439</ele>
        <time>2012-03-25T11:14:32.000Z</time>
      </trkpt>
      <trkpt lat="47.24179" lon="4.58541">
        <ele>439</ele>
        <time>2012-03-25T11:14:36.000Z</time>
      </trkpt>
      <trkpt lat="47.24181" lon="4.58534">
        <ele>439</ele>
        <time>2012-03-25T11:14:41.000Z</time>
      </trkpt>
      <trkpt lat="47.24176" lon="4.5853">
        <ele>439</ele>
        <time>2012-03-25T11:14:46.000Z</time>
      </trkpt>
      <trkpt lat="47.2417" lon="4.58531">
        <ele>439</ele>
        <time>2012-03-25T11:14:48.000Z</time>
      </trkpt>
      <trkpt lat="47.24164" lon="4.58532">
        <ele>439</ele>
        <time>2012-03-25T11:14:50.000Z</time>
      </trkpt>
      <trkpt lat="47.2416" lon="4.58532">
        <ele>439</ele>
        <time>2012-03-25T11:14:52.000Z</time>
      </trkpt>
      <trkpt lat="47.24154" lon="4.58532">
        <ele>439</ele>
        <time>2012-03-25T11:14:55.000Z</time>
      </trkpt>
      <trkpt lat="47.24149" lon="4.5853">
        <ele>439</ele>
        <time>2012-03-25T11:14:59.000Z</time>
      </trkpt>
      <trkpt lat="47.24149" lon="4.58523">
        <ele>439</ele>
        <time>2012-03-25T11:15:08.000Z</time>
      </trkpt>
      <trkpt lat="47.24152" lon="4.58519">
        <ele>439</ele>
        <time>2012-03-25T11:15:14.000Z</time>
      </trkpt>
      <trkpt lat="47.24157" lon="4.58517">
        <ele>439</ele>
        <time>2012-03-25T11:15:21.000Z</time>
      </trkpt>
      <trkpt lat="47.24161" lon="4.58512">
        <ele>439</ele>
        <time>2012-03-25T11:15:26.000Z</time>
      </trkpt>
      <trkpt lat="47.24165" lon="4.58508">
        <ele>439</ele>
        <time>2012-03-25T11:15:31.000Z</time>
      </trkpt>
      <trkpt lat="47.24168" lon="4.58503">
        <ele>438</ele>
        <time>2012-03-25T11:15:37.000Z</time>
      </trkpt>
      <trkpt lat="47.24171" lon="4.58497">
        <ele>438</ele>
        <time>2012-03-25T11:15:43.000Z</time>
      </trkpt>
      <trkpt lat="47.24174" lon="4.58491">
        <ele>438</ele>
        <time>2012-03-25T11:15:49.000Z</time>
      </trkpt>
      <trkpt lat="47.24176" lon="4.58485">
        <ele>438</ele>
        <time>2012-03-25T11:15:55.000Z</time>
      </trkpt>
      <trkpt lat="47.24176" lon="4.58478">
        <ele>438</ele>
        <time>2012-03-25T11:16:04.000Z</time>
      </trkpt>
      <trkpt lat="47.24174" lon="4.58472">
        <ele>438</ele>
        <time>2012-03-25T11:16:13.000Z</time>
      </trkpt>
      <trkpt lat="47.24175" lon="4.58465">
        <ele>438</ele>
        <time>2012-03-25T11:16:20.000Z</time>
      </trkpt>
      <trkpt lat="47.24177" lon="4.58459">
        <ele>437</ele>
        <time>2012-03-25T11:16:25.000Z</time>
      </trkpt>
      <trkpt lat="47.2418" lon="4.58453">
        <ele>437</ele>
        <time>2012-03-25T11:16:30.000Z</time>
      </trkpt>
      <trkpt lat="47.24183" lon="4.58447">
        <ele>437</ele>
        <time>2012-03-25T11:16:35.000Z</time>
      </trkpt>
      <trkpt lat="47.24187" lon="4.58441">
        <ele>437</ele>
        <time>2012-03-25T11:16:40.000Z</time>
      </trkpt>
      <trkpt lat="47.2419" lon="4.58436">
        <ele>437</ele>
        <time>2012-03-25T11:16:44.000Z</time>
      </trkpt>
      <trkpt lat="47.24193" lon="4.58429">
        <ele>437</ele>
        <time>2012-03-25T11:16:49.000Z</time>
      </trkpt>
      <trkpt lat="47.24196" lon="4.58423">
        <ele>437</ele>
        <time>2012-03-25T11:16:54.000Z</time>
      </trkpt>
      <trkpt lat="47.24197" lon="4.58416">
        <ele>437</ele>
        <time>2012-03-25T11:17:00.000Z</time>
      </trkpt>
      <trkpt lat="47.24196" lon="4.58409">
        <ele>437</ele>
        <time>2012-03-25T11:17:05.000Z</time>
      </trkpt>
      <trkpt lat="47.24193" lon="4.58404">
        <ele>437</ele>
        <time>2012-03-25T11:17:09.000Z</time>
      </trkpt>
      <trkpt lat="47.24189" lon="4.58398">
        <ele>437</ele>
        <time>2012-03-25T11:17:13.000Z</time>
      </trkpt>
      <trkpt lat="47.24185" lon="4.58394">
        <ele>437</ele>
        <time>2012-03-25T11:17:17.000Z</time>
      </trkpt>
      <trkpt lat="47.2418" lon="4.5839">
        <ele>437</ele>
        <time>2012-03-25T11:17:22.000Z</time>
      </trkpt>
      <trkpt lat="47.24175" lon="4.58394">
        <ele>437</ele>
        <time>2012-03-25T11:17:36.000Z</time>
      </trkpt>
      <trkpt lat="47.2417" lon="4.58393">
        <ele>437</ele>
        <time>2012-03-25T11:17:40.000Z</time>
      </trkpt>
      <trkpt lat="47.24165" lon="4.5839">
        <ele>437</ele>
        <time>2012-03-25T11:17:43.000Z</time>
      </trkpt>
      <trkpt lat="47.24161" lon="4.58393">
        <ele>437</ele>
        <time>2012-03-25T11:18:08.000Z</time>
      </trkpt>
      <trkpt lat="47.24158" lon="4.58398">
        <ele>437</ele>
        <time>2012-03-25T11:18:16.000Z</time>
      </trkpt>
      <trkpt lat="47.24159" lon="4.58392">
        <ele>437</ele>
        <time>2012-03-25T11:18:37.000Z</time>
      </trkpt>
      <trkpt lat="47.24161" lon="4.58386">
        <ele>437</ele>
        <time>2012-03-25T11:18:46.000Z</time>
      </trkpt>
      <trkpt lat="47.24162" lon="4.58393">
        <ele>438</ele>
        <time>2012-03-25T11:19:46.000Z</time>
      </trkpt>
      <trkpt lat="47.2416" lon="4.58399">
        <ele>438</ele>
        <time>2012-03-25T11:20:11.000Z</time>
      </trkpt>
      <trkpt lat="47.24161" lon="4.58406">
        <ele>439</ele>
        <time>2012-03-25T11:20:26.000Z</time>
      </trkpt>
      <trkpt lat="47.24162" lon="4.58399">
        <ele>439</ele>
        <time>2012-03-25T11:20:52.000Z</time>
      </trkpt>
      <trkpt lat="47.24164" lon="4.58404">
        <ele>440</ele>
        <time>2012-03-25T11:21:53.000Z</time>
      </trkpt>
      <trkpt lat="47.24166" lon="4.58398">
        <ele>441</ele>
        <time>2012-03-25T11:22:53.000Z</time>
      </trkpt>
      <trkpt lat="47.24164" lon="4.58404">
        <ele>441</ele>
        <time>2012-03-25T11:23:48.000Z</time>
      </trkpt>
      <trkpt lat="47.24163" lon="4.58398">
        <ele>441</ele>
        <time>2012-03-25T11:24:17.000Z</time>
      </trkpt>
      <trkpt lat="47.24166" lon="4.58391">
        <ele>442</ele>
        <time>2012-03-25T11:24:34.000Z</time>
      </trkpt>
      <trkpt lat="47.24164" lon="4.58398">
        <ele>442</ele>
        <time>2012-03-25T11:25:12.000Z</time>
      </trkpt>
      <trkpt lat="47.24162" lon="4.58403">
        <ele>443</ele>
        <time>2012-03-25T11:26:07.000Z</time>
      </trkpt>
      <trkpt lat="47.24166" lon="4.584">
        <ele>443</ele>
        <time>2012-03-25T11:26:35.000Z</time>
      </trkpt>
      <trkpt lat="47.24164" lon="4.58394">
        <ele>444</ele>
        <time>2012-03-25T11:28:09.000Z</time>
      </trkpt>
      <trkpt lat="47.2416" lon="4.58399">
        <ele>444</ele>
        <time>2012-03-25T11:31:18.000Z</time>
      </trkpt>
      <trkpt lat="47.24163" lon="4.58405">
        <ele>445</ele>
        <time>2012-03-25T11:32:18.000Z</time>
      </trkpt>
      <trkpt lat="47.24163" lon="4.58412">
        <ele>446</ele>
        <time>2012-03-25T11:32:31.000Z</time>
      </trkpt>
      <trkpt lat="47.24159" lon="4.5841">
        <ele>446</ele>
        <time>2012-03-25T11:33:12.000Z</time>
      </trkpt>
      <trkpt lat="47.24154" lon="4.58407">
        <ele>446</ele>
        <time>2012-03-25T11:33:30.000Z</time>
      </trkpt>
      <trkpt lat="47.24155" lon="4.584">
        <ele>446</ele>
        <time>2012-03-25T11:33:46.000Z</time>
      </trkpt>
      <trkpt lat="47.24159" lon="4.58396">
        <ele>446</ele>
        <time>2012-03-25T11:34:06.000Z</time>
      </trkpt>
      <trkpt lat="47.24162" lon="4.58392">
        <ele>448</ele>
        <time>2012-03-25T11:34:51.000Z</time>
      </trkpt>
      <trkpt lat="47.24164" lon="4.58398">
        <ele>448</ele>
        <time>2012-03-25T11:35:33.000Z</time>
      </trkpt>
      <trkpt lat="47.24163" lon="4.58405">
        <ele>448</ele>
        <time>2012-03-25T11:35:39.000Z</time>
      </trkpt>
      <trkpt lat="47.24161" lon="4.58412">
        <ele>448</ele>
        <time>2012-03-25T11:35:45.000Z</time>
      </trkpt>
      <trkpt lat="47.24158" lon="4.58418">
        <ele>448</ele>
        <time>2012-03-25T11:35:52.000Z</time>
      </trkpt>
      <trkpt lat="47.24155" lon="4.58423">
        <ele>449</ele>
        <time>2012-03-25T11:36:02.000Z</time>
      </trkpt>
      <trkpt lat="47.24157" lon="4.58417">
        <ele>449</ele>
        <time>2012-03-25T11:36:31.000Z</time>
      </trkpt>
      <trkpt lat="47.24159" lon="4.58411">
        <ele>449</ele>
        <time>2012-03-25T11:36:43.000Z</time>
      </trkpt>
      <trkpt lat="47.24161" lon="4.58405">
        <ele>449</ele>
        <time>2012-03-25T11:36:58.000Z</time>
      </trkpt>
      <trkpt lat="47.24163" lon="4.58399">
        <ele>449</ele>
        <time>2012-03-25T11:37:13.000Z</time>
      </trkpt>
      <trkpt lat="47.24164" lon="4.58392">
        <ele>449</ele>
        <time>2012-03-25T11:37:25.000Z</time>
      </trkpt>
      <trkpt lat="47.2416" lon="4.58395">
        <ele>449</ele>
        <time>2012-03-25T11:38:16.000Z</time>
      </trkpt>
      <trkpt lat="47.24164" lon="4.58399">
        <ele>450</ele>
        <time>2012-03-25T11:39:08.000Z</time>
      </trkpt>
      <trkpt lat="47.24162" lon="4.58406">
        <ele>450</ele>
        <time>2012-03-25T11:39:26.999Z</time>
      </trkpt>
      <trkpt lat="47.24159" lon="4.58411">
        <ele>450</ele>
        <time>2012-03-25T11:39:59.999Z</time>
      </trkpt>
      <trkpt lat="47.24156" lon="4.58406">
        <ele>450</ele>
        <time>2012-03-25T11:40:28.999Z</time>
      </trkpt>
      <trkpt lat="47.24158" lon="4.584">
        <ele>450</ele>
        <time>2012-03-25T11:40:37.999Z</time>
      </trkpt>
      <trkpt lat="47.24161" lon="4.58394">
        <ele>450</ele>
        <time>2012-03-25T11:40:47.999Z</time>
      </trkpt>
      <trkpt lat="47.24162" lon="4.584">
        <ele>450</ele>
        <time>2012-03-25T11:41:50.999Z</time>
      </trkpt>
      <trkpt lat="47.24161" lon="4.58407">
        <ele>450</ele>
        <time>2012-03-25T11:42:27.999Z</time>
      </trkpt>
      <trkpt lat="47.24158" lon="4.58402">
        <ele>450</ele>
        <time>2012-03-25T11:43:18.999Z</time>
      </trkpt>
      <trkpt lat="47.24159" lon="4.58396">
        <ele>451</ele>
        <time>2012-03-25T11:44:58.999Z</time>
      </trkpt>
      <trkpt lat="47.24161" lon="4.58402">
        <ele>451</ele>
        <time>2012-03-25T11:45:55.999Z</time>
      </trkpt>
      <trkpt lat="47.24159" lon="4.58408">
        <ele>450</ele>
        <time>2012-03-25T11:47:13.999Z</time>
      </trkpt>
      <trkpt lat="47.24162" lon="4.58414">
        <ele>449</ele>
        <time>2012-03-25T11:48:07.999Z</time>
      </trkpt>
      <trkpt lat="47.24164" lon="4.58419">
        <ele>449</ele>
        <time>2012-03-25T11:48:16.999Z</time>
      </trkpt>
      <trkpt lat="47.24165" lon="4.58412">
        <ele>449</ele>
        <time>2012-03-25T11:48:41.999Z</time>
      </trkpt>
      <trkpt lat="47.24164" lon="4.58406">
        <ele>449</ele>
        <time>2012-03-25T11:48:58.999Z</time>
      </trkpt>
      <trkpt lat="47.2416" lon="4.58402">
        <ele>448</ele>
        <time>2012-03-25T11:50:22.999Z</time>
      </trkpt>
      <trkpt lat="47.24161" lon="4.58396">
        <ele>448</ele>
        <time>2012-03-25T11:50:49.999Z</time>
      </trkpt>
      <trkpt lat="47.24157" lon="4.58397">
        <ele>448</ele>
        <time>2012-03-25T11:52:07.999Z</time>
      </trkpt>
      <trkpt lat="47.2416" lon="4.58392">
        <ele>447</ele>
        <time>2012-03-25T11:52:56.999Z</time>
      </trkpt>
      <trkpt lat="47.24163" lon="4.58386">
        <ele>447</ele>
        <time>2012-03-25T11:53:03.999Z</time>
      </trkpt>
      <trkpt lat="47.24165" lon="4.58392">
        <ele>447</ele>
        <time>2012-03-25T11:54:06.999Z</time>
      </trkpt>
      <trkpt lat="47.24163" lon="4.58399">
        <ele>447</ele>
        <time>2012-03-25T11:55:45.999Z</time>
      </trkpt>
      <trkpt lat="47.2416" lon="4.58404">
        <ele>447</ele>
        <time>2012-03-25T11:56:07.999Z</time>
      </trkpt>
      <trkpt lat="47.24158" lon="4.5841">
        <ele>447</ele>
        <time>2012-03-25T11:56:22.999Z</time>
      </trkpt>
      <trkpt lat="47.24162" lon="4.58407">
        <ele>447</ele>
        <time>2012-03-25T11:57:45.999Z</time>
      </trkpt>
      <trkpt lat="47.24164" lon="4.58401">
        <ele>448</ele>
        <time>2012-03-25T11:58:03.999Z</time>
      </trkpt>
      <trkpt lat="47.24168" lon="4.58399">
        <ele>448</ele>
        <time>2012-03-25T11:58:20.999Z</time>
      </trkpt>
      <trkpt lat="47.24164" lon="4.58398">
        <ele>448</ele>
        <time>2012-03-25T11:58:43.999Z</time>
      </trkpt>
      <trkpt lat="47.2416" lon="4.58395">
        <ele>448</ele>
        <time>2012-03-25T11:58:54.999Z</time>
      </trkpt>
      <trkpt lat="47.24155" lon="4.58397">
        <ele>448</ele>
        <time>2012-03-25T11:59:36.999Z</time>
      </trkpt>
      <trkpt lat="47.24158" lon="4.58402">
        <ele>448</ele>
        <time>2012-03-25T11:59:57.999Z</time>
      </trkpt>
      <trkpt lat="47.24162" lon="4.58405">
        <ele>448</ele>
        <time>2012-03-25T12:00:25.999Z</time>
      </trkpt>
      <trkpt lat="47.24164" lon="4.58398">
        <ele>448</ele>
        <time>2012-03-25T12:02:50.999Z</time>
      </trkpt>
      <trkpt lat="47.24165" lon="4.58392">
        <ele>448</ele>
        <time>2012-03-25T12:03:17.999Z</time>
      </trkpt>
      <trkpt lat="47.24162" lon="4.58397">
        <ele>448</ele>
        <time>2012-03-25T12:04:49.999Z</time>
      </trkpt>
      <trkpt lat="47.2416" lon="4.58403">
        <ele>447</ele>
        <time>2012-03-25T12:05:18.999Z</time>
      </trkpt>
      <trkpt lat="47.2416" lon="4.58396">
        <ele>447</ele>
        <time>2012-03-25T12:06:18.999Z</time>
      </trkpt>
      <trkpt lat="47.24164" lon="4.58397">
        <ele>448</ele>
        <time>2012-03-25T12:07:01.999Z</time>
      </trkpt>
      <trkpt lat="47.24165" lon="4.58391">
        <ele>448</ele>
        <time>2012-03-25T12:08:50.999Z</time>
      </trkpt>
      <trkpt lat="47.24168" lon="4.58395">
        <ele>448</ele>
        <time>2012-03-25T12:09:20.999Z</time>
      </trkpt>
      <trkpt lat="47.24173" lon="4.58393">
        <ele>449</ele>
        <time>2012-03-25T12:11:18.999Z</time>
      </trkpt>
      <trkpt lat="47.24178" lon="4.58392">
        <ele>449</ele>
        <time>2012-03-25T12:11:27.999Z</time>
      </trkpt>
      <trkpt lat="47.24181" lon="4.58388">
        <ele>449</ele>
        <time>2012-03-25T12:11:32.999Z</time>
      </trkpt>
      <trkpt lat="47.24185" lon="4.58383">
        <ele>449</ele>
        <time>2012-03-25T12:11:36.999Z</time>
      </trkpt>
      <trkpt lat="47.24188" lon="4.58377">
        <ele>449</ele>
        <time>2012-03-25T12:11:40.999Z</time>
      </trkpt>
      <trkpt lat="47.24192" lon="4.58372">
        <ele>449</ele>
        <time>2012-03-25T12:11:44.999Z</time>
      </trkpt>
      <trkpt lat="47.24195" lon="4.58367">
        <ele>449</ele>
        <time>2012-03-25T12:11:48.999Z</time>
      </trkpt>
      <trkpt lat="47.24198" lon="4.58361">
        <ele>449</ele>
        <time>2012-03-25T12:11:52.999Z</time>
      </trkpt>
      <trkpt lat="47.24201" lon="4.58354">
        <ele>449</ele>
        <time>2012-03-25T12:11:56.999Z</time>
      </trkpt>
      <trkpt lat="47.24204" lon="4.58348">
        <ele>449</ele>
        <time>2012-03-25T12:11:59.999Z</time>
      </trkpt>
      <trkpt lat="47.24207" lon="4.58342">
        <ele>449</ele>
        <time>2012-03-25T12:12:03.999Z</time>
      </trkpt>
      <trkpt lat="47.2421" lon="4.58336">
        <ele>449</ele>
        <time>2012-03-25T12:12:07.999Z</time>
      </trkpt>
      <trkpt lat="47.24213" lon="4.5833">
        <ele>448</ele>
        <time>2012-03-25T12:12:11.999Z</time>
      </trkpt>
      <trkpt lat="47.24216" lon="4.58324">
        <ele>448</ele>
        <time>2012-03-25T12:12:15.999Z</time>
      </trkpt>
      <trkpt lat="47.2422" lon="4.58318">
        <ele>448</ele>
        <time>2012-03-25T12:12:20.999Z</time>
      </trkpt>
      <trkpt lat="47.24222" lon="4.58312">
        <ele>448</ele>
        <time>2012-03-25T12:12:25.999Z</time>
      </trkpt>
      <trkpt lat="47.24226" lon="4.58308">
        <ele>448</ele>
        <time>2012-03-25T12:12:30.999Z</time>
      </trkpt>
      <trkpt lat="47.2423" lon="4.58302">
        <ele>448</ele>
        <time>2012-03-25T12:12:36.999Z</time>
      </trkpt>
      <trkpt lat="47.24232" lon="4.58297">
        <ele>448</ele>
        <time>2012-03-25T12:12:42.999Z</time>
      </trkpt>
      <trkpt lat="47.24235" lon="4.58291">
        <ele>448</ele>
        <time>2012-03-25T12:12:49.999Z</time>
      </trkpt>
      <trkpt lat="47.24238" lon="4.58286">
        <ele>448</ele>
        <time>2012-03-25T12:12:56.999Z</time>
      </trkpt>
      <trkpt lat="47.24242" lon="4.58282">
        <ele>448</ele>
        <time>2012-03-25T12:13:03.999Z</time>
      </trkpt>
      <trkpt lat="47.24246" lon="4.58278">
        <ele>448</ele>
        <time>2012-03-25T12:13:09.999Z</time>
      </trkpt>
      <trkpt lat="47.2425" lon="4.58274">
        <ele>448</ele>
        <time>2012-03-25T12:13:14.999Z</time>
      </trkpt>
      <trkpt lat="47.24254" lon="4.5827">
        <ele>448</ele>
        <time>2012-03-25T12:13:19.999Z</time>
      </trkpt>
      <trkpt lat="47.24258" lon="4.58265">
        <ele>448</ele>
        <time>2012-03-25T12:13:24.999Z</time>
      </trkpt>
      <trkpt lat="47.24261" lon="4.5826">
        <ele>448</ele>
        <time>2012-03-25T12:13:29.999Z</time>
      </trkpt>
      <trkpt lat="47.24265" lon="4.58256">
        <ele>448</ele>
        <time>2012-03-25T12:13:34.999Z</time>
      </trkpt>
      <trkpt lat="47.24268" lon="4.5825">
        <ele>448</ele>
        <time>2012-03-25T12:13:39.999Z</time>
      </trkpt>
      <trkpt lat="47.24271" lon="4.58245">
        <ele>448</ele>
        <time>2012-03-25T12:13:44.999Z</time>
      </trkpt>
      <trkpt lat="47.24275" lon="4.5824">
        <ele>448</ele>
        <time>2012-03-25T12:13:49.999Z</time>
      </trkpt>
      <trkpt lat="47.24279" lon="4.58236">
        <ele>448</ele>
        <time>2012-03-25T12:13:53.999Z</time>
      </trkpt>
      <trkpt lat="47.24282" lon="4.58232">
        <ele>448</ele>
        <time>2012-03-25T12:13:57.999Z</time>
      </trkpt>
      <trkpt lat="47.24286" lon="4.58227">
        <ele>448</ele>
        <time>2012-03-25T12:14:01.999Z</time>
      </trkpt>
      <trkpt lat="47.24289" lon="4.58223">
        <ele>448</ele>
        <time>2012-03-25T12:14:05.999Z</time>
      </trkpt>
      <trkpt lat="47.24293" lon="4.58219">
        <ele>447</ele>
        <time>2012-03-25T12:14:09.999Z</time>
      </trkpt>
      <trkpt lat="47.24297" lon="4.58214">
        <ele>447</ele>
        <time>2012-03-25T12:14:13.999Z</time>
      </trkpt>
      <trkpt lat="47.243" lon="4.5821">
        <ele>447</ele>
        <time>2012-03-25T12:14:17.999Z</time>
      </trkpt>
      <trkpt lat="47.24304" lon="4.58206">
        <ele>447</ele>
        <time>2012-03-25T12:14:21.999Z</time>
      </trkpt>
      <trkpt lat="47.24308" lon="4.58201">
        <ele>447</ele>
        <time>2012-03-25T12:14:26.999Z</time>
      </trkpt>
      <trkpt lat="47.24313" lon="4.58196">
        <ele>447</ele>
        <time>2012-03-25T12:14:31.999Z</time>
      </trkpt>
      <trkpt lat="47.24316" lon="4.58191">
        <ele>447</ele>
        <time>2012-03-25T12:14:35.999Z</time>
      </trkpt>
      <trkpt lat="47.2432" lon="4.58187">
        <ele>447</ele>
        <time>2012-03-25T12:14:39.999Z</time>
      </trkpt>
      <trkpt lat="47.24323" lon="4.58183">
        <ele>447</ele>
        <time>2012-03-25T12:14:43.999Z</time>
      </trkpt>
      <trkpt lat="47.24326" lon="4.58178">
        <ele>447</ele>
        <time>2012-03-25T12:14:47.999Z</time>
      </trkpt>
      <trkpt lat="47.2433" lon="4.58173">
        <ele>447</ele>
        <time>2012-03-25T12:14:51.999Z</time>
      </trkpt>
      <trkpt lat="47.24333" lon="4.58169">
        <ele>447</ele>
        <time>2012-03-25T12:14:55.999Z</time>
      </trkpt>
      <trkpt lat="47.24336" lon="4.58164">
        <ele>447</ele>
        <time>2012-03-25T12:14:59.999Z</time>
      </trkpt>
      <trkpt lat="47.2434" lon="4.5816">
        <ele>447</ele>
        <time>2012-03-25T12:15:03.999Z</time>
      </trkpt>
      <trkpt lat="47.24344" lon="4.58155">
        <ele>447</ele>
        <time>2012-03-25T12:15:07.999Z</time>
      </trkpt>
      <trkpt lat="47.24347" lon="4.5815">
        <ele>447</ele>
        <time>2012-03-25T12:15:11.999Z</time>
      </trkpt>
      <trkpt lat="47.24351" lon="4.58145">
        <ele>447</ele>
        <time>2012-03-25T12:15:15.999Z</time>
      </trkpt>
      <trkpt lat="47.24354" lon="4.58141">
        <ele>447</ele>
        <time>2012-03-25T12:15:19.999Z</time>
      </trkpt>
      <trkpt lat="47.24359" lon="4.58137">
        <ele>447</ele>
        <time>2012-03-25T12:15:23.999Z</time>
      </trkpt>
      <trkpt lat="47.24362" lon="4.58132">
        <ele>447</ele>
        <time>2012-03-25T12:15:27.999Z</time>
      </trkpt>
      <trkpt lat="47.24366" lon="4.58128">
        <ele>447</ele>
        <time>2012-03-25T12:15:31.999Z</time>
      </trkpt>
      <trkpt lat="47.24369" lon="4.58122">
        <ele>447</ele>
        <time>2012-03-25T12:15:35.999Z</time>
      </trkpt>
      <trkpt lat="47.24373" lon="4.58118">
        <ele>447</ele>
        <time>2012-03-25T12:15:39.999Z</time>
      </trkpt>
      <trkpt lat="47.24376" lon="4.58113">
        <ele>447</ele>
        <time>2012-03-25T12:15:43.999Z</time>
      </trkpt>
      <trkpt lat="47.2438" lon="4.58108">
        <ele>447</ele>
        <time>2012-03-25T12:15:47.999Z</time>
      </trkpt>
      <trkpt lat="47.24383" lon="4.58103">
        <ele>447</ele>
        <time>2012-03-25T12:15:51.999Z</time>
      </trkpt>
      <trkpt lat="47.24386" lon="4.58098">
        <ele>447</ele>
        <time>2012-03-25T12:15:55.999Z</time>
      </trkpt>
      <trkpt lat="47.2439" lon="4.58094">
        <ele>447</ele>
        <time>2012-03-25T12:15:59.999Z</time>
      </trkpt>
      <trkpt lat="47.24393" lon="4.58089">
        <ele>447</ele>
        <time>2012-03-25T12:16:03.999Z</time>
      </trkpt>
      <trkpt lat="47.24396" lon="4.58084">
        <ele>447</ele>
        <time>2012-03-25T12:16:07.999Z</time>
      </trkpt>
      <trkpt lat="47.24399" lon="4.5808">
        <ele>447</ele>
        <time>2012-03-25T12:16:12.999Z</time>
      </trkpt>
      <trkpt lat="47.24394" lon="4.58081">
        <ele>447</ele>
        <time>2012-03-25T12:16:21.999Z</time>
      </trkpt>
      <trkpt lat="47.2439" lon="4.58083">
        <ele>447</ele>
        <time>2012-03-25T12:16:25.999Z</time>
      </trkpt>
      <trkpt lat="47.24385" lon="4.58087">
        <ele>447</ele>
        <time>2012-03-25T12:16:28.999Z</time>
      </trkpt>
      <trkpt lat="47.2438" lon="4.58092">
        <ele>447</ele>
        <time>2012-03-25T12:16:31.999Z</time>
      </trkpt>
      <trkpt lat="47.24376" lon="4.58098">
        <ele>447</ele>
        <time>2012-03-25T12:16:34.999Z</time>
      </trkpt>
      <trkpt lat="47.24372" lon="4.58104">
        <ele>447</ele>
        <time>2012-03-25T12:16:37.999Z</time>
      </trkpt>
      <trkpt lat="47.24367" lon="4.58109">
        <ele>447</ele>
        <time>2012-03-25T12:16:40.999Z</time>
      </trkpt>
      <trkpt lat="47.24364" lon="4.58114">
        <ele>447</ele>
        <time>2012-03-25T12:16:43.999Z</time>
      </trkpt>
      <trkpt lat="47.24361" lon="4.5812">
        <ele>447</ele>
        <time>2012-03-25T12:16:46.999Z</time>
      </trkpt>
      <trkpt lat="47.24357" lon="4.58126">
        <ele>447</ele>
        <time>2012-03-25T12:16:50.999Z</time>
      </trkpt>
      <trkpt lat="47.24353" lon="4.58131">
        <ele>447</ele>
        <time>2012-03-25T12:16:54.999Z</time>
      </trkpt>
      <trkpt lat="47.24348" lon="4.58136">
        <ele>447</ele>
        <time>2012-03-25T12:16:58.999Z</time>
      </trkpt>
      <trkpt lat="47.24344" lon="4.58141">
        <ele>447</ele>
        <time>2012-03-25T12:17:02.999Z</time>
      </trkpt>
      <trkpt lat="47.24341" lon="4.58147">
        <ele>447</ele>
        <time>2012-03-25T12:17:06.999Z</time>
      </trkpt>
      <trkpt lat="47.24337" lon="4.58154">
        <ele>447</ele>
        <time>2012-03-25T12:17:10.999Z</time>
      </trkpt>
      <trkpt lat="47.24335" lon="4.58161">
        <ele>447</ele>
        <time>2012-03-25T12:17:14.999Z</time>
      </trkpt>
      <trkpt lat="47.24336" lon="4.58168">
        <ele>447</ele>
        <time>2012-03-25T12:17:17.999Z</time>
      </trkpt>
      <trkpt lat="47.24337" lon="4.58175">
        <ele>447</ele>
        <time>2012-03-25T12:17:21.999Z</time>
      </trkpt>
      <trkpt lat="47.24337" lon="4.58182">
        <ele>447</ele>
        <time>2012-03-25T12:17:26.999Z</time>
      </trkpt>
      <trkpt lat="47.24339" lon="4.58188">
        <ele>447</ele>
        <time>2012-03-25T12:17:31.999Z</time>
      </trkpt>
      <trkpt lat="47.24342" lon="4.58194">
        <ele>447</ele>
        <time>2012-03-25T12:17:35.999Z</time>
      </trkpt>
      <trkpt lat="47.24346" lon="4.58199">
        <ele>446</ele>
        <time>2012-03-25T12:17:39.999Z</time>
      </trkpt>
      <trkpt lat="47.24351" lon="4.58204">
        <ele>446</ele>
        <time>2012-03-25T12:17:43.999Z</time>
      </trkpt>
      <trkpt lat="47.24355" lon="4.58207">
        <ele>446</ele>
        <time>2012-03-25T12:17:46.999Z</time>
      </trkpt>
      <trkpt lat="47.2436" lon="4.5821">
        <ele>446</ele>
        <time>2012-03-25T12:17:50.999Z</time>
      </trkpt>
      <trkpt lat="47.24365" lon="4.58213">
        <ele>446</ele>
        <time>2012-03-25T12:17:54.999Z</time>
      </trkpt>
      <trkpt lat="47.2437" lon="4.58216">
        <ele>446</ele>
        <time>2012-03-25T12:17:58.999Z</time>
      </trkpt>
      <trkpt lat="47.24374" lon="4.58221">
        <ele>446</ele>
        <time>2012-03-25T12:18:02.999Z</time>
      </trkpt>
      <trkpt lat="47.24378" lon="4.58226">
        <ele>446</ele>
        <time>2012-03-25T12:18:06.999Z</time>
      </trkpt>
      <trkpt lat="47.24381" lon="4.58232">
        <ele>445</ele>
        <time>2012-03-25T12:18:10.999Z</time>
      </trkpt>
      <trkpt lat="47.24384" lon="4.58237">
        <ele>445</ele>
        <time>2012-03-25T12:18:14.999Z</time>
      </trkpt>
      <trkpt lat="47.24388" lon="4.58243">
        <ele>445</ele>
        <time>2012-03-25T12:18:19.999Z</time>
      </trkpt>
      <trkpt lat="47.24391" lon="4.58248">
        <ele>445</ele>
        <time>2012-03-25T12:18:24.999Z</time>
      </trkpt>
      <trkpt lat="47.24395" lon="4.58252">
        <ele>445</ele>
        <time>2012-03-25T12:18:29.999Z</time>
      </trkpt>
      <trkpt lat="47.244" lon="4.58254">
        <ele>445</ele>
        <time>2012-03-25T12:18:34.999Z</time>
      </trkpt>
      <trkpt lat="47.24405" lon="4.58253">
        <ele>445</ele>
        <time>2012-03-25T12:18:38.999Z</time>
      </trkpt>
      <trkpt lat="47.2441" lon="4.58252">
        <ele>444</ele>
        <time>2012-03-25T12:18:43.998Z</time>
      </trkpt>
      <trkpt lat="47.24414" lon="4.58251">
        <ele>444</ele>
        <time>2012-03-25T12:18:47.998Z</time>
      </trkpt>
      <trkpt lat="47.24419" lon="4.5825">
        <ele>444</ele>
        <time>2012-03-25T12:18:51.998Z</time>
      </trkpt>
      <trkpt lat="47.24424" lon="4.58248">
        <ele>444</ele>
        <time>2012-03-25T12:18:55.998Z</time>
      </trkpt>
      <trkpt lat="47.24429" lon="4.58244">
        <ele>444</ele>
        <time>2012-03-25T12:18:59.998Z</time>
      </trkpt>
      <trkpt lat="47.24434" lon="4.58239">
        <ele>444</ele>
        <time>2012-03-25T12:19:02.998Z</time>
      </trkpt>
      <trkpt lat="47.24438" lon="4.58235">
        <ele>444</ele>
        <time>2012-03-25T12:19:05.998Z</time>
      </trkpt>
      <trkpt lat="47.24443" lon="4.58232">
        <ele>444</ele>
        <time>2012-03-25T12:19:08.998Z</time>
      </trkpt>
      <trkpt lat="47.24448" lon="4.58231">
        <ele>444</ele>
        <time>2012-03-25T12:19:12.998Z</time>
      </trkpt>
      <trkpt lat="47.24454" lon="4.5823">
        <ele>444</ele>
        <time>2012-03-25T12:19:16.998Z</time>
      </trkpt>
      <trkpt lat="47.24459" lon="4.5823">
        <ele>444</ele>
        <time>2012-03-25T12:19:20.998Z</time>
      </trkpt>
      <trkpt lat="47.24464" lon="4.58232">
        <ele>444</ele>
        <time>2012-03-25T12:19:24.998Z</time>
      </trkpt>
      <trkpt lat="47.24469" lon="4.58233">
        <ele>444</ele>
        <time>2012-03-25T12:19:28.998Z</time>
      </trkpt>
      <trkpt lat="47.24474" lon="4.58236">
        <ele>444</ele>
        <time>2012-03-25T12:19:32.998Z</time>
      </trkpt>
      <trkpt lat="47.24478" lon="4.58238">
        <ele>444</ele>
        <time>2012-03-25T12:19:36.998Z</time>
      </trkpt>
      <trkpt lat="47.24483" lon="4.58241">
        <ele>444</ele>
        <time>2012-03-25T12:19:40.998Z</time>
      </trkpt>
      <trkpt lat="47.24487" lon="4.58246">
        <ele>444</ele>
        <time>2012-03-25T12:19:44.998Z</time>
      </trkpt>
      <trkpt lat="47.24492" lon="4.58251">
        <ele>445</ele>
        <time>2012-03-25T12:19:48.998Z</time>
      </trkpt>
      <trkpt lat="47.24496" lon="4.58256">
        <ele>445</ele>
        <time>2012-03-25T12:19:52.998Z</time>
      </trkpt>
      <trkpt lat="47.24499" lon="4.5826">
        <ele>445</ele>
        <time>2012-03-25T12:19:55.998Z</time>
      </trkpt>
      <trkpt lat="47.24504" lon="4.58266">
        <ele>445</ele>
        <time>2012-03-25T12:19:59.998Z</time>
      </trkpt>
      <trkpt lat="47.24507" lon="4.58272">
        <ele>445</ele>
        <time>2012-03-25T12:20:03.998Z</time>
      </trkpt>
      <trkpt lat="47.24511" lon="4.58278">
        <ele>445</ele>
        <time>2012-03-25T12:20:07.998Z</time>
      </trkpt>
      <trkpt lat="47.24514" lon="4.58283">
        <ele>445</ele>
        <time>2012-03-25T12:20:11.998Z</time>
      </trkpt>
      <trkpt lat="47.24518" lon="4.58289">
        <ele>445</ele>
        <time>2012-03-25T12:20:15.998Z</time>
      </trkpt>
      <trkpt lat="47.24521" lon="4.58294">
        <ele>445</ele>
        <time>2012-03-25T12:20:19.998Z</time>
      </trkpt>
      <trkpt lat="47.24524" lon="4.58299">
        <ele>445</ele>
        <time>2012-03-25T12:20:23.998Z</time>
      </trkpt>
      <trkpt lat="47.24527" lon="4.58304">
        <ele>445</ele>
        <time>2012-03-25T12:20:27.998Z</time>
      </trkpt>
      <trkpt lat="47.2453" lon="4.58309">
        <ele>445</ele>
        <time>2012-03-25T12:20:31.998Z</time>
      </trkpt>
      <trkpt lat="47.24532" lon="4.58315">
        <ele>445</ele>
        <time>2012-03-25T12:20:35.998Z</time>
      </trkpt>
      <trkpt lat="47.24535" lon="4.5832">
        <ele>445</ele>
        <time>2012-03-25T12:20:39.998Z</time>
      </trkpt>
      <trkpt lat="47.24538" lon="4.58326">
        <ele>445</ele>
        <time>2012-03-25T12:20:43.998Z</time>
      </trkpt>
      <trkpt lat="47.24542" lon="4.58331">
        <ele>445</ele>
        <time>2012-03-25T12:20:47.998Z</time>
      </trkpt>
      <trkpt lat="47.24545" lon="4.58335">
        <ele>445</ele>
        <time>2012-03-25T12:20:51.998Z</time>
      </trkpt>
      <trkpt lat="47.24549" lon="4.58338">
        <ele>445</ele>
        <time>2012-03-25T12:20:55.998Z</time>
      </trkpt>
      <trkpt lat="47.24553" lon="4.58342">
        <ele>445</ele>
        <time>2012-03-25T12:20:59.998Z</time>
      </trkpt>
      <trkpt lat="47.24557" lon="4.58345">
        <ele>445</ele>
        <time>2012-03-25T12:21:03.998Z</time>
      </trkpt>
      <trkpt lat="47.24561" lon="4.58349">
        <ele>445</ele>
        <time>2012-03-25T12:21:07.998Z</time>
      </trkpt>
      <trkpt lat="47.24565" lon="4.58354">
        <ele>445</ele>
        <time>2012-03-25T12:21:11.998Z</time>
      </trkpt>
      <trkpt lat="47.24568" lon="4.58359">
        <ele>445</ele>
        <time>2012-03-25T12:21:15.998Z</time>
      </trkpt>
      <trkpt lat="47.24571" lon="4.58364">
        <ele>445</ele>
        <time>2012-03-25T12:21:19.998Z</time>
      </trkpt>
      <trkpt lat="47.24574" lon="4.58368">
        <ele>445</ele>
        <time>2012-03-25T12:21:23.998Z</time>
      </trkpt>
      <trkpt lat="47.24578" lon="4.58372">
        <ele>445</ele>
        <time>2012-03-25T12:21:27.998Z</time>
      </trkpt>
      <trkpt lat="47.24581" lon="4.58376">
        <ele>445</ele>
        <time>2012-03-25T12:21:31.998Z</time>
      </trkpt>
      <trkpt lat="47.24584" lon="4.58381">
        <ele>445</ele>
        <time>2012-03-25T12:21:35.998Z</time>
      </trkpt>
      <trkpt lat="47.24588" lon="4.58386">
        <ele>445</ele>
        <time>2012-03-25T12:21:39.998Z</time>
      </trkpt>
      <trkpt lat="47.24591" lon="4.58391">
        <ele>445</ele>
        <time>2012-03-25T12:21:43.998Z</time>
      </trkpt>
      <trkpt lat="47.24595" lon="4.58396">
        <ele>445</ele>
        <time>2012-03-25T12:21:48.998Z</time>
      </trkpt>
      <trkpt lat="47.24599" lon="4.58401">
        <ele>445</ele>
        <time>2012-03-25T12:21:53.998Z</time>
      </trkpt>
      <trkpt lat="47.24602" lon="4.58406">
        <ele>445</ele>
        <time>2012-03-25T12:21:59.998Z</time>
      </trkpt>
      <trkpt lat="47.24601" lon="4.58413">
        <ele>445</ele>
        <time>2012-03-25T12:22:05.998Z</time>
      </trkpt>
      <trkpt lat="47.24599" lon="4.5842">
        <ele>445</ele>
        <time>2012-03-25T12:22:09.998Z</time>
      </trkpt>
      <trkpt lat="47.24596" lon="4.58426">
        <ele>445</ele>
        <time>2012-03-25T12:22:13.998Z</time>
      </trkpt>
      <trkpt lat="47.24592" lon="4.58432">
        <ele>445</ele>
        <time>2012-03-25T12:22:17.998Z</time>
      </trkpt>
      <trkpt lat="47.24587" lon="4.58437">
        <ele>445</ele>
        <time>2012-03-25T12:22:21.998Z</time>
      </trkpt>
      <trkpt lat="47.24584" lon="4.58443">
        <ele>445</ele>
        <time>2012-03-25T12:22:25.998Z</time>
      </trkpt>
      <trkpt lat="47.24581" lon="4.58449">
        <ele>445</ele>
        <time>2012-03-25T12:22:29.998Z</time>
      </trkpt>
      <trkpt lat="47.24579" lon="4.58455">
        <ele>445</ele>
        <time>2012-03-25T12:22:38.998Z</time>
      </trkpt>
      <trkpt lat="47.24577" lon="4.58462">
        <ele>445</ele>
        <time>2012-03-25T12:22:44.998Z</time>
      </trkpt>
      <trkpt lat="47.24574" lon="4.58468">
        <ele>445</ele>
        <time>2012-03-25T12:22:49.998Z</time>
      </trkpt>
      <trkpt lat="47.24572" lon="4.58474">
        <ele>445</ele>
        <time>2012-03-25T12:22:53.998Z</time>
      </trkpt>
      <trkpt lat="47.24569" lon="4.58481">
        <ele>445</ele>
        <time>2012-03-25T12:22:57.998Z</time>
      </trkpt>
      <trkpt lat="47.24568" lon="4.58488">
        <ele>445</ele>
        <time>2012-03-25T12:23:01.998Z</time>
      </trkpt>
      <trkpt lat="47.24566" lon="4.58495">
        <ele>445</ele>
        <time>2012-03-25T12:23:06.998Z</time>
      </trkpt>
      <trkpt lat="47.24564" lon="4.58502">
        <ele>445</ele>
        <time>2012-03-25T12:23:11.998Z</time>
      </trkpt>
      <trkpt lat="47.24562" lon="4.58509">
        <ele>445</ele>
        <time>2012-03-25T12:23:15.998Z</time>
      </trkpt>
      <trkpt lat="47.2456" lon="4.58516">
        <ele>445</ele>
        <time>2012-03-25T12:23:20.998Z</time>
      </trkpt>
      <trkpt lat="47.24559" lon="4.58524">
        <ele>445</ele>
        <time>2012-03-25T12:23:25.998Z</time>
      </trkpt>
      <trkpt lat="47.24558" lon="4.58531">
        <ele>445</ele>
        <time>2012-03-25T12:23:30.998Z</time>
      </trkpt>
      <trkpt lat="47.24558" lon="4.58539">
        <ele>445</ele>
        <time>2012-03-25T12:23:35.998Z</time>
      </trkpt>
      <trkpt lat="47.24558" lon="4.58546">
        <ele>445</ele>
        <time>2012-03-25T12:23:39.998Z</time>
      </trkpt>
      <trkpt lat="47.24557" lon="4.58553">
        <ele>445</ele>
        <time>2012-03-25T12:23:43.998Z</time>
      </trkpt>
      <trkpt lat="47.24556" lon="4.5856">
        <ele>445</ele>
        <time>2012-03-25T12:23:47.998Z</time>
      </trkpt>
      <trkpt lat="47.24555" lon="4.58567">
        <ele>445</ele>
        <time>2012-03-25T12:23:51.998Z</time>
      </trkpt>
      <trkpt lat="47.24553" lon="4.58575">
        <ele>445</ele>
        <time>2012-03-25T12:23:56.998Z</time>
      </trkpt>
      <trkpt lat="47.24552" lon="4.58582">
        <ele>445</ele>
        <time>2012-03-25T12:24:00.998Z</time>
      </trkpt>
      <trkpt lat="47.24551" lon="4.58588">
        <ele>445</ele>
        <time>2012-03-25T12:24:04.998Z</time>
      </trkpt>
      <trkpt lat="47.2455" lon="4.58596">
        <ele>445</ele>
        <time>2012-03-25T12:24:08.998Z</time>
      </trkpt>
      <trkpt lat="47.24548" lon="4.58602">
        <ele>445</ele>
        <time>2012-03-25T12:24:12.998Z</time>
      </trkpt>
      <trkpt lat="47.24546" lon="4.58609">
        <ele>445</ele>
        <time>2012-03-25T12:24:16.998Z</time>
      </trkpt>
      <trkpt lat="47.24545" lon="4.58616">
        <ele>445</ele>
        <time>2012-03-25T12:24:20.998Z</time>
      </trkpt>
      <trkpt lat="47.24544" lon="4.58622">
        <ele>445</ele>
        <time>2012-03-25T12:24:24.998Z</time>
      </trkpt>
      <trkpt lat="47.24542" lon="4.5863">
        <ele>445</ele>
        <time>2012-03-25T12:24:29.998Z</time>
      </trkpt>
      <trkpt lat="47.2454" lon="4.58637">
        <ele>445</ele>
        <time>2012-03-25T12:24:34.998Z</time>
      </trkpt>
      <trkpt lat="47.24538" lon="4.58644">
        <ele>445</ele>
        <time>2012-03-25T12:24:39.998Z</time>
      </trkpt>
      <trkpt lat="47.24535" lon="4.5865">
        <ele>445</ele>
        <time>2012-03-25T12:24:44.998Z</time>
      </trkpt>
      <trkpt lat="47.24533" lon="4.58658">
        <ele>445</ele>
        <time>2012-03-25T12:24:50.998Z</time>
      </trkpt>
      <trkpt lat="47.24533" lon="4.5865">
        <ele>445</ele>
        <time>2012-03-25T12:25:06.998Z</time>
      </trkpt>
      <trkpt lat="47.24532" lon="4.58642">
        <ele>445</ele>
        <time>2012-03-25T12:25:09.998Z</time>
      </trkpt>
      <trkpt lat="47.24533" lon="4.58634">
        <ele>445</ele>
        <time>2012-03-25T12:25:11.998Z</time>
      </trkpt>
      <trkpt lat="47.24534" lon="4.58628">
        <ele>445</ele>
        <time>2012-03-25T12:25:13.998Z</time>
      </trkpt>
      <trkpt lat="47.24536" lon="4.5862">
        <ele>445</ele>
        <time>2012-03-25T12:25:16.998Z</time>
      </trkpt>
      <trkpt lat="47.24538" lon="4.58613">
        <ele>445</ele>
        <time>2012-03-25T12:25:19.998Z</time>
      </trkpt>
      <trkpt lat="47.2454" lon="4.58607">
        <ele>445</ele>
        <time>2012-03-25T12:25:22.998Z</time>
      </trkpt>
      <trkpt lat="47.24544" lon="4.58602">
        <ele>445</ele>
        <time>2012-03-25T12:25:25.998Z</time>
      </trkpt>
      <trkpt lat="47.24547" lon="4.58596">
        <ele>445</ele>
        <time>2012-03-25T12:25:28.998Z</time>
      </trkpt>
      <trkpt lat="47.24551" lon="4.5859">
        <ele>445</ele>
        <time>2012-03-25T12:25:32.998Z</time>
      </trkpt>
      <trkpt lat="47.24555" lon="4.58584">
        <ele>445</ele>
        <time>2012-03-25T12:25:36.998Z</time>
      </trkpt>
      <trkpt lat="47.24557" lon="4.58578">
        <ele>445</ele>
        <time>2012-03-25T12:25:40.998Z</time>
      </trkpt>
      <trkpt lat="47.2456" lon="4.58572">
        <ele>445</ele>
        <time>2012-03-25T12:25:44.998Z</time>
      </trkpt>
      <trkpt lat="47.24562" lon="4.58566">
        <ele>444</ele>
        <time>2012-03-25T12:25:48.998Z</time>
      </trkpt>
      <trkpt lat="47.24563" lon="4.58558">
        <ele>444</ele>
        <time>2012-03-25T12:25:53.998Z</time>
      </trkpt>
      <trkpt lat="47.24564" lon="4.5855">
        <ele>444</ele>
        <time>2012-03-25T12:25:58.998Z</time>
      </trkpt>
      <trkpt lat="47.24565" lon="4.58543">
        <ele>444</ele>
        <time>2012-03-25T12:26:02.998Z</time>
      </trkpt>
      <trkpt lat="47.24566" lon="4.58537">
        <ele>444</ele>
        <time>2012-03-25T12:26:06.998Z</time>
      </trkpt>
      <trkpt lat="47.24568" lon="4.58529">
        <ele>444</ele>
        <time>2012-03-25T12:26:11.998Z</time>
      </trkpt>
      <trkpt lat="47.24569" lon="4.58522">
        <ele>444</ele>
        <time>2012-03-25T12:26:15.998Z</time>
      </trkpt>
      <trkpt lat="47.2457" lon="4.58515">
        <ele>444</ele>
        <time>2012-03-25T12:26:19.998Z</time>
      </trkpt>
      <trkpt lat="47.24571" lon="4.58508">
        <ele>444</ele>
        <time>2012-03-25T12:26:23.998Z</time>
      </trkpt>
      <trkpt lat="47.24571" lon="4.585">
        <ele>444</ele>
        <time>2012-03-25T12:26:28.998Z</time>
      </trkpt>
      <trkpt lat="47.2457" lon="4.58492">
        <ele>444</ele>
        <time>2012-03-25T12:26:33.998Z</time>
      </trkpt>
      <trkpt lat="47.24568" lon="4.58486">
        <ele>444</ele>
        <time>2012-03-25T12:26:37.998Z</time>
      </trkpt>
      <trkpt lat="47.24567" lon="4.58478">
        <ele>444</ele>
        <time>2012-03-25T12:26:42.998Z</time>
      </trkpt>
      <trkpt lat="47.24566" lon="4.5847">
        <ele>444</ele>
        <time>2012-03-25T12:26:47.998Z</time>
      </trkpt>
      <trkpt lat="47.24566" lon="4.58463">
        <ele>444</ele>
        <time>2012-03-25T12:26:52.998Z</time>
      </trkpt>
      <trkpt lat="47.24567" lon="4.58456">
        <ele>444</ele>
        <time>2012-03-25T12:26:57.998Z</time>
      </trkpt>
      <trkpt lat="47.24568" lon="4.58449">
        <ele>444</ele>
        <time>2012-03-25T12:27:02.998Z</time>
      </trkpt>
      <trkpt lat="47.2457" lon="4.58443">
        <ele>444</ele>
        <time>2012-03-25T12:27:07.998Z</time>
      </trkpt>
      <trkpt lat="47.24571" lon="4.58436">
        <ele>444</ele>
        <time>2012-03-25T12:27:12.998Z</time>
      </trkpt>
      <trkpt lat="47.24572" lon="4.58428">
        <ele>444</ele>
        <time>2012-03-25T12:27:17.998Z</time>
      </trkpt>
      <trkpt lat="47.24573" lon="4.58421">
        <ele>444</ele>
        <time>2012-03-25T12:27:22.998Z</time>
      </trkpt>
      <trkpt lat="47.24574" lon="4.58414">
        <ele>444</ele>
        <time>2012-03-25T12:27:27.998Z</time>
      </trkpt>
      <trkpt lat="47.24574" lon="4.58406">
        <ele>444</ele>
        <time>2012-03-25T12:27:33.998Z</time>
      </trkpt>
      <trkpt lat="47.24575" lon="4.58399">
        <ele>443</ele>
        <time>2012-03-25T12:27:38.998Z</time>
      </trkpt>
      <trkpt lat="47.24579" lon="4.58394">
        <ele>443</ele>
        <time>2012-03-25T12:27:43.998Z</time>
      </trkpt>
      <trkpt lat="47.24584" lon="4.58391">
        <ele>443</ele>
        <time>2012-03-25T12:27:47.998Z</time>
      </trkpt>
      <trkpt lat="47.24589" lon="4.5839">
        <ele>443</ele>
        <time>2012-03-25T12:27:49.998Z</time>
      </trkpt>
      <trkpt lat="47.24596" lon="4.5839">
        <ele>443</ele>
        <time>2012-03-25T12:27:51.998Z</time>
      </trkpt>
      <trkpt lat="47.246" lon="4.5839">
        <ele>443</ele>
        <time>2012-03-25T12:27:53.998Z</time>
      </trkpt>
      <trkpt lat="47.24606" lon="4.58391">
        <ele>443</ele>
        <time>2012-03-25T12:27:57.998Z</time>
      </trkpt>
      <trkpt lat="47.2461" lon="4.58389">
        <ele>443</ele>
        <time>2012-03-25T12:28:04.998Z</time>
      </trkpt>
      <trkpt lat="47.24606" lon="4.58386">
        <ele>442</ele>
        <time>2012-03-25T12:28:28.998Z</time>
      </trkpt>
      <trkpt lat="47.24606" lon="4.58378">
        <ele>442</ele>
        <time>2012-03-25T12:28:34.998Z</time>
      </trkpt>
      <trkpt lat="47.24607" lon="4.5837">
        <ele>442</ele>
        <time>2012-03-25T12:28:39.998Z</time>
      </trkpt>
      <trkpt lat="47.24612" lon="4.58365">
        <ele>442</ele>
        <time>2012-03-25T12:28:43.998Z</time>
      </trkpt>
      <trkpt lat="47.24617" lon="4.58363">
        <ele>442</ele>
        <time>2012-03-25T12:28:46.998Z</time>
      </trkpt>
      <trkpt lat="47.24624" lon="4.58362">
        <ele>442</ele>
        <time>2012-03-25T12:28:49.998Z</time>
      </trkpt>
      <trkpt lat="47.24628" lon="4.58361">
        <ele>442</ele>
        <time>2012-03-25T12:28:52.998Z</time>
      </trkpt>
      <trkpt lat="47.24634" lon="4.5836">
        <ele>442</ele>
        <time>2012-03-25T12:28:56.998Z</time>
      </trkpt>
      <trkpt lat="47.24639" lon="4.5836">
        <ele>442</ele>
        <time>2012-03-25T12:29:00.998Z</time>
      </trkpt>
      <trkpt lat="47.24644" lon="4.58358">
        <ele>442</ele>
        <time>2012-03-25T12:29:05.998Z</time>
      </trkpt>
      <trkpt lat="47.24649" lon="4.58357">
        <ele>442</ele>
        <time>2012-03-25T12:29:10.998Z</time>
      </trkpt>
      <trkpt lat="47.24654" lon="4.58356">
        <ele>442</ele>
        <time>2012-03-25T12:29:15.998Z</time>
      </trkpt>
      <trkpt lat="47.24659" lon="4.58354">
        <ele>441</ele>
        <time>2012-03-25T12:29:21.998Z</time>
      </trkpt>
      <trkpt lat="47.24664" lon="4.58352">
        <ele>441</ele>
        <time>2012-03-25T12:29:27.998Z</time>
      </trkpt>
      <trkpt lat="47.24668" lon="4.58348">
        <ele>441</ele>
        <time>2012-03-25T12:29:44.998Z</time>
      </trkpt>
      <trkpt lat="47.24672" lon="4.58345">
        <ele>441</ele>
        <time>2012-03-25T12:29:51.998Z</time>
      </trkpt>
      <trkpt lat="47.24676" lon="4.58343">
        <ele>441</ele>
        <time>2012-03-25T12:29:57.998Z</time>
      </trkpt>
      <trkpt lat="47.24682" lon="4.58341">
        <ele>441</ele>
        <time>2012-03-25T12:30:03.998Z</time>
      </trkpt>
      <trkpt lat="47.24687" lon="4.58339">
        <ele>441</ele>
        <time>2012-03-25T12:30:08.998Z</time>
      </trkpt>
      <trkpt lat="47.24691" lon="4.58338">
        <ele>441</ele>
        <time>2012-03-25T12:30:12.998Z</time>
      </trkpt>
      <trkpt lat="47.24696" lon="4.58338">
        <ele>441</ele>
        <time>2012-03-25T12:30:17.998Z</time>
      </trkpt>
      <trkpt lat="47.24701" lon="4.58338">
        <ele>441</ele>
        <time>2012-03-25T12:30:27.998Z</time>
      </trkpt>
      <trkpt lat="47.24707" lon="4.58339">
        <ele>441</ele>
        <time>2012-03-25T12:30:33.998Z</time>
      </trkpt>
      <trkpt lat="47.24712" lon="4.58339">
        <ele>441</ele>
        <time>2012-03-25T12:30:38.998Z</time>
      </trkpt>
      <trkpt lat="47.24716" lon="4.58342">
        <ele>441</ele>
        <time>2012-03-25T12:30:43.998Z</time>
      </trkpt>
      <trkpt lat="47.24717" lon="4.58349">
        <ele>441</ele>
        <time>2012-03-25T12:30:47.998Z</time>
      </trkpt>
      <trkpt lat="47.24716" lon="4.58357">
        <ele>441</ele>
        <time>2012-03-25T12:30:51.998Z</time>
      </trkpt>
      <trkpt lat="47.24714" lon="4.58364">
        <ele>441</ele>
        <time>2012-03-25T12:30:55.998Z</time>
      </trkpt>
      <trkpt lat="47.24712" lon="4.5837">
        <ele>441</ele>
        <time>2012-03-25T12:31:04.998Z</time>
      </trkpt>
      <trkpt lat="47.24708" lon="4.58373">
        <ele>440</ele>
        <time>2012-03-25T12:31:32.998Z</time>
      </trkpt>
      <trkpt lat="47.24704" lon="4.58369">
        <ele>440</ele>
        <time>2012-03-25T12:31:46.998Z</time>
      </trkpt>
      <trkpt lat="47.24708" lon="4.58374">
        <ele>440</ele>
        <time>2012-03-25T12:32:06.998Z</time>
      </trkpt>
      <trkpt lat="47.24703" lon="4.58373">
        <ele>441</ele>
        <time>2012-03-25T12:32:56.998Z</time>
      </trkpt>
      <trkpt lat="47.24701" lon="4.58366">
        <ele>442</ele>
        <time>2012-03-25T12:33:01.998Z</time>
      </trkpt>
      <trkpt lat="47.24702" lon="4.58359">
        <ele>442</ele>
        <time>2012-03-25T12:33:04.998Z</time>
      </trkpt>
      <trkpt lat="47.24703" lon="4.58352">
        <ele>442</ele>
        <time>2012-03-25T12:33:08.998Z</time>
      </trkpt>
      <trkpt lat="47.24705" lon="4.58344">
        <ele>442</ele>
        <time>2012-03-25T12:33:13.998Z</time>
      </trkpt>
      <trkpt lat="47.24707" lon="4.58338">
        <ele>443</ele>
        <time>2012-03-25T12:33:17.998Z</time>
      </trkpt>
      <trkpt lat="47.2471" lon="4.58333">
        <ele>443</ele>
        <time>2012-03-25T12:33:21.998Z</time>
      </trkpt>
      <trkpt lat="47.24713" lon="4.58328">
        <ele>443</ele>
        <time>2012-03-25T12:33:25.998Z</time>
      </trkpt>
      <trkpt lat="47.24716" lon="4.58322">
        <ele>443</ele>
        <time>2012-03-25T12:33:29.998Z</time>
      </trkpt>
      <trkpt lat="47.24719" lon="4.58318">
        <ele>443</ele>
        <time>2012-03-25T12:33:33.998Z</time>
      </trkpt>
      <trkpt lat="47.24724" lon="4.58313">
        <ele>443</ele>
        <time>2012-03-25T12:33:37.998Z</time>
      </trkpt>
      <trkpt lat="47.24729" lon="4.5831">
        <ele>443</ele>
        <time>2012-03-25T12:33:41.998Z</time>
      </trkpt>
      <trkpt lat="47.24735" lon="4.58309">
        <ele>443</ele>
        <time>2012-03-25T12:33:45.998Z</time>
      </trkpt>
      <trkpt lat="47.24739" lon="4.5831">
        <ele>443</ele>
        <time>2012-03-25T12:33:47.998Z</time>
      </trkpt>
      <trkpt lat="47.24744" lon="4.58311">
        <ele>443</ele>
        <time>2012-03-25T12:33:49.998Z</time>
      </trkpt>
      <trkpt lat="47.24749" lon="4.58313">
        <ele>443</ele>
        <time>2012-03-25T12:33:51.998Z</time>
      </trkpt>
      <trkpt lat="47.24754" lon="4.58317">
        <ele>443</ele>
        <time>2012-03-25T12:33:53.998Z</time>
      </trkpt>
      <trkpt lat="47.24758" lon="4.58321">
        <ele>443</ele>
        <time>2012-03-25T12:33:55.998Z</time>
      </trkpt>
      <trkpt lat="47.24762" lon="4.58325">
        <ele>443</ele>
        <time>2012-03-25T12:33:57.998Z</time>
      </trkpt>
      <trkpt lat="47.24768" lon="4.5833">
        <ele>443</ele>
        <time>2012-03-25T12:34:00.998Z</time>
      </trkpt>
      <trkpt lat="47.24772" lon="4.58335">
        <ele>443</ele>
        <time>2012-03-25T12:34:03.998Z</time>
      </trkpt>
      <trkpt lat="47.24776" lon="4.5834">
        <ele>443</ele>
        <time>2012-03-25T12:34:06.998Z</time>
      </trkpt>
      <trkpt lat="47.24778" lon="4.58346">
        <ele>444</ele>
        <time>2012-03-25T12:34:10.998Z</time>
      </trkpt>
      <trkpt lat="47.24778" lon="4.58353">
        <ele>444</ele>
        <time>2012-03-25T12:34:23.998Z</time>
      </trkpt>
      <trkpt lat="47.2478" lon="4.5836">
        <ele>444</ele>
        <time>2012-03-25T12:34:28.998Z</time>
      </trkpt>
      <trkpt lat="47.24783" lon="4.58366">
        <ele>444</ele>
        <time>2012-03-25T12:34:32.998Z</time>
      </trkpt>
      <trkpt lat="47.24786" lon="4.58372">
        <ele>444</ele>
        <time>2012-03-25T12:34:36.998Z</time>
      </trkpt>
      <trkpt lat="47.24789" lon="4.58377">
        <ele>444</ele>
        <time>2012-03-25T12:34:40.998Z</time>
      </trkpt>
      <trkpt lat="47.24788" lon="4.58385">
        <ele>443</ele>
        <time>2012-03-25T12:34:45.998Z</time>
      </trkpt>
      <trkpt lat="47.24789" lon="4.58392">
        <ele>443</ele>
        <time>2012-03-25T12:34:59.998Z</time>
      </trkpt>
      <trkpt lat="47.24793" lon="4.58397">
        <ele>443</ele>
        <time>2012-03-25T12:35:04.998Z</time>
      </trkpt>
      <trkpt lat="47.24797" lon="4.58401">
        <ele>443</ele>
        <time>2012-03-25T12:35:07.998Z</time>
      </trkpt>
      <trkpt lat="47.24801" lon="4.58405">
        <ele>442</ele>
        <time>2012-03-25T12:35:11.998Z</time>
      </trkpt>
      <trkpt lat="47.24805" lon="4.5841">
        <ele>442</ele>
        <time>2012-03-25T12:35:16.998Z</time>
      </trkpt>
      <trkpt lat="47.24809" lon="4.58414">
        <ele>442</ele>
        <time>2012-03-25T12:35:20.998Z</time>
      </trkpt>
      <trkpt lat="47.24813" lon="4.58418">
        <ele>442</ele>
        <time>2012-03-25T12:35:24.998Z</time>
      </trkpt>
      <trkpt lat="47.24816" lon="4.58424">
        <ele>442</ele>
        <time>2012-03-25T12:35:29.998Z</time>
      </trkpt>
      <trkpt lat="47.24818" lon="4.58431">
        <ele>442</ele>
        <time>2012-03-25T12:35:34.998Z</time>
      </trkpt>
      <trkpt lat="47.24819" lon="4.58438">
        <ele>442</ele>
        <time>2012-03-25T12:35:39.998Z</time>
      </trkpt>
      <trkpt lat="47.2482" lon="4.58445">
        <ele>442</ele>
        <time>2012-03-25T12:35:44.998Z</time>
      </trkpt>
      <trkpt lat="47.24822" lon="4.58452">
        <ele>442</ele>
        <time>2012-03-25T12:35:49.998Z</time>
      </trkpt>
      <trkpt lat="47.24823" lon="4.58459">
        <ele>442</ele>
        <time>2012-03-25T12:35:54.998Z</time>
      </trkpt>
      <trkpt lat="47.24824" lon="4.58466">
        <ele>442</ele>
        <time>2012-03-25T12:35:59.998Z</time>
      </trkpt>
      <trkpt lat="47.24825" lon="4.58474">
        <ele>442</ele>
        <time>2012-03-25T12:36:04.998Z</time>
      </trkpt>
      <trkpt lat="47.24825" lon="4.58482">
        <ele>442</ele>
        <time>2012-03-25T12:36:09.998Z</time>
      </trkpt>
      <trkpt lat="47.24826" lon="4.58488">
        <ele>442</ele>
        <time>2012-03-25T12:36:13.998Z</time>
      </trkpt>
      <trkpt lat="47.24826" lon="4.58495">
        <ele>442</ele>
        <time>2012-03-25T12:36:17.998Z</time>
      </trkpt>
      <trkpt lat="47.24827" lon="4.58503">
        <ele>442</ele>
        <time>2012-03-25T12:36:22.998Z</time>
      </trkpt>
      <trkpt lat="47.24829" lon="4.5851">
        <ele>442</ele>
        <time>2012-03-25T12:36:27.998Z</time>
      </trkpt>
      <trkpt lat="47.24831" lon="4.58516">
        <ele>442</ele>
        <time>2012-03-25T12:36:32.998Z</time>
      </trkpt>
      <trkpt lat="47.24832" lon="4.58523">
        <ele>442</ele>
        <time>2012-03-25T12:36:37.998Z</time>
      </trkpt>
      <trkpt lat="47.24834" lon="4.5853">
        <ele>442</ele>
        <time>2012-03-25T12:36:42.998Z</time>
      </trkpt>
      <trkpt lat="47.24837" lon="4.58536">
        <ele>442</ele>
        <time>2012-03-25T12:36:47.998Z</time>
      </trkpt>
      <trkpt lat="47.24839" lon="4.58542">
        <ele>442</ele>
        <time>2012-03-25T12:36:52.998Z</time>
      </trkpt>
      <trkpt lat="47.24843" lon="4.58546">
        <ele>442</ele>
        <time>2012-03-25T12:36:57.998Z</time>
      </trkpt>
      <trkpt lat="47.24846" lon="4.58551">
        <ele>442</ele>
        <time>2012-03-25T12:37:02.998Z</time>
      </trkpt>
      <trkpt lat="47.24849" lon="4.58557">
        <ele>442</ele>
        <time>2012-03-25T12:37:08.998Z</time>
      </trkpt>
      <trkpt lat="47.24853" lon="4.58563">
        <ele>442</ele>
        <time>2012-03-25T12:37:14.998Z</time>
      </trkpt>
      <trkpt lat="47.24856" lon="4.58568">
        <ele>442</ele>
        <time>2012-03-25T12:37:20.998Z</time>
      </trkpt>
      <trkpt lat="47.2486" lon="4.58572">
        <ele>442</ele>
        <time>2012-03-25T12:37:26.998Z</time>
      </trkpt>
      <trkpt lat="47.24864" lon="4.58575">
        <ele>442</ele>
        <time>2012-03-25T12:37:31.998Z</time>
      </trkpt>
      <trkpt lat="47.24869" lon="4.58576">
        <ele>442</ele>
        <time>2012-03-25T12:37:36.998Z</time>
      </trkpt>
      <trkpt lat="47.24874" lon="4.58568">
        <ele>442</ele>
        <time>2012-03-25T12:37:39.998Z</time>
      </trkpt>
      <trkpt lat="47.2488" lon="4.58559">
        <ele>442</ele>
        <time>2012-03-25T12:37:41.998Z</time>
      </trkpt>
      <trkpt lat="47.24884" lon="4.58553">
        <ele>442</ele>
        <time>2012-03-25T12:37:44.998Z</time>
      </trkpt>
      <trkpt lat="47.24887" lon="4.58548">
        <ele>442</ele>
        <time>2012-03-25T12:37:46.998Z</time>
      </trkpt>
      <trkpt lat="47.24891" lon="4.58542">
        <ele>442</ele>
        <time>2012-03-25T12:37:49.998Z</time>
      </trkpt>
      <trkpt lat="47.24894" lon="4.58536">
        <ele>442</ele>
        <time>2012-03-25T12:37:52.998Z</time>
      </trkpt>
      <trkpt lat="47.24898" lon="4.5853">
        <ele>442</ele>
        <time>2012-03-25T12:37:56.998Z</time>
      </trkpt>
      <trkpt lat="47.24902" lon="4.58525">
        <ele>442</ele>
        <time>2012-03-25T12:38:00.998Z</time>
      </trkpt>
      <trkpt lat="47.24905" lon="4.58519">
        <ele>442</ele>
        <time>2012-03-25T12:38:05.998Z</time>
      </trkpt>
      <trkpt lat="47.24908" lon="4.58514">
        <ele>442</ele>
        <time>2012-03-25T12:38:10.998Z</time>
      </trkpt>
      <trkpt lat="47.2491" lon="4.58508">
        <ele>443</ele>
        <time>2012-03-25T12:38:15.998Z</time>
      </trkpt>
      <trkpt lat="47.24913" lon="4.58502">
        <ele>443</ele>
        <time>2012-03-25T12:38:20.998Z</time>
      </trkpt>
      <trkpt lat="47.24916" lon="4.58497">
        <ele>443</ele>
        <time>2012-03-25T12:38:26.998Z</time>
      </trkpt>
      <trkpt lat="47.2492" lon="4.58492">
        <ele>443</ele>
        <time>2012-03-25T12:38:31.998Z</time>
      </trkpt>
      <trkpt lat="47.24922" lon="4.58485">
        <ele>443</ele>
        <time>2012-03-25T12:38:36.998Z</time>
      </trkpt>
      <trkpt lat="47.24925" lon="4.58478">
        <ele>443</ele>
        <time>2012-03-25T12:38:41.998Z</time>
      </trkpt>
      <trkpt lat="47.24927" lon="4.58472">
        <ele>443</ele>
        <time>2012-03-25T12:38:46.998Z</time>
      </trkpt>
      <trkpt lat="47.24931" lon="4.58466">
        <ele>443</ele>
        <time>2012-03-25T12:38:51.998Z</time>
      </trkpt>
      <trkpt lat="47.24935" lon="4.58462">
        <ele>443</ele>
        <time>2012-03-25T12:39:00.998Z</time>
      </trkpt>
      <trkpt lat="47.24939" lon="4.58456">
        <ele>443</ele>
        <time>2012-03-25T12:39:06.998Z</time>
      </trkpt>
      <trkpt lat="47.24942" lon="4.58452">
        <ele>443</ele>
        <time>2012-03-25T12:39:11.998Z</time>
      </trkpt>
      <trkpt lat="47.24947" lon="4.58448">
        <ele>443</ele>
        <time>2012-03-25T12:39:16.998Z</time>
      </trkpt>
      <trkpt lat="47.24951" lon="4.58443">
        <ele>443</ele>
        <time>2012-03-25T12:39:21.998Z</time>
      </trkpt>
      <trkpt lat="47.24955" lon="4.58438">
        <ele>443</ele>
        <time>2012-03-25T12:39:26.998Z</time>
      </trkpt>
      <trkpt lat="47.24959" lon="4.58435">
        <ele>443</ele>
        <time>2012-03-25T12:39:30.998Z</time>
      </trkpt>
      <trkpt lat="47.24963" lon="4.5843">
        <ele>443</ele>
        <time>2012-03-25T12:39:34.998Z</time>
      </trkpt>
      <trkpt lat="47.24967" lon="4.58426">
        <ele>443</ele>
        <time>2012-03-25T12:39:38.998Z</time>
      </trkpt>
      <trkpt lat="47.24971" lon="4.58422">
        <ele>443</ele>
        <time>2012-03-25T12:39:42.998Z</time>
      </trkpt>
      <trkpt lat="47.24975" lon="4.58419">
        <ele>443</ele>
        <time>2012-03-25T12:39:46.998Z</time>
      </trkpt>
      <trkpt lat="47.24978" lon="4.58414">
        <ele>443</ele>
        <time>2012-03-25T12:39:50.998Z</time>
      </trkpt>
      <trkpt lat="47.24981" lon="4.58408">
        <ele>443</ele>
        <time>2012-03-25T12:39:55.998Z</time>
      </trkpt>
      <trkpt lat="47.24983" lon="4.58401">
        <ele>443</ele>
        <time>2012-03-25T12:40:01.998Z</time>
      </trkpt>
      <trkpt lat="47.24985" lon="4.58395">
        <ele>443</ele>
        <time>2012-03-25T12:40:07.998Z</time>
      </trkpt>
      <trkpt lat="47.24988" lon="4.58389">
        <ele>443</ele>
        <time>2012-03-25T12:40:13.998Z</time>
      </trkpt>
      <trkpt lat="47.24992" lon="4.58385">
        <ele>443</ele>
        <time>2012-03-25T12:40:18.998Z</time>
      </trkpt>
      <trkpt lat="47.24996" lon="4.58381">
        <ele>443</ele>
        <time>2012-03-25T12:40:22.998Z</time>
      </trkpt>
      <trkpt lat="47.25" lon="4.58376">
        <ele>443</ele>
        <time>2012-03-25T12:40:27.998Z</time>
      </trkpt>
      <trkpt lat="47.25004" lon="4.58371">
        <ele>443</ele>
        <time>2012-03-25T12:40:31.998Z</time>
      </trkpt>
      <trkpt lat="47.25008" lon="4.58366">
        <ele>443</ele>
        <time>2012-03-25T12:40:36.998Z</time>
      </trkpt>
      <trkpt lat="47.25011" lon="4.58361">
        <ele>443</ele>
        <time>2012-03-25T12:40:40.998Z</time>
      </trkpt>
      <trkpt lat="47.25015" lon="4.58356">
        <ele>443</ele>
        <time>2012-03-25T12:40:44.998Z</time>
      </trkpt>
      <trkpt lat="47.25019" lon="4.58351">
        <ele>443</ele>
        <time>2012-03-25T12:40:48.998Z</time>
      </trkpt>
      <trkpt lat="47.25022" lon="4.58346">
        <ele>443</ele>
        <time>2012-03-25T12:40:52.998Z</time>
      </trkpt>
      <trkpt lat="47.25026" lon="4.58341">
        <ele>443</ele>
        <time>2012-03-25T12:40:56.998Z</time>
      </trkpt>
      <trkpt lat="47.2503" lon="4.58338">
        <ele>443</ele>
        <time>2012-03-25T12:41:00.998Z</time>
      </trkpt>
      <trkpt lat="47.25033" lon="4.58333">
        <ele>443</ele>
        <time>2012-03-25T12:41:04.998Z</time>
      </trkpt>
      <trkpt lat="47.25037" lon="4.58328">
        <ele>443</ele>
        <time>2012-03-25T12:41:09.998Z</time>
      </trkpt>
      <trkpt lat="47.25041" lon="4.58322">
        <ele>443</ele>
        <time>2012-03-25T12:41:14.998Z</time>
      </trkpt>
      <trkpt lat="47.25045" lon="4.58317">
        <ele>443</ele>
        <time>2012-03-25T12:41:19.998Z</time>
      </trkpt>
      <trkpt lat="47.25049" lon="4.58312">
        <ele>443</ele>
        <time>2012-03-25T12:41:24.998Z</time>
      </trkpt>
      <trkpt lat="47.25053" lon="4.58306">
        <ele>443</ele>
        <time>2012-03-25T12:41:29.998Z</time>
      </trkpt>
      <trkpt lat="47.25057" lon="4.58301">
        <ele>443</ele>
        <time>2012-03-25T12:41:34.998Z</time>
      </trkpt>
      <trkpt lat="47.25062" lon="4.58296">
        <ele>443</ele>
        <time>2012-03-25T12:41:39.998Z</time>
      </trkpt>
      <trkpt lat="47.25066" lon="4.58292">
        <ele>443</ele>
        <time>2012-03-25T12:41:44.998Z</time>
      </trkpt>
      <trkpt lat="47.2507" lon="4.58288">
        <ele>443</ele>
        <time>2012-03-25T12:41:49.998Z</time>
      </trkpt>
      <trkpt lat="47.25073" lon="4.58283">
        <ele>443</ele>
        <time>2012-03-25T12:41:54.998Z</time>
      </trkpt>
      <trkpt lat="47.25077" lon="4.58278">
        <ele>443</ele>
        <time>2012-03-25T12:41:59.998Z</time>
      </trkpt>
      <trkpt lat="47.2508" lon="4.58273">
        <ele>443</ele>
        <time>2012-03-25T12:42:04.998Z</time>
      </trkpt>
      <trkpt lat="47.25084" lon="4.58268">
        <ele>443</ele>
        <time>2012-03-25T12:42:09.998Z</time>
      </trkpt>
      <trkpt lat="47.25087" lon="4.58264">
        <ele>443</ele>
        <time>2012-03-25T12:42:14.998Z</time>
      </trkpt>
      <trkpt lat="47.2509" lon="4.58259">
        <ele>443</ele>
        <time>2012-03-25T12:42:19.998Z</time>
      </trkpt>
      <trkpt lat="47.25095" lon="4.58254">
        <ele>443</ele>
        <time>2012-03-25T12:42:25.998Z</time>
      </trkpt>
      <trkpt lat="47.25099" lon="4.5825">
        <ele>443</ele>
        <time>2012-03-25T12:42:31.998Z</time>
      </trkpt>
      <trkpt lat="47.25103" lon="4.58245">
        <ele>443</ele>
        <time>2012-03-25T12:42:37.998Z</time>
      </trkpt>
      <trkpt lat="47.25108" lon="4.58241">
        <ele>443</ele>
        <time>2012-03-25T12:42:43.998Z</time>
      </trkpt>
      <trkpt lat="47.25112" lon="4.58235">
        <ele>443</ele>
        <time>2012-03-25T12:42:48.998Z</time>
      </trkpt>
      <trkpt lat="47.25114" lon="4.5823">
        <ele>444</ele>
        <time>2012-03-25T12:42:52.998Z</time>
      </trkpt>
      <trkpt lat="47.25119" lon="4.58227">
        <ele>444</ele>
        <time>2012-03-25T12:42:56.998Z</time>
      </trkpt>
      <trkpt lat="47.25123" lon="4.58224">
        <ele>444</ele>
        <time>2012-03-25T12:43:00.998Z</time>
      </trkpt>
      <trkpt lat="47.25127" lon="4.58219">
        <ele>444</ele>
        <time>2012-03-25T12:43:04.998Z</time>
      </trkpt>
      <trkpt lat="47.25131" lon="4.58215">
        <ele>444</ele>
        <time>2012-03-25T12:43:08.998Z</time>
      </trkpt>
      <trkpt lat="47.25135" lon="4.58211">
        <ele>444</ele>
        <time>2012-03-25T12:43:12.998Z</time>
      </trkpt>
      <trkpt lat="47.25139" lon="4.58208">
        <ele>444</ele>
        <time>2012-03-25T12:43:16.998Z</time>
      </trkpt>
      <trkpt lat="47.25143" lon="4.58204">
        <ele>444</ele>
        <time>2012-03-25T12:43:20.998Z</time>
      </trkpt>
      <trkpt lat="47.25147" lon="4.582">
        <ele>444</ele>
        <time>2012-03-25T12:43:25.998Z</time>
      </trkpt>
      <trkpt lat="47.25145" lon="4.58194">
        <ele>444</ele>
        <time>2012-03-25T12:43:44.998Z</time>
      </trkpt>
      <trkpt lat="47.25148" lon="4.58187">
        <ele>444</ele>
        <time>2012-03-25T12:43:49.998Z</time>
      </trkpt>
      <trkpt lat="47.25151" lon="4.58182">
        <ele>444</ele>
        <time>2012-03-25T12:43:54.998Z</time>
      </trkpt>
      <trkpt lat="47.25154" lon="4.58176">
        <ele>444</ele>
        <time>2012-03-25T12:43:59.998Z</time>
      </trkpt>
      <trkpt lat="47.25158" lon="4.58171">
        <ele>444</ele>
        <time>2012-03-25T12:44:04.998Z</time>
      </trkpt>
      <trkpt lat="47.25161" lon="4.58165">
        <ele>444</ele>
        <time>2012-03-25T12:44:09.998Z</time>
      </trkpt>
      <trkpt lat="47.25165" lon="4.58159">
        <ele>444</ele>
        <time>2012-03-25T12:44:14.998Z</time>
      </trkpt>
      <trkpt lat="47.25167" lon="4.58153">
        <ele>444</ele>
        <time>2012-03-25T12:44:18.998Z</time>
      </trkpt>
      <trkpt lat="47.2517" lon="4.58147">
        <ele>444</ele>
        <time>2012-03-25T12:44:22.998Z</time>
      </trkpt>
      <trkpt lat="47.25174" lon="4.58142">
        <ele>444</ele>
        <time>2012-03-25T12:44:27.998Z</time>
      </trkpt>
      <trkpt lat="47.25177" lon="4.58138">
        <ele>444</ele>
        <time>2012-03-25T12:44:31.998Z</time>
      </trkpt>
      <trkpt lat="47.25181" lon="4.58133">
        <ele>444</ele>
        <time>2012-03-25T12:44:35.998Z</time>
      </trkpt>
      <trkpt lat="47.25184" lon="4.58128">
        <ele>444</ele>
        <time>2012-03-25T12:44:39.998Z</time>
      </trkpt>
      <trkpt lat="47.25187" lon="4.58124">
        <ele>444</ele>
        <time>2012-03-25T12:44:43.998Z</time>
      </trkpt>
      <trkpt lat="47.2519" lon="4.58118">
        <ele>444</ele>
        <time>2012-03-25T12:44:47.998Z</time>
      </trkpt>
      <trkpt lat="47.25193" lon="4.58114">
        <ele>444</ele>
        <time>2012-03-25T12:44:51.998Z</time>
      </trkpt>
      <trkpt lat="47.25197" lon="4.58108">
        <ele>444</ele>
        <time>2012-03-25T12:44:56.998Z</time>
      </trkpt>
      <trkpt lat="47.252" lon="4.58103">
        <ele>444</ele>
        <time>2012-03-25T12:45:00.998Z</time>
      </trkpt>
      <trkpt lat="47.25204" lon="4.58098">
        <ele>444</ele>
        <time>2012-03-25T12:45:05.998Z</time>
      </trkpt>
      <trkpt lat="47.25208" lon="4.58092">
        <ele>444</ele>
        <time>2012-03-25T12:45:10.998Z</time>
      </trkpt>
      <trkpt lat="47.2521" lon="4.58086">
        <ele>444</ele>
        <time>2012-03-25T12:45:14.998Z</time>
      </trkpt>
      <trkpt lat="47.25213" lon="4.58079">
        <ele>444</ele>
        <time>2012-03-25T12:45:19.998Z</time>
      </trkpt>
      <trkpt lat="47.25216" lon="4.58072">
        <ele>444</ele>
        <time>2012-03-25T12:45:24.998Z</time>
      </trkpt>
      <trkpt lat="47.25218" lon="4.58066">
        <ele>444</ele>
        <time>2012-03-25T12:45:28.998Z</time>
      </trkpt>
      <trkpt lat="47.25221" lon="4.5806">
        <ele>444</ele>
        <time>2012-03-25T12:45:32.998Z</time>
      </trkpt>
      <trkpt lat="47.25223" lon="4.58054">
        <ele>444</ele>
        <time>2012-03-25T12:45:36.998Z</time>
      </trkpt>
      <trkpt lat="47.25226" lon="4.58049">
        <ele>444</ele>
        <time>2012-03-25T12:45:40.998Z</time>
      </trkpt>
      <trkpt lat="47.25229" lon="4.58044">
        <ele>444</ele>
        <time>2012-03-25T12:45:44.998Z</time>
      </trkpt>
      <trkpt lat="47.25233" lon="4.58039">
        <ele>444</ele>
        <time>2012-03-25T12:45:48.998Z</time>
      </trkpt>
      <trkpt lat="47.25236" lon="4.58034">
        <ele>444</ele>
        <time>2012-03-25T12:45:52.998Z</time>
      </trkpt>
      <trkpt lat="47.2524" lon="4.5803">
        <ele>444</ele>
        <time>2012-03-25T12:45:56.998Z</time>
      </trkpt>
      <trkpt lat="47.25244" lon="4.58025">
        <ele>444</ele>
        <time>2012-03-25T12:46:01.998Z</time>
      </trkpt>
      <trkpt lat="47.25247" lon="4.5802">
        <ele>444</ele>
        <time>2012-03-25T12:46:06.998Z</time>
      </trkpt>
      <trkpt lat="47.25252" lon="4.58016">
        <ele>444</ele>
        <time>2012-03-25T12:46:12.998Z</time>
      </trkpt>
      <trkpt lat="47.25256" lon="4.58012">
        <ele>444</ele>
        <time>2012-03-25T12:46:18.998Z</time>
      </trkpt>
      <trkpt lat="47.2526" lon="4.58008">
        <ele>444</ele>
        <time>2012-03-25T12:46:24.998Z</time>
      </trkpt>
      <trkpt lat="47.25264" lon="4.58003">
        <ele>444</ele>
        <time>2012-03-25T12:46:30.998Z</time>
      </trkpt>
      <trkpt lat="47.25268" lon="4.57999">
        <ele>444</ele>
        <time>2012-03-25T12:46:36.998Z</time>
      </trkpt>
      <trkpt lat="47.25272" lon="4.57994">
        <ele>444</ele>
        <time>2012-03-25T12:46:42.998Z</time>
      </trkpt>
      <trkpt lat="47.25277" lon="4.5799">
        <ele>444</ele>
        <time>2012-03-25T12:46:48.998Z</time>
      </trkpt>
      <trkpt lat="47.25281" lon="4.57987">
        <ele>444</ele>
        <time>2012-03-25T12:46:54.998Z</time>
      </trkpt>
      <trkpt lat="47.25286" lon="4.57983">
        <ele>444</ele>
        <time>2012-03-25T12:47:00.998Z</time>
      </trkpt>
      <trkpt lat="47.25291" lon="4.5798">
        <ele>444</ele>
        <time>2012-03-25T12:47:06.998Z</time>
      </trkpt>
      <trkpt lat="47.25295" lon="4.57976">
        <ele>444</ele>
        <time>2012-03-25T12:47:12.998Z</time>
      </trkpt>
      <trkpt lat="47.253" lon="4.57974">
        <ele>444</ele>
        <time>2012-03-25T12:47:18.998Z</time>
      </trkpt>
      <trkpt lat="47.25305" lon="4.57972">
        <ele>444</ele>
        <time>2012-03-25T12:47:24.998Z</time>
      </trkpt>
      <trkpt lat="47.2531" lon="4.57971">
        <ele>444</ele>
        <time>2012-03-25T12:47:30.998Z</time>
      </trkpt>
      <trkpt lat="47.25314" lon="4.57969">
        <ele>444</ele>
        <time>2012-03-25T12:47:35.998Z</time>
      </trkpt>
      <trkpt lat="47.25318" lon="4.57966">
        <ele>444</ele>
        <time>2012-03-25T12:47:40.998Z</time>
      </trkpt>
      <trkpt lat="47.25323" lon="4.57964">
        <ele>444</ele>
        <time>2012-03-25T12:47:45.998Z</time>
      </trkpt>
      <trkpt lat="47.25328" lon="4.57961">
        <ele>444</ele>
        <time>2012-03-25T12:47:50.998Z</time>
      </trkpt>
      <trkpt lat="47.25333" lon="4.57958">
        <ele>444</ele>
        <time>2012-03-25T12:47:55.998Z</time>
      </trkpt>
      <trkpt lat="47.25338" lon="4.57956">
        <ele>444</ele>
        <time>2012-03-25T12:48:00.998Z</time>
      </trkpt>
      <trkpt lat="47.25343" lon="4.57953">
        <ele>444</ele>
        <time>2012-03-25T12:48:05.998Z</time>
      </trkpt>
      <trkpt lat="47.25348" lon="4.5795">
        <ele>444</ele>
        <time>2012-03-25T12:48:09.998Z</time>
      </trkpt>
      <trkpt lat="47.25352" lon="4.57948">
        <ele>444</ele>
        <time>2012-03-25T12:48:13.998Z</time>
      </trkpt>
      <trkpt lat="47.25356" lon="4.57944">
        <ele>444</ele>
        <time>2012-03-25T12:48:17.998Z</time>
      </trkpt>
      <trkpt lat="47.25361" lon="4.5794">
        <ele>444</ele>
        <time>2012-03-25T12:48:21.998Z</time>
      </trkpt>
      <trkpt lat="47.25366" lon="4.57936">
        <ele>444</ele>
        <time>2012-03-25T12:48:25.998Z</time>
      </trkpt>
      <trkpt lat="47.2537" lon="4.57932">
        <ele>444</ele>
        <time>2012-03-25T12:48:29.998Z</time>
      </trkpt>
      <trkpt lat="47.25375" lon="4.57928">
        <ele>444</ele>
        <time>2012-03-25T12:48:33.998Z</time>
      </trkpt>
      <trkpt lat="47.2538" lon="4.57924">
        <ele>444</ele>
        <time>2012-03-25T12:48:37.998Z</time>
      </trkpt>
      <trkpt lat="47.25385" lon="4.57921">
        <ele>444</ele>
        <time>2012-03-25T12:48:41.998Z</time>
      </trkpt>
      <trkpt lat="47.25391" lon="4.57919">
        <ele>444</ele>
        <time>2012-03-25T12:48:45.998Z</time>
      </trkpt>
      <trkpt lat="47.25396" lon="4.57916">
        <ele>444</ele>
        <time>2012-03-25T12:48:49.998Z</time>
      </trkpt>
      <trkpt lat="47.25401" lon="4.57912">
        <ele>444</ele>
        <time>2012-03-25T12:48:53.998Z</time>
      </trkpt>
      <trkpt lat="47.25406" lon="4.57909">
        <ele>444</ele>
        <time>2012-03-25T12:48:57.998Z</time>
      </trkpt>
      <trkpt lat="47.25411" lon="4.57906">
        <ele>444</ele>
        <time>2012-03-25T12:49:01.998Z</time>
      </trkpt>
      <trkpt lat="47.25415" lon="4.57902">
        <ele>444</ele>
        <time>2012-03-25T12:49:05.998Z</time>
      </trkpt>
      <trkpt lat="47.2542" lon="4.57898">
        <ele>444</ele>
        <time>2012-03-25T12:49:09.998Z</time>
      </trkpt>
      <trkpt lat="47.25424" lon="4.57893">
        <ele>444</ele>
        <time>2012-03-25T12:49:13.998Z</time>
      </trkpt>
      <trkpt lat="47.25428" lon="4.57889">
        <ele>444</ele>
        <time>2012-03-25T12:49:17.998Z</time>
      </trkpt>
      <trkpt lat="47.25433" lon="4.57885">
        <ele>444</ele>
        <time>2012-03-25T12:49:21.998Z</time>
      </trkpt>
      <trkpt lat="47.25437" lon="4.57881">
        <ele>444</ele>
        <time>2012-03-25T12:49:25.998Z</time>
      </trkpt>
      <trkpt lat="47.25441" lon="4.57877">
        <ele>444</ele>
        <time>2012-03-25T12:49:29.998Z</time>
      </trkpt>
      <trkpt lat="47.25445" lon="4.57874">
        <ele>444</ele>
        <time>2012-03-25T12:49:33.998Z</time>
      </trkpt>
      <trkpt lat="47.2545" lon="4.5787">
        <ele>444</ele>
        <time>2012-03-25T12:49:38.998Z</time>
      </trkpt>
      <trkpt lat="47.25454" lon="4.57867">
        <ele>444</ele>
        <time>2012-03-25T12:49:42.998Z</time>
      </trkpt>
      <trkpt lat="47.25458" lon="4.57864">
        <ele>444</ele>
        <time>2012-03-25T12:49:46.998Z</time>
      </trkpt>
      <trkpt lat="47.25463" lon="4.57861">
        <ele>444</ele>
        <time>2012-03-25T12:49:51.998Z</time>
      </trkpt>
      <trkpt lat="47.25468" lon="4.57857">
        <ele>444</ele>
        <time>2012-03-25T12:49:56.998Z</time>
      </trkpt>
      <trkpt lat="47.25472" lon="4.57854">
        <ele>444</ele>
        <time>2012-03-25T12:50:01.998Z</time>
      </trkpt>
      <trkpt lat="47.25477" lon="4.57852">
        <ele>444</ele>
        <time>2012-03-25T12:50:05.998Z</time>
      </trkpt>
      <trkpt lat="47.25481" lon="4.5785">
        <ele>444</ele>
        <time>2012-03-25T12:50:09.998Z</time>
      </trkpt>
      <trkpt lat="47.25486" lon="4.57848">
        <ele>444</ele>
        <time>2012-03-25T12:50:13.998Z</time>
      </trkpt>
      <trkpt lat="47.2549" lon="4.57846">
        <ele>444</ele>
        <time>2012-03-25T12:50:17.998Z</time>
      </trkpt>
      <trkpt lat="47.25494" lon="4.57843">
        <ele>444</ele>
        <time>2012-03-25T12:50:21.998Z</time>
      </trkpt>
      <trkpt lat="47.25499" lon="4.57841">
        <ele>444</ele>
        <time>2012-03-25T12:50:25.998Z</time>
      </trkpt>
      <trkpt lat="47.25504" lon="4.57837">
        <ele>444</ele>
        <time>2012-03-25T12:50:30.998Z</time>
      </trkpt>
      <trkpt lat="47.25509" lon="4.57834">
        <ele>445</ele>
        <time>2012-03-25T12:50:35.998Z</time>
      </trkpt>
      <trkpt lat="47.25514" lon="4.57831">
        <ele>445</ele>
        <time>2012-03-25T12:50:40.998Z</time>
      </trkpt>
      <trkpt lat="47.25519" lon="4.57828">
        <ele>445</ele>
        <time>2012-03-25T12:50:45.998Z</time>
      </trkpt>
      <trkpt lat="47.25524" lon="4.57825">
        <ele>445</ele>
        <time>2012-03-25T12:50:50.998Z</time>
      </trkpt>
      <trkpt lat="47.25529" lon="4.57823">
        <ele>445</ele>
        <time>2012-03-25T12:50:55.998Z</time>
      </trkpt>
      <trkpt lat="47.25533" lon="4.57821">
        <ele>445</ele>
        <time>2012-03-25T12:50:59.998Z</time>
      </trkpt>
      <trkpt lat="47.25538" lon="4.57819">
        <ele>445</ele>
        <time>2012-03-25T12:51:03.998Z</time>
      </trkpt>
      <trkpt lat="47.25542" lon="4.57818">
        <ele>445</ele>
        <time>2012-03-25T12:51:07.998Z</time>
      </trkpt>
      <trkpt lat="47.25547" lon="4.57816">
        <ele>445</ele>
        <time>2012-03-25T12:51:11.998Z</time>
      </trkpt>
      <trkpt lat="47.25551" lon="4.57816">
        <ele>445</ele>
        <time>2012-03-25T12:51:24.998Z</time>
      </trkpt>
      <trkpt lat="47.25556" lon="4.57817">
        <ele>445</ele>
        <time>2012-03-25T12:51:33.998Z</time>
      </trkpt>
      <trkpt lat="47.25562" lon="4.57817">
        <ele>445</ele>
        <time>2012-03-25T12:51:39.998Z</time>
      </trkpt>
      <trkpt lat="47.25567" lon="4.57816">
        <ele>445</ele>
        <time>2012-03-25T12:51:44.998Z</time>
      </trkpt>
      <trkpt lat="47.25572" lon="4.57815">
        <ele>445</ele>
        <time>2012-03-25T12:51:49.998Z</time>
      </trkpt>
      <trkpt lat="47.25578" lon="4.57814">
        <ele>445</ele>
        <time>2012-03-25T12:51:53.998Z</time>
      </trkpt>
      <trkpt lat="47.25583" lon="4.57813">
        <ele>445</ele>
        <time>2012-03-25T12:51:57.998Z</time>
      </trkpt>
      <trkpt lat="47.25588" lon="4.57812">
        <ele>445</ele>
        <time>2012-03-25T12:52:01.998Z</time>
      </trkpt>
      <trkpt lat="47.25593" lon="4.57812">
        <ele>445</ele>
        <time>2012-03-25T12:52:04.998Z</time>
      </trkpt>
      <trkpt lat="47.25598" lon="4.5781">
        <ele>445</ele>
        <time>2012-03-25T12:52:08.998Z</time>
      </trkpt>
      <trkpt lat="47.25604" lon="4.5781">
        <ele>445</ele>
        <time>2012-03-25T12:52:12.998Z</time>
      </trkpt>
      <trkpt lat="47.25609" lon="4.5781">
        <ele>445</ele>
        <time>2012-03-25T12:52:16.998Z</time>
      </trkpt>
      <trkpt lat="47.25615" lon="4.5781">
        <ele>445</ele>
        <time>2012-03-25T12:52:20.998Z</time>
      </trkpt>
      <trkpt lat="47.2562" lon="4.5781">
        <ele>445</ele>
        <time>2012-03-25T12:52:24.998Z</time>
      </trkpt>
      <trkpt lat="47.25625" lon="4.57809">
        <ele>445</ele>
        <time>2012-03-25T12:52:28.998Z</time>
      </trkpt>
      <trkpt lat="47.25631" lon="4.57809">
        <ele>445</ele>
        <time>2012-03-25T12:52:32.998Z</time>
      </trkpt>
      <trkpt lat="47.25636" lon="4.57808">
        <ele>446</ele>
        <time>2012-03-25T12:52:36.998Z</time>
      </trkpt>
      <trkpt lat="47.25641" lon="4.57807">
        <ele>446</ele>
        <time>2012-03-25T12:52:40.998Z</time>
      </trkpt>
      <trkpt lat="47.25646" lon="4.57807">
        <ele>446</ele>
        <time>2012-03-25T12:52:48.998Z</time>
      </trkpt>
      <trkpt lat="47.25651" lon="4.57807">
        <ele>445</ele>
        <time>2012-03-25T12:52:55.998Z</time>
      </trkpt>
      <trkpt lat="47.25657" lon="4.57807">
        <ele>445</ele>
        <time>2012-03-25T12:53:00.998Z</time>
      </trkpt>
      <trkpt lat="47.25662" lon="4.57807">
        <ele>446</ele>
        <time>2012-03-25T12:53:03.998Z</time>
      </trkpt>
      <trkpt lat="47.25666" lon="4.57807">
        <ele>446</ele>
        <time>2012-03-25T12:53:06.998Z</time>
      </trkpt>
      <trkpt lat="47.25671" lon="4.57806">
        <ele>446</ele>
        <time>2012-03-25T12:53:10.998Z</time>
      </trkpt>
      <trkpt lat="47.25676" lon="4.57805">
        <ele>446</ele>
        <time>2012-03-25T12:53:14.998Z</time>
      </trkpt>
      <trkpt lat="47.25681" lon="4.57804">
        <ele>446</ele>
        <time>2012-03-25T12:53:19.998Z</time>
      </trkpt>
      <trkpt lat="47.25685" lon="4.57802">
        <ele>446</ele>
        <time>2012-03-25T12:53:24.998Z</time>
      </trkpt>
      <trkpt lat="47.2569" lon="4.57802">
        <ele>446</ele>
        <time>2012-03-25T12:53:29.998Z</time>
      </trkpt>
      <trkpt lat="47.25695" lon="4.57802">
        <ele>446</ele>
        <time>2012-03-25T12:53:35.998Z</time>
      </trkpt>
      <trkpt lat="47.257" lon="4.57802">
        <ele>446</ele>
        <time>2012-03-25T12:53:41.998Z</time>
      </trkpt>
      <trkpt lat="47.25706" lon="4.578">
        <ele>446</ele>
        <time>2012-03-25T12:53:47.998Z</time>
      </trkpt>
      <trkpt lat="47.2571" lon="4.57798">
        <ele>446</ele>
        <time>2012-03-25T12:53:52.998Z</time>
      </trkpt>
      <trkpt lat="47.25715" lon="4.57796">
        <ele>446</ele>
        <time>2012-03-25T12:53:57.998Z</time>
      </trkpt>
      <trkpt lat="47.2572" lon="4.57794">
        <ele>446</ele>
        <time>2012-03-25T12:54:02.998Z</time>
      </trkpt>
      <trkpt lat="47.25724" lon="4.57793">
        <ele>446</ele>
        <time>2012-03-25T12:54:07.998Z</time>
      </trkpt>
      <trkpt lat="47.25729" lon="4.57791">
        <ele>446</ele>
        <time>2012-03-25T12:54:12.998Z</time>
      </trkpt>
      <trkpt lat="47.25734" lon="4.57788">
        <ele>446</ele>
        <time>2012-03-25T12:54:17.998Z</time>
      </trkpt>
      <trkpt lat="47.25739" lon="4.57785">
        <ele>446</ele>
        <time>2012-03-25T12:54:22.998Z</time>
      </trkpt>
      <trkpt lat="47.25743" lon="4.57783">
        <ele>446</ele>
        <time>2012-03-25T12:54:26.998Z</time>
      </trkpt>
      <trkpt lat="47.25747" lon="4.5778">
        <ele>446</ele>
        <time>2012-03-25T12:54:30.998Z</time>
      </trkpt>
      <trkpt lat="47.25752" lon="4.57778">
        <ele>446</ele>
        <time>2012-03-25T12:54:34.998Z</time>
      </trkpt>
      <trkpt lat="47.25757" lon="4.57775">
        <ele>446</ele>
        <time>2012-03-25T12:54:38.998Z</time>
      </trkpt>
      <trkpt lat="47.25761" lon="4.57772">
        <ele>446</ele>
        <time>2012-03-25T12:54:42.998Z</time>
      </trkpt>
      <trkpt lat="47.25766" lon="4.57769">
        <ele>446</ele>
        <time>2012-03-25T12:54:46.998Z</time>
      </trkpt>
      <trkpt lat="47.2577" lon="4.57766">
        <ele>446</ele>
        <time>2012-03-25T12:54:50.998Z</time>
      </trkpt>
      <trkpt lat="47.25774" lon="4.57764">
        <ele>446</ele>
        <time>2012-03-25T12:54:54.998Z</time>
      </trkpt>
      <trkpt lat="47.25779" lon="4.57761">
        <ele>446</ele>
        <time>2012-03-25T12:54:59.998Z</time>
      </trkpt>
      <trkpt lat="47.25785" lon="4.57759">
        <ele>447</ele>
        <time>2012-03-25T12:55:04.998Z</time>
      </trkpt>
      <trkpt lat="47.25789" lon="4.57758">
        <ele>447</ele>
        <time>2012-03-25T12:55:10.998Z</time>
      </trkpt>
      <trkpt lat="47.25794" lon="4.57758">
        <ele>447</ele>
        <time>2012-03-25T12:55:17.998Z</time>
      </trkpt>
      <trkpt lat="47.25798" lon="4.57757">
        <ele>447</ele>
        <time>2012-03-25T12:55:22.998Z</time>
      </trkpt>
      <trkpt lat="47.25804" lon="4.57756">
        <ele>447</ele>
        <time>2012-03-25T12:55:27.998Z</time>
      </trkpt>
      <trkpt lat="47.25808" lon="4.57755">
        <ele>447</ele>
        <time>2012-03-25T12:55:31.998Z</time>
      </trkpt>
      <trkpt lat="47.25813" lon="4.57754">
        <ele>447</ele>
        <time>2012-03-25T12:55:35.998Z</time>
      </trkpt>
      <trkpt lat="47.25817" lon="4.57753">
        <ele>447</ele>
        <time>2012-03-25T12:55:39.998Z</time>
      </trkpt>
      <trkpt lat="47.25822" lon="4.57751">
        <ele>447</ele>
        <time>2012-03-25T12:55:43.998Z</time>
      </trkpt>
      <trkpt lat="47.25827" lon="4.5775">
        <ele>447</ele>
        <time>2012-03-25T12:55:47.998Z</time>
      </trkpt>
      <trkpt lat="47.25831" lon="4.57749">
        <ele>447</ele>
        <time>2012-03-25T12:55:51.998Z</time>
      </trkpt>
      <trkpt lat="47.25836" lon="4.57748">
        <ele>447</ele>
        <time>2012-03-25T12:55:55.998Z</time>
      </trkpt>
      <trkpt lat="47.2584" lon="4.57752">
        <ele>447</ele>
        <time>2012-03-25T12:56:03.998Z</time>
      </trkpt>
      <trkpt lat="47.25843" lon="4.57757">
        <ele>447</ele>
        <time>2012-03-25T12:56:08.998Z</time>
      </trkpt>
      <trkpt lat="47.25847" lon="4.57762">
        <ele>447</ele>
        <time>2012-03-25T12:56:13.998Z</time>
      </trkpt>
      <trkpt lat="47.25851" lon="4.57765">
        <ele>447</ele>
        <time>2012-03-25T12:56:17.998Z</time>
      </trkpt>
      <trkpt lat="47.25855" lon="4.5777">
        <ele>447</ele>
        <time>2012-03-25T12:56:22.998Z</time>
      </trkpt>
      <trkpt lat="47.25858" lon="4.57774">
        <ele>447</ele>
        <time>2012-03-25T12:56:26.998Z</time>
      </trkpt>
      <trkpt lat="47.25863" lon="4.57777">
        <ele>447</ele>
        <time>2012-03-25T12:56:30.998Z</time>
      </trkpt>
      <trkpt lat="47.25868" lon="4.5778">
        <ele>447</ele>
        <time>2012-03-25T12:56:34.998Z</time>
      </trkpt>
      <trkpt lat="47.25874" lon="4.57782">
        <ele>447</ele>
        <time>2012-03-25T12:56:38.998Z</time>
      </trkpt>
      <trkpt lat="47.25878" lon="4.57784">
        <ele>447</ele>
        <time>2012-03-25T12:56:41.998Z</time>
      </trkpt>
      <trkpt lat="47.25882" lon="4.57786">
        <ele>447</ele>
        <time>2012-03-25T12:56:44.998Z</time>
      </trkpt>
      <trkpt lat="47.25887" lon="4.57787">
        <ele>447</ele>
        <time>2012-03-25T12:56:47.998Z</time>
      </trkpt>
      <trkpt lat="47.25893" lon="4.57789">
        <ele>447</ele>
        <time>2012-03-25T12:56:51.998Z</time>
      </trkpt>
      <trkpt lat="47.25898" lon="4.5779">
        <ele>447</ele>
        <time>2012-03-25T12:56:55.998Z</time>
      </trkpt>
      <trkpt lat="47.25904" lon="4.57791">
        <ele>447</ele>
        <time>2012-03-25T12:56:59.998Z</time>
      </trkpt>
      <trkpt lat="47.25909" lon="4.57792">
        <ele>447</ele>
        <time>2012-03-25T12:57:03.998Z</time>
      </trkpt>
      <trkpt lat="47.25915" lon="4.57793">
        <ele>447</ele>
        <time>2012-03-25T12:57:07.998Z</time>
      </trkpt>
      <trkpt lat="47.2592" lon="4.57796">
        <ele>447</ele>
        <time>2012-03-25T12:57:11.998Z</time>
      </trkpt>
      <trkpt lat="47.25923" lon="4.578">
        <ele>448</ele>
        <time>2012-03-25T12:57:14.998Z</time>
      </trkpt>
      <trkpt lat="47.25927" lon="4.57805">
        <ele>448</ele>
        <time>2012-03-25T12:57:18.998Z</time>
      </trkpt>
      <trkpt lat="47.25931" lon="4.57809">
        <ele>448</ele>
        <time>2012-03-25T12:57:22.998Z</time>
      </trkpt>
      <trkpt lat="47.25936" lon="4.57811">
        <ele>448</ele>
        <time>2012-03-25T12:57:26.998Z</time>
      </trkpt>
      <trkpt lat="47.2594" lon="4.57814">
        <ele>448</ele>
        <time>2012-03-25T12:57:30.998Z</time>
      </trkpt>
      <trkpt lat="47.25945" lon="4.57816">
        <ele>448</ele>
        <time>2012-03-25T12:57:34.998Z</time>
      </trkpt>
      <trkpt lat="47.2595" lon="4.57819">
        <ele>448</ele>
        <time>2012-03-25T12:57:38.998Z</time>
      </trkpt>
      <trkpt lat="47.25954" lon="4.57821">
        <ele>448</ele>
        <time>2012-03-25T12:57:42.998Z</time>
      </trkpt>
      <trkpt lat="47.25958" lon="4.57823">
        <ele>448</ele>
        <time>2012-03-25T12:57:46.998Z</time>
      </trkpt>
      <trkpt lat="47.25963" lon="4.57825">
        <ele>448</ele>
        <time>2012-03-25T12:57:50.998Z</time>
      </trkpt>
      <trkpt lat="47.25967" lon="4.57827">
        <ele>448</ele>
        <time>2012-03-25T12:57:54.998Z</time>
      </trkpt>
      <trkpt lat="47.25971" lon="4.57829">
        <ele>448</ele>
        <time>2012-03-25T12:57:58.998Z</time>
      </trkpt>
      <trkpt lat="47.25976" lon="4.57832">
        <ele>448</ele>
        <time>2012-03-25T12:58:03.998Z</time>
      </trkpt>
      <trkpt lat="47.25981" lon="4.57834">
        <ele>448</ele>
        <time>2012-03-25T12:58:08.998Z</time>
      </trkpt>
      <trkpt lat="47.25986" lon="4.57836">
        <ele>448</ele>
        <time>2012-03-25T12:58:13.998Z</time>
      </trkpt>
      <trkpt lat="47.25991" lon="4.57839">
        <ele>448</ele>
        <time>2012-03-25T12:58:18.998Z</time>
      </trkpt>
      <trkpt lat="47.25996" lon="4.57841">
        <ele>448</ele>
        <time>2012-03-25T12:58:23.998Z</time>
      </trkpt>
      <trkpt lat="47.26002" lon="4.57844">
        <ele>448</ele>
        <time>2012-03-25T12:58:28.998Z</time>
      </trkpt>
      <trkpt lat="47.26007" lon="4.57846">
        <ele>448</ele>
        <time>2012-03-25T12:58:33.998Z</time>
      </trkpt>
      <trkpt lat="47.26012" lon="4.57848">
        <ele>448</ele>
        <time>2012-03-25T12:58:38.998Z</time>
      </trkpt>
      <trkpt lat="47.26017" lon="4.57851">
        <ele>448</ele>
        <time>2012-03-25T12:58:43.998Z</time>
      </trkpt>
      <trkpt lat="47.26022" lon="4.57853">
        <ele>449</ele>
        <time>2012-03-25T12:58:48.998Z</time>
      </trkpt>
      <trkpt lat="47.26026" lon="4.57858">
        <ele>449</ele>
        <time>2012-03-25T12:58:53.998Z</time>
      </trkpt>
      <trkpt lat="47.2603" lon="4.57862">
        <ele>449</ele>
        <time>2012-03-25T12:58:58.998Z</time>
      </trkpt>
      <trkpt lat="47.26034" lon="4.57866">
        <ele>449</ele>
        <time>2012-03-25T12:59:03.998Z</time>
      </trkpt>
      <trkpt lat="47.26038" lon="4.57871">
        <ele>449</ele>
        <time>2012-03-25T12:59:08.998Z</time>
      </trkpt>
      <trkpt lat="47.26042" lon="4.57875">
        <ele>449</ele>
        <time>2012-03-25T12:59:13.998Z</time>
      </trkpt>
      <trkpt lat="47.26047" lon="4.57878">
        <ele>449</ele>
        <time>2012-03-25T12:59:18.998Z</time>
      </trkpt>
      <trkpt lat="47.26051" lon="4.57882">
        <ele>449</ele>
        <time>2012-03-25T12:59:22.998Z</time>
      </trkpt>
      <trkpt lat="47.26056" lon="4.57886">
        <ele>449</ele>
        <time>2012-03-25T12:59:26.998Z</time>
      </trkpt>
      <trkpt lat="47.2606" lon="4.57889">
        <ele>449</ele>
        <time>2012-03-25T12:59:30.998Z</time>
      </trkpt>
      <trkpt lat="47.26064" lon="4.57893">
        <ele>449</ele>
        <time>2012-03-25T12:59:34.998Z</time>
      </trkpt>
      <trkpt lat="47.26069" lon="4.57896">
        <ele>449</ele>
        <time>2012-03-25T12:59:38.998Z</time>
      </trkpt>
      <trkpt lat="47.26073" lon="4.57899">
        <ele>449</ele>
        <time>2012-03-25T12:59:42.998Z</time>
      </trkpt>
      <trkpt lat="47.26077" lon="4.57902">
        <ele>449</ele>
        <time>2012-03-25T12:59:46.998Z</time>
      </trkpt>
      <trkpt lat="47.26082" lon="4.57904">
        <ele>449</ele>
        <time>2012-03-25T12:59:51.998Z</time>
      </trkpt>
      <trkpt lat="47.26087" lon="4.57902">
        <ele>449</ele>
        <time>2012-03-25T12:59:55.998Z</time>
      </trkpt>
      <trkpt lat="47.26093" lon="4.579">
        <ele>449</ele>
        <time>2012-03-25T12:59:59.997Z</time>
      </trkpt>
      <trkpt lat="47.26098" lon="4.57898">
        <ele>449</ele>
        <time>2012-03-25T13:00:03.997Z</time>
      </trkpt>
      <trkpt lat="47.26102" lon="4.57895">
        <ele>449</ele>
        <time>2012-03-25T13:00:07.997Z</time>
      </trkpt>
      <trkpt lat="47.26107" lon="4.57893">
        <ele>449</ele>
        <time>2012-03-25T13:00:11.997Z</time>
      </trkpt>
      <trkpt lat="47.26111" lon="4.57889">
        <ele>449</ele>
        <time>2012-03-25T13:00:15.997Z</time>
      </trkpt>
      <trkpt lat="47.26114" lon="4.57882">
        <ele>449</ele>
        <time>2012-03-25T13:00:19.997Z</time>
      </trkpt>
      <trkpt lat="47.26116" lon="4.57875">
        <ele>449</ele>
        <time>2012-03-25T13:00:24.997Z</time>
      </trkpt>
      <trkpt lat="47.26112" lon="4.57868">
        <ele>449</ele>
        <time>2012-03-25T13:00:28.997Z</time>
      </trkpt>
      <trkpt lat="47.26107" lon="4.57863">
        <ele>449</ele>
        <time>2012-03-25T13:00:31.997Z</time>
      </trkpt>
      <trkpt lat="47.26103" lon="4.57859">
        <ele>449</ele>
        <time>2012-03-25T13:00:33.997Z</time>
      </trkpt>
      <trkpt lat="47.26097" lon="4.57854">
        <ele>449</ele>
        <time>2012-03-25T13:00:36.997Z</time>
      </trkpt>
      <trkpt lat="47.26093" lon="4.5785">
        <ele>449</ele>
        <time>2012-03-25T13:00:38.997Z</time>
      </trkpt>
      <trkpt lat="47.26089" lon="4.57847">
        <ele>449</ele>
        <time>2012-03-25T13:00:40.997Z</time>
      </trkpt>
      <trkpt lat="47.26084" lon="4.57844">
        <ele>449</ele>
        <time>2012-03-25T13:00:42.997Z</time>
      </trkpt>
      <trkpt lat="47.26079" lon="4.57842">
        <ele>449</ele>
        <time>2012-03-25T13:00:44.997Z</time>
      </trkpt>
      <trkpt lat="47.26073" lon="4.57839">
        <ele>449</ele>
        <time>2012-03-25T13:00:47.997Z</time>
      </trkpt>
      <trkpt lat="47.26068" lon="4.57836">
        <ele>449</ele>
        <time>2012-03-25T13:00:50.997Z</time>
      </trkpt>
      <trkpt lat="47.26064" lon="4.57832">
        <ele>449</ele>
        <time>2012-03-25T13:00:53.997Z</time>
      </trkpt>
      <trkpt lat="47.2606" lon="4.57828">
        <ele>449</ele>
        <time>2012-03-25T13:00:57.997Z</time>
      </trkpt>
      <trkpt lat="47.26055" lon="4.57824">
        <ele>449</ele>
        <time>2012-03-25T13:01:01.997Z</time>
      </trkpt>
      <trkpt lat="47.26051" lon="4.5782">
        <ele>449</ele>
        <time>2012-03-25T13:01:05.997Z</time>
      </trkpt>
      <trkpt lat="47.26047" lon="4.57814">
        <ele>449</ele>
        <time>2012-03-25T13:01:09.997Z</time>
      </trkpt>
      <trkpt lat="47.26043" lon="4.57809">
        <ele>449</ele>
        <time>2012-03-25T13:01:13.997Z</time>
      </trkpt>
      <trkpt lat="47.26039" lon="4.57804">
        <ele>449</ele>
        <time>2012-03-25T13:01:18.997Z</time>
      </trkpt>
      <trkpt lat="47.26036" lon="4.578">
        <ele>449</ele>
        <time>2012-03-25T13:01:25.997Z</time>
      </trkpt>
      <trkpt lat="47.26037" lon="4.57806">
        <ele>449</ele>
        <time>2012-03-25T13:01:46.997Z</time>
      </trkpt>
      <trkpt lat="47.26041" lon="4.5781">
        <ele>449</ele>
        <time>2012-03-25T13:01:55.997Z</time>
      </trkpt>
      <trkpt lat="47.26045" lon="4.57814">
        <ele>449</ele>
        <time>2012-03-25T13:02:01.997Z</time>
      </trkpt>
      <trkpt lat="47.26049" lon="4.57817">
        <ele>449</ele>
        <time>2012-03-25T13:02:07.997Z</time>
      </trkpt>
      <trkpt lat="47.26054" lon="4.57818">
        <ele>449</ele>
        <time>2012-03-25T13:02:16.997Z</time>
      </trkpt>
      <trkpt lat="47.26058" lon="4.5782">
        <ele>449</ele>
        <time>2012-03-25T13:02:24.997Z</time>
      </trkpt>
      <trkpt lat="47.26063" lon="4.57822">
        <ele>449</ele>
        <time>2012-03-25T13:02:36.997Z</time>
      </trkpt>
      <trkpt lat="47.26058" lon="4.57825">
        <ele>449</ele>
        <time>2012-03-25T13:02:50.997Z</time>
      </trkpt>
      <trkpt lat="47.26055" lon="4.5783">
        <ele>449</ele>
        <time>2012-03-25T13:02:56.997Z</time>
      </trkpt>
      <trkpt lat="47.26052" lon="4.57837">
        <ele>449</ele>
        <time>2012-03-25T13:03:04.997Z</time>
      </trkpt>
      <trkpt lat="47.26052" lon="4.57844">
        <ele>449</ele>
        <time>2012-03-25T13:03:09.997Z</time>
      </trkpt>
      <trkpt lat="47.26052" lon="4.57852">
        <ele>449</ele>
        <time>2012-03-25T13:03:14.997Z</time>
      </trkpt>
      <trkpt lat="47.26052" lon="4.5786">
        <ele>449</ele>
        <time>2012-03-25T13:03:18.997Z</time>
      </trkpt>
      <trkpt lat="47.26053" lon="4.57867">
        <ele>450</ele>
        <time>2012-03-25T13:03:22.997Z</time>
      </trkpt>
      <trkpt lat="47.26055" lon="4.57874">
        <ele>450</ele>
        <time>2012-03-25T13:03:28.997Z</time>
      </trkpt>
      <trkpt lat="47.26059" lon="4.57876">
        <ele>450</ele>
        <time>2012-03-25T13:03:40.997Z</time>
      </trkpt>
      <trkpt lat="47.26063" lon="4.5788">
        <ele>450</ele>
        <time>2012-03-25T13:03:46.997Z</time>
      </trkpt>
      <trkpt lat="47.26068" lon="4.57884">
        <ele>450</ele>
        <time>2012-03-25T13:03:52.997Z</time>
      </trkpt>
      <trkpt lat="47.26072" lon="4.57888">
        <ele>450</ele>
        <time>2012-03-25T13:03:56.997Z</time>
      </trkpt>
      <trkpt lat="47.26076" lon="4.57891">
        <ele>450</ele>
        <time>2012-03-25T13:04:01.997Z</time>
      </trkpt>
      <trkpt lat="47.26081" lon="4.57894">
        <ele>450</ele>
        <time>2012-03-25T13:04:07.997Z</time>
      </trkpt>
      <trkpt lat="47.26083" lon="4.57901">
        <ele>450</ele>
        <time>2012-03-25T13:04:14.997Z</time>
      </trkpt>
      <trkpt lat="47.2608" lon="4.57909">
        <ele>450</ele>
        <time>2012-03-25T13:04:19.997Z</time>
      </trkpt>
      <trkpt lat="47.26077" lon="4.57914">
        <ele>450</ele>
        <time>2012-03-25T13:04:22.997Z</time>
      </trkpt>
      <trkpt lat="47.26073" lon="4.57917">
        <ele>450</ele>
        <time>2012-03-25T13:04:24.997Z</time>
      </trkpt>
      <trkpt lat="47.26067" lon="4.57922">
        <ele>450</ele>
        <time>2012-03-25T13:04:27.997Z</time>
      </trkpt>
      <trkpt lat="47.26062" lon="4.57925">
        <ele>450</ele>
        <time>2012-03-25T13:04:30.997Z</time>
      </trkpt>
      <trkpt lat="47.26057" lon="4.57927">
        <ele>450</ele>
        <time>2012-03-25T13:04:34.997Z</time>
      </trkpt>
      <trkpt lat="47.26052" lon="4.57926">
        <ele>450</ele>
        <time>2012-03-25T13:04:38.997Z</time>
      </trkpt>
      <trkpt lat="47.26046" lon="4.57924">
        <ele>450</ele>
        <time>2012-03-25T13:04:42.997Z</time>
      </trkpt>
      <trkpt lat="47.26042" lon="4.57921">
        <ele>450</ele>
        <time>2012-03-25T13:04:46.997Z</time>
      </trkpt>
      <trkpt lat="47.26038" lon="4.57916">
        <ele>450</ele>
        <time>2012-03-25T13:04:50.997Z</time>
      </trkpt>
      <trkpt lat="47.26034" lon="4.57912">
        <ele>450</ele>
        <time>2012-03-25T13:04:54.997Z</time>
      </trkpt>
      <trkpt lat="47.2603" lon="4.57906">
        <ele>450</ele>
        <time>2012-03-25T13:04:58.997Z</time>
      </trkpt>
      <trkpt lat="47.26025" lon="4.57902">
        <ele>450</ele>
        <time>2012-03-25T13:05:02.997Z</time>
      </trkpt>
      <trkpt lat="47.2602" lon="4.57897">
        <ele>450</ele>
        <time>2012-03-25T13:05:06.997Z</time>
      </trkpt>
      <trkpt lat="47.26016" lon="4.57892">
        <ele>450</ele>
        <time>2012-03-25T13:05:10.997Z</time>
      </trkpt>
      <trkpt lat="47.26012" lon="4.57886">
        <ele>450</ele>
        <time>2012-03-25T13:05:14.997Z</time>
      </trkpt>
      <trkpt lat="47.26007" lon="4.57881">
        <ele>450</ele>
        <time>2012-03-25T13:05:18.997Z</time>
      </trkpt>
      <trkpt lat="47.26003" lon="4.57877">
        <ele>450</ele>
        <time>2012-03-25T13:05:22.997Z</time>
      </trkpt>
      <trkpt lat="47.26" lon="4.57871">
        <ele>450</ele>
        <time>2012-03-25T13:05:27.997Z</time>
      </trkpt>
      <trkpt lat="47.25997" lon="4.57864">
        <ele>450</ele>
        <time>2012-03-25T13:05:32.997Z</time>
      </trkpt>
      <trkpt lat="47.25994" lon="4.57858">
        <ele>450</ele>
        <time>2012-03-25T13:05:36.997Z</time>
      </trkpt>
      <trkpt lat="47.2599" lon="4.57853">
        <ele>450</ele>
        <time>2012-03-25T13:05:40.997Z</time>
      </trkpt>
      <trkpt lat="47.25986" lon="4.57849">
        <ele>450</ele>
        <time>2012-03-25T13:05:44.997Z</time>
      </trkpt>
      <trkpt lat="47.25982" lon="4.57846">
        <ele>450</ele>
        <time>2012-03-25T13:05:48.997Z</time>
      </trkpt>
      <trkpt lat="47.25977" lon="4.57843">
        <ele>450</ele>
        <time>2012-03-25T13:05:52.997Z</time>
      </trkpt>
      <trkpt lat="47.25973" lon="4.5784">
        <ele>450</ele>
        <time>2012-03-25T13:05:56.997Z</time>
      </trkpt>
      <trkpt lat="47.25968" lon="4.57836">
        <ele>450</ele>
        <time>2012-03-25T13:06:00.997Z</time>
      </trkpt>
      <trkpt lat="47.25964" lon="4.57833">
        <ele>450</ele>
        <time>2012-03-25T13:06:04.997Z</time>
      </trkpt>
      <trkpt lat="47.2596" lon="4.5783">
        <ele>450</ele>
        <time>2012-03-25T13:06:08.997Z</time>
      </trkpt>
      <trkpt lat="47.25955" lon="4.57826">
        <ele>450</ele>
        <time>2012-03-25T13:06:13.997Z</time>
      </trkpt>
      <trkpt lat="47.25951" lon="4.57822">
        <ele>450</ele>
        <time>2012-03-25T13:06:17.997Z</time>
      </trkpt>
      <trkpt lat="47.25947" lon="4.57818">
        <ele>450</ele>
        <time>2012-03-25T13:06:21.997Z</time>
      </trkpt>
      <trkpt lat="47.25943" lon="4.57814">
        <ele>450</ele>
        <time>2012-03-25T13:06:25.997Z</time>
      </trkpt>
      <trkpt lat="47.25939" lon="4.5781">
        <ele>450</ele>
        <time>2012-03-25T13:06:29.997Z</time>
      </trkpt>
      <trkpt lat="47.25934" lon="4.57806">
        <ele>450</ele>
        <time>2012-03-25T13:06:34.997Z</time>
      </trkpt>
      <trkpt lat="47.2593" lon="4.57802">
        <ele>450</ele>
        <time>2012-03-25T13:06:39.997Z</time>
      </trkpt>
      <trkpt lat="47.25925" lon="4.57798">
        <ele>450</ele>
        <time>2012-03-25T13:06:44.997Z</time>
      </trkpt>
      <trkpt lat="47.2592" lon="4.57794">
        <ele>450</ele>
        <time>2012-03-25T13:06:49.997Z</time>
      </trkpt>
      <trkpt lat="47.25916" lon="4.57791">
        <ele>450</ele>
        <time>2012-03-25T13:06:54.997Z</time>
      </trkpt>
      <trkpt lat="47.25911" lon="4.57788">
        <ele>450</ele>
        <time>2012-03-25T13:06:59.997Z</time>
      </trkpt>
      <trkpt lat="47.25907" lon="4.57785">
        <ele>450</ele>
        <time>2012-03-25T13:07:04.997Z</time>
      </trkpt>
      <trkpt lat="47.25903" lon="4.57782">
        <ele>450</ele>
        <time>2012-03-25T13:07:09.997Z</time>
      </trkpt>
      <trkpt lat="47.25898" lon="4.5778">
        <ele>450</ele>
        <time>2012-03-25T13:07:14.997Z</time>
      </trkpt>
      <trkpt lat="47.25893" lon="4.57778">
        <ele>450</ele>
        <time>2012-03-25T13:07:20.997Z</time>
      </trkpt>
      <trkpt lat="47.25888" lon="4.57778">
        <ele>450</ele>
        <time>2012-03-25T13:07:25.997Z</time>
      </trkpt>
      <trkpt lat="47.25884" lon="4.57779">
        <ele>450</ele>
        <time>2012-03-25T13:07:30.997Z</time>
      </trkpt>
      <trkpt lat="47.25879" lon="4.5778">
        <ele>450</ele>
        <time>2012-03-25T13:07:35.997Z</time>
      </trkpt>
      <trkpt lat="47.25875" lon="4.57782">
        <ele>450</ele>
        <time>2012-03-25T13:07:40.997Z</time>
      </trkpt>
      <trkpt lat="47.25869" lon="4.57782">
        <ele>450</ele>
        <time>2012-03-25T13:07:45.997Z</time>
      </trkpt>
      <trkpt lat="47.25865" lon="4.57781">
        <ele>451</ele>
        <time>2012-03-25T13:07:49.997Z</time>
      </trkpt>
      <trkpt lat="47.2586" lon="4.5778">
        <ele>451</ele>
        <time>2012-03-25T13:07:53.997Z</time>
      </trkpt>
      <trkpt lat="47.25855" lon="4.57779">
        <ele>451</ele>
        <time>2012-03-25T13:07:57.997Z</time>
      </trkpt>
      <trkpt lat="47.25851" lon="4.57778">
        <ele>451</ele>
        <time>2012-03-25T13:08:01.997Z</time>
      </trkpt>
      <trkpt lat="47.25846" lon="4.57777">
        <ele>451</ele>
        <time>2012-03-25T13:08:05.997Z</time>
      </trkpt>
      <trkpt lat="47.25841" lon="4.57777">
        <ele>451</ele>
        <time>2012-03-25T13:08:09.997Z</time>
      </trkpt>
      <trkpt lat="47.25836" lon="4.57776">
        <ele>451</ele>
        <time>2012-03-25T13:08:14.997Z</time>
      </trkpt>
      <trkpt lat="47.2583" lon="4.57774">
        <ele>451</ele>
        <time>2012-03-25T13:08:19.997Z</time>
      </trkpt>
      <trkpt lat="47.25825" lon="4.57774">
        <ele>451</ele>
        <time>2012-03-25T13:08:24.997Z</time>
      </trkpt>
      <trkpt lat="47.25819" lon="4.57772">
        <ele>451</ele>
        <time>2012-03-25T13:08:29.997Z</time>
      </trkpt>
      <trkpt lat="47.25814" lon="4.57771">
        <ele>451</ele>
        <time>2012-03-25T13:08:34.997Z</time>
      </trkpt>
      <trkpt lat="47.25808" lon="4.5777">
        <ele>451</ele>
        <time>2012-03-25T13:08:39.997Z</time>
      </trkpt>
      <trkpt lat="47.25803" lon="4.57769">
        <ele>451</ele>
        <time>2012-03-25T13:08:44.997Z</time>
      </trkpt>
      <trkpt lat="47.25798" lon="4.57768">
        <ele>451</ele>
        <time>2012-03-25T13:08:49.997Z</time>
      </trkpt>
      <trkpt lat="47.25793" lon="4.57767">
        <ele>451</ele>
        <time>2012-03-25T13:08:54.997Z</time>
      </trkpt>
      <trkpt lat="47.25787" lon="4.57766">
        <ele>451</ele>
        <time>2012-03-25T13:08:59.997Z</time>
      </trkpt>
      <trkpt lat="47.25782" lon="4.57765">
        <ele>451</ele>
        <time>2012-03-25T13:09:04.997Z</time>
      </trkpt>
      <trkpt lat="47.25777" lon="4.57764">
        <ele>451</ele>
        <time>2012-03-25T13:09:09.997Z</time>
      </trkpt>
      <trkpt lat="47.25772" lon="4.57766">
        <ele>451</ele>
        <time>2012-03-25T13:09:14.997Z</time>
      </trkpt>
      <trkpt lat="47.25767" lon="4.57768">
        <ele>451</ele>
        <time>2012-03-25T13:09:19.997Z</time>
      </trkpt>
      <trkpt lat="47.25762" lon="4.57771">
        <ele>451</ele>
        <time>2012-03-25T13:09:24.997Z</time>
      </trkpt>
      <trkpt lat="47.25757" lon="4.57773">
        <ele>451</ele>
        <time>2012-03-25T13:09:29.997Z</time>
      </trkpt>
      <trkpt lat="47.25752" lon="4.57775">
        <ele>451</ele>
        <time>2012-03-25T13:09:34.997Z</time>
      </trkpt>
      <trkpt lat="47.25748" lon="4.57777">
        <ele>451</ele>
        <time>2012-03-25T13:09:39.997Z</time>
      </trkpt>
      <trkpt lat="47.25747" lon="4.57784">
        <ele>451</ele>
        <time>2012-03-25T13:09:49.997Z</time>
      </trkpt>
      <trkpt lat="47.25744" lon="4.5779">
        <ele>452</ele>
        <time>2012-03-25T13:09:57.997Z</time>
      </trkpt>
      <trkpt lat="47.2574" lon="4.57794">
        <ele>452</ele>
        <time>2012-03-25T13:10:02.997Z</time>
      </trkpt>
      <trkpt lat="47.25736" lon="4.57798">
        <ele>452</ele>
        <time>2012-03-25T13:10:06.997Z</time>
      </trkpt>
      <trkpt lat="47.25732" lon="4.578">
        <ele>452</ele>
        <time>2012-03-25T13:10:10.997Z</time>
      </trkpt>
      <trkpt lat="47.25728" lon="4.57803">
        <ele>452</ele>
        <time>2012-03-25T13:10:14.997Z</time>
      </trkpt>
      <trkpt lat="47.25723" lon="4.57806">
        <ele>452</ele>
        <time>2012-03-25T13:10:19.997Z</time>
      </trkpt>
      <trkpt lat="47.25719" lon="4.57809">
        <ele>452</ele>
        <time>2012-03-25T13:10:26.997Z</time>
      </trkpt>
      <trkpt lat="47.25714" lon="4.57812">
        <ele>452</ele>
        <time>2012-03-25T13:10:33.997Z</time>
      </trkpt>
      <trkpt lat="47.25709" lon="4.57815">
        <ele>452</ele>
        <time>2012-03-25T13:10:38.997Z</time>
      </trkpt>
      <trkpt lat="47.25705" lon="4.57818">
        <ele>452</ele>
        <time>2012-03-25T13:10:42.997Z</time>
      </trkpt>
      <trkpt lat="47.257" lon="4.5782">
        <ele>453</ele>
        <time>2012-03-25T13:10:46.997Z</time>
      </trkpt>
      <trkpt lat="47.25695" lon="4.57821">
        <ele>453</ele>
        <time>2012-03-25T13:10:50.997Z</time>
      </trkpt>
      <trkpt lat="47.25691" lon="4.57823">
        <ele>453</ele>
        <time>2012-03-25T13:10:54.997Z</time>
      </trkpt>
      <trkpt lat="47.25685" lon="4.57824">
        <ele>453</ele>
        <time>2012-03-25T13:10:59.997Z</time>
      </trkpt>
      <trkpt lat="47.2568" lon="4.57825">
        <ele>453</ele>
        <time>2012-03-25T13:11:04.997Z</time>
      </trkpt>
      <trkpt lat="47.25675" lon="4.57825">
        <ele>453</ele>
        <time>2012-03-25T13:11:08.997Z</time>
      </trkpt>
      <trkpt lat="47.2567" lon="4.57825">
        <ele>453</ele>
        <time>2012-03-25T13:11:13.997Z</time>
      </trkpt>
      <trkpt lat="47.25665" lon="4.57825">
        <ele>454</ele>
        <time>2012-03-25T13:11:18.997Z</time>
      </trkpt>
      <trkpt lat="47.2566" lon="4.57825">
        <ele>454</ele>
        <time>2012-03-25T13:11:22.997Z</time>
      </trkpt>
      <trkpt lat="47.25655" lon="4.57825">
        <ele>454</ele>
        <time>2012-03-25T13:11:26.997Z</time>
      </trkpt>
      <trkpt lat="47.2565" lon="4.57825">
        <ele>454</ele>
        <time>2012-03-25T13:11:31.997Z</time>
      </trkpt>
      <trkpt lat="47.25645" lon="4.57825">
        <ele>454</ele>
        <time>2012-03-25T13:11:35.997Z</time>
      </trkpt>
      <trkpt lat="47.2564" lon="4.57825">
        <ele>454</ele>
        <time>2012-03-25T13:11:39.997Z</time>
      </trkpt>
      <trkpt lat="47.25634" lon="4.57824">
        <ele>454</ele>
        <time>2012-03-25T13:11:43.997Z</time>
      </trkpt>
      <trkpt lat="47.25629" lon="4.57824">
        <ele>454</ele>
        <time>2012-03-25T13:11:47.997Z</time>
      </trkpt>
      <trkpt lat="47.25624" lon="4.57824">
        <ele>454</ele>
        <time>2012-03-25T13:11:51.997Z</time>
      </trkpt>
      <trkpt lat="47.2562" lon="4.57824">
        <ele>454</ele>
        <time>2012-03-25T13:11:55.997Z</time>
      </trkpt>
      <trkpt lat="47.25615" lon="4.57824">
        <ele>454</ele>
        <time>2012-03-25T13:11:59.997Z</time>
      </trkpt>
      <trkpt lat="47.25609" lon="4.57824">
        <ele>454</ele>
        <time>2012-03-25T13:12:04.997Z</time>
      </trkpt>
      <trkpt lat="47.25604" lon="4.57824">
        <ele>455</ele>
        <time>2012-03-25T13:12:09.997Z</time>
      </trkpt>
      <trkpt lat="47.25598" lon="4.57824">
        <ele>455</ele>
        <time>2012-03-25T13:12:14.997Z</time>
      </trkpt>
      <trkpt lat="47.25593" lon="4.57824">
        <ele>455</ele>
        <time>2012-03-25T13:12:19.997Z</time>
      </trkpt>
      <trkpt lat="47.25588" lon="4.57824">
        <ele>455</ele>
        <time>2012-03-25T13:12:24.997Z</time>
      </trkpt>
      <trkpt lat="47.25583" lon="4.57825">
        <ele>455</ele>
        <time>2012-03-25T13:12:29.997Z</time>
      </trkpt>
      <trkpt lat="47.25578" lon="4.57825">
        <ele>455</ele>
        <time>2012-03-25T13:12:34.997Z</time>
      </trkpt>
      <trkpt lat="47.25572" lon="4.57825">
        <ele>455</ele>
        <time>2012-03-25T13:12:39.997Z</time>
      </trkpt>
      <trkpt lat="47.25567" lon="4.57825">
        <ele>455</ele>
        <time>2012-03-25T13:12:44.997Z</time>
      </trkpt>
      <trkpt lat="47.25563" lon="4.57824">
        <ele>455</ele>
        <time>2012-03-25T13:12:50.997Z</time>
      </trkpt>
      <trkpt lat="47.25558" lon="4.57827">
        <ele>455</ele>
        <time>2012-03-25T13:13:05.997Z</time>
      </trkpt>
      <trkpt lat="47.25554" lon="4.5783">
        <ele>455</ele>
        <time>2012-03-25T13:13:16.997Z</time>
      </trkpt>
      <trkpt lat="47.25549" lon="4.57833">
        <ele>455</ele>
        <time>2012-03-25T13:13:24.997Z</time>
      </trkpt>
      <trkpt lat="47.25545" lon="4.57836">
        <ele>455</ele>
        <time>2012-03-25T13:13:30.997Z</time>
      </trkpt>
      <trkpt lat="47.2554" lon="4.57838">
        <ele>455</ele>
        <time>2012-03-25T13:13:35.997Z</time>
      </trkpt>
      <trkpt lat="47.25535" lon="4.57838">
        <ele>455</ele>
        <time>2012-03-25T13:13:48.997Z</time>
      </trkpt>
      <trkpt lat="47.25529" lon="4.5784">
        <ele>455</ele>
        <time>2012-03-25T13:13:53.997Z</time>
      </trkpt>
      <trkpt lat="47.25524" lon="4.57841">
        <ele>455</ele>
        <time>2012-03-25T13:13:57.997Z</time>
      </trkpt>
      <trkpt lat="47.25519" lon="4.57842">
        <ele>455</ele>
        <time>2012-03-25T13:14:01.997Z</time>
      </trkpt>
      <trkpt lat="47.25514" lon="4.57844">
        <ele>455</ele>
        <time>2012-03-25T13:14:05.997Z</time>
      </trkpt>
      <trkpt lat="47.25509" lon="4.57846">
        <ele>456</ele>
        <time>2012-03-25T13:14:09.997Z</time>
      </trkpt>
      <trkpt lat="47.25504" lon="4.57848">
        <ele>456</ele>
        <time>2012-03-25T13:14:13.997Z</time>
      </trkpt>
      <trkpt lat="47.25499" lon="4.57851">
        <ele>456</ele>
        <time>2012-03-25T13:14:17.997Z</time>
      </trkpt>
      <trkpt lat="47.25495" lon="4.57853">
        <ele>456</ele>
        <time>2012-03-25T13:14:21.997Z</time>
      </trkpt>
      <trkpt lat="47.2549" lon="4.57855">
        <ele>456</ele>
        <time>2012-03-25T13:14:25.997Z</time>
      </trkpt>
      <trkpt lat="47.25485" lon="4.57856">
        <ele>456</ele>
        <time>2012-03-25T13:14:29.997Z</time>
      </trkpt>
      <trkpt lat="47.2548" lon="4.57858">
        <ele>456</ele>
        <time>2012-03-25T13:14:33.997Z</time>
      </trkpt>
      <trkpt lat="47.25476" lon="4.5786">
        <ele>456</ele>
        <time>2012-03-25T13:14:37.997Z</time>
      </trkpt>
      <trkpt lat="47.25471" lon="4.57862">
        <ele>457</ele>
        <time>2012-03-25T13:14:41.997Z</time>
      </trkpt>
      <trkpt lat="47.25467" lon="4.57865">
        <ele>457</ele>
        <time>2012-03-25T13:14:45.997Z</time>
      </trkpt>
      <trkpt lat="47.25463" lon="4.57866">
        <ele>457</ele>
        <time>2012-03-25T13:14:50.997Z</time>
      </trkpt>
      <trkpt lat="47.25457" lon="4.57865">
        <ele>457</ele>
        <time>2012-03-25T13:14:57.997Z</time>
      </trkpt>
      <trkpt lat="47.25452" lon="4.57867">
        <ele>457</ele>
        <time>2012-03-25T13:15:03.997Z</time>
      </trkpt>
      <trkpt lat="47.25448" lon="4.57871">
        <ele>457</ele>
        <time>2012-03-25T13:15:08.997Z</time>
      </trkpt>
      <trkpt lat="47.25444" lon="4.57874">
        <ele>457</ele>
        <time>2012-03-25T13:15:13.997Z</time>
      </trkpt>
      <trkpt lat="47.25439" lon="4.57877">
        <ele>457</ele>
        <time>2012-03-25T13:15:17.997Z</time>
      </trkpt>
      <trkpt lat="47.25434" lon="4.5788">
        <ele>458</ele>
        <time>2012-03-25T13:15:22.997Z</time>
      </trkpt>
      <trkpt lat="47.25429" lon="4.57883">
        <ele>458</ele>
        <time>2012-03-25T13:15:27.997Z</time>
      </trkpt>
      <trkpt lat="47.25424" lon="4.57886">
        <ele>458</ele>
        <time>2012-03-25T13:15:32.997Z</time>
      </trkpt>
      <trkpt lat="47.2542" lon="4.5789">
        <ele>458</ele>
        <time>2012-03-25T13:15:37.997Z</time>
      </trkpt>
      <trkpt lat="47.25416" lon="4.57894">
        <ele>458</ele>
        <time>2012-03-25T13:15:41.997Z</time>
      </trkpt>
      <trkpt lat="47.25411" lon="4.57897">
        <ele>458</ele>
        <time>2012-03-25T13:15:45.997Z</time>
      </trkpt>
      <trkpt lat="47.25407" lon="4.579">
        <ele>458</ele>
        <time>2012-03-25T13:15:49.997Z</time>
      </trkpt>
      <trkpt lat="47.25403" lon="4.57904">
        <ele>458</ele>
        <time>2012-03-25T13:15:54.997Z</time>
      </trkpt>
      <trkpt lat="47.25399" lon="4.57908">
        <ele>458</ele>
        <time>2012-03-25T13:15:58.997Z</time>
      </trkpt>
      <trkpt lat="47.25395" lon="4.57912">
        <ele>458</ele>
        <time>2012-03-25T13:16:02.997Z</time>
      </trkpt>
      <trkpt lat="47.25391" lon="4.57915">
        <ele>458</ele>
        <time>2012-03-25T13:16:06.997Z</time>
      </trkpt>
      <trkpt lat="47.25387" lon="4.57918">
        <ele>458</ele>
        <time>2012-03-25T13:16:10.997Z</time>
      </trkpt>
      <trkpt lat="47.25382" lon="4.57921">
        <ele>458</ele>
        <time>2012-03-25T13:16:15.997Z</time>
      </trkpt>
      <trkpt lat="47.25377" lon="4.57925">
        <ele>458</ele>
        <time>2012-03-25T13:16:20.997Z</time>
      </trkpt>
      <trkpt lat="47.25373" lon="4.57929">
        <ele>458</ele>
        <time>2012-03-25T13:16:24.997Z</time>
      </trkpt>
      <trkpt lat="47.25369" lon="4.57935">
        <ele>458</ele>
        <time>2012-03-25T13:16:29.997Z</time>
      </trkpt>
      <trkpt lat="47.25365" lon="4.5794">
        <ele>458</ele>
        <time>2012-03-25T13:16:34.997Z</time>
      </trkpt>
      <trkpt lat="47.25361" lon="4.57944">
        <ele>459</ele>
        <time>2012-03-25T13:16:38.997Z</time>
      </trkpt>
      <trkpt lat="47.25356" lon="4.57949">
        <ele>459</ele>
        <time>2012-03-25T13:16:43.997Z</time>
      </trkpt>
      <trkpt lat="47.25352" lon="4.57954">
        <ele>459</ele>
        <time>2012-03-25T13:16:48.997Z</time>
      </trkpt>
      <trkpt lat="47.25348" lon="4.57959">
        <ele>459</ele>
        <time>2012-03-25T13:16:53.997Z</time>
      </trkpt>
      <trkpt lat="47.25343" lon="4.57963">
        <ele>459</ele>
        <time>2012-03-25T13:16:58.997Z</time>
      </trkpt>
      <trkpt lat="47.25339" lon="4.57968">
        <ele>459</ele>
        <time>2012-03-25T13:17:03.997Z</time>
      </trkpt>
      <trkpt lat="47.25334" lon="4.57972">
        <ele>459</ele>
        <time>2012-03-25T13:17:08.997Z</time>
      </trkpt>
      <trkpt lat="47.2533" lon="4.57975">
        <ele>459</ele>
        <time>2012-03-25T13:17:12.997Z</time>
      </trkpt>
      <trkpt lat="47.25325" lon="4.57979">
        <ele>459</ele>
        <time>2012-03-25T13:17:17.997Z</time>
      </trkpt>
      <trkpt lat="47.2532" lon="4.57983">
        <ele>459</ele>
        <time>2012-03-25T13:17:22.997Z</time>
      </trkpt>
      <trkpt lat="47.25315" lon="4.57985">
        <ele>459</ele>
        <time>2012-03-25T13:17:27.997Z</time>
      </trkpt>
      <trkpt lat="47.2531" lon="4.57988">
        <ele>459</ele>
        <time>2012-03-25T13:17:32.997Z</time>
      </trkpt>
      <trkpt lat="47.25306" lon="4.5799">
        <ele>459</ele>
        <time>2012-03-25T13:17:37.997Z</time>
      </trkpt>
      <trkpt lat="47.25301" lon="4.57992">
        <ele>459</ele>
        <time>2012-03-25T13:17:42.997Z</time>
      </trkpt>
      <trkpt lat="47.25296" lon="4.57995">
        <ele>459</ele>
        <time>2012-03-25T13:17:47.997Z</time>
      </trkpt>
      <trkpt lat="47.25292" lon="4.57997">
        <ele>459</ele>
        <time>2012-03-25T13:17:52.997Z</time>
      </trkpt>
      <trkpt lat="47.25286" lon="4.57999">
        <ele>459</ele>
        <time>2012-03-25T13:17:57.997Z</time>
      </trkpt>
      <trkpt lat="47.25281" lon="4.58002">
        <ele>459</ele>
        <time>2012-03-25T13:18:02.997Z</time>
      </trkpt>
      <trkpt lat="47.25276" lon="4.58004">
        <ele>459</ele>
        <time>2012-03-25T13:18:07.997Z</time>
      </trkpt>
      <trkpt lat="47.25272" lon="4.58007">
        <ele>459</ele>
        <time>2012-03-25T13:18:11.997Z</time>
      </trkpt>
      <trkpt lat="47.25267" lon="4.5801">
        <ele>459</ele>
        <time>2012-03-25T13:18:16.997Z</time>
      </trkpt>
      <trkpt lat="47.25263" lon="4.58014">
        <ele>459</ele>
        <time>2012-03-25T13:18:20.997Z</time>
      </trkpt>
      <trkpt lat="47.25258" lon="4.58018">
        <ele>459</ele>
        <time>2012-03-25T13:18:25.997Z</time>
      </trkpt>
      <trkpt lat="47.25253" lon="4.58021">
        <ele>459</ele>
        <time>2012-03-25T13:18:30.997Z</time>
      </trkpt>
      <trkpt lat="47.25249" lon="4.58023">
        <ele>459</ele>
        <time>2012-03-25T13:18:34.997Z</time>
      </trkpt>
      <trkpt lat="47.25245" lon="4.58027">
        <ele>459</ele>
        <time>2012-03-25T13:18:38.997Z</time>
      </trkpt>
      <trkpt lat="47.2524" lon="4.5803">
        <ele>459</ele>
        <time>2012-03-25T13:18:43.997Z</time>
      </trkpt>
      <trkpt lat="47.25234" lon="4.58032">
        <ele>459</ele>
        <time>2012-03-25T13:18:48.997Z</time>
      </trkpt>
      <trkpt lat="47.2523" lon="4.58036">
        <ele>459</ele>
        <time>2012-03-25T13:18:53.997Z</time>
      </trkpt>
      <trkpt lat="47.25224" lon="4.58039">
        <ele>459</ele>
        <time>2012-03-25T13:18:58.997Z</time>
      </trkpt>
      <trkpt lat="47.25219" lon="4.58042">
        <ele>459</ele>
        <time>2012-03-25T13:19:03.997Z</time>
      </trkpt>
      <trkpt lat="47.25214" lon="4.58045">
        <ele>459</ele>
        <time>2012-03-25T13:19:08.997Z</time>
      </trkpt>
      <trkpt lat="47.25209" lon="4.58049">
        <ele>459</ele>
        <time>2012-03-25T13:19:13.997Z</time>
      </trkpt>
      <trkpt lat="47.25205" lon="4.58054">
        <ele>459</ele>
        <time>2012-03-25T13:19:18.997Z</time>
      </trkpt>
      <trkpt lat="47.25201" lon="4.58059">
        <ele>459</ele>
        <time>2012-03-25T13:19:23.997Z</time>
      </trkpt>
      <trkpt lat="47.25197" lon="4.58065">
        <ele>459</ele>
        <time>2012-03-25T13:19:28.997Z</time>
      </trkpt>
      <trkpt lat="47.25197" lon="4.58072">
        <ele>459</ele>
        <time>2012-03-25T13:19:36.997Z</time>
      </trkpt>
      <trkpt lat="47.25196" lon="4.5808">
        <ele>459</ele>
        <time>2012-03-25T13:19:44.997Z</time>
      </trkpt>
      <trkpt lat="47.25195" lon="4.58087">
        <ele>459</ele>
        <time>2012-03-25T13:19:50.997Z</time>
      </trkpt>
      <trkpt lat="47.25194" lon="4.58094">
        <ele>459</ele>
        <time>2012-03-25T13:19:55.997Z</time>
      </trkpt>
      <trkpt lat="47.25191" lon="4.581">
        <ele>459</ele>
        <time>2012-03-25T13:19:59.997Z</time>
      </trkpt>
      <trkpt lat="47.25189" lon="4.58106">
        <ele>459</ele>
        <time>2012-03-25T13:20:03.997Z</time>
      </trkpt>
      <trkpt lat="47.25187" lon="4.58114">
        <ele>459</ele>
        <time>2012-03-25T13:20:08.997Z</time>
      </trkpt>
      <trkpt lat="47.25184" lon="4.5812">
        <ele>459</ele>
        <time>2012-03-25T13:20:12.997Z</time>
      </trkpt>
      <trkpt lat="47.25181" lon="4.58126">
        <ele>459</ele>
        <time>2012-03-25T13:20:16.997Z</time>
      </trkpt>
      <trkpt lat="47.25177" lon="4.58132">
        <ele>459</ele>
        <time>2012-03-25T13:20:20.997Z</time>
      </trkpt>
      <trkpt lat="47.25174" lon="4.58138">
        <ele>459</ele>
        <time>2012-03-25T13:20:25.997Z</time>
      </trkpt>
      <trkpt lat="47.2517" lon="4.58143">
        <ele>459</ele>
        <time>2012-03-25T13:20:31.997Z</time>
      </trkpt>
      <trkpt lat="47.25172" lon="4.58149">
        <ele>459</ele>
        <time>2012-03-25T13:20:49.997Z</time>
      </trkpt>
      <trkpt lat="47.25171" lon="4.58155">
        <ele>459</ele>
        <time>2012-03-25T13:20:56.997Z</time>
      </trkpt>
      <trkpt lat="47.25168" lon="4.58162">
        <ele>459</ele>
        <time>2012-03-25T13:21:01.997Z</time>
      </trkpt>
      <trkpt lat="47.25166" lon="4.58168">
        <ele>459</ele>
        <time>2012-03-25T13:21:07.997Z</time>
      </trkpt>
      <trkpt lat="47.25162" lon="4.58174">
        <ele>459</ele>
        <time>2012-03-25T13:21:17.997Z</time>
      </trkpt>
      <trkpt lat="47.25159" lon="4.58179">
        <ele>459</ele>
        <time>2012-03-25T13:21:22.997Z</time>
      </trkpt>
      <trkpt lat="47.25156" lon="4.58185">
        <ele>459</ele>
        <time>2012-03-25T13:21:27.997Z</time>
      </trkpt>
      <trkpt lat="47.25153" lon="4.58191">
        <ele>458</ele>
        <time>2012-03-25T13:21:32.997Z</time>
      </trkpt>
      <trkpt lat="47.2515" lon="4.58196">
        <ele>458</ele>
        <time>2012-03-25T13:21:38.997Z</time>
      </trkpt>
      <trkpt lat="47.25146" lon="4.58201">
        <ele>458</ele>
        <time>2012-03-25T13:21:44.997Z</time>
      </trkpt>
      <trkpt lat="47.25144" lon="4.58208">
        <ele>458</ele>
        <time>2012-03-25T13:21:51.997Z</time>
      </trkpt>
      <trkpt lat="47.2514" lon="4.58212">
        <ele>458</ele>
        <time>2012-03-25T13:21:58.997Z</time>
      </trkpt>
      <trkpt lat="47.25136" lon="4.58217">
        <ele>457</ele>
        <time>2012-03-25T13:22:05.997Z</time>
      </trkpt>
      <trkpt lat="47.25133" lon="4.58222">
        <ele>457</ele>
        <time>2012-03-25T13:22:13.997Z</time>
      </trkpt>
      <trkpt lat="47.25133" lon="4.58215">
        <ele>458</ele>
        <time>2012-03-25T13:22:57.997Z</time>
      </trkpt>
      <trkpt lat="47.25131" lon="4.58221">
        <ele>460</ele>
        <time>2012-03-25T13:25:28.997Z</time>
      </trkpt>
      <trkpt lat="47.25126" lon="4.58226">
        <ele>460</ele>
        <time>2012-03-25T13:25:33.997Z</time>
      </trkpt>
      <trkpt lat="47.25122" lon="4.5823">
        <ele>460</ele>
        <time>2012-03-25T13:25:38.997Z</time>
      </trkpt>
      <trkpt lat="47.25117" lon="4.58235">
        <ele>460</ele>
        <time>2012-03-25T13:25:43.997Z</time>
      </trkpt>
      <trkpt lat="47.25113" lon="4.58239">
        <ele>460</ele>
        <time>2012-03-25T13:25:48.997Z</time>
      </trkpt>
      <trkpt lat="47.25109" lon="4.58244">
        <ele>459</ele>
        <time>2012-03-25T13:25:53.997Z</time>
      </trkpt>
      <trkpt lat="47.25106" lon="4.58249">
        <ele>459</ele>
        <time>2012-03-25T13:25:58.997Z</time>
      </trkpt>
      <trkpt lat="47.25102" lon="4.58254">
        <ele>459</ele>
        <time>2012-03-25T13:26:03.997Z</time>
      </trkpt>
      <trkpt lat="47.25098" lon="4.5826">
        <ele>459</ele>
        <time>2012-03-25T13:26:08.997Z</time>
      </trkpt>
      <trkpt lat="47.25094" lon="4.58264">
        <ele>459</ele>
        <time>2012-03-25T13:26:12.997Z</time>
      </trkpt>
      <trkpt lat="47.2509" lon="4.58268">
        <ele>459</ele>
        <time>2012-03-25T13:26:16.997Z</time>
      </trkpt>
      <trkpt lat="47.25086" lon="4.58272">
        <ele>459</ele>
        <time>2012-03-25T13:26:20.997Z</time>
      </trkpt>
      <trkpt lat="47.25083" lon="4.58276">
        <ele>459</ele>
        <time>2012-03-25T13:26:24.997Z</time>
      </trkpt>
      <trkpt lat="47.25079" lon="4.58281">
        <ele>459</ele>
        <time>2012-03-25T13:26:28.997Z</time>
      </trkpt>
      <trkpt lat="47.25076" lon="4.58285">
        <ele>459</ele>
        <time>2012-03-25T13:26:32.997Z</time>
      </trkpt>
      <trkpt lat="47.25071" lon="4.58288">
        <ele>459</ele>
        <time>2012-03-25T13:26:36.997Z</time>
      </trkpt>
      <trkpt lat="47.25067" lon="4.58292">
        <ele>458</ele>
        <time>2012-03-25T13:26:40.997Z</time>
      </trkpt>
      <trkpt lat="47.25063" lon="4.58297">
        <ele>458</ele>
        <time>2012-03-25T13:26:45.997Z</time>
      </trkpt>
      <trkpt lat="47.25059" lon="4.58303">
        <ele>458</ele>
        <time>2012-03-25T13:26:50.997Z</time>
      </trkpt>
      <trkpt lat="47.25056" lon="4.58307">
        <ele>458</ele>
        <time>2012-03-25T13:26:54.997Z</time>
      </trkpt>
      <trkpt lat="47.25052" lon="4.58312">
        <ele>458</ele>
        <time>2012-03-25T13:26:59.997Z</time>
      </trkpt>
      <trkpt lat="47.25048" lon="4.58318">
        <ele>458</ele>
        <time>2012-03-25T13:27:04.997Z</time>
      </trkpt>
      <trkpt lat="47.25043" lon="4.58319">
        <ele>458</ele>
        <time>2012-03-25T13:27:17.997Z</time>
      </trkpt>
      <trkpt lat="47.25039" lon="4.58323">
        <ele>458</ele>
        <time>2012-03-25T13:27:22.997Z</time>
      </trkpt>
      <trkpt lat="47.25035" lon="4.58329">
        <ele>458</ele>
        <time>2012-03-25T13:27:27.997Z</time>
      </trkpt>
      <trkpt lat="47.25032" lon="4.58335">
        <ele>458</ele>
        <time>2012-03-25T13:27:32.997Z</time>
      </trkpt>
      <trkpt lat="47.25028" lon="4.58341">
        <ele>458</ele>
        <time>2012-03-25T13:27:37.997Z</time>
      </trkpt>
      <trkpt lat="47.25024" lon="4.58347">
        <ele>458</ele>
        <time>2012-03-25T13:27:42.997Z</time>
      </trkpt>
      <trkpt lat="47.25021" lon="4.58353">
        <ele>458</ele>
        <time>2012-03-25T13:27:47.997Z</time>
      </trkpt>
      <trkpt lat="47.25018" lon="4.58359">
        <ele>458</ele>
        <time>2012-03-25T13:27:52.997Z</time>
      </trkpt>
      <trkpt lat="47.25014" lon="4.58364">
        <ele>458</ele>
        <time>2012-03-25T13:27:57.997Z</time>
      </trkpt>
      <trkpt lat="47.2501" lon="4.58369">
        <ele>458</ele>
        <time>2012-03-25T13:28:02.997Z</time>
      </trkpt>
      <trkpt lat="47.25007" lon="4.58374">
        <ele>458</ele>
        <time>2012-03-25T13:28:06.997Z</time>
      </trkpt>
      <trkpt lat="47.25004" lon="4.58379">
        <ele>458</ele>
        <time>2012-03-25T13:28:10.997Z</time>
      </trkpt>
      <trkpt lat="47.25001" lon="4.58384">
        <ele>458</ele>
        <time>2012-03-25T13:28:14.997Z</time>
      </trkpt>
      <trkpt lat="47.24997" lon="4.5839">
        <ele>458</ele>
        <time>2012-03-25T13:28:18.997Z</time>
      </trkpt>
      <trkpt lat="47.24994" lon="4.58394">
        <ele>458</ele>
        <time>2012-03-25T13:28:22.997Z</time>
      </trkpt>
      <trkpt lat="47.24991" lon="4.58399">
        <ele>458</ele>
        <time>2012-03-25T13:28:26.997Z</time>
      </trkpt>
      <trkpt lat="47.24987" lon="4.58404">
        <ele>458</ele>
        <time>2012-03-25T13:28:30.997Z</time>
      </trkpt>
      <trkpt lat="47.24984" lon="4.58409">
        <ele>458</ele>
        <time>2012-03-25T13:28:34.997Z</time>
      </trkpt>
      <trkpt lat="47.2498" lon="4.58415">
        <ele>458</ele>
        <time>2012-03-25T13:28:39.997Z</time>
      </trkpt>
      <trkpt lat="47.24977" lon="4.5842">
        <ele>458</ele>
        <time>2012-03-25T13:28:43.997Z</time>
      </trkpt>
      <trkpt lat="47.24973" lon="4.58425">
        <ele>458</ele>
        <time>2012-03-25T13:28:47.997Z</time>
      </trkpt>
      <trkpt lat="47.2497" lon="4.5843">
        <ele>458</ele>
        <time>2012-03-25T13:28:52.997Z</time>
      </trkpt>
      <trkpt lat="47.24966" lon="4.58435">
        <ele>458</ele>
        <time>2012-03-25T13:28:57.997Z</time>
      </trkpt>
      <trkpt lat="47.24962" lon="4.5844">
        <ele>458</ele>
        <time>2012-03-25T13:29:02.997Z</time>
      </trkpt>
      <trkpt lat="47.24958" lon="4.58445">
        <ele>458</ele>
        <time>2012-03-25T13:29:07.997Z</time>
      </trkpt>
      <trkpt lat="47.24954" lon="4.5845">
        <ele>458</ele>
        <time>2012-03-25T13:29:12.997Z</time>
      </trkpt>
      <trkpt lat="47.24951" lon="4.58455">
        <ele>458</ele>
        <time>2012-03-25T13:29:17.997Z</time>
      </trkpt>
      <trkpt lat="47.24947" lon="4.5846">
        <ele>458</ele>
        <time>2012-03-25T13:29:21.997Z</time>
      </trkpt>
      <trkpt lat="47.24942" lon="4.58464">
        <ele>458</ele>
        <time>2012-03-25T13:29:26.997Z</time>
      </trkpt>
      <trkpt lat="47.24938" lon="4.58468">
        <ele>458</ele>
        <time>2012-03-25T13:29:31.997Z</time>
      </trkpt>
      <trkpt lat="47.24933" lon="4.58472">
        <ele>458</ele>
        <time>2012-03-25T13:29:36.997Z</time>
      </trkpt>
      <trkpt lat="47.24928" lon="4.58476">
        <ele>458</ele>
        <time>2012-03-25T13:29:41.997Z</time>
      </trkpt>
      <trkpt lat="47.24923" lon="4.58479">
        <ele>458</ele>
        <time>2012-03-25T13:29:46.997Z</time>
      </trkpt>
      <trkpt lat="47.24919" lon="4.58484">
        <ele>458</ele>
        <time>2012-03-25T13:29:51.997Z</time>
      </trkpt>
      <trkpt lat="47.24914" lon="4.58489">
        <ele>458</ele>
        <time>2012-03-25T13:29:56.997Z</time>
      </trkpt>
      <trkpt lat="47.2491" lon="4.58494">
        <ele>458</ele>
        <time>2012-03-25T13:30:02.997Z</time>
      </trkpt>
      <trkpt lat="47.24907" lon="4.58498">
        <ele>458</ele>
        <time>2012-03-25T13:30:07.997Z</time>
      </trkpt>
      <trkpt lat="47.24904" lon="4.58504">
        <ele>458</ele>
        <time>2012-03-25T13:30:12.997Z</time>
      </trkpt>
      <trkpt lat="47.249" lon="4.5851">
        <ele>459</ele>
        <time>2012-03-25T13:30:17.997Z</time>
      </trkpt>
      <trkpt lat="47.24897" lon="4.58516">
        <ele>459</ele>
        <time>2012-03-25T13:30:27.997Z</time>
      </trkpt>
      <trkpt lat="47.24894" lon="4.58521">
        <ele>459</ele>
        <time>2012-03-25T13:30:32.997Z</time>
      </trkpt>
      <trkpt lat="47.24891" lon="4.58527">
        <ele>459</ele>
        <time>2012-03-25T13:30:37.997Z</time>
      </trkpt>
      <trkpt lat="47.24888" lon="4.58533">
        <ele>459</ele>
        <time>2012-03-25T13:30:42.997Z</time>
      </trkpt>
      <trkpt lat="47.24885" lon="4.58539">
        <ele>459</ele>
        <time>2012-03-25T13:30:46.997Z</time>
      </trkpt>
      <trkpt lat="47.24882" lon="4.58544">
        <ele>460</ele>
        <time>2012-03-25T13:30:50.997Z</time>
      </trkpt>
      <trkpt lat="47.2488" lon="4.5855">
        <ele>460</ele>
        <time>2012-03-25T13:30:54.997Z</time>
      </trkpt>
      <trkpt lat="47.24877" lon="4.58556">
        <ele>460</ele>
        <time>2012-03-25T13:30:59.997Z</time>
      </trkpt>
      <trkpt lat="47.24872" lon="4.58551">
        <ele>460</ele>
        <time>2012-03-25T13:31:18.997Z</time>
      </trkpt>
      <trkpt lat="47.24868" lon="4.58547">
        <ele>460</ele>
        <time>2012-03-25T13:31:22.997Z</time>
      </trkpt>
      <trkpt lat="47.24864" lon="4.58544">
        <ele>460</ele>
        <time>2012-03-25T13:31:26.997Z</time>
      </trkpt>
      <trkpt lat="47.24859" lon="4.5854">
        <ele>460</ele>
        <time>2012-03-25T13:31:31.997Z</time>
      </trkpt>
      <trkpt lat="47.24854" lon="4.58536">
        <ele>460</ele>
        <time>2012-03-25T13:31:36.997Z</time>
      </trkpt>
      <trkpt lat="47.2485" lon="4.58532">
        <ele>460</ele>
        <time>2012-03-25T13:31:41.997Z</time>
      </trkpt>
      <trkpt lat="47.24846" lon="4.58528">
        <ele>460</ele>
        <time>2012-03-25T13:31:45.997Z</time>
      </trkpt>
      <trkpt lat="47.24841" lon="4.58524">
        <ele>460</ele>
        <time>2012-03-25T13:31:49.997Z</time>
      </trkpt>
      <trkpt lat="47.24836" lon="4.5852">
        <ele>460</ele>
        <time>2012-03-25T13:31:53.997Z</time>
      </trkpt>
      <trkpt lat="47.24832" lon="4.58516">
        <ele>460</ele>
        <time>2012-03-25T13:31:57.997Z</time>
      </trkpt>
      <trkpt lat="47.24828" lon="4.58512">
        <ele>460</ele>
        <time>2012-03-25T13:32:01.997Z</time>
      </trkpt>
      <trkpt lat="47.24824" lon="4.58509">
        <ele>460</ele>
        <time>2012-03-25T13:32:05.997Z</time>
      </trkpt>
      <trkpt lat="47.24818" lon="4.58505">
        <ele>460</ele>
        <time>2012-03-25T13:32:10.997Z</time>
      </trkpt>
      <trkpt lat="47.24814" lon="4.58502">
        <ele>460</ele>
        <time>2012-03-25T13:32:14.997Z</time>
      </trkpt>
      <trkpt lat="47.2481" lon="4.58499">
        <ele>460</ele>
        <time>2012-03-25T13:32:18.997Z</time>
      </trkpt>
      <trkpt lat="47.24806" lon="4.58496">
        <ele>460</ele>
        <time>2012-03-25T13:32:22.997Z</time>
      </trkpt>
      <trkpt lat="47.24802" lon="4.58492">
        <ele>460</ele>
        <time>2012-03-25T13:32:26.997Z</time>
      </trkpt>
      <trkpt lat="47.24798" lon="4.58489">
        <ele>460</ele>
        <time>2012-03-25T13:32:30.997Z</time>
      </trkpt>
      <trkpt lat="47.24793" lon="4.58487">
        <ele>460</ele>
        <time>2012-03-25T13:32:35.997Z</time>
      </trkpt>
      <trkpt lat="47.24788" lon="4.58486">
        <ele>460</ele>
        <time>2012-03-25T13:32:40.997Z</time>
      </trkpt>
      <trkpt lat="47.24782" lon="4.58485">
        <ele>460</ele>
        <time>2012-03-25T13:32:45.997Z</time>
      </trkpt>
      <trkpt lat="47.24777" lon="4.58484">
        <ele>460</ele>
        <time>2012-03-25T13:32:50.997Z</time>
      </trkpt>
      <trkpt lat="47.24773" lon="4.58481">
        <ele>460</ele>
        <time>2012-03-25T13:32:55.997Z</time>
      </trkpt>
      <trkpt lat="47.24768" lon="4.58481">
        <ele>460</ele>
        <time>2012-03-25T13:33:00.997Z</time>
      </trkpt>
      <trkpt lat="47.24763" lon="4.58481">
        <ele>460</ele>
        <time>2012-03-25T13:33:04.997Z</time>
      </trkpt>
      <trkpt lat="47.24758" lon="4.5848">
        <ele>460</ele>
        <time>2012-03-25T13:33:08.997Z</time>
      </trkpt>
      <trkpt lat="47.24753" lon="4.5848">
        <ele>460</ele>
        <time>2012-03-25T13:33:13.997Z</time>
      </trkpt>
      <trkpt lat="47.24752" lon="4.58472">
        <ele>460</ele>
        <time>2012-03-25T13:33:23.997Z</time>
      </trkpt>
      <trkpt lat="47.24748" lon="4.58468">
        <ele>461</ele>
        <time>2012-03-25T13:33:27.997Z</time>
      </trkpt>
      <trkpt lat="47.24743" lon="4.58466">
        <ele>461</ele>
        <time>2012-03-25T13:33:31.997Z</time>
      </trkpt>
      <trkpt lat="47.24738" lon="4.58464">
        <ele>461</ele>
        <time>2012-03-25T13:33:35.997Z</time>
      </trkpt>
      <trkpt lat="47.24732" lon="4.58463">
        <ele>461</ele>
        <time>2012-03-25T13:33:39.997Z</time>
      </trkpt>
      <trkpt lat="47.24726" lon="4.58462">
        <ele>461</ele>
        <time>2012-03-25T13:33:43.997Z</time>
      </trkpt>
      <trkpt lat="47.2472" lon="4.58461">
        <ele>461</ele>
        <time>2012-03-25T13:33:47.997Z</time>
      </trkpt>
      <trkpt lat="47.24715" lon="4.5846">
        <ele>461</ele>
        <time>2012-03-25T13:33:51.997Z</time>
      </trkpt>
      <trkpt lat="47.24711" lon="4.58456">
        <ele>461</ele>
        <time>2012-03-25T13:33:55.997Z</time>
      </trkpt>
      <trkpt lat="47.24707" lon="4.58452">
        <ele>462</ele>
        <time>2012-03-25T13:33:59.997Z</time>
      </trkpt>
      <trkpt lat="47.24703" lon="4.58447">
        <ele>462</ele>
        <time>2012-03-25T13:34:03.997Z</time>
      </trkpt>
      <trkpt lat="47.247" lon="4.58442">
        <ele>462</ele>
        <time>2012-03-25T13:34:07.997Z</time>
      </trkpt>
      <trkpt lat="47.24696" lon="4.58438">
        <ele>462</ele>
        <time>2012-03-25T13:34:11.997Z</time>
      </trkpt>
      <trkpt lat="47.24692" lon="4.58434">
        <ele>462</ele>
        <time>2012-03-25T13:34:16.997Z</time>
      </trkpt>
      <trkpt lat="47.24688" lon="4.58431">
        <ele>461</ele>
        <time>2012-03-25T13:34:21.997Z</time>
      </trkpt>
      <trkpt lat="47.24684" lon="4.58426">
        <ele>461</ele>
        <time>2012-03-25T13:34:29.997Z</time>
      </trkpt>
      <trkpt lat="47.24686" lon="4.58419">
        <ele>461</ele>
        <time>2012-03-25T13:34:37.997Z</time>
      </trkpt>
      <trkpt lat="47.2469" lon="4.58413">
        <ele>461</ele>
        <time>2012-03-25T13:34:42.997Z</time>
      </trkpt>
      <trkpt lat="47.24694" lon="4.58408">
        <ele>461</ele>
        <time>2012-03-25T13:34:47.997Z</time>
      </trkpt>
      <trkpt lat="47.24696" lon="4.58401">
        <ele>461</ele>
        <time>2012-03-25T13:34:53.997Z</time>
      </trkpt>
      <trkpt lat="47.24696" lon="4.58394">
        <ele>460</ele>
        <time>2012-03-25T13:34:58.997Z</time>
      </trkpt>
      <trkpt lat="47.24697" lon="4.58386">
        <ele>460</ele>
        <time>2012-03-25T13:35:03.997Z</time>
      </trkpt>
      <trkpt lat="47.24696" lon="4.58379">
        <ele>460</ele>
        <time>2012-03-25T13:35:07.997Z</time>
      </trkpt>
      <trkpt lat="47.24696" lon="4.58373">
        <ele>460</ele>
        <time>2012-03-25T13:35:12.997Z</time>
      </trkpt>
      <trkpt lat="47.24692" lon="4.58367">
        <ele>460</ele>
        <time>2012-03-25T13:35:19.997Z</time>
      </trkpt>
      <trkpt lat="47.24696" lon="4.58362">
        <ele>459</ele>
        <time>2012-03-25T13:35:55.997Z</time>
      </trkpt>
      <trkpt lat="47.24697" lon="4.58355">
        <ele>459</ele>
        <time>2012-03-25T13:36:02.997Z</time>
      </trkpt>
      <trkpt lat="47.24697" lon="4.58347">
        <ele>458</ele>
        <time>2012-03-25T13:36:07.997Z</time>
      </trkpt>
      <trkpt lat="47.24695" lon="4.5834">
        <ele>458</ele>
        <time>2012-03-25T13:36:12.997Z</time>
      </trkpt>
      <trkpt lat="47.2469" lon="4.58336">
        <ele>458</ele>
        <time>2012-03-25T13:36:17.997Z</time>
      </trkpt>
      <trkpt lat="47.24686" lon="4.58334">
        <ele>458</ele>
        <time>2012-03-25T13:36:29.997Z</time>
      </trkpt>
      <trkpt lat="47.2468" lon="4.58334">
        <ele>458</ele>
        <time>2012-03-25T13:36:33.997Z</time>
      </trkpt>
      <trkpt lat="47.24675" lon="4.58334">
        <ele>458</ele>
        <time>2012-03-25T13:36:37.997Z</time>
      </trkpt>
      <trkpt lat="47.2467" lon="4.58335">
        <ele>457</ele>
        <time>2012-03-25T13:36:41.997Z</time>
      </trkpt>
      <trkpt lat="47.24665" lon="4.58337">
        <ele>457</ele>
        <time>2012-03-25T13:36:45.997Z</time>
      </trkpt>
      <trkpt lat="47.2466" lon="4.58338">
        <ele>457</ele>
        <time>2012-03-25T13:36:50.997Z</time>
      </trkpt>
      <trkpt lat="47.24656" lon="4.58342">
        <ele>457</ele>
        <time>2012-03-25T13:37:01.997Z</time>
      </trkpt>
      <trkpt lat="47.24652" lon="4.58343">
        <ele>457</ele>
        <time>2012-03-25T13:37:05.997Z</time>
      </trkpt>
      <trkpt lat="47.24648" lon="4.58347">
        <ele>456</ele>
        <time>2012-03-25T13:37:10.997Z</time>
      </trkpt>
      <trkpt lat="47.24643" lon="4.58351">
        <ele>456</ele>
        <time>2012-03-25T13:37:15.997Z</time>
      </trkpt>
      <trkpt lat="47.24638" lon="4.58354">
        <ele>456</ele>
        <time>2012-03-25T13:37:20.997Z</time>
      </trkpt>
      <trkpt lat="47.24633" lon="4.58357">
        <ele>456</ele>
        <time>2012-03-25T13:37:25.997Z</time>
      </trkpt>
      <trkpt lat="47.24627" lon="4.5836">
        <ele>456</ele>
        <time>2012-03-25T13:37:30.997Z</time>
      </trkpt>
      <trkpt lat="47.24623" lon="4.58363">
        <ele>456</ele>
        <time>2012-03-25T13:37:34.997Z</time>
      </trkpt>
      <trkpt lat="47.24619" lon="4.58366">
        <ele>456</ele>
        <time>2012-03-25T13:37:39.997Z</time>
      </trkpt>
      <trkpt lat="47.24615" lon="4.58371">
        <ele>456</ele>
        <time>2012-03-25T13:37:44.997Z</time>
      </trkpt>
      <trkpt lat="47.24611" lon="4.58375">
        <ele>456</ele>
        <time>2012-03-25T13:37:49.997Z</time>
      </trkpt>
      <trkpt lat="47.24606" lon="4.58377">
        <ele>455</ele>
        <time>2012-03-25T13:37:54.997Z</time>
      </trkpt>
      <trkpt lat="47.246" lon="4.58381">
        <ele>455</ele>
        <time>2012-03-25T13:37:59.997Z</time>
      </trkpt>
      <trkpt lat="47.24596" lon="4.58386">
        <ele>455</ele>
        <time>2012-03-25T13:38:04.997Z</time>
      </trkpt>
      <trkpt lat="47.24592" lon="4.58391">
        <ele>455</ele>
        <time>2012-03-25T13:38:09.997Z</time>
      </trkpt>
      <trkpt lat="47.24589" lon="4.58396">
        <ele>455</ele>
        <time>2012-03-25T13:38:14.997Z</time>
      </trkpt>
      <trkpt lat="47.24584" lon="4.58397">
        <ele>455</ele>
        <time>2012-03-25T13:38:20.997Z</time>
      </trkpt>
      <trkpt lat="47.2458" lon="4.58392">
        <ele>455</ele>
        <time>2012-03-25T13:38:25.997Z</time>
      </trkpt>
      <trkpt lat="47.24577" lon="4.58387">
        <ele>454</ele>
        <time>2012-03-25T13:38:29.997Z</time>
      </trkpt>
      <trkpt lat="47.24574" lon="4.58382">
        <ele>454</ele>
        <time>2012-03-25T13:38:33.997Z</time>
      </trkpt>
      <trkpt lat="47.24571" lon="4.58377">
        <ele>454</ele>
        <time>2012-03-25T13:38:37.997Z</time>
      </trkpt>
      <trkpt lat="47.24567" lon="4.58371">
        <ele>454</ele>
        <time>2012-03-25T13:38:42.997Z</time>
      </trkpt>
      <trkpt lat="47.24564" lon="4.58366">
        <ele>454</ele>
        <time>2012-03-25T13:38:46.997Z</time>
      </trkpt>
      <trkpt lat="47.2456" lon="4.5836">
        <ele>454</ele>
        <time>2012-03-25T13:38:50.997Z</time>
      </trkpt>
      <trkpt lat="47.24557" lon="4.58354">
        <ele>454</ele>
        <time>2012-03-25T13:38:54.997Z</time>
      </trkpt>
      <trkpt lat="47.24553" lon="4.58349">
        <ele>454</ele>
        <time>2012-03-25T13:38:58.997Z</time>
      </trkpt>
      <trkpt lat="47.2455" lon="4.58344">
        <ele>454</ele>
        <time>2012-03-25T13:39:02.997Z</time>
      </trkpt>
      <trkpt lat="47.24546" lon="4.58338">
        <ele>454</ele>
        <time>2012-03-25T13:39:06.997Z</time>
      </trkpt>
      <trkpt lat="47.24543" lon="4.58332">
        <ele>454</ele>
        <time>2012-03-25T13:39:10.997Z</time>
      </trkpt>
      <trkpt lat="47.2454" lon="4.58327">
        <ele>454</ele>
        <time>2012-03-25T13:39:14.997Z</time>
      </trkpt>
      <trkpt lat="47.24536" lon="4.58322">
        <ele>454</ele>
        <time>2012-03-25T13:39:18.997Z</time>
      </trkpt>
      <trkpt lat="47.24533" lon="4.58317">
        <ele>454</ele>
        <time>2012-03-25T13:39:22.997Z</time>
      </trkpt>
      <trkpt lat="47.24529" lon="4.58313">
        <ele>454</ele>
        <time>2012-03-25T13:39:26.997Z</time>
      </trkpt>
      <trkpt lat="47.24525" lon="4.58308">
        <ele>454</ele>
        <time>2012-03-25T13:39:31.997Z</time>
      </trkpt>
      <trkpt lat="47.24527" lon="4.58314">
        <ele>454</ele>
        <time>2012-03-25T13:39:36.997Z</time>
      </trkpt>
      <trkpt lat="47.24524" lon="4.58309">
        <ele>454</ele>
        <time>2012-03-25T13:39:47.997Z</time>
      </trkpt>
      <trkpt lat="47.2452" lon="4.58303">
        <ele>454</ele>
        <time>2012-03-25T13:39:51.997Z</time>
      </trkpt>
      <trkpt lat="47.24516" lon="4.58297">
        <ele>454</ele>
        <time>2012-03-25T13:39:55.997Z</time>
      </trkpt>
      <trkpt lat="47.24511" lon="4.58291">
        <ele>454</ele>
        <time>2012-03-25T13:39:59.997Z</time>
      </trkpt>
      <trkpt lat="47.24507" lon="4.58286">
        <ele>453</ele>
        <time>2012-03-25T13:40:03.997Z</time>
      </trkpt>
      <trkpt lat="47.24504" lon="4.5828">
        <ele>453</ele>
        <time>2012-03-25T13:40:07.996Z</time>
      </trkpt>
      <trkpt lat="47.24501" lon="4.58274">
        <ele>453</ele>
        <time>2012-03-25T13:40:11.996Z</time>
      </trkpt>
      <trkpt lat="47.24498" lon="4.58268">
        <ele>453</ele>
        <time>2012-03-25T13:40:15.996Z</time>
      </trkpt>
      <trkpt lat="47.24496" lon="4.58261">
        <ele>452</ele>
        <time>2012-03-25T13:40:28.996Z</time>
      </trkpt>
      <trkpt lat="47.24493" lon="4.58255">
        <ele>452</ele>
        <time>2012-03-25T13:40:32.996Z</time>
      </trkpt>
      <trkpt lat="47.2449" lon="4.5825">
        <ele>452</ele>
        <time>2012-03-25T13:40:36.996Z</time>
      </trkpt>
      <trkpt lat="47.24487" lon="4.58244">
        <ele>452</ele>
        <time>2012-03-25T13:40:40.996Z</time>
      </trkpt>
      <trkpt lat="47.24483" lon="4.58238">
        <ele>452</ele>
        <time>2012-03-25T13:40:44.996Z</time>
      </trkpt>
      <trkpt lat="47.2448" lon="4.58232">
        <ele>452</ele>
        <time>2012-03-25T13:40:48.996Z</time>
      </trkpt>
      <trkpt lat="47.24476" lon="4.58226">
        <ele>451</ele>
        <time>2012-03-25T13:40:52.996Z</time>
      </trkpt>
      <trkpt lat="47.24471" lon="4.58222">
        <ele>451</ele>
        <time>2012-03-25T13:40:58.996Z</time>
      </trkpt>
      <trkpt lat="47.24467" lon="4.58217">
        <ele>451</ele>
        <time>2012-03-25T13:41:03.996Z</time>
      </trkpt>
      <trkpt lat="47.24464" lon="4.58212">
        <ele>451</ele>
        <time>2012-03-25T13:41:07.996Z</time>
      </trkpt>
      <trkpt lat="47.2446" lon="4.58208">
        <ele>451</ele>
        <time>2012-03-25T13:41:11.996Z</time>
      </trkpt>
      <trkpt lat="47.24456" lon="4.58203">
        <ele>451</ele>
        <time>2012-03-25T13:41:15.996Z</time>
      </trkpt>
      <trkpt lat="47.24451" lon="4.58198">
        <ele>451</ele>
        <time>2012-03-25T13:41:19.996Z</time>
      </trkpt>
      <trkpt lat="47.24446" lon="4.58195">
        <ele>451</ele>
        <time>2012-03-25T13:41:22.996Z</time>
      </trkpt>
      <trkpt lat="47.24441" lon="4.58193">
        <ele>451</ele>
        <time>2012-03-25T13:41:25.996Z</time>
      </trkpt>
      <trkpt lat="47.24436" lon="4.58191">
        <ele>451</ele>
        <time>2012-03-25T13:41:28.996Z</time>
      </trkpt>
      <trkpt lat="47.2443" lon="4.58191">
        <ele>451</ele>
        <time>2012-03-25T13:41:32.996Z</time>
      </trkpt>
      <trkpt lat="47.24425" lon="4.58192">
        <ele>451</ele>
        <time>2012-03-25T13:41:36.996Z</time>
      </trkpt>
      <trkpt lat="47.2442" lon="4.58194">
        <ele>451</ele>
        <time>2012-03-25T13:41:40.996Z</time>
      </trkpt>
      <trkpt lat="47.24416" lon="4.58196">
        <ele>451</ele>
        <time>2012-03-25T13:41:44.996Z</time>
      </trkpt>
      <trkpt lat="47.24411" lon="4.582">
        <ele>451</ele>
        <time>2012-03-25T13:41:49.996Z</time>
      </trkpt>
      <trkpt lat="47.24407" lon="4.58203">
        <ele>451</ele>
        <time>2012-03-25T13:41:54.996Z</time>
      </trkpt>
      <trkpt lat="47.24402" lon="4.58206">
        <ele>451</ele>
        <time>2012-03-25T13:41:59.996Z</time>
      </trkpt>
      <trkpt lat="47.24397" lon="4.58209">
        <ele>451</ele>
        <time>2012-03-25T13:42:04.996Z</time>
      </trkpt>
      <trkpt lat="47.24393" lon="4.58211">
        <ele>451</ele>
        <time>2012-03-25T13:42:08.996Z</time>
      </trkpt>
      <trkpt lat="47.24387" lon="4.58212">
        <ele>451</ele>
        <time>2012-03-25T13:42:12.996Z</time>
      </trkpt>
      <trkpt lat="47.24382" lon="4.58213">
        <ele>450</ele>
        <time>2012-03-25T13:42:16.996Z</time>
      </trkpt>
      <trkpt lat="47.24377" lon="4.58212">
        <ele>450</ele>
        <time>2012-03-25T13:42:20.996Z</time>
      </trkpt>
      <trkpt lat="47.24372" lon="4.58211">
        <ele>450</ele>
        <time>2012-03-25T13:42:24.996Z</time>
      </trkpt>
      <trkpt lat="47.24367" lon="4.58209">
        <ele>450</ele>
        <time>2012-03-25T13:42:28.996Z</time>
      </trkpt>
      <trkpt lat="47.24363" lon="4.58204">
        <ele>450</ele>
        <time>2012-03-25T13:42:32.996Z</time>
      </trkpt>
      <trkpt lat="47.24359" lon="4.582">
        <ele>450</ele>
        <time>2012-03-25T13:42:36.996Z</time>
      </trkpt>
      <trkpt lat="47.24355" lon="4.58196">
        <ele>450</ele>
        <time>2012-03-25T13:42:40.996Z</time>
      </trkpt>
      <trkpt lat="47.24351" lon="4.58191">
        <ele>450</ele>
        <time>2012-03-25T13:42:44.996Z</time>
      </trkpt>
      <trkpt lat="47.24348" lon="4.58186">
        <ele>450</ele>
        <time>2012-03-25T13:42:48.996Z</time>
      </trkpt>
      <trkpt lat="47.24344" lon="4.58181">
        <ele>450</ele>
        <time>2012-03-25T13:42:53.996Z</time>
      </trkpt>
      <trkpt lat="47.24339" lon="4.58175">
        <ele>450</ele>
        <time>2012-03-25T13:42:58.996Z</time>
      </trkpt>
      <trkpt lat="47.24336" lon="4.58169">
        <ele>450</ele>
        <time>2012-03-25T13:43:03.996Z</time>
      </trkpt>
      <trkpt lat="47.24333" lon="4.58163">
        <ele>450</ele>
        <time>2012-03-25T13:43:08.996Z</time>
      </trkpt>
      <trkpt lat="47.24331" lon="4.5817">
        <ele>450</ele>
        <time>2012-03-25T13:43:37.996Z</time>
      </trkpt>
      <trkpt lat="47.24327" lon="4.58176">
        <ele>450</ele>
        <time>2012-03-25T13:43:42.996Z</time>
      </trkpt>
      <trkpt lat="47.24324" lon="4.58182">
        <ele>450</ele>
        <time>2012-03-25T13:43:47.996Z</time>
      </trkpt>
      <trkpt lat="47.24321" lon="4.58188">
        <ele>449</ele>
        <time>2012-03-25T13:43:52.996Z</time>
      </trkpt>
      <trkpt lat="47.24318" lon="4.58194">
        <ele>449</ele>
        <time>2012-03-25T13:43:58.996Z</time>
      </trkpt>
      <trkpt lat="47.24314" lon="4.58198">
        <ele>449</ele>
        <time>2012-03-25T13:44:03.996Z</time>
      </trkpt>
      <trkpt lat="47.2431" lon="4.58203">
        <ele>449</ele>
        <time>2012-03-25T13:44:08.996Z</time>
      </trkpt>
      <trkpt lat="47.24306" lon="4.58209">
        <ele>449</ele>
        <time>2012-03-25T13:44:13.996Z</time>
      </trkpt>
      <trkpt lat="47.24303" lon="4.58215">
        <ele>449</ele>
        <time>2012-03-25T13:44:17.996Z</time>
      </trkpt>
      <trkpt lat="47.24299" lon="4.5822">
        <ele>449</ele>
        <time>2012-03-25T13:44:21.996Z</time>
      </trkpt>
      <trkpt lat="47.24296" lon="4.58224">
        <ele>449</ele>
        <time>2012-03-25T13:44:25.996Z</time>
      </trkpt>
      <trkpt lat="47.24292" lon="4.58228">
        <ele>449</ele>
        <time>2012-03-25T13:44:29.996Z</time>
      </trkpt>
      <trkpt lat="47.24288" lon="4.58233">
        <ele>449</ele>
        <time>2012-03-25T13:44:34.996Z</time>
      </trkpt>
      <trkpt lat="47.24284" lon="4.58237">
        <ele>449</ele>
        <time>2012-03-25T13:44:40.996Z</time>
      </trkpt>
      <trkpt lat="47.24281" lon="4.58241">
        <ele>449</ele>
        <time>2012-03-25T13:44:44.996Z</time>
      </trkpt>
      <trkpt lat="47.24276" lon="4.58245">
        <ele>449</ele>
        <time>2012-03-25T13:44:48.996Z</time>
      </trkpt>
      <trkpt lat="47.24272" lon="4.5825">
        <ele>449</ele>
        <time>2012-03-25T13:44:51.996Z</time>
      </trkpt>
      <trkpt lat="47.24269" lon="4.58254">
        <ele>449</ele>
        <time>2012-03-25T13:44:54.996Z</time>
      </trkpt>
      <trkpt lat="47.24265" lon="4.58259">
        <ele>449</ele>
        <time>2012-03-25T13:44:58.996Z</time>
      </trkpt>
      <trkpt lat="47.2426" lon="4.58264">
        <ele>449</ele>
        <time>2012-03-25T13:45:02.996Z</time>
      </trkpt>
      <trkpt lat="47.24257" lon="4.5827">
        <ele>449</ele>
        <time>2012-03-25T13:45:05.996Z</time>
      </trkpt>
      <trkpt lat="47.24254" lon="4.58275">
        <ele>449</ele>
        <time>2012-03-25T13:45:08.996Z</time>
      </trkpt>
      <trkpt lat="47.2425" lon="4.58281">
        <ele>449</ele>
        <time>2012-03-25T13:45:12.996Z</time>
      </trkpt>
      <trkpt lat="47.24247" lon="4.58286">
        <ele>449</ele>
        <time>2012-03-25T13:45:16.996Z</time>
      </trkpt>
      <trkpt lat="47.24244" lon="4.58291">
        <ele>449</ele>
        <time>2012-03-25T13:45:20.996Z</time>
      </trkpt>
      <trkpt lat="47.2424" lon="4.58297">
        <ele>449</ele>
        <time>2012-03-25T13:45:25.996Z</time>
      </trkpt>
      <trkpt lat="47.24236" lon="4.58302">
        <ele>449</ele>
        <time>2012-03-25T13:45:30.996Z</time>
      </trkpt>
      <trkpt lat="47.24232" lon="4.58308">
        <ele>449</ele>
        <time>2012-03-25T13:45:35.996Z</time>
      </trkpt>
      <trkpt lat="47.24229" lon="4.58313">
        <ele>449</ele>
        <time>2012-03-25T13:45:40.996Z</time>
      </trkpt>
      <trkpt lat="47.24225" lon="4.58317">
        <ele>449</ele>
        <time>2012-03-25T13:45:45.996Z</time>
      </trkpt>
      <trkpt lat="47.24222" lon="4.58322">
        <ele>449</ele>
        <time>2012-03-25T13:45:50.996Z</time>
      </trkpt>
      <trkpt lat="47.24219" lon="4.58328">
        <ele>449</ele>
        <time>2012-03-25T13:45:54.996Z</time>
      </trkpt>
      <trkpt lat="47.24216" lon="4.58334">
        <ele>449</ele>
        <time>2012-03-25T13:45:58.996Z</time>
      </trkpt>
      <trkpt lat="47.24214" lon="4.5834">
        <ele>449</ele>
        <time>2012-03-25T13:46:02.996Z</time>
      </trkpt>
      <trkpt lat="47.24214" lon="4.58347">
        <ele>449</ele>
        <time>2012-03-25T13:46:06.996Z</time>
      </trkpt>
      <trkpt lat="47.24212" lon="4.58355">
        <ele>449</ele>
        <time>2012-03-25T13:46:10.996Z</time>
      </trkpt>
      <trkpt lat="47.24211" lon="4.58362">
        <ele>449</ele>
        <time>2012-03-25T13:46:14.996Z</time>
      </trkpt>
      <trkpt lat="47.24209" lon="4.58368">
        <ele>448</ele>
        <time>2012-03-25T13:46:18.996Z</time>
      </trkpt>
      <trkpt lat="47.24206" lon="4.58373">
        <ele>448</ele>
        <time>2012-03-25T13:46:22.996Z</time>
      </trkpt>
      <trkpt lat="47.24203" lon="4.58378">
        <ele>448</ele>
        <time>2012-03-25T13:46:26.996Z</time>
      </trkpt>
      <trkpt lat="47.24199" lon="4.58383">
        <ele>448</ele>
        <time>2012-03-25T13:46:30.996Z</time>
      </trkpt>
      <trkpt lat="47.24195" lon="4.58388">
        <ele>448</ele>
        <time>2012-03-25T13:46:34.996Z</time>
      </trkpt>
      <trkpt lat="47.24192" lon="4.58394">
        <ele>447</ele>
        <time>2012-03-25T13:46:38.996Z</time>
      </trkpt>
      <trkpt lat="47.24189" lon="4.58398">
        <ele>447</ele>
        <time>2012-03-25T13:46:42.996Z</time>
      </trkpt>
      <trkpt lat="47.24184" lon="4.58403">
        <ele>447</ele>
        <time>2012-03-25T13:46:46.996Z</time>
      </trkpt>
      <trkpt lat="47.2418" lon="4.58405">
        <ele>447</ele>
        <time>2012-03-25T13:46:49.996Z</time>
      </trkpt>
      <trkpt lat="47.24175" lon="4.58409">
        <ele>447</ele>
        <time>2012-03-25T13:46:53.996Z</time>
      </trkpt>
      <trkpt lat="47.24172" lon="4.58414">
        <ele>447</ele>
        <time>2012-03-25T13:46:58.996Z</time>
      </trkpt>
      <trkpt lat="47.24169" lon="4.58421">
        <ele>447</ele>
        <time>2012-03-25T13:47:03.996Z</time>
      </trkpt>
      <trkpt lat="47.24166" lon="4.58426">
        <ele>447</ele>
        <time>2012-03-25T13:47:07.996Z</time>
      </trkpt>
      <trkpt lat="47.24163" lon="4.58431">
        <ele>447</ele>
        <time>2012-03-25T13:47:11.996Z</time>
      </trkpt>
      <trkpt lat="47.2416" lon="4.58437">
        <ele>447</ele>
        <time>2012-03-25T13:47:16.996Z</time>
      </trkpt>
      <trkpt lat="47.24156" lon="4.58443">
        <ele>447</ele>
        <time>2012-03-25T13:47:21.996Z</time>
      </trkpt>
      <trkpt lat="47.24153" lon="4.58448">
        <ele>447</ele>
        <time>2012-03-25T13:47:25.996Z</time>
      </trkpt>
      <trkpt lat="47.24149" lon="4.58453">
        <ele>447</ele>
        <time>2012-03-25T13:47:30.996Z</time>
      </trkpt>
      <trkpt lat="47.24146" lon="4.58458">
        <ele>447</ele>
        <time>2012-03-25T13:47:34.996Z</time>
      </trkpt>
      <trkpt lat="47.24142" lon="4.58462">
        <ele>447</ele>
        <time>2012-03-25T13:47:39.996Z</time>
      </trkpt>
      <trkpt lat="47.24138" lon="4.58467">
        <ele>447</ele>
        <time>2012-03-25T13:47:44.996Z</time>
      </trkpt>
      <trkpt lat="47.24134" lon="4.58471">
        <ele>447</ele>
        <time>2012-03-25T13:47:48.996Z</time>
      </trkpt>
      <trkpt lat="47.2413" lon="4.58475">
        <ele>447</ele>
        <time>2012-03-25T13:47:52.996Z</time>
      </trkpt>
      <trkpt lat="47.24127" lon="4.5848">
        <ele>447</ele>
        <time>2012-03-25T13:47:57.996Z</time>
      </trkpt>
      <trkpt lat="47.24123" lon="4.58487">
        <ele>447</ele>
        <time>2012-03-25T13:48:02.996Z</time>
      </trkpt>
      <trkpt lat="47.2412" lon="4.58492">
        <ele>447</ele>
        <time>2012-03-25T13:48:06.996Z</time>
      </trkpt>
      <trkpt lat="47.24116" lon="4.58498">
        <ele>447</ele>
        <time>2012-03-25T13:48:11.996Z</time>
      </trkpt>
      <trkpt lat="47.24113" lon="4.58503">
        <ele>447</ele>
        <time>2012-03-25T13:48:15.996Z</time>
      </trkpt>
      <trkpt lat="47.24109" lon="4.58508">
        <ele>447</ele>
        <time>2012-03-25T13:48:20.996Z</time>
      </trkpt>
      <trkpt lat="47.24105" lon="4.58513">
        <ele>447</ele>
        <time>2012-03-25T13:48:24.996Z</time>
      </trkpt>
      <trkpt lat="47.24101" lon="4.58519">
        <ele>447</ele>
        <time>2012-03-25T13:48:29.996Z</time>
      </trkpt>
      <trkpt lat="47.24098" lon="4.58524">
        <ele>447</ele>
        <time>2012-03-25T13:48:34.996Z</time>
      </trkpt>
      <trkpt lat="47.24093" lon="4.58529">
        <ele>447</ele>
        <time>2012-03-25T13:48:39.996Z</time>
      </trkpt>
      <trkpt lat="47.2409" lon="4.58534">
        <ele>447</ele>
        <time>2012-03-25T13:48:43.996Z</time>
      </trkpt>
      <trkpt lat="47.24086" lon="4.58539">
        <ele>447</ele>
        <time>2012-03-25T13:48:48.996Z</time>
      </trkpt>
      <trkpt lat="47.24082" lon="4.58544">
        <ele>448</ele>
        <time>2012-03-25T13:48:53.996Z</time>
      </trkpt>
      <trkpt lat="47.24079" lon="4.58549">
        <ele>448</ele>
        <time>2012-03-25T13:48:58.996Z</time>
      </trkpt>
      <trkpt lat="47.24075" lon="4.58554">
        <ele>448</ele>
        <time>2012-03-25T13:49:03.996Z</time>
      </trkpt>
      <trkpt lat="47.24071" lon="4.5856">
        <ele>448</ele>
        <time>2012-03-25T13:49:08.996Z</time>
      </trkpt>
      <trkpt lat="47.24068" lon="4.58564">
        <ele>448</ele>
        <time>2012-03-25T13:49:12.996Z</time>
      </trkpt>
      <trkpt lat="47.24066" lon="4.58571">
        <ele>448</ele>
        <time>2012-03-25T13:49:21.996Z</time>
      </trkpt>
      <trkpt lat="47.24064" lon="4.58577">
        <ele>448</ele>
        <time>2012-03-25T13:49:28.996Z</time>
      </trkpt>
      <trkpt lat="47.24061" lon="4.58583">
        <ele>448</ele>
        <time>2012-03-25T13:49:32.996Z</time>
      </trkpt>
      <trkpt lat="47.24058" lon="4.58588">
        <ele>447</ele>
        <time>2012-03-25T13:49:36.996Z</time>
      </trkpt>
      <trkpt lat="47.24054" lon="4.58592">
        <ele>447</ele>
        <time>2012-03-25T13:49:40.996Z</time>
      </trkpt>
      <trkpt lat="47.2405" lon="4.58596">
        <ele>447</ele>
        <time>2012-03-25T13:49:44.996Z</time>
      </trkpt>
      <trkpt lat="47.24046" lon="4.586">
        <ele>447</ele>
        <time>2012-03-25T13:49:48.996Z</time>
      </trkpt>
      <trkpt lat="47.24041" lon="4.58604">
        <ele>446</ele>
        <time>2012-03-25T13:49:53.996Z</time>
      </trkpt>
      <trkpt lat="47.24036" lon="4.58608">
        <ele>446</ele>
        <time>2012-03-25T13:49:58.996Z</time>
      </trkpt>
      <trkpt lat="47.24032" lon="4.58611">
        <ele>446</ele>
        <time>2012-03-25T13:50:02.996Z</time>
      </trkpt>
      <trkpt lat="47.24028" lon="4.58615">
        <ele>446</ele>
        <time>2012-03-25T13:50:06.996Z</time>
      </trkpt>
      <trkpt lat="47.24023" lon="4.58618">
        <ele>446</ele>
        <time>2012-03-25T13:50:10.996Z</time>
      </trkpt>
      <trkpt lat="47.24018" lon="4.58622">
        <ele>446</ele>
        <time>2012-03-25T13:50:14.996Z</time>
      </trkpt>
      <trkpt lat="47.24014" lon="4.58624">
        <ele>446</ele>
        <time>2012-03-25T13:50:18.996Z</time>
      </trkpt>
      <trkpt lat="47.24009" lon="4.58627">
        <ele>446</ele>
        <time>2012-03-25T13:50:22.996Z</time>
      </trkpt>
      <trkpt lat="47.24005" lon="4.5863">
        <ele>446</ele>
        <time>2012-03-25T13:50:27.996Z</time>
      </trkpt>
      <trkpt lat="47.24" lon="4.58634">
        <ele>446</ele>
        <time>2012-03-25T13:50:32.996Z</time>
      </trkpt>
      <trkpt lat="47.23996" lon="4.58638">
        <ele>446</ele>
        <time>2012-03-25T13:50:36.996Z</time>
      </trkpt>
      <trkpt lat="47.23992" lon="4.58642">
        <ele>445</ele>
        <time>2012-03-25T13:50:40.996Z</time>
      </trkpt>
      <trkpt lat="47.23988" lon="4.58646">
        <ele>445</ele>
        <time>2012-03-25T13:50:44.996Z</time>
      </trkpt>
      <trkpt lat="47.23983" lon="4.58649">
        <ele>445</ele>
        <time>2012-03-25T13:50:48.996Z</time>
      </trkpt>
      <trkpt lat="47.23979" lon="4.58652">
        <ele>446</ele>
        <time>2012-03-25T13:50:52.996Z</time>
      </trkpt>
      <trkpt lat="47.23974" lon="4.58655">
        <ele>446</ele>
        <time>2012-03-25T13:50:56.996Z</time>
      </trkpt>
      <trkpt lat="47.23971" lon="4.58659">
        <ele>446</ele>
        <time>2012-03-25T13:51:08.996Z</time>
      </trkpt>
      <trkpt lat="47.23967" lon="4.58664">
        <ele>446</ele>
        <time>2012-03-25T13:51:15.996Z</time>
      </trkpt>
      <trkpt lat="47.23962" lon="4.58668">
        <ele>446</ele>
        <time>2012-03-25T13:51:20.996Z</time>
      </trkpt>
      <trkpt lat="47.23958" lon="4.58672">
        <ele>446</ele>
        <time>2012-03-25T13:51:24.996Z</time>
      </trkpt>
      <trkpt lat="47.23953" lon="4.58676">
        <ele>446</ele>
        <time>2012-03-25T13:51:29.996Z</time>
      </trkpt>
      <trkpt lat="47.23948" lon="4.58679">
        <ele>445</ele>
        <time>2012-03-25T13:51:34.996Z</time>
      </trkpt>
      <trkpt lat="47.23943" lon="4.58682">
        <ele>445</ele>
        <time>2012-03-25T13:51:38.996Z</time>
      </trkpt>
      <trkpt lat="47.23938" lon="4.58684">
        <ele>445</ele>
        <time>2012-03-25T13:51:42.996Z</time>
      </trkpt>
      <trkpt lat="47.23934" lon="4.58687">
        <ele>445</ele>
        <time>2012-03-25T13:51:46.996Z</time>
      </trkpt>
      <trkpt lat="47.23929" lon="4.58689">
        <ele>445</ele>
        <time>2012-03-25T13:51:50.996Z</time>
      </trkpt>
      <trkpt lat="47.23925" lon="4.58692">
        <ele>445</ele>
        <time>2012-03-25T13:51:54.996Z</time>
      </trkpt>
      <trkpt lat="47.23921" lon="4.58695">
        <ele>445</ele>
        <time>2012-03-25T13:52:00.996Z</time>
      </trkpt>
      <trkpt lat="47.23916" lon="4.58698">
        <ele>445</ele>
        <time>2012-03-25T13:52:08.996Z</time>
      </trkpt>
      <trkpt lat="47.23911" lon="4.58701">
        <ele>445</ele>
        <time>2012-03-25T13:52:13.996Z</time>
      </trkpt>
      <trkpt lat="47.23906" lon="4.58704">
        <ele>445</ele>
        <time>2012-03-25T13:52:18.996Z</time>
      </trkpt>
      <trkpt lat="47.239" lon="4.58706">
        <ele>445</ele>
        <time>2012-03-25T13:52:22.996Z</time>
      </trkpt>
      <trkpt lat="47.23895" lon="4.58708">
        <ele>445</ele>
        <time>2012-03-25T13:52:26.996Z</time>
      </trkpt>
      <trkpt lat="47.23889" lon="4.5871">
        <ele>445</ele>
        <time>2012-03-25T13:52:30.996Z</time>
      </trkpt>
      <trkpt lat="47.23884" lon="4.58712">
        <ele>445</ele>
        <time>2012-03-25T13:52:34.996Z</time>
      </trkpt>
      <trkpt lat="47.23879" lon="4.58714">
        <ele>445</ele>
        <time>2012-03-25T13:52:38.996Z</time>
      </trkpt>
      <trkpt lat="47.23874" lon="4.58716">
        <ele>445</ele>
        <time>2012-03-25T13:52:42.996Z</time>
      </trkpt>
      <trkpt lat="47.23869" lon="4.58718">
        <ele>445</ele>
        <time>2012-03-25T13:52:46.996Z</time>
      </trkpt>
      <trkpt lat="47.23865" lon="4.58719">
        <ele>445</ele>
        <time>2012-03-25T13:52:50.996Z</time>
      </trkpt>
      <trkpt lat="47.2386" lon="4.58721">
        <ele>445</ele>
        <time>2012-03-25T13:52:54.996Z</time>
      </trkpt>
      <trkpt lat="47.23855" lon="4.58723">
        <ele>445</ele>
        <time>2012-03-25T13:52:58.996Z</time>
      </trkpt>
      <trkpt lat="47.23851" lon="4.58724">
        <ele>445</ele>
        <time>2012-03-25T13:53:02.996Z</time>
      </trkpt>
      <trkpt lat="47.23846" lon="4.58726">
        <ele>445</ele>
        <time>2012-03-25T13:53:06.996Z</time>
      </trkpt>
      <trkpt lat="47.23842" lon="4.58728">
        <ele>445</ele>
        <time>2012-03-25T13:53:10.996Z</time>
      </trkpt>
      <trkpt lat="47.23837" lon="4.5873">
        <ele>445</ele>
        <time>2012-03-25T13:53:15.996Z</time>
      </trkpt>
      <trkpt lat="47.23832" lon="4.58735">
        <ele>444</ele>
        <time>2012-03-25T13:53:21.996Z</time>
      </trkpt>
      <trkpt lat="47.23828" lon="4.58738">
        <ele>444</ele>
        <time>2012-03-25T13:53:26.996Z</time>
      </trkpt>
      <trkpt lat="47.23823" lon="4.58742">
        <ele>444</ele>
        <time>2012-03-25T13:53:32.996Z</time>
      </trkpt>
      <trkpt lat="47.23819" lon="4.58744">
        <ele>444</ele>
        <time>2012-03-25T13:53:37.996Z</time>
      </trkpt>
      <trkpt lat="47.23814" lon="4.58747">
        <ele>444</ele>
        <time>2012-03-25T13:53:41.996Z</time>
      </trkpt>
      <trkpt lat="47.2381" lon="4.5875">
        <ele>444</ele>
        <time>2012-03-25T13:53:45.996Z</time>
      </trkpt>
      <trkpt lat="47.23805" lon="4.58753">
        <ele>444</ele>
        <time>2012-03-25T13:53:49.996Z</time>
      </trkpt>
      <trkpt lat="47.238" lon="4.58755">
        <ele>443</ele>
        <time>2012-03-25T13:53:54.996Z</time>
      </trkpt>
      <trkpt lat="47.23795" lon="4.58758">
        <ele>443</ele>
        <time>2012-03-25T13:53:59.996Z</time>
      </trkpt>
      <trkpt lat="47.2379" lon="4.5876">
        <ele>443</ele>
        <time>2012-03-25T13:54:04.996Z</time>
      </trkpt>
      <trkpt lat="47.23785" lon="4.58761">
        <ele>444</ele>
        <time>2012-03-25T13:54:09.996Z</time>
      </trkpt>
      <trkpt lat="47.2378" lon="4.58761">
        <ele>444</ele>
        <time>2012-03-25T13:54:14.996Z</time>
      </trkpt>
      <trkpt lat="47.23775" lon="4.58762">
        <ele>444</ele>
        <time>2012-03-25T13:54:19.996Z</time>
      </trkpt>
      <trkpt lat="47.23769" lon="4.58762">
        <ele>444</ele>
        <time>2012-03-25T13:54:24.996Z</time>
      </trkpt>
      <trkpt lat="47.23763" lon="4.58763">
        <ele>444</ele>
        <time>2012-03-25T13:54:29.996Z</time>
      </trkpt>
      <trkpt lat="47.23759" lon="4.58764">
        <ele>444</ele>
        <time>2012-03-25T13:54:33.996Z</time>
      </trkpt>
      <trkpt lat="47.23754" lon="4.58765">
        <ele>444</ele>
        <time>2012-03-25T13:54:37.996Z</time>
      </trkpt>
      <trkpt lat="47.23749" lon="4.58766">
        <ele>444</ele>
        <time>2012-03-25T13:54:42.996Z</time>
      </trkpt>
      <trkpt lat="47.23743" lon="4.58767">
        <ele>443</ele>
        <time>2012-03-25T13:54:47.996Z</time>
      </trkpt>
      <trkpt lat="47.23739" lon="4.58768">
        <ele>443</ele>
        <time>2012-03-25T13:54:51.996Z</time>
      </trkpt>
      <trkpt lat="47.23734" lon="4.58769">
        <ele>443</ele>
        <time>2012-03-25T13:54:55.996Z</time>
      </trkpt>
      <trkpt lat="47.23729" lon="4.5877">
        <ele>443</ele>
        <time>2012-03-25T13:54:59.996Z</time>
      </trkpt>
      <trkpt lat="47.23725" lon="4.58771">
        <ele>443</ele>
        <time>2012-03-25T13:55:03.996Z</time>
      </trkpt>
      <trkpt lat="47.2372" lon="4.58772">
        <ele>443</ele>
        <time>2012-03-25T13:55:07.996Z</time>
      </trkpt>
      <trkpt lat="47.23715" lon="4.58774">
        <ele>443</ele>
        <time>2012-03-25T13:55:11.996Z</time>
      </trkpt>
      <trkpt lat="47.2371" lon="4.58776">
        <ele>443</ele>
        <time>2012-03-25T13:55:16.996Z</time>
      </trkpt>
      <trkpt lat="47.23704" lon="4.58778">
        <ele>443</ele>
        <time>2012-03-25T13:55:21.996Z</time>
      </trkpt>
      <trkpt lat="47.237" lon="4.58779">
        <ele>443</ele>
        <time>2012-03-25T13:55:25.996Z</time>
      </trkpt>
      <trkpt lat="47.23694" lon="4.5878">
        <ele>443</ele>
        <time>2012-03-25T13:55:29.996Z</time>
      </trkpt>
      <trkpt lat="47.23689" lon="4.5878">
        <ele>443</ele>
        <time>2012-03-25T13:55:33.996Z</time>
      </trkpt>
      <trkpt lat="47.23684" lon="4.58782">
        <ele>443</ele>
        <time>2012-03-25T13:55:37.996Z</time>
      </trkpt>
      <trkpt lat="47.2368" lon="4.58783">
        <ele>443</ele>
        <time>2012-03-25T13:55:41.996Z</time>
      </trkpt>
      <trkpt lat="47.23674" lon="4.58785">
        <ele>443</ele>
        <time>2012-03-25T13:55:44.996Z</time>
      </trkpt>
      <trkpt lat="47.2367" lon="4.58788">
        <ele>443</ele>
        <time>2012-03-25T13:55:51.996Z</time>
      </trkpt>
      <trkpt lat="47.23665" lon="4.58791">
        <ele>443</ele>
        <time>2012-03-25T13:55:55.996Z</time>
      </trkpt>
      <trkpt lat="47.2366" lon="4.58793">
        <ele>443</ele>
        <time>2012-03-25T13:56:00.996Z</time>
      </trkpt>
      <trkpt lat="47.23655" lon="4.58795">
        <ele>443</ele>
        <time>2012-03-25T13:56:04.996Z</time>
      </trkpt>
      <trkpt lat="47.2365" lon="4.58796">
        <ele>443</ele>
        <time>2012-03-25T13:56:09.996Z</time>
      </trkpt>
      <trkpt lat="47.23646" lon="4.58798">
        <ele>443</ele>
        <time>2012-03-25T13:56:14.996Z</time>
      </trkpt>
      <trkpt lat="47.2364" lon="4.588">
        <ele>443</ele>
        <time>2012-03-25T13:56:19.996Z</time>
      </trkpt>
      <trkpt lat="47.23636" lon="4.58802">
        <ele>443</ele>
        <time>2012-03-25T13:56:23.996Z</time>
      </trkpt>
      <trkpt lat="47.23632" lon="4.58805">
        <ele>443</ele>
        <time>2012-03-25T13:56:27.996Z</time>
      </trkpt>
      <trkpt lat="47.23627" lon="4.58807">
        <ele>443</ele>
        <time>2012-03-25T13:56:31.996Z</time>
      </trkpt>
      <trkpt lat="47.23622" lon="4.58809">
        <ele>443</ele>
        <time>2012-03-25T13:56:36.996Z</time>
      </trkpt>
      <trkpt lat="47.23617" lon="4.58809">
        <ele>443</ele>
        <time>2012-03-25T13:56:41.996Z</time>
      </trkpt>
      <trkpt lat="47.23611" lon="4.5881">
        <ele>443</ele>
        <time>2012-03-25T13:56:46.996Z</time>
      </trkpt>
      <trkpt lat="47.23606" lon="4.5881">
        <ele>443</ele>
        <time>2012-03-25T13:56:51.996Z</time>
      </trkpt>
      <trkpt lat="47.23601" lon="4.58812">
        <ele>443</ele>
        <time>2012-03-25T13:56:56.996Z</time>
      </trkpt>
      <trkpt lat="47.23596" lon="4.58812">
        <ele>442</ele>
        <time>2012-03-25T13:57:00.996Z</time>
      </trkpt>
      <trkpt lat="47.23592" lon="4.58813">
        <ele>442</ele>
        <time>2012-03-25T13:57:04.996Z</time>
      </trkpt>
      <trkpt lat="47.23587" lon="4.58812">
        <ele>442</ele>
        <time>2012-03-25T13:57:08.996Z</time>
      </trkpt>
      <trkpt lat="47.23582" lon="4.58813">
        <ele>442</ele>
        <time>2012-03-25T13:57:12.996Z</time>
      </trkpt>
      <trkpt lat="47.23577" lon="4.58813">
        <ele>442</ele>
        <time>2012-03-25T13:57:16.996Z</time>
      </trkpt>
      <trkpt lat="47.23572" lon="4.58814">
        <ele>442</ele>
        <time>2012-03-25T13:57:21.996Z</time>
      </trkpt>
      <trkpt lat="47.23568" lon="4.58818">
        <ele>442</ele>
        <time>2012-03-25T13:57:25.996Z</time>
      </trkpt>
      <trkpt lat="47.23563" lon="4.58821">
        <ele>442</ele>
        <time>2012-03-25T13:57:29.996Z</time>
      </trkpt>
      <trkpt lat="47.23559" lon="4.58824">
        <ele>442</ele>
        <time>2012-03-25T13:57:32.996Z</time>
      </trkpt>
      <trkpt lat="47.23554" lon="4.58827">
        <ele>442</ele>
        <time>2012-03-25T13:57:41.996Z</time>
      </trkpt>
      <trkpt lat="47.23549" lon="4.5883">
        <ele>442</ele>
        <time>2012-03-25T13:57:45.996Z</time>
      </trkpt>
      <trkpt lat="47.23544" lon="4.58833">
        <ele>442</ele>
        <time>2012-03-25T13:57:49.996Z</time>
      </trkpt>
      <trkpt lat="47.2354" lon="4.58835">
        <ele>442</ele>
        <time>2012-03-25T13:57:53.996Z</time>
      </trkpt>
      <trkpt lat="47.23534" lon="4.58837">
        <ele>441</ele>
        <time>2012-03-25T13:57:58.996Z</time>
      </trkpt>
      <trkpt lat="47.2353" lon="4.58838">
        <ele>441</ele>
        <time>2012-03-25T13:58:03.996Z</time>
      </trkpt>
      <trkpt lat="47.23524" lon="4.58839">
        <ele>441</ele>
        <time>2012-03-25T13:58:08.996Z</time>
      </trkpt>
      <trkpt lat="47.2352" lon="4.58841">
        <ele>441</ele>
        <time>2012-03-25T13:58:12.996Z</time>
      </trkpt>
      <trkpt lat="47.23515" lon="4.58842">
        <ele>441</ele>
        <time>2012-03-25T13:58:16.996Z</time>
      </trkpt>
      <trkpt lat="47.2351" lon="4.58843">
        <ele>441</ele>
        <time>2012-03-25T13:58:20.996Z</time>
      </trkpt>
      <trkpt lat="47.23506" lon="4.58844">
        <ele>440</ele>
        <time>2012-03-25T13:58:24.996Z</time>
      </trkpt>
      <trkpt lat="47.235" lon="4.58845">
        <ele>440</ele>
        <time>2012-03-25T13:58:29.996Z</time>
      </trkpt>
      <trkpt lat="47.23495" lon="4.58845">
        <ele>440</ele>
        <time>2012-03-25T13:58:34.996Z</time>
      </trkpt>
      <trkpt lat="47.2349" lon="4.58846">
        <ele>440</ele>
        <time>2012-03-25T13:58:38.996Z</time>
      </trkpt>
      <trkpt lat="47.23486" lon="4.58847">
        <ele>440</ele>
        <time>2012-03-25T13:58:42.996Z</time>
      </trkpt>
      <trkpt lat="47.23481" lon="4.58848">
        <ele>440</ele>
        <time>2012-03-25T13:58:46.996Z</time>
      </trkpt>
      <trkpt lat="47.23476" lon="4.58849">
        <ele>440</ele>
        <time>2012-03-25T13:58:50.996Z</time>
      </trkpt>
      <trkpt lat="47.23471" lon="4.5885">
        <ele>440</ele>
        <time>2012-03-25T13:58:54.996Z</time>
      </trkpt>
      <trkpt lat="47.23467" lon="4.5885">
        <ele>440</ele>
        <time>2012-03-25T13:58:58.996Z</time>
      </trkpt>
      <trkpt lat="47.23462" lon="4.58852">
        <ele>440</ele>
        <time>2012-03-25T13:59:02.996Z</time>
      </trkpt>
      <trkpt lat="47.23457" lon="4.58853">
        <ele>440</ele>
        <time>2012-03-25T13:59:06.996Z</time>
      </trkpt>
      <trkpt lat="47.23451" lon="4.58854">
        <ele>440</ele>
        <time>2012-03-25T13:59:10.996Z</time>
      </trkpt>
      <trkpt lat="47.23446" lon="4.58855">
        <ele>440</ele>
        <time>2012-03-25T13:59:14.996Z</time>
      </trkpt>
      <trkpt lat="47.23441" lon="4.58857">
        <ele>440</ele>
        <time>2012-03-25T13:59:18.996Z</time>
      </trkpt>
      <trkpt lat="47.23436" lon="4.58858">
        <ele>440</ele>
        <time>2012-03-25T13:59:22.996Z</time>
      </trkpt>
      <trkpt lat="47.23432" lon="4.58859">
        <ele>440</ele>
        <time>2012-03-25T13:59:26.996Z</time>
      </trkpt>
      <trkpt lat="47.23427" lon="4.5886">
        <ele>440</ele>
        <time>2012-03-25T13:59:30.996Z</time>
      </trkpt>
      <trkpt lat="47.23424" lon="4.58866">
        <ele>440</ele>
        <time>2012-03-25T13:59:39.996Z</time>
      </trkpt>
      <trkpt lat="47.23419" lon="4.5887">
        <ele>440</ele>
        <time>2012-03-25T13:59:45.996Z</time>
      </trkpt>
      <trkpt lat="47.23414" lon="4.58872">
        <ele>439</ele>
        <time>2012-03-25T13:59:50.996Z</time>
      </trkpt>
      <trkpt lat="47.2341" lon="4.58875">
        <ele>439</ele>
        <time>2012-03-25T13:59:55.996Z</time>
      </trkpt>
      <trkpt lat="47.23404" lon="4.58876">
        <ele>439</ele>
        <time>2012-03-25T14:00:00.996Z</time>
      </trkpt>
      <trkpt lat="47.23399" lon="4.58877">
        <ele>439</ele>
        <time>2012-03-25T14:00:05.996Z</time>
      </trkpt>
      <trkpt lat="47.23394" lon="4.58878">
        <ele>439</ele>
        <time>2012-03-25T14:00:10.996Z</time>
      </trkpt>
      <trkpt lat="47.23389" lon="4.5888">
        <ele>439</ele>
        <time>2012-03-25T14:00:14.996Z</time>
      </trkpt>
      <trkpt lat="47.23385" lon="4.58882">
        <ele>439</ele>
        <time>2012-03-25T14:00:18.996Z</time>
      </trkpt>
      <trkpt lat="47.2338" lon="4.58884">
        <ele>438</ele>
        <time>2012-03-25T14:00:22.996Z</time>
      </trkpt>
      <trkpt lat="47.23375" lon="4.58887">
        <ele>438</ele>
        <time>2012-03-25T14:00:27.996Z</time>
      </trkpt>
      <trkpt lat="47.23371" lon="4.58888">
        <ele>438</ele>
        <time>2012-03-25T14:00:34.996Z</time>
      </trkpt>
      <trkpt lat="47.23366" lon="4.58891">
        <ele>438</ele>
        <time>2012-03-25T14:00:39.996Z</time>
      </trkpt>
      <trkpt lat="47.23361" lon="4.58893">
        <ele>438</ele>
        <time>2012-03-25T14:00:44.996Z</time>
      </trkpt>
      <trkpt lat="47.23356" lon="4.58894">
        <ele>438</ele>
        <time>2012-03-25T14:00:49.996Z</time>
      </trkpt>
      <trkpt lat="47.23351" lon="4.58895">
        <ele>438</ele>
        <time>2012-03-25T14:00:55.996Z</time>
      </trkpt>
      <trkpt lat="47.23346" lon="4.58897">
        <ele>438</ele>
        <time>2012-03-25T14:00:59.996Z</time>
      </trkpt>
      <trkpt lat="47.23342" lon="4.58899">
        <ele>438</ele>
        <time>2012-03-25T14:01:03.996Z</time>
      </trkpt>
      <trkpt lat="47.23337" lon="4.58901">
        <ele>438</ele>
        <time>2012-03-25T14:01:07.996Z</time>
      </trkpt>
      <trkpt lat="47.23333" lon="4.58903">
        <ele>437</ele>
        <time>2012-03-25T14:01:11.996Z</time>
      </trkpt>
      <trkpt lat="47.23328" lon="4.58905">
        <ele>437</ele>
        <time>2012-03-25T14:01:15.996Z</time>
      </trkpt>
      <trkpt lat="47.23323" lon="4.58907">
        <ele>437</ele>
        <time>2012-03-25T14:01:20.996Z</time>
      </trkpt>
      <trkpt lat="47.23318" lon="4.58909">
        <ele>437</ele>
        <time>2012-03-25T14:01:25.996Z</time>
      </trkpt>
      <trkpt lat="47.23312" lon="4.5891">
        <ele>437</ele>
        <time>2012-03-25T14:01:30.996Z</time>
      </trkpt>
      <trkpt lat="47.23306" lon="4.58911">
        <ele>436</ele>
        <time>2012-03-25T14:01:35.996Z</time>
      </trkpt>
      <trkpt lat="47.23301" lon="4.58912">
        <ele>436</ele>
        <time>2012-03-25T14:01:40.996Z</time>
      </trkpt>
      <trkpt lat="47.23296" lon="4.58913">
        <ele>436</ele>
        <time>2012-03-25T14:01:45.996Z</time>
      </trkpt>
      <trkpt lat="47.23291" lon="4.58915">
        <ele>436</ele>
        <time>2012-03-25T14:01:50.996Z</time>
      </trkpt>
      <trkpt lat="47.23286" lon="4.58917">
        <ele>436</ele>
        <time>2012-03-25T14:01:55.996Z</time>
      </trkpt>
      <trkpt lat="47.23281" lon="4.58919">
        <ele>435</ele>
        <time>2012-03-25T14:02:00.996Z</time>
      </trkpt>
      <trkpt lat="47.23276" lon="4.58921">
        <ele>435</ele>
        <time>2012-03-25T14:02:05.996Z</time>
      </trkpt>
      <trkpt lat="47.23271" lon="4.58922">
        <ele>435</ele>
        <time>2012-03-25T14:02:10.996Z</time>
      </trkpt>
      <trkpt lat="47.23265" lon="4.58924">
        <ele>435</ele>
        <time>2012-03-25T14:02:15.996Z</time>
      </trkpt>
      <trkpt lat="47.23261" lon="4.58925">
        <ele>435</ele>
        <time>2012-03-25T14:02:19.996Z</time>
      </trkpt>
      <trkpt lat="47.23255" lon="4.58926">
        <ele>435</ele>
        <time>2012-03-25T14:02:24.996Z</time>
      </trkpt>
      <trkpt lat="47.2325" lon="4.58927">
        <ele>435</ele>
        <time>2012-03-25T14:02:29.996Z</time>
      </trkpt>
      <trkpt lat="47.23245" lon="4.58928">
        <ele>435</ele>
        <time>2012-03-25T14:02:33.996Z</time>
      </trkpt>
      <trkpt lat="47.2324" lon="4.58928">
        <ele>435</ele>
        <time>2012-03-25T14:02:37.996Z</time>
      </trkpt>
      <trkpt lat="47.23235" lon="4.58928">
        <ele>435</ele>
        <time>2012-03-25T14:02:42.996Z</time>
      </trkpt>
      <trkpt lat="47.23231" lon="4.58929">
        <ele>434</ele>
        <time>2012-03-25T14:02:54.996Z</time>
      </trkpt>
      <trkpt lat="47.23226" lon="4.58931">
        <ele>434</ele>
        <time>2012-03-25T14:03:05.996Z</time>
      </trkpt>
      <trkpt lat="47.23221" lon="4.58935">
        <ele>434</ele>
        <time>2012-03-25T14:03:11.996Z</time>
      </trkpt>
      <trkpt lat="47.23216" lon="4.58937">
        <ele>434</ele>
        <time>2012-03-25T14:03:16.996Z</time>
      </trkpt>
      <trkpt lat="47.23211" lon="4.58939">
        <ele>434</ele>
        <time>2012-03-25T14:03:21.996Z</time>
      </trkpt>
      <trkpt lat="47.23206" lon="4.58941">
        <ele>433</ele>
        <time>2012-03-25T14:03:26.996Z</time>
      </trkpt>
      <trkpt lat="47.232" lon="4.58942">
        <ele>433</ele>
        <time>2012-03-25T14:03:31.996Z</time>
      </trkpt>
      <trkpt lat="47.23195" lon="4.58945">
        <ele>433</ele>
        <time>2012-03-25T14:03:36.996Z</time>
      </trkpt>
      <trkpt lat="47.23089" lon="4.58842">
        <ele>536</ele>
        <time>2012-03-25T14:03:44.860Z</time>
      </trkpt>
      <trkpt lat="47.23089" lon="4.58842">
        <ele>536</ele>
        <time>2012-03-25T14:03:44.860Z</time>
      </trkpt>
      <trkpt lat="47.23089" lon="4.58842">
        <ele>536</ele>
        <time>2012-03-25T14:03:45.862Z</time>
      </trkpt>
      <trkpt lat="47.23082" lon="4.58852">
        <ele>543</ele>
        <time>2012-03-25T14:03:46.802Z</time>
      </trkpt>
      <trkpt lat="47.23082" lon="4.58852">
        <ele>543</ele>
        <time>2012-03-25T14:03:46.802Z</time>
      </trkpt>
      <trkpt lat="47.23082" lon="4.58852">
        <ele>543</ele>
        <time>2012-03-25T14:03:49.000Z</time>
      </trkpt>
      <trkpt lat="47.23087" lon="4.58869">
        <ele>555</ele>
        <time>2012-03-25T14:03:50.000Z</time>
      </trkpt>
      <trkpt lat="47.23096" lon="4.58872">
        <ele>555</ele>
        <time>2012-03-25T14:03:51.000Z</time>
      </trkpt>
      <trkpt lat="47.23096" lon="4.58872">
        <ele>555</ele>
        <time>2012-03-25T14:03:51.000Z</time>
      </trkpt>
      <trkpt lat="47.23096" lon="4.58872">
        <ele>555</ele>
        <time>2012-03-25T14:03:52.000Z</time>
      </trkpt>
      <trkpt lat="47.23111" lon="4.58877">
        <ele>556</ele>
        <time>2012-03-25T14:03:53.000Z</time>
      </trkpt>
      <trkpt lat="47.23117" lon="4.5888">
        <ele>555</ele>
        <time>2012-03-25T14:03:54.000Z</time>
      </trkpt>
      <trkpt lat="47.23117" lon="4.5888">
        <ele>555</ele>
        <time>2012-03-25T14:03:54.000Z</time>
      </trkpt>
      <trkpt lat="47.23117" lon="4.5888">
        <ele>555</ele>
        <time>2012-03-25T14:03:58.000Z</time>
      </trkpt>
      <trkpt lat="47.23112" lon="4.58892">
        <ele>551</ele>
        <time>2012-03-25T14:03:59.000Z</time>
      </trkpt>
      <trkpt lat="47.23112" lon="4.58892">
        <ele>551</ele>
        <time>2012-03-25T14:03:59.000Z</time>
      </trkpt>
      <trkpt lat="47.23112" lon="4.58892">
        <ele>551</ele>
        <time>2012-03-25T14:04:07.000Z</time>
      </trkpt>
      <trkpt lat="47.23109" lon="4.58902">
        <ele>542</ele>
        <time>2012-03-25T14:04:08.000Z</time>
      </trkpt>
      <trkpt lat="47.23112" lon="4.58908">
        <ele>518</ele>
        <time>2012-03-25T14:04:14.000Z</time>
      </trkpt>
      <trkpt lat="47.23112" lon="4.58916">
        <ele>512</ele>
        <time>2012-03-25T14:04:17.000Z</time>
      </trkpt>
      <trkpt lat="47.23112" lon="4.58923">
        <ele>511</ele>
        <time>2012-03-25T14:04:20.000Z</time>
      </trkpt>
      <trkpt lat="47.23111" lon="4.5893">
        <ele>510</ele>
        <time>2012-03-25T14:04:25.000Z</time>
      </trkpt>
      <trkpt lat="47.23116" lon="4.58932">
        <ele>509</ele>
        <time>2012-03-25T14:04:31.000Z</time>
      </trkpt>
      <trkpt lat="47.23122" lon="4.58932">
        <ele>509</ele>
        <time>2012-03-25T14:04:34.000Z</time>
      </trkpt>
      <trkpt lat="47.23127" lon="4.58933">
        <ele>507</ele>
        <time>2012-03-25T14:04:37.000Z</time>
      </trkpt>
      <trkpt lat="47.23127" lon="4.58939">
        <ele>503</ele>
        <time>2012-03-25T14:04:42.000Z</time>
      </trkpt>
      <trkpt lat="47.23124" lon="4.58946">
        <ele>500</ele>
        <time>2012-03-25T14:04:46.000Z</time>
      </trkpt>
      <trkpt lat="47.2312" lon="4.5895">
        <ele>497</ele>
        <time>2012-03-25T14:04:51.000Z</time>
      </trkpt>
      <trkpt lat="47.23114" lon="4.58952">
        <ele>495</ele>
        <time>2012-03-25T14:04:56.000Z</time>
      </trkpt>
      <trkpt lat="47.2311" lon="4.58953">
        <ele>492</ele>
        <time>2012-03-25T14:05:01.000Z</time>
      </trkpt>
      <trkpt lat="47.23104" lon="4.58953">
        <ele>490</ele>
        <time>2012-03-25T14:05:07.000Z</time>
      </trkpt>
      <trkpt lat="47.23108" lon="4.58957">
        <ele>489</ele>
        <time>2012-03-25T14:05:53.000Z</time>
      </trkpt>
      <trkpt lat="47.23107" lon="4.58966">
        <ele>489</ele>
        <time>2012-03-25T14:06:00.000Z</time>
      </trkpt>
      <trkpt lat="47.23106" lon="4.58972">
        <ele>489</ele>
        <time>2012-03-25T14:06:03.000Z</time>
      </trkpt>
      <trkpt lat="47.23106" lon="4.5898">
        <ele>489</ele>
        <time>2012-03-25T14:06:07.000Z</time>
      </trkpt>
      <trkpt lat="47.23104" lon="4.58987">
        <ele>488</ele>
        <time>2012-03-25T14:06:11.000Z</time>
      </trkpt>
      <trkpt lat="47.23102" lon="4.58993">
        <ele>488</ele>
        <time>2012-03-25T14:06:16.000Z</time>
      </trkpt>
      <trkpt lat="47.23103" lon="4.59">
        <ele>488</ele>
        <time>2012-03-25T14:06:29.000Z</time>
      </trkpt>
      <trkpt lat="47.23106" lon="4.59004">
        <ele>488</ele>
        <time>2012-03-25T14:06:46.000Z</time>
      </trkpt>
      <trkpt lat="47.23104" lon="4.59011">
        <ele>486</ele>
        <time>2012-03-25T14:07:07.000Z</time>
      </trkpt>
      <trkpt lat="47.23099" lon="4.59015">
        <ele>485</ele>
        <time>2012-03-25T14:07:13.000Z</time>
      </trkpt>
      <trkpt lat="47.23095" lon="4.59018">
        <ele>485</ele>
        <time>2012-03-25T14:07:18.000Z</time>
      </trkpt>
      <trkpt lat="47.2309" lon="4.59021">
        <ele>485</ele>
        <time>2012-03-25T14:07:22.000Z</time>
      </trkpt>
      <trkpt lat="47.23086" lon="4.59025">
        <ele>484</ele>
        <time>2012-03-25T14:07:27.000Z</time>
      </trkpt>
      <trkpt lat="47.23082" lon="4.5903">
        <ele>484</ele>
        <time>2012-03-25T14:07:32.000Z</time>
      </trkpt>
      <trkpt lat="47.23078" lon="4.59034">
        <ele>484</ele>
        <time>2012-03-25T14:07:38.000Z</time>
      </trkpt>
      <trkpt lat="47.23074" lon="4.59037">
        <ele>484</ele>
        <time>2012-03-25T14:07:47.000Z</time>
      </trkpt>
      <trkpt lat="47.23068" lon="4.59038">
        <ele>484</ele>
        <time>2012-03-25T14:07:53.000Z</time>
      </trkpt>
      <trkpt lat="47.23063" lon="4.59038">
        <ele>484</ele>
        <time>2012-03-25T14:07:58.000Z</time>
      </trkpt>
      <trkpt lat="47.23059" lon="4.59042">
        <ele>483</ele>
        <time>2012-03-25T14:08:04.000Z</time>
      </trkpt>
      <trkpt lat="47.23056" lon="4.59048">
        <ele>483</ele>
        <time>2012-03-25T14:08:09.000Z</time>
      </trkpt>
      <trkpt lat="47.23054" lon="4.59053">
        <ele>482</ele>
        <time>2012-03-25T14:08:14.000Z</time>
      </trkpt>
      <trkpt lat="47.2305" lon="4.59058">
        <ele>481</ele>
        <time>2012-03-25T14:08:19.000Z</time>
      </trkpt>
      <trkpt lat="47.23045" lon="4.5906">
        <ele>479</ele>
        <time>2012-03-25T14:08:27.000Z</time>
      </trkpt>
      <trkpt lat="47.2304" lon="4.59058">
        <ele>478</ele>
        <time>2012-03-25T14:08:35.000Z</time>
      </trkpt>
      <trkpt lat="47.23036" lon="4.59055">
        <ele>479</ele>
        <time>2012-03-25T14:08:41.000Z</time>
      </trkpt>
      <trkpt lat="47.23032" lon="4.59052">
        <ele>480</ele>
        <time>2012-03-25T14:08:49.000Z</time>
      </trkpt>
      <trkpt lat="47.23032" lon="4.59059">
        <ele>480</ele>
        <time>2012-03-25T14:09:01.000Z</time>
      </trkpt>
      <trkpt lat="47.23031" lon="4.59066">
        <ele>480</ele>
        <time>2012-03-25T14:09:06.000Z</time>
      </trkpt>
      <trkpt lat="47.2303" lon="4.59073">
        <ele>480</ele>
        <time>2012-03-25T14:09:11.000Z</time>
      </trkpt>
      <trkpt lat="47.23028" lon="4.59081">
        <ele>480</ele>
        <time>2012-03-25T14:09:16.000Z</time>
      </trkpt>
      <trkpt lat="47.23027" lon="4.59088">
        <ele>480</ele>
        <time>2012-03-25T14:09:20.000Z</time>
      </trkpt>
      <trkpt lat="47.23027" lon="4.59095">
        <ele>480</ele>
        <time>2012-03-25T14:09:25.000Z</time>
      </trkpt>
      <trkpt lat="47.23025" lon="4.59102">
        <ele>480</ele>
        <time>2012-03-25T14:09:30.000Z</time>
      </trkpt>
      <trkpt lat="47.23023" lon="4.59108">
        <ele>479</ele>
        <time>2012-03-25T14:09:34.000Z</time>
      </trkpt>
      <trkpt lat="47.23021" lon="4.59114">
        <ele>479</ele>
        <time>2012-03-25T14:09:38.000Z</time>
      </trkpt>
      <trkpt lat="47.23018" lon="4.59119">
        <ele>479</ele>
        <time>2012-03-25T14:09:42.000Z</time>
      </trkpt>
      <trkpt lat="47.23015" lon="4.59125">
        <ele>479</ele>
        <time>2012-03-25T14:09:46.000Z</time>
      </trkpt>
      <trkpt lat="47.23012" lon="4.5913">
        <ele>479</ele>
        <time>2012-03-25T14:09:50.000Z</time>
      </trkpt>
      <trkpt lat="47.23009" lon="4.59136">
        <ele>478</ele>
        <time>2012-03-25T14:09:54.000Z</time>
      </trkpt>
      <trkpt lat="47.23006" lon="4.59143">
        <ele>478</ele>
        <time>2012-03-25T14:09:58.000Z</time>
      </trkpt>
      <trkpt lat="47.23003" lon="4.59148">
        <ele>477</ele>
        <time>2012-03-25T14:10:03.000Z</time>
      </trkpt>
      <trkpt lat="47.23" lon="4.59154">
        <ele>477</ele>
        <time>2012-03-25T14:10:08.000Z</time>
      </trkpt>
      <trkpt lat="47.22996" lon="4.59159">
        <ele>477</ele>
        <time>2012-03-25T14:10:13.000Z</time>
      </trkpt>
      <trkpt lat="47.22992" lon="4.59163">
        <ele>476</ele>
        <time>2012-03-25T14:10:17.000Z</time>
      </trkpt>
      <trkpt lat="47.22988" lon="4.59168">
        <ele>476</ele>
        <time>2012-03-25T14:10:21.000Z</time>
      </trkpt>
      <trkpt lat="47.22984" lon="4.59172">
        <ele>476</ele>
        <time>2012-03-25T14:10:25.000Z</time>
      </trkpt>
      <trkpt lat="47.22981" lon="4.59177">
        <ele>476</ele>
        <time>2012-03-25T14:10:29.000Z</time>
      </trkpt>
      <trkpt lat="47.22976" lon="4.5918">
        <ele>475</ele>
        <time>2012-03-25T14:10:33.000Z</time>
      </trkpt>
      <trkpt lat="47.22971" lon="4.59184">
        <ele>475</ele>
        <time>2012-03-25T14:10:37.000Z</time>
      </trkpt>
      <trkpt lat="47.22967" lon="4.59188">
        <ele>475</ele>
        <time>2012-03-25T14:10:41.000Z</time>
      </trkpt>
      <trkpt lat="47.22963" lon="4.59192">
        <ele>475</ele>
        <time>2012-03-25T14:10:45.000Z</time>
      </trkpt>
      <trkpt lat="47.22961" lon="4.59198">
        <ele>474</ele>
        <time>2012-03-25T14:10:49.000Z</time>
      </trkpt>
      <trkpt lat="47.22958" lon="4.59204">
        <ele>474</ele>
        <time>2012-03-25T14:10:53.000Z</time>
      </trkpt>
      <trkpt lat="47.22956" lon="4.59211">
        <ele>474</ele>
        <time>2012-03-25T14:10:57.000Z</time>
      </trkpt>
      <trkpt lat="47.22954" lon="4.59218">
        <ele>473</ele>
        <time>2012-03-25T14:11:01.000Z</time>
      </trkpt>
      <trkpt lat="47.22952" lon="4.59224">
        <ele>473</ele>
        <time>2012-03-25T14:11:06.000Z</time>
      </trkpt>
      <trkpt lat="47.22953" lon="4.59231">
        <ele>473</ele>
        <time>2012-03-25T14:11:14.000Z</time>
      </trkpt>
      <trkpt lat="47.2295" lon="4.59236">
        <ele>472</ele>
        <time>2012-03-25T14:11:19.000Z</time>
      </trkpt>
      <trkpt lat="47.22948" lon="4.59243">
        <ele>471</ele>
        <time>2012-03-25T14:11:23.000Z</time>
      </trkpt>
      <trkpt lat="47.22946" lon="4.5925">
        <ele>471</ele>
        <time>2012-03-25T14:11:27.000Z</time>
      </trkpt>
      <trkpt lat="47.22943" lon="4.59258">
        <ele>470</ele>
        <time>2012-03-25T14:11:31.000Z</time>
      </trkpt>
      <trkpt lat="47.22942" lon="4.59266">
        <ele>470</ele>
        <time>2012-03-25T14:11:35.000Z</time>
      </trkpt>
      <trkpt lat="47.22941" lon="4.59273">
        <ele>469</ele>
        <time>2012-03-25T14:11:39.000Z</time>
      </trkpt>
      <trkpt lat="47.22939" lon="4.5928">
        <ele>468</ele>
        <time>2012-03-25T14:11:43.000Z</time>
      </trkpt>
      <trkpt lat="47.22938" lon="4.59287">
        <ele>468</ele>
        <time>2012-03-25T14:11:47.000Z</time>
      </trkpt>
      <trkpt lat="47.22937" lon="4.59293">
        <ele>468</ele>
        <time>2012-03-25T14:11:51.000Z</time>
      </trkpt>
      <trkpt lat="47.22935" lon="4.59301">
        <ele>467</ele>
        <time>2012-03-25T14:11:56.000Z</time>
      </trkpt>
      <trkpt lat="47.22934" lon="4.59309">
        <ele>467</ele>
        <time>2012-03-25T14:12:00.000Z</time>
      </trkpt>
      <trkpt lat="47.22932" lon="4.59316">
        <ele>466</ele>
        <time>2012-03-25T14:12:05.000Z</time>
      </trkpt>
      <trkpt lat="47.22931" lon="4.59324">
        <ele>466</ele>
        <time>2012-03-25T14:12:10.000Z</time>
      </trkpt>
      <trkpt lat="47.22929" lon="4.59331">
        <ele>466</ele>
        <time>2012-03-25T14:12:14.000Z</time>
      </trkpt>
      <trkpt lat="47.22927" lon="4.59338">
        <ele>466</ele>
        <time>2012-03-25T14:12:18.000Z</time>
      </trkpt>
      <trkpt lat="47.22925" lon="4.59344">
        <ele>465</ele>
        <time>2012-03-25T14:12:22.000Z</time>
      </trkpt>
      <trkpt lat="47.22927" lon="4.59351">
        <ele>463</ele>
        <time>2012-03-25T14:12:39.000Z</time>
      </trkpt>
      <trkpt lat="47.22926" lon="4.59357">
        <ele>462</ele>
        <time>2012-03-25T14:12:51.000Z</time>
      </trkpt>
      <trkpt lat="47.22923" lon="4.59364">
        <ele>462</ele>
        <time>2012-03-25T14:12:56.000Z</time>
      </trkpt>
      <trkpt lat="47.22921" lon="4.5937">
        <ele>462</ele>
        <time>2012-03-25T14:13:00.000Z</time>
      </trkpt>
      <trkpt lat="47.22919" lon="4.59376">
        <ele>462</ele>
        <time>2012-03-25T14:13:04.000Z</time>
      </trkpt>
      <trkpt lat="47.22918" lon="4.59382">
        <ele>461</ele>
        <time>2012-03-25T14:13:08.000Z</time>
      </trkpt>
      <trkpt lat="47.22916" lon="4.59389">
        <ele>461</ele>
        <time>2012-03-25T14:13:12.000Z</time>
      </trkpt>
      <trkpt lat="47.22916" lon="4.59396">
        <ele>461</ele>
        <time>2012-03-25T14:13:16.000Z</time>
      </trkpt>
      <trkpt lat="47.22916" lon="4.59403">
        <ele>460</ele>
        <time>2012-03-25T14:13:20.000Z</time>
      </trkpt>
      <trkpt lat="47.22915" lon="4.59411">
        <ele>460</ele>
        <time>2012-03-25T14:13:24.000Z</time>
      </trkpt>
      <trkpt lat="47.22913" lon="4.59418">
        <ele>459</ele>
        <time>2012-03-25T14:13:28.000Z</time>
      </trkpt>
      <trkpt lat="47.22911" lon="4.59426">
        <ele>458</ele>
        <time>2012-03-25T14:13:32.000Z</time>
      </trkpt>
      <trkpt lat="47.22909" lon="4.59433">
        <ele>458</ele>
        <time>2012-03-25T14:13:36.000Z</time>
      </trkpt>
      <trkpt lat="47.22907" lon="4.59441">
        <ele>457</ele>
        <time>2012-03-25T14:13:40.000Z</time>
      </trkpt>
      <trkpt lat="47.22905" lon="4.59449">
        <ele>457</ele>
        <time>2012-03-25T14:13:44.000Z</time>
      </trkpt>
      <trkpt lat="47.22904" lon="4.59456">
        <ele>456</ele>
        <time>2012-03-25T14:13:48.000Z</time>
      </trkpt>
      <trkpt lat="47.22903" lon="4.59463">
        <ele>456</ele>
        <time>2012-03-25T14:13:52.000Z</time>
      </trkpt>
      <trkpt lat="47.229" lon="4.59469">
        <ele>455</ele>
        <time>2012-03-25T14:13:57.000Z</time>
      </trkpt>
      <trkpt lat="47.22898" lon="4.59475">
        <ele>454</ele>
        <time>2012-03-25T14:14:03.000Z</time>
      </trkpt>
      <trkpt lat="47.22895" lon="4.59482">
        <ele>454</ele>
        <time>2012-03-25T14:14:10.000Z</time>
      </trkpt>
      <trkpt lat="47.22893" lon="4.59489">
        <ele>453</ele>
        <time>2012-03-25T14:14:15.000Z</time>
      </trkpt>
      <trkpt lat="47.22892" lon="4.59496">
        <ele>453</ele>
        <time>2012-03-25T14:14:20.000Z</time>
      </trkpt>
      <trkpt lat="47.2289" lon="4.59503">
        <ele>452</ele>
        <time>2012-03-25T14:14:25.000Z</time>
      </trkpt>
      <trkpt lat="47.22889" lon="4.59511">
        <ele>452</ele>
        <time>2012-03-25T14:14:30.000Z</time>
      </trkpt>
      <trkpt lat="47.22887" lon="4.59517">
        <ele>452</ele>
        <time>2012-03-25T14:14:35.000Z</time>
      </trkpt>
      <trkpt lat="47.22886" lon="4.59525">
        <ele>451</ele>
        <time>2012-03-25T14:14:41.000Z</time>
      </trkpt>
      <trkpt lat="47.22885" lon="4.59532">
        <ele>451</ele>
        <time>2012-03-25T14:14:46.000Z</time>
      </trkpt>
      <trkpt lat="47.22883" lon="4.5954">
        <ele>451</ele>
        <time>2012-03-25T14:14:51.000Z</time>
      </trkpt>
      <trkpt lat="47.22882" lon="4.59547">
        <ele>450</ele>
        <time>2012-03-25T14:14:56.000Z</time>
      </trkpt>
      <trkpt lat="47.22881" lon="4.59554">
        <ele>450</ele>
        <time>2012-03-25T14:15:01.000Z</time>
      </trkpt>
      <trkpt lat="47.2288" lon="4.5956">
        <ele>450</ele>
        <time>2012-03-25T14:15:05.000Z</time>
      </trkpt>
      <trkpt lat="47.22878" lon="4.59567">
        <ele>449</ele>
        <time>2012-03-25T14:15:09.000Z</time>
      </trkpt>
      <trkpt lat="47.22876" lon="4.59573">
        <ele>449</ele>
        <time>2012-03-25T14:15:13.000Z</time>
      </trkpt>
      <trkpt lat="47.22874" lon="4.5958">
        <ele>449</ele>
        <time>2012-03-25T14:15:18.000Z</time>
      </trkpt>
      <trkpt lat="47.22872" lon="4.59586">
        <ele>448</ele>
        <time>2012-03-25T14:15:27.000Z</time>
      </trkpt>
      <trkpt lat="47.22869" lon="4.59593">
        <ele>448</ele>
        <time>2012-03-25T14:15:40.000Z</time>
      </trkpt>
      <trkpt lat="47.2287" lon="4.59601">
        <ele>448</ele>
        <time>2012-03-25T14:15:45.000Z</time>
      </trkpt>
      <trkpt lat="47.2287" lon="4.59609">
        <ele>447</ele>
        <time>2012-03-25T14:15:49.000Z</time>
      </trkpt>
      <trkpt lat="47.2287" lon="4.59616">
        <ele>447</ele>
        <time>2012-03-25T14:15:53.000Z</time>
      </trkpt>
      <trkpt lat="47.22869" lon="4.59623">
        <ele>447</ele>
        <time>2012-03-25T14:15:57.000Z</time>
      </trkpt>
      <trkpt lat="47.22869" lon="4.5963">
        <ele>447</ele>
        <time>2012-03-25T14:16:01.000Z</time>
      </trkpt>
      <trkpt lat="47.22869" lon="4.59637">
        <ele>447</ele>
        <time>2012-03-25T14:16:05.000Z</time>
      </trkpt>
      <trkpt lat="47.22868" lon="4.59643">
        <ele>447</ele>
        <time>2012-03-25T14:16:09.000Z</time>
      </trkpt>
      <trkpt lat="47.22867" lon="4.5965">
        <ele>447</ele>
        <time>2012-03-25T14:16:13.000Z</time>
      </trkpt>
      <trkpt lat="47.22866" lon="4.59657">
        <ele>447</ele>
        <time>2012-03-25T14:16:17.000Z</time>
      </trkpt>
      <trkpt lat="47.22865" lon="4.59664">
        <ele>447</ele>
        <time>2012-03-25T14:16:21.000Z</time>
      </trkpt>
      <trkpt lat="47.22865" lon="4.5967">
        <ele>447</ele>
        <time>2012-03-25T14:16:25.000Z</time>
      </trkpt>
      <trkpt lat="47.22864" lon="4.59678">
        <ele>447</ele>
        <time>2012-03-25T14:16:30.000Z</time>
      </trkpt>
      <trkpt lat="47.22863" lon="4.59685">
        <ele>447</ele>
        <time>2012-03-25T14:16:35.000Z</time>
      </trkpt>
      <trkpt lat="47.22862" lon="4.59693">
        <ele>445</ele>
        <time>2012-03-25T14:16:49.000Z</time>
      </trkpt>
      <trkpt lat="47.22861" lon="4.597">
        <ele>445</ele>
        <time>2012-03-25T14:16:54.000Z</time>
      </trkpt>
      <trkpt lat="47.2286" lon="4.59707">
        <ele>444</ele>
        <time>2012-03-25T14:16:59.000Z</time>
      </trkpt>
      <trkpt lat="47.22859" lon="4.59714">
        <ele>443</ele>
        <time>2012-03-25T14:17:03.000Z</time>
      </trkpt>
      <trkpt lat="47.2286" lon="4.59722">
        <ele>443</ele>
        <time>2012-03-25T14:17:07.000Z</time>
      </trkpt>
      <trkpt lat="47.2286" lon="4.59729">
        <ele>443</ele>
        <time>2012-03-25T14:17:11.000Z</time>
      </trkpt>
      <trkpt lat="47.2286" lon="4.59735">
        <ele>442</ele>
        <time>2012-03-25T14:17:15.000Z</time>
      </trkpt>
      <trkpt lat="47.2286" lon="4.59743">
        <ele>442</ele>
        <time>2012-03-25T14:17:20.000Z</time>
      </trkpt>
      <trkpt lat="47.22858" lon="4.59751">
        <ele>441</ele>
        <time>2012-03-25T14:17:25.000Z</time>
      </trkpt>
      <trkpt lat="47.22857" lon="4.59758">
        <ele>441</ele>
        <time>2012-03-25T14:17:30.000Z</time>
      </trkpt>
      <trkpt lat="47.22855" lon="4.59766">
        <ele>441</ele>
        <time>2012-03-25T14:17:35.000Z</time>
      </trkpt>
      <trkpt lat="47.22854" lon="4.59773">
        <ele>441</ele>
        <time>2012-03-25T14:17:40.000Z</time>
      </trkpt>
      <trkpt lat="47.22853" lon="4.59781">
        <ele>441</ele>
        <time>2012-03-25T14:17:46.000Z</time>
      </trkpt>
      <trkpt lat="47.22852" lon="4.59789">
        <ele>440</ele>
        <time>2012-03-25T14:17:51.000Z</time>
      </trkpt>
      <trkpt lat="47.22851" lon="4.59796">
        <ele>440</ele>
        <time>2012-03-25T14:17:55.000Z</time>
      </trkpt>
      <trkpt lat="47.22849" lon="4.59805">
        <ele>440</ele>
        <time>2012-03-25T14:17:59.000Z</time>
      </trkpt>
      <trkpt lat="47.22849" lon="4.59812">
        <ele>439</ele>
        <time>2012-03-25T14:18:08.000Z</time>
      </trkpt>
      <trkpt lat="47.22849" lon="4.59819">
        <ele>439</ele>
        <time>2012-03-25T14:18:14.000Z</time>
      </trkpt>
      <trkpt lat="47.22848" lon="4.59826">
        <ele>438</ele>
        <time>2012-03-25T14:18:19.000Z</time>
      </trkpt>
      <trkpt lat="47.22848" lon="4.59833">
        <ele>438</ele>
        <time>2012-03-25T14:18:24.000Z</time>
      </trkpt>
      <trkpt lat="47.22847" lon="4.59841">
        <ele>438</ele>
        <time>2012-03-25T14:18:29.000Z</time>
      </trkpt>
      <trkpt lat="47.22847" lon="4.59849">
        <ele>437</ele>
        <time>2012-03-25T14:18:34.000Z</time>
      </trkpt>
      <trkpt lat="47.22846" lon="4.59856">
        <ele>437</ele>
        <time>2012-03-25T14:18:39.000Z</time>
      </trkpt>
      <trkpt lat="47.22845" lon="4.59864">
        <ele>437</ele>
        <time>2012-03-25T14:18:44.000Z</time>
      </trkpt>
      <trkpt lat="47.22845" lon="4.59872">
        <ele>437</ele>
        <time>2012-03-25T14:18:49.000Z</time>
      </trkpt>
      <trkpt lat="47.22844" lon="4.59879">
        <ele>437</ele>
        <time>2012-03-25T14:18:54.000Z</time>
      </trkpt>
      <trkpt lat="47.22844" lon="4.59886">
        <ele>436</ele>
        <time>2012-03-25T14:18:59.000Z</time>
      </trkpt>
      <trkpt lat="47.22843" lon="4.59894">
        <ele>436</ele>
        <time>2012-03-25T14:19:04.000Z</time>
      </trkpt>
      <trkpt lat="47.22842" lon="4.59901">
        <ele>436</ele>
        <time>2012-03-25T14:19:08.000Z</time>
      </trkpt>
      <trkpt lat="47.22842" lon="4.59908">
        <ele>436</ele>
        <time>2012-03-25T14:19:12.000Z</time>
      </trkpt>
      <trkpt lat="47.22841" lon="4.59915">
        <ele>436</ele>
        <time>2012-03-25T14:19:16.000Z</time>
      </trkpt>
      <trkpt lat="47.2284" lon="4.59923">
        <ele>436</ele>
        <time>2012-03-25T14:19:20.000Z</time>
      </trkpt>
      <trkpt lat="47.2284" lon="4.5993">
        <ele>436</ele>
        <time>2012-03-25T14:19:24.000Z</time>
      </trkpt>
      <trkpt lat="47.22839" lon="4.59936">
        <ele>436</ele>
        <time>2012-03-25T14:19:28.000Z</time>
      </trkpt>
      <trkpt lat="47.22838" lon="4.59943">
        <ele>436</ele>
        <time>2012-03-25T14:19:32.000Z</time>
      </trkpt>
      <trkpt lat="47.22836" lon="4.5995">
        <ele>436</ele>
        <time>2012-03-25T14:19:36.000Z</time>
      </trkpt>
      <trkpt lat="47.22835" lon="4.59956">
        <ele>436</ele>
        <time>2012-03-25T14:19:40.000Z</time>
      </trkpt>
      <trkpt lat="47.22833" lon="4.59964">
        <ele>436</ele>
        <time>2012-03-25T14:19:45.000Z</time>
      </trkpt>
      <trkpt lat="47.22832" lon="4.59971">
        <ele>436</ele>
        <time>2012-03-25T14:19:50.000Z</time>
      </trkpt>
      <trkpt lat="47.22831" lon="4.59979">
        <ele>436</ele>
        <time>2012-03-25T14:19:55.000Z</time>
      </trkpt>
      <trkpt lat="47.2283" lon="4.59986">
        <ele>436</ele>
        <time>2012-03-25T14:19:59.000Z</time>
      </trkpt>
      <trkpt lat="47.22828" lon="4.59993">
        <ele>436</ele>
        <time>2012-03-25T14:20:03.000Z</time>
      </trkpt>
      <trkpt lat="47.22827" lon="4.6">
        <ele>436</ele>
        <time>2012-03-25T14:20:07.000Z</time>
      </trkpt>
      <trkpt lat="47.22823" lon="4.60005">
        <ele>436</ele>
        <time>2012-03-25T14:20:12.000Z</time>
      </trkpt>
      <trkpt lat="47.22823" lon="4.60012">
        <ele>437</ele>
        <time>2012-03-25T14:20:28.000Z</time>
      </trkpt>
      <trkpt lat="47.22822" lon="4.60021">
        <ele>437</ele>
        <time>2012-03-25T14:20:32.000Z</time>
      </trkpt>
      <trkpt lat="47.22822" lon="4.60028">
        <ele>437</ele>
        <time>2012-03-25T14:20:35.000Z</time>
      </trkpt>
      <trkpt lat="47.22822" lon="4.60037">
        <ele>437</ele>
        <time>2012-03-25T14:20:39.000Z</time>
      </trkpt>
      <trkpt lat="47.22822" lon="4.60045">
        <ele>437</ele>
        <time>2012-03-25T14:20:44.000Z</time>
      </trkpt>
      <trkpt lat="47.22822" lon="4.60052">
        <ele>437</ele>
        <time>2012-03-25T14:20:51.000Z</time>
      </trkpt>
      <trkpt lat="47.22821" lon="4.60058">
        <ele>437</ele>
        <time>2012-03-25T14:20:59.000Z</time>
      </trkpt>
      <trkpt lat="47.22821" lon="4.60066">
        <ele>437</ele>
        <time>2012-03-25T14:21:05.000Z</time>
      </trkpt>
      <trkpt lat="47.22821" lon="4.60073">
        <ele>437</ele>
        <time>2012-03-25T14:21:11.000Z</time>
      </trkpt>
      <trkpt lat="47.22821" lon="4.6008">
        <ele>437</ele>
        <time>2012-03-25T14:21:16.999Z</time>
      </trkpt>
      <trkpt lat="47.2282" lon="4.60087">
        <ele>437</ele>
        <time>2012-03-25T14:21:22.999Z</time>
      </trkpt>
      <trkpt lat="47.2282" lon="4.60095">
        <ele>437</ele>
        <time>2012-03-25T14:21:27.999Z</time>
      </trkpt>
      <trkpt lat="47.22819" lon="4.60102">
        <ele>437</ele>
        <time>2012-03-25T14:21:31.999Z</time>
      </trkpt>
      <trkpt lat="47.22818" lon="4.6011">
        <ele>437</ele>
        <time>2012-03-25T14:21:35.999Z</time>
      </trkpt>
      <trkpt lat="47.22817" lon="4.60118">
        <ele>437</ele>
        <time>2012-03-25T14:21:39.999Z</time>
      </trkpt>
      <trkpt lat="47.22816" lon="4.60125">
        <ele>436</ele>
        <time>2012-03-25T14:21:43.999Z</time>
      </trkpt>
      <trkpt lat="47.22816" lon="4.60133">
        <ele>436</ele>
        <time>2012-03-25T14:21:48.999Z</time>
      </trkpt>
      <trkpt lat="47.22815" lon="4.6014">
        <ele>436</ele>
        <time>2012-03-25T14:21:54.999Z</time>
      </trkpt>
      <trkpt lat="47.22814" lon="4.60147">
        <ele>436</ele>
        <time>2012-03-25T14:22:00.999Z</time>
      </trkpt>
      <trkpt lat="47.22811" lon="4.60151">
        <ele>436</ele>
        <time>2012-03-25T14:22:09.999Z</time>
      </trkpt>
      <trkpt lat="47.22807" lon="4.60156">
        <ele>436</ele>
        <time>2012-03-25T14:22:15.999Z</time>
      </trkpt>
      <trkpt lat="47.22805" lon="4.60162">
        <ele>436</ele>
        <time>2012-03-25T14:22:20.999Z</time>
      </trkpt>
      <trkpt lat="47.22804" lon="4.60169">
        <ele>436</ele>
        <time>2012-03-25T14:22:25.999Z</time>
      </trkpt>
      <trkpt lat="47.22802" lon="4.60175">
        <ele>436</ele>
        <time>2012-03-25T14:22:29.999Z</time>
      </trkpt>
      <trkpt lat="47.228" lon="4.60183">
        <ele>436</ele>
        <time>2012-03-25T14:22:33.999Z</time>
      </trkpt>
      <trkpt lat="47.22798" lon="4.60189">
        <ele>436</ele>
        <time>2012-03-25T14:22:37.999Z</time>
      </trkpt>
      <trkpt lat="47.22796" lon="4.60195">
        <ele>436</ele>
        <time>2012-03-25T14:22:41.999Z</time>
      </trkpt>
      <trkpt lat="47.22794" lon="4.60201">
        <ele>436</ele>
        <time>2012-03-25T14:22:45.999Z</time>
      </trkpt>
      <trkpt lat="47.22792" lon="4.60208">
        <ele>436</ele>
        <time>2012-03-25T14:22:49.999Z</time>
      </trkpt>
      <trkpt lat="47.22789" lon="4.60214">
        <ele>436</ele>
        <time>2012-03-25T14:22:53.999Z</time>
      </trkpt>
      <trkpt lat="47.22787" lon="4.6022">
        <ele>436</ele>
        <time>2012-03-25T14:22:58.999Z</time>
      </trkpt>
      <trkpt lat="47.22784" lon="4.60225">
        <ele>436</ele>
        <time>2012-03-25T14:23:03.999Z</time>
      </trkpt>
      <trkpt lat="47.22782" lon="4.60232">
        <ele>435</ele>
        <time>2012-03-25T14:23:09.999Z</time>
      </trkpt>
      <trkpt lat="47.22778" lon="4.60237">
        <ele>435</ele>
        <time>2012-03-25T14:23:14.999Z</time>
      </trkpt>
      <trkpt lat="47.22775" lon="4.60243">
        <ele>435</ele>
        <time>2012-03-25T14:23:19.999Z</time>
      </trkpt>
      <trkpt lat="47.22772" lon="4.60249">
        <ele>435</ele>
        <time>2012-03-25T14:23:24.999Z</time>
      </trkpt>
      <trkpt lat="47.22768" lon="4.60255">
        <ele>435</ele>
        <time>2012-03-25T14:23:29.999Z</time>
      </trkpt>
      <trkpt lat="47.22764" lon="4.6026">
        <ele>435</ele>
        <time>2012-03-25T14:23:34.999Z</time>
      </trkpt>
      <trkpt lat="47.22761" lon="4.60266">
        <ele>435</ele>
        <time>2012-03-25T14:23:39.999Z</time>
      </trkpt>
      <trkpt lat="47.22757" lon="4.60271">
        <ele>435</ele>
        <time>2012-03-25T14:23:43.999Z</time>
      </trkpt>
      <trkpt lat="47.22754" lon="4.60276">
        <ele>435</ele>
        <time>2012-03-25T14:23:47.999Z</time>
      </trkpt>
      <trkpt lat="47.2275" lon="4.6028">
        <ele>435</ele>
        <time>2012-03-25T14:23:51.999Z</time>
      </trkpt>
      <trkpt lat="47.22746" lon="4.60284">
        <ele>435</ele>
        <time>2012-03-25T14:23:55.999Z</time>
      </trkpt>
      <trkpt lat="47.22741" lon="4.60281">
        <ele>435</ele>
        <time>2012-03-25T14:24:03.999Z</time>
      </trkpt>
      <trkpt lat="47.22736" lon="4.60282">
        <ele>435</ele>
        <time>2012-03-25T14:24:12.999Z</time>
      </trkpt>
      <trkpt lat="47.22732" lon="4.60287">
        <ele>435</ele>
        <time>2012-03-25T14:24:18.999Z</time>
      </trkpt>
      <trkpt lat="47.22728" lon="4.6029">
        <ele>435</ele>
        <time>2012-03-25T14:24:23.999Z</time>
      </trkpt>
      <trkpt lat="47.22724" lon="4.60295">
        <ele>435</ele>
        <time>2012-03-25T14:24:28.999Z</time>
      </trkpt>
      <trkpt lat="47.2272" lon="4.603">
        <ele>435</ele>
        <time>2012-03-25T14:24:32.999Z</time>
      </trkpt>
      <trkpt lat="47.22717" lon="4.60305">
        <ele>435</ele>
        <time>2012-03-25T14:24:36.999Z</time>
      </trkpt>
      <trkpt lat="47.22714" lon="4.6031">
        <ele>435</ele>
        <time>2012-03-25T14:24:40.999Z</time>
      </trkpt>
      <trkpt lat="47.2271" lon="4.60316">
        <ele>435</ele>
        <time>2012-03-25T14:24:45.999Z</time>
      </trkpt>
      <trkpt lat="47.22706" lon="4.60322">
        <ele>435</ele>
        <time>2012-03-25T14:24:50.999Z</time>
      </trkpt>
      <trkpt lat="47.22703" lon="4.60326">
        <ele>435</ele>
        <time>2012-03-25T14:24:54.999Z</time>
      </trkpt>
      <trkpt lat="47.22699" lon="4.60332">
        <ele>435</ele>
        <time>2012-03-25T14:24:59.999Z</time>
      </trkpt>
      <trkpt lat="47.22695" lon="4.60336">
        <ele>435</ele>
        <time>2012-03-25T14:25:04.999Z</time>
      </trkpt>
      <trkpt lat="47.22691" lon="4.6034">
        <ele>435</ele>
        <time>2012-03-25T14:25:12.999Z</time>
      </trkpt>
      <trkpt lat="47.22688" lon="4.60345">
        <ele>435</ele>
        <time>2012-03-25T14:25:19.999Z</time>
      </trkpt>
      <trkpt lat="47.22685" lon="4.6035">
        <ele>435</ele>
        <time>2012-03-25T14:25:23.999Z</time>
      </trkpt>
      <trkpt lat="47.22681" lon="4.60356">
        <ele>435</ele>
        <time>2012-03-25T14:25:28.999Z</time>
      </trkpt>
      <trkpt lat="47.22678" lon="4.60361">
        <ele>435</ele>
        <time>2012-03-25T14:25:33.999Z</time>
      </trkpt>
      <trkpt lat="47.22675" lon="4.60366">
        <ele>435</ele>
        <time>2012-03-25T14:25:38.999Z</time>
      </trkpt>
      <trkpt lat="47.22671" lon="4.60371">
        <ele>435</ele>
        <time>2012-03-25T14:25:51.999Z</time>
      </trkpt>
      <trkpt lat="47.22666" lon="4.60376">
        <ele>435</ele>
        <time>2012-03-25T14:25:55.999Z</time>
      </trkpt>
      <trkpt lat="47.22661" lon="4.6038">
        <ele>435</ele>
        <time>2012-03-25T14:25:59.999Z</time>
      </trkpt>
      <trkpt lat="47.22658" lon="4.60384">
        <ele>435</ele>
        <time>2012-03-25T14:26:03.999Z</time>
      </trkpt>
      <trkpt lat="47.22653" lon="4.60388">
        <ele>435</ele>
        <time>2012-03-25T14:26:08.999Z</time>
      </trkpt>
      <trkpt lat="47.22648" lon="4.60392">
        <ele>435</ele>
        <time>2012-03-25T14:26:13.999Z</time>
      </trkpt>
      <trkpt lat="47.22644" lon="4.60396">
        <ele>435</ele>
        <time>2012-03-25T14:26:18.999Z</time>
      </trkpt>
      <trkpt lat="47.2264" lon="4.60401">
        <ele>435</ele>
        <time>2012-03-25T14:26:23.999Z</time>
      </trkpt>
      <trkpt lat="47.22636" lon="4.60406">
        <ele>435</ele>
        <time>2012-03-25T14:26:28.999Z</time>
      </trkpt>
      <trkpt lat="47.22634" lon="4.60413">
        <ele>435</ele>
        <time>2012-03-25T14:26:34.999Z</time>
      </trkpt>
      <trkpt lat="47.22594" lon="4.60426">
        <ele>459</ele>
        <time>2012-03-25T14:26:43.834Z</time>
      </trkpt>
      <trkpt lat="47.22594" lon="4.60426">
        <ele>459</ele>
        <time>2012-03-25T14:26:43.834Z</time>
      </trkpt>
      <trkpt lat="47.22594" lon="4.60426">
        <ele>459</ele>
        <time>2012-03-25T14:26:57.000Z</time>
      </trkpt>
      <trkpt lat="47.22598" lon="4.60434">
        <ele>448</ele>
        <time>2012-03-25T14:26:58.000Z</time>
      </trkpt>
      <trkpt lat="47.22598" lon="4.60434">
        <ele>448</ele>
        <time>2012-03-25T14:26:58.000Z</time>
      </trkpt>
      <trkpt lat="47.22598" lon="4.60434">
        <ele>448</ele>
        <time>2012-03-25T14:27:01.000Z</time>
      </trkpt>
      <trkpt lat="47.22599" lon="4.60441">
        <ele>447</ele>
        <time>2012-03-25T14:27:02.000Z</time>
      </trkpt>
      <trkpt lat="47.22599" lon="4.60441">
        <ele>447</ele>
        <time>2012-03-25T14:27:02.000Z</time>
      </trkpt>
      <trkpt lat="47.22599" lon="4.60441">
        <ele>447</ele>
        <time>2012-03-25T14:27:03.000Z</time>
      </trkpt>
      <trkpt lat="47.22597" lon="4.60448">
        <ele>445</ele>
        <time>2012-03-25T14:27:08.000Z</time>
      </trkpt>
      <trkpt lat="47.22592" lon="4.6045">
        <ele>440</ele>
        <time>2012-03-25T14:27:24.000Z</time>
      </trkpt>
      <trkpt lat="47.22587" lon="4.60454">
        <ele>440</ele>
        <time>2012-03-25T14:27:28.000Z</time>
      </trkpt>
      <trkpt lat="47.22584" lon="4.6046">
        <ele>440</ele>
        <time>2012-03-25T14:27:32.000Z</time>
      </trkpt>
      <trkpt lat="47.22581" lon="4.60466">
        <ele>439</ele>
        <time>2012-03-25T14:27:36.000Z</time>
      </trkpt>
      <trkpt lat="47.22578" lon="4.60471">
        <ele>439</ele>
        <time>2012-03-25T14:27:40.000Z</time>
      </trkpt>
      <trkpt lat="47.22575" lon="4.60476">
        <ele>439</ele>
        <time>2012-03-25T14:27:44.000Z</time>
      </trkpt>
      <trkpt lat="47.22572" lon="4.60482">
        <ele>438</ele>
        <time>2012-03-25T14:27:49.000Z</time>
      </trkpt>
      <trkpt lat="47.22568" lon="4.60488">
        <ele>438</ele>
        <time>2012-03-25T14:27:54.000Z</time>
      </trkpt>
      <trkpt lat="47.22565" lon="4.60494">
        <ele>438</ele>
        <time>2012-03-25T14:27:59.000Z</time>
      </trkpt>
      <trkpt lat="47.22561" lon="4.60499">
        <ele>437</ele>
        <time>2012-03-25T14:28:04.000Z</time>
      </trkpt>
      <trkpt lat="47.22557" lon="4.60504">
        <ele>437</ele>
        <time>2012-03-25T14:28:09.000Z</time>
      </trkpt>
      <trkpt lat="47.22553" lon="4.60509">
        <ele>437</ele>
        <time>2012-03-25T14:28:14.000Z</time>
      </trkpt>
      <trkpt lat="47.22549" lon="4.60514">
        <ele>436</ele>
        <time>2012-03-25T14:28:18.000Z</time>
      </trkpt>
      <trkpt lat="47.22545" lon="4.60518">
        <ele>436</ele>
        <time>2012-03-25T14:28:22.000Z</time>
      </trkpt>
      <trkpt lat="47.22541" lon="4.60522">
        <ele>436</ele>
        <time>2012-03-25T14:28:27.000Z</time>
      </trkpt>
      <trkpt lat="47.22536" lon="4.60526">
        <ele>436</ele>
        <time>2012-03-25T14:28:32.000Z</time>
      </trkpt>
      <trkpt lat="47.22532" lon="4.6053">
        <ele>436</ele>
        <time>2012-03-25T14:28:37.000Z</time>
      </trkpt>
      <trkpt lat="47.22528" lon="4.60533">
        <ele>436</ele>
        <time>2012-03-25T14:28:41.000Z</time>
      </trkpt>
      <trkpt lat="47.22523" lon="4.60536">
        <ele>436</ele>
        <time>2012-03-25T14:28:45.000Z</time>
      </trkpt>
      <trkpt lat="47.22518" lon="4.60539">
        <ele>436</ele>
        <time>2012-03-25T14:28:50.000Z</time>
      </trkpt>
      <trkpt lat="47.22513" lon="4.60542">
        <ele>436</ele>
        <time>2012-03-25T14:28:55.000Z</time>
      </trkpt>
      <trkpt lat="47.22509" lon="4.60546">
        <ele>436</ele>
        <time>2012-03-25T14:29:00.000Z</time>
      </trkpt>
      <trkpt lat="47.22504" lon="4.60549">
        <ele>436</ele>
        <time>2012-03-25T14:29:05.000Z</time>
      </trkpt>
      <trkpt lat="47.22499" lon="4.60553">
        <ele>436</ele>
        <time>2012-03-25T14:29:10.000Z</time>
      </trkpt>
      <trkpt lat="47.22494" lon="4.60557">
        <ele>436</ele>
        <time>2012-03-25T14:29:15.000Z</time>
      </trkpt>
      <trkpt lat="47.2249" lon="4.6056">
        <ele>435</ele>
        <time>2012-03-25T14:29:19.000Z</time>
      </trkpt>
      <trkpt lat="47.22486" lon="4.60562">
        <ele>435</ele>
        <time>2012-03-25T14:29:23.000Z</time>
      </trkpt>
      <trkpt lat="47.22481" lon="4.60565">
        <ele>435</ele>
        <time>2012-03-25T14:29:28.000Z</time>
      </trkpt>
      <trkpt lat="47.22478" lon="4.6057">
        <ele>433</ele>
        <time>2012-03-25T14:29:38.000Z</time>
      </trkpt>
      <trkpt lat="47.22482" lon="4.60572">
        <ele>432</ele>
        <time>2012-03-25T14:29:44.000Z</time>
      </trkpt>
      <trkpt lat="47.22487" lon="4.60573">
        <ele>431</ele>
        <time>2012-03-25T14:29:52.000Z</time>
      </trkpt>
      <trkpt lat="47.22484" lon="4.6058">
        <ele>429</ele>
        <time>2012-03-25T14:29:59.000Z</time>
      </trkpt>
      <trkpt lat="47.22479" lon="4.60584">
        <ele>428</ele>
        <time>2012-03-25T14:30:05.000Z</time>
      </trkpt>
      <trkpt lat="47.22475" lon="4.60588">
        <ele>428</ele>
        <time>2012-03-25T14:30:09.000Z</time>
      </trkpt>
      <trkpt lat="47.22471" lon="4.60591">
        <ele>427</ele>
        <time>2012-03-25T14:30:13.000Z</time>
      </trkpt>
      <trkpt lat="47.22466" lon="4.60595">
        <ele>427</ele>
        <time>2012-03-25T14:30:17.000Z</time>
      </trkpt>
      <trkpt lat="47.22462" lon="4.60598">
        <ele>426</ele>
        <time>2012-03-25T14:30:21.000Z</time>
      </trkpt>
      <trkpt lat="47.22458" lon="4.60601">
        <ele>426</ele>
        <time>2012-03-25T14:30:25.000Z</time>
      </trkpt>
      <trkpt lat="47.22453" lon="4.60604">
        <ele>425</ele>
        <time>2012-03-25T14:30:29.000Z</time>
      </trkpt>
      <trkpt lat="47.22448" lon="4.60604">
        <ele>424</ele>
        <time>2012-03-25T14:30:41.000Z</time>
      </trkpt>
      <trkpt lat="47.22443" lon="4.60606">
        <ele>424</ele>
        <time>2012-03-25T14:30:47.000Z</time>
      </trkpt>
      <trkpt lat="47.22439" lon="4.6061">
        <ele>423</ele>
        <time>2012-03-25T14:30:52.000Z</time>
      </trkpt>
      <trkpt lat="47.22434" lon="4.60614">
        <ele>423</ele>
        <time>2012-03-25T14:30:57.000Z</time>
      </trkpt>
      <trkpt lat="47.22428" lon="4.60616">
        <ele>422</ele>
        <time>2012-03-25T14:31:01.000Z</time>
      </trkpt>
      <trkpt lat="47.22423" lon="4.6062">
        <ele>422</ele>
        <time>2012-03-25T14:31:05.000Z</time>
      </trkpt>
      <trkpt lat="47.22418" lon="4.60624">
        <ele>422</ele>
        <time>2012-03-25T14:31:09.000Z</time>
      </trkpt>
      <trkpt lat="47.22414" lon="4.60628">
        <ele>421</ele>
        <time>2012-03-25T14:31:13.000Z</time>
      </trkpt>
      <trkpt lat="47.2241" lon="4.60632">
        <ele>421</ele>
        <time>2012-03-25T14:31:17.000Z</time>
      </trkpt>
      <trkpt lat="47.22406" lon="4.60636">
        <ele>421</ele>
        <time>2012-03-25T14:31:21.000Z</time>
      </trkpt>
      <trkpt lat="47.22402" lon="4.6064">
        <ele>421</ele>
        <time>2012-03-25T14:31:25.000Z</time>
      </trkpt>
      <trkpt lat="47.22398" lon="4.60645">
        <ele>421</ele>
        <time>2012-03-25T14:31:29.000Z</time>
      </trkpt>
      <trkpt lat="47.22394" lon="4.60651">
        <ele>421</ele>
        <time>2012-03-25T14:31:33.000Z</time>
      </trkpt>
      <trkpt lat="47.2239" lon="4.60656">
        <ele>421</ele>
        <time>2012-03-25T14:31:37.000Z</time>
      </trkpt>
      <trkpt lat="47.22386" lon="4.60662">
        <ele>421</ele>
        <time>2012-03-25T14:31:41.000Z</time>
      </trkpt>
      <trkpt lat="47.22383" lon="4.60666">
        <ele>421</ele>
        <time>2012-03-25T14:31:45.000Z</time>
      </trkpt>
      <trkpt lat="47.22379" lon="4.60671">
        <ele>421</ele>
        <time>2012-03-25T14:31:49.000Z</time>
      </trkpt>
      <trkpt lat="47.22374" lon="4.60676">
        <ele>421</ele>
        <time>2012-03-25T14:31:53.000Z</time>
      </trkpt>
      <trkpt lat="47.22371" lon="4.6068">
        <ele>422</ele>
        <time>2012-03-25T14:31:57.000Z</time>
      </trkpt>
      <trkpt lat="47.22368" lon="4.60685">
        <ele>422</ele>
        <time>2012-03-25T14:32:01.000Z</time>
      </trkpt>
      <trkpt lat="47.22365" lon="4.6069">
        <ele>422</ele>
        <time>2012-03-25T14:32:05.000Z</time>
      </trkpt>
      <trkpt lat="47.22362" lon="4.60696">
        <ele>422</ele>
        <time>2012-03-25T14:32:09.000Z</time>
      </trkpt>
      <trkpt lat="47.22359" lon="4.60702">
        <ele>422</ele>
        <time>2012-03-25T14:32:14.000Z</time>
      </trkpt>
      <trkpt lat="47.22355" lon="4.60708">
        <ele>423</ele>
        <time>2012-03-25T14:32:19.000Z</time>
      </trkpt>
      <trkpt lat="47.22352" lon="4.60714">
        <ele>423</ele>
        <time>2012-03-25T14:32:24.000Z</time>
      </trkpt>
      <trkpt lat="47.22349" lon="4.60721">
        <ele>423</ele>
        <time>2012-03-25T14:32:29.000Z</time>
      </trkpt>
      <trkpt lat="47.22346" lon="4.60728">
        <ele>423</ele>
        <time>2012-03-25T14:32:34.000Z</time>
      </trkpt>
      <trkpt lat="47.22343" lon="4.60734">
        <ele>423</ele>
        <time>2012-03-25T14:32:38.000Z</time>
      </trkpt>
      <trkpt lat="47.22341" lon="4.60741">
        <ele>423</ele>
        <time>2012-03-25T14:32:42.000Z</time>
      </trkpt>
      <trkpt lat="47.22339" lon="4.60747">
        <ele>423</ele>
        <time>2012-03-25T14:32:48.000Z</time>
      </trkpt>
      <trkpt lat="47.22336" lon="4.60753">
        <ele>423</ele>
        <time>2012-03-25T14:32:53.000Z</time>
      </trkpt>
      <trkpt lat="47.22334" lon="4.60759">
        <ele>423</ele>
        <time>2012-03-25T14:32:58.000Z</time>
      </trkpt>
      <trkpt lat="47.2233" lon="4.60765">
        <ele>423</ele>
        <time>2012-03-25T14:33:03.000Z</time>
      </trkpt>
      <trkpt lat="47.22327" lon="4.60771">
        <ele>423</ele>
        <time>2012-03-25T14:33:07.000Z</time>
      </trkpt>
      <trkpt lat="47.22324" lon="4.60776">
        <ele>423</ele>
        <time>2012-03-25T14:33:11.000Z</time>
      </trkpt>
      <trkpt lat="47.22322" lon="4.60781">
        <ele>423</ele>
        <time>2012-03-25T14:33:15.000Z</time>
      </trkpt>
      <trkpt lat="47.22318" lon="4.60786">
        <ele>423</ele>
        <time>2012-03-25T14:33:19.000Z</time>
      </trkpt>
      <trkpt lat="47.22314" lon="4.60791">
        <ele>423</ele>
        <time>2012-03-25T14:33:23.000Z</time>
      </trkpt>
      <trkpt lat="47.22311" lon="4.60796">
        <ele>423</ele>
        <time>2012-03-25T14:33:27.000Z</time>
      </trkpt>
      <trkpt lat="47.22307" lon="4.608">
        <ele>423</ele>
        <time>2012-03-25T14:33:31.000Z</time>
      </trkpt>
      <trkpt lat="47.22303" lon="4.60806">
        <ele>423</ele>
        <time>2012-03-25T14:33:36.000Z</time>
      </trkpt>
      <trkpt lat="47.22299" lon="4.60811">
        <ele>424</ele>
        <time>2012-03-25T14:33:41.000Z</time>
      </trkpt>
      <trkpt lat="47.22295" lon="4.60816">
        <ele>424</ele>
        <time>2012-03-25T14:33:45.000Z</time>
      </trkpt>
      <trkpt lat="47.2229" lon="4.6082">
        <ele>424</ele>
        <time>2012-03-25T14:33:49.000Z</time>
      </trkpt>
      <trkpt lat="47.22286" lon="4.60823">
        <ele>424</ele>
        <time>2012-03-25T14:33:53.000Z</time>
      </trkpt>
      <trkpt lat="47.22281" lon="4.60825">
        <ele>424</ele>
        <time>2012-03-25T14:33:57.000Z</time>
      </trkpt>
      <trkpt lat="47.22264" lon="4.60812">
        <ele>424</ele>
        <time>2012-03-25T14:33:58.000Z</time>
      </trkpt>
      <trkpt lat="47.22264" lon="4.60819">
        <ele>423</ele>
        <time>2012-03-25T14:34:04.000Z</time>
      </trkpt>
      <trkpt lat="47.22261" lon="4.60824">
        <ele>424</ele>
        <time>2012-03-25T14:34:09.000Z</time>
      </trkpt>
      <trkpt lat="47.22257" lon="4.60828">
        <ele>424</ele>
        <time>2012-03-25T14:34:14.000Z</time>
      </trkpt>
      <trkpt lat="47.22252" lon="4.60832">
        <ele>424</ele>
        <time>2012-03-25T14:34:19.000Z</time>
      </trkpt>
      <trkpt lat="47.22247" lon="4.60834">
        <ele>424</ele>
        <time>2012-03-25T14:34:23.000Z</time>
      </trkpt>
      <trkpt lat="47.22242" lon="4.60836">
        <ele>424</ele>
        <time>2012-03-25T14:34:27.000Z</time>
      </trkpt>
      <trkpt lat="47.22237" lon="4.60837">
        <ele>425</ele>
        <time>2012-03-25T14:34:31.000Z</time>
      </trkpt>
      <trkpt lat="47.22233" lon="4.60839">
        <ele>425</ele>
        <time>2012-03-25T14:34:35.000Z</time>
      </trkpt>
      <trkpt lat="47.22227" lon="4.60841">
        <ele>425</ele>
        <time>2012-03-25T14:34:40.000Z</time>
      </trkpt>
      <trkpt lat="47.22222" lon="4.60843">
        <ele>426</ele>
        <time>2012-03-25T14:34:45.000Z</time>
      </trkpt>
      <trkpt lat="47.22217" lon="4.60844">
        <ele>426</ele>
        <time>2012-03-25T14:34:49.000Z</time>
      </trkpt>
      <trkpt lat="47.22212" lon="4.60846">
        <ele>426</ele>
        <time>2012-03-25T14:34:53.000Z</time>
      </trkpt>
      <trkpt lat="47.22208" lon="4.60847">
        <ele>426</ele>
        <time>2012-03-25T14:34:57.000Z</time>
      </trkpt>
      <trkpt lat="47.22203" lon="4.60849">
        <ele>426</ele>
        <time>2012-03-25T14:35:01.000Z</time>
      </trkpt>
      <trkpt lat="47.22198" lon="4.60852">
        <ele>426</ele>
        <time>2012-03-25T14:35:05.000Z</time>
      </trkpt>
      <trkpt lat="47.22194" lon="4.60854">
        <ele>426</ele>
        <time>2012-03-25T14:35:09.000Z</time>
      </trkpt>
      <trkpt lat="47.22189" lon="4.60858">
        <ele>426</ele>
        <time>2012-03-25T14:35:14.000Z</time>
      </trkpt>
      <trkpt lat="47.22184" lon="4.60861">
        <ele>425</ele>
        <time>2012-03-25T14:35:21.000Z</time>
      </trkpt>
      <trkpt lat="47.2218" lon="4.60863">
        <ele>424</ele>
        <time>2012-03-25T14:35:26.000Z</time>
      </trkpt>
      <trkpt lat="47.22175" lon="4.60866">
        <ele>424</ele>
        <time>2012-03-25T14:35:31.000Z</time>
      </trkpt>
      <trkpt lat="47.22177" lon="4.60872">
        <ele>423</ele>
        <time>2012-03-25T14:35:38.000Z</time>
      </trkpt>
      <trkpt lat="47.22174" lon="4.60878">
        <ele>423</ele>
        <time>2012-03-25T14:35:49.000Z</time>
      </trkpt>
      <trkpt lat="47.2217" lon="4.60881">
        <ele>422</ele>
        <time>2012-03-25T14:35:55.000Z</time>
      </trkpt>
      <trkpt lat="47.22165" lon="4.60883">
        <ele>421</ele>
        <time>2012-03-25T14:36:01.000Z</time>
      </trkpt>
      <trkpt lat="47.2216" lon="4.60884">
        <ele>421</ele>
        <time>2012-03-25T14:36:06.000Z</time>
      </trkpt>
      <trkpt lat="47.22155" lon="4.60885">
        <ele>420</ele>
        <time>2012-03-25T14:36:10.000Z</time>
      </trkpt>
      <trkpt lat="47.2215" lon="4.60887">
        <ele>420</ele>
        <time>2012-03-25T14:36:14.000Z</time>
      </trkpt>
      <trkpt lat="47.22146" lon="4.60889">
        <ele>420</ele>
        <time>2012-03-25T14:36:18.000Z</time>
      </trkpt>
      <trkpt lat="47.22141" lon="4.6089">
        <ele>420</ele>
        <time>2012-03-25T14:36:22.000Z</time>
      </trkpt>
      <trkpt lat="47.22137" lon="4.60892">
        <ele>419</ele>
        <time>2012-03-25T14:36:26.000Z</time>
      </trkpt>
      <trkpt lat="47.22132" lon="4.60894">
        <ele>419</ele>
        <time>2012-03-25T14:36:30.000Z</time>
      </trkpt>
      <trkpt lat="47.22127" lon="4.60896">
        <ele>419</ele>
        <time>2012-03-25T14:36:34.000Z</time>
      </trkpt>
      <trkpt lat="47.22122" lon="4.60898">
        <ele>419</ele>
        <time>2012-03-25T14:36:38.000Z</time>
      </trkpt>
      <trkpt lat="47.22117" lon="4.60901">
        <ele>419</ele>
        <time>2012-03-25T14:36:42.000Z</time>
      </trkpt>
      <trkpt lat="47.22112" lon="4.60903">
        <ele>419</ele>
        <time>2012-03-25T14:36:46.000Z</time>
      </trkpt>
      <trkpt lat="47.22108" lon="4.60906">
        <ele>419</ele>
        <time>2012-03-25T14:36:50.000Z</time>
      </trkpt>
      <trkpt lat="47.22103" lon="4.60908">
        <ele>419</ele>
        <time>2012-03-25T14:36:54.000Z</time>
      </trkpt>
      <trkpt lat="47.22098" lon="4.6091">
        <ele>419</ele>
        <time>2012-03-25T14:36:58.000Z</time>
      </trkpt>
      <trkpt lat="47.22093" lon="4.60913">
        <ele>419</ele>
        <time>2012-03-25T14:37:02.000Z</time>
      </trkpt>
      <trkpt lat="47.22089" lon="4.60916">
        <ele>419</ele>
        <time>2012-03-25T14:37:06.000Z</time>
      </trkpt>
      <trkpt lat="47.22084" lon="4.6092">
        <ele>420</ele>
        <time>2012-03-25T14:37:10.000Z</time>
      </trkpt>
      <trkpt lat="47.22079" lon="4.60924">
        <ele>420</ele>
        <time>2012-03-25T14:37:14.000Z</time>
      </trkpt>
      <trkpt lat="47.22074" lon="4.60928">
        <ele>420</ele>
        <time>2012-03-25T14:37:18.000Z</time>
      </trkpt>
      <trkpt lat="47.2207" lon="4.60931">
        <ele>420</ele>
        <time>2012-03-25T14:37:22.000Z</time>
      </trkpt>
      <trkpt lat="47.22066" lon="4.60935">
        <ele>420</ele>
        <time>2012-03-25T14:37:27.000Z</time>
      </trkpt>
      <trkpt lat="47.22062" lon="4.60938">
        <ele>421</ele>
        <time>2012-03-25T14:37:31.000Z</time>
      </trkpt>
      <trkpt lat="47.22057" lon="4.60941">
        <ele>421</ele>
        <time>2012-03-25T14:37:35.000Z</time>
      </trkpt>
      <trkpt lat="47.22053" lon="4.60944">
        <ele>421</ele>
        <time>2012-03-25T14:37:39.000Z</time>
      </trkpt>
      <trkpt lat="47.22049" lon="4.60948">
        <ele>422</ele>
        <time>2012-03-25T14:37:43.000Z</time>
      </trkpt>
      <trkpt lat="47.22045" lon="4.60953">
        <ele>422</ele>
        <time>2012-03-25T14:37:48.000Z</time>
      </trkpt>
      <trkpt lat="47.22042" lon="4.60959">
        <ele>422</ele>
        <time>2012-03-25T14:37:52.000Z</time>
      </trkpt>
      <trkpt lat="47.2204" lon="4.60965">
        <ele>422</ele>
        <time>2012-03-25T14:37:56.000Z</time>
      </trkpt>
      <trkpt lat="47.22037" lon="4.60972">
        <ele>423</ele>
        <time>2012-03-25T14:38:01.000Z</time>
      </trkpt>
      <trkpt lat="47.22034" lon="4.60979">
        <ele>423</ele>
        <time>2012-03-25T14:38:06.000Z</time>
      </trkpt>
      <trkpt lat="47.22032" lon="4.60985">
        <ele>423</ele>
        <time>2012-03-25T14:38:10.000Z</time>
      </trkpt>
      <trkpt lat="47.2203" lon="4.6099">
        <ele>424</ele>
        <time>2012-03-25T14:38:14.000Z</time>
      </trkpt>
      <trkpt lat="47.22028" lon="4.60997">
        <ele>424</ele>
        <time>2012-03-25T14:38:19.000Z</time>
      </trkpt>
      <trkpt lat="47.22026" lon="4.61003">
        <ele>424</ele>
        <time>2012-03-25T14:38:29.000Z</time>
      </trkpt>
      <trkpt lat="47.22023" lon="4.6101">
        <ele>424</ele>
        <time>2012-03-25T14:38:34.000Z</time>
      </trkpt>
      <trkpt lat="47.22022" lon="4.61018">
        <ele>425</ele>
        <time>2012-03-25T14:38:39.000Z</time>
      </trkpt>
      <trkpt lat="47.22023" lon="4.61025">
        <ele>425</ele>
        <time>2012-03-25T14:38:46.000Z</time>
      </trkpt>
      <trkpt lat="47.22024" lon="4.61032">
        <ele>424</ele>
        <time>2012-03-25T14:38:52.000Z</time>
      </trkpt>
      <trkpt lat="47.22027" lon="4.61038">
        <ele>424</ele>
        <time>2012-03-25T14:38:56.000Z</time>
      </trkpt>
      <trkpt lat="47.22028" lon="4.61045">
        <ele>423</ele>
        <time>2012-03-25T14:39:06.000Z</time>
      </trkpt>
      <trkpt lat="47.22027" lon="4.61052">
        <ele>423</ele>
        <time>2012-03-25T14:39:10.000Z</time>
      </trkpt>
      <trkpt lat="47.22026" lon="4.6106">
        <ele>422</ele>
        <time>2012-03-25T14:39:14.000Z</time>
      </trkpt>
      <trkpt lat="47.22024" lon="4.61067">
        <ele>422</ele>
        <time>2012-03-25T14:39:18.000Z</time>
      </trkpt>
      <trkpt lat="47.22023" lon="4.61075">
        <ele>422</ele>
        <time>2012-03-25T14:39:23.000Z</time>
      </trkpt>
      <trkpt lat="47.22023" lon="4.61082">
        <ele>422</ele>
        <time>2012-03-25T14:39:27.000Z</time>
      </trkpt>
      <trkpt lat="47.22023" lon="4.61089">
        <ele>422</ele>
        <time>2012-03-25T14:39:31.000Z</time>
      </trkpt>
      <trkpt lat="47.22024" lon="4.61097">
        <ele>422</ele>
        <time>2012-03-25T14:39:35.000Z</time>
      </trkpt>
      <trkpt lat="47.22025" lon="4.61104">
        <ele>421</ele>
        <time>2012-03-25T14:39:38.000Z</time>
      </trkpt>
      <trkpt lat="47.22026" lon="4.61112">
        <ele>421</ele>
        <time>2012-03-25T14:39:42.000Z</time>
      </trkpt>
      <trkpt lat="47.22026" lon="4.6112">
        <ele>421</ele>
        <time>2012-03-25T14:39:47.000Z</time>
      </trkpt>
      <trkpt lat="47.22026" lon="4.61126">
        <ele>421</ele>
        <time>2012-03-25T14:39:52.000Z</time>
      </trkpt>
      <trkpt lat="47.22027" lon="4.61134">
        <ele>421</ele>
        <time>2012-03-25T14:39:57.000Z</time>
      </trkpt>
      <trkpt lat="47.22026" lon="4.61141">
        <ele>421</ele>
        <time>2012-03-25T14:40:02.000Z</time>
      </trkpt>
      <trkpt lat="47.22024" lon="4.61147">
        <ele>421</ele>
        <time>2012-03-25T14:40:07.000Z</time>
      </trkpt>
      <trkpt lat="47.22022" lon="4.61154">
        <ele>421</ele>
        <time>2012-03-25T14:40:12.000Z</time>
      </trkpt>
      <trkpt lat="47.22021" lon="4.61161">
        <ele>421</ele>
        <time>2012-03-25T14:40:17.000Z</time>
      </trkpt>
      <trkpt lat="47.22021" lon="4.61168">
        <ele>421</ele>
        <time>2012-03-25T14:40:22.000Z</time>
      </trkpt>
      <trkpt lat="47.22016" lon="4.61172">
        <ele>422</ele>
        <time>2012-03-25T14:40:31.000Z</time>
      </trkpt>
      <trkpt lat="47.22014" lon="4.61178">
        <ele>423</ele>
        <time>2012-03-25T14:40:36.000Z</time>
      </trkpt>
      <trkpt lat="47.22014" lon="4.61186">
        <ele>424</ele>
        <time>2012-03-25T14:40:41.000Z</time>
      </trkpt>
      <trkpt lat="47.22014" lon="4.61192">
        <ele>425</ele>
        <time>2012-03-25T14:40:50.000Z</time>
      </trkpt>
      <trkpt lat="47.22016" lon="4.61199">
        <ele>425</ele>
        <time>2012-03-25T14:40:55.000Z</time>
      </trkpt>
      <trkpt lat="47.22019" lon="4.61205">
        <ele>425</ele>
        <time>2012-03-25T14:40:59.000Z</time>
      </trkpt>
      <trkpt lat="47.2202" lon="4.61212">
        <ele>424</ele>
        <time>2012-03-25T14:41:03.000Z</time>
      </trkpt>
      <trkpt lat="47.22021" lon="4.6122">
        <ele>424</ele>
        <time>2012-03-25T14:41:08.000Z</time>
      </trkpt>
      <trkpt lat="47.22021" lon="4.61229">
        <ele>424</ele>
        <time>2012-03-25T14:41:13.000Z</time>
      </trkpt>
      <trkpt lat="47.22021" lon="4.61235">
        <ele>424</ele>
        <time>2012-03-25T14:41:17.000Z</time>
      </trkpt>
      <trkpt lat="47.22021" lon="4.61243">
        <ele>424</ele>
        <time>2012-03-25T14:41:21.000Z</time>
      </trkpt>
      <trkpt lat="47.22021" lon="4.6125">
        <ele>424</ele>
        <time>2012-03-25T14:41:25.000Z</time>
      </trkpt>
      <trkpt lat="47.22022" lon="4.61257">
        <ele>423</ele>
        <time>2012-03-25T14:41:29.000Z</time>
      </trkpt>
      <trkpt lat="47.22022" lon="4.61264">
        <ele>423</ele>
        <time>2012-03-25T14:41:33.000Z</time>
      </trkpt>
      <trkpt lat="47.22022" lon="4.61271">
        <ele>423</ele>
        <time>2012-03-25T14:41:37.000Z</time>
      </trkpt>
      <trkpt lat="47.22023" lon="4.61278">
        <ele>422</ele>
        <time>2012-03-25T14:41:46.000Z</time>
      </trkpt>
      <trkpt lat="47.22024" lon="4.61285">
        <ele>421</ele>
        <time>2012-03-25T14:41:52.000Z</time>
      </trkpt>
      <trkpt lat="47.22024" lon="4.61292">
        <ele>420</ele>
        <time>2012-03-25T14:41:58.000Z</time>
      </trkpt>
      <trkpt lat="47.22024" lon="4.613">
        <ele>420</ele>
        <time>2012-03-25T14:42:04.000Z</time>
      </trkpt>
      <trkpt lat="47.22024" lon="4.61307">
        <ele>420</ele>
        <time>2012-03-25T14:42:09.000Z</time>
      </trkpt>
      <trkpt lat="47.22023" lon="4.61314">
        <ele>420</ele>
        <time>2012-03-25T14:42:13.000Z</time>
      </trkpt>
      <trkpt lat="47.22022" lon="4.61322">
        <ele>420</ele>
        <time>2012-03-25T14:42:17.000Z</time>
      </trkpt>
      <trkpt lat="47.22021" lon="4.6133">
        <ele>419</ele>
        <time>2012-03-25T14:42:21.000Z</time>
      </trkpt>
      <trkpt lat="47.22022" lon="4.61337">
        <ele>419</ele>
        <time>2012-03-25T14:42:25.000Z</time>
      </trkpt>
      <trkpt lat="47.22023" lon="4.61344">
        <ele>418</ele>
        <time>2012-03-25T14:42:28.000Z</time>
      </trkpt>
      <trkpt lat="47.22024" lon="4.61351">
        <ele>418</ele>
        <time>2012-03-25T14:42:32.000Z</time>
      </trkpt>
      <trkpt lat="47.22024" lon="4.61359">
        <ele>417</ele>
        <time>2012-03-25T14:42:38.000Z</time>
      </trkpt>
      <trkpt lat="47.22023" lon="4.61367">
        <ele>416</ele>
        <time>2012-03-25T14:42:45.000Z</time>
      </trkpt>
      <trkpt lat="47.22021" lon="4.61374">
        <ele>416</ele>
        <time>2012-03-25T14:42:52.000Z</time>
      </trkpt>
      <trkpt lat="47.22019" lon="4.61381">
        <ele>416</ele>
        <time>2012-03-25T14:42:57.000Z</time>
      </trkpt>
      <trkpt lat="47.22017" lon="4.61389">
        <ele>416</ele>
        <time>2012-03-25T14:43:02.000Z</time>
      </trkpt>
      <trkpt lat="47.22016" lon="4.61396">
        <ele>416</ele>
        <time>2012-03-25T14:43:06.000Z</time>
      </trkpt>
      <trkpt lat="47.22014" lon="4.61403">
        <ele>416</ele>
        <time>2012-03-25T14:43:10.000Z</time>
      </trkpt>
      <trkpt lat="47.22012" lon="4.6141">
        <ele>417</ele>
        <time>2012-03-25T14:43:14.000Z</time>
      </trkpt>
      <trkpt lat="47.22012" lon="4.61418">
        <ele>417</ele>
        <time>2012-03-25T14:43:19.000Z</time>
      </trkpt>
      <trkpt lat="47.22012" lon="4.61425">
        <ele>417</ele>
        <time>2012-03-25T14:43:24.000Z</time>
      </trkpt>
      <trkpt lat="47.22012" lon="4.61433">
        <ele>417</ele>
        <time>2012-03-25T14:43:29.000Z</time>
      </trkpt>
      <trkpt lat="47.22011" lon="4.6144">
        <ele>416</ele>
        <time>2012-03-25T14:43:34.000Z</time>
      </trkpt>
      <trkpt lat="47.22011" lon="4.61447">
        <ele>416</ele>
        <time>2012-03-25T14:43:39.000Z</time>
      </trkpt>
      <trkpt lat="47.2201" lon="4.61455">
        <ele>416</ele>
        <time>2012-03-25T14:43:44.000Z</time>
      </trkpt>
      <trkpt lat="47.2201" lon="4.61462">
        <ele>416</ele>
        <time>2012-03-25T14:43:49.000Z</time>
      </trkpt>
      <trkpt lat="47.2201" lon="4.6147">
        <ele>416</ele>
        <time>2012-03-25T14:43:54.000Z</time>
      </trkpt>
      <trkpt lat="47.22009" lon="4.61477">
        <ele>416</ele>
        <time>2012-03-25T14:43:58.000Z</time>
      </trkpt>
      <trkpt lat="47.22009" lon="4.61483">
        <ele>416</ele>
        <time>2012-03-25T14:44:02.000Z</time>
      </trkpt>
      <trkpt lat="47.22008" lon="4.6149">
        <ele>416</ele>
        <time>2012-03-25T14:44:06.000Z</time>
      </trkpt>
      <trkpt lat="47.22008" lon="4.61497">
        <ele>416</ele>
        <time>2012-03-25T14:44:10.000Z</time>
      </trkpt>
      <trkpt lat="47.2201" lon="4.61503">
        <ele>416</ele>
        <time>2012-03-25T14:44:25.000Z</time>
      </trkpt>
      <trkpt lat="47.22014" lon="4.61504">
        <ele>416</ele>
        <time>2012-03-25T14:44:46.000Z</time>
      </trkpt>
      <trkpt lat="47.22016" lon="4.6151">
        <ele>415</ele>
        <time>2012-03-25T14:44:59.000Z</time>
      </trkpt>
      <trkpt lat="47.22015" lon="4.61518">
        <ele>415</ele>
        <time>2012-03-25T14:45:04.000Z</time>
      </trkpt>
      <trkpt lat="47.22012" lon="4.61524">
        <ele>414</ele>
        <time>2012-03-25T14:45:09.000Z</time>
      </trkpt>
      <trkpt lat="47.22008" lon="4.61523">
        <ele>414</ele>
        <time>2012-03-25T14:45:16.000Z</time>
      </trkpt>
      <trkpt lat="47.22003" lon="4.61522">
        <ele>413</ele>
        <time>2012-03-25T14:45:23.000Z</time>
      </trkpt>
      <trkpt lat="47.21998" lon="4.61523">
        <ele>413</ele>
        <time>2012-03-25T14:45:29.000Z</time>
      </trkpt>
      <trkpt lat="47.21993" lon="4.61525">
        <ele>413</ele>
        <time>2012-03-25T14:45:40.000Z</time>
      </trkpt>
      <trkpt lat="47.2199" lon="4.6153">
        <ele>412</ele>
        <time>2012-03-25T14:45:45.000Z</time>
      </trkpt>
      <trkpt lat="47.21988" lon="4.61537">
        <ele>412</ele>
        <time>2012-03-25T14:45:50.000Z</time>
      </trkpt>
      <trkpt lat="47.21986" lon="4.61545">
        <ele>412</ele>
        <time>2012-03-25T14:45:55.000Z</time>
      </trkpt>
      <trkpt lat="47.21985" lon="4.61552">
        <ele>412</ele>
        <time>2012-03-25T14:46:00.000Z</time>
      </trkpt>
      <trkpt lat="47.21985" lon="4.61559">
        <ele>411</ele>
        <time>2012-03-25T14:46:09.000Z</time>
      </trkpt>
      <trkpt lat="47.21985" lon="4.61567">
        <ele>411</ele>
        <time>2012-03-25T14:46:14.000Z</time>
      </trkpt>
      <trkpt lat="47.21983" lon="4.61574">
        <ele>411</ele>
        <time>2012-03-25T14:46:19.000Z</time>
      </trkpt>
      <trkpt lat="47.21979" lon="4.61578">
        <ele>411</ele>
        <time>2012-03-25T14:46:24.000Z</time>
      </trkpt>
      <trkpt lat="47.21974" lon="4.61578">
        <ele>411</ele>
        <time>2012-03-25T14:46:29.000Z</time>
      </trkpt>
      <trkpt lat="47.21969" lon="4.61576">
        <ele>410</ele>
        <time>2012-03-25T14:46:33.000Z</time>
      </trkpt>
      <trkpt lat="47.21964" lon="4.61574">
        <ele>410</ele>
        <time>2012-03-25T14:46:37.000Z</time>
      </trkpt>
      <trkpt lat="47.21958" lon="4.61573">
        <ele>410</ele>
        <time>2012-03-25T14:46:41.000Z</time>
      </trkpt>
      <trkpt lat="47.21953" lon="4.61572">
        <ele>409</ele>
        <time>2012-03-25T14:46:46.000Z</time>
      </trkpt>
      <trkpt lat="47.21956" lon="4.61566">
        <ele>409</ele>
        <time>2012-03-25T14:46:57.000Z</time>
      </trkpt>
      <trkpt lat="47.21961" lon="4.61564">
        <ele>408</ele>
        <time>2012-03-25T14:47:01.000Z</time>
      </trkpt>
      <trkpt lat="47.21965" lon="4.6156">
        <ele>408</ele>
        <time>2012-03-25T14:47:06.000Z</time>
      </trkpt>
    </trkseg>
  </trk>
</gpx>